<?xml version='1.0' encoding='UTF-8'?><gpx version="1.1" creator="JPX - https://github.com/jenetics/jpx" xmlns="http://www.topografix.com/GPX/1/1"><trk><trkseg><trkpt lat="44.03886613320224" lon="11.999074108671245"><ele>119.0</ele><time>2026-05-03T07:18:15.002Z</time></trkpt><trkpt lat="44.03895602472709" lon="11.999010717580841"><ele>119.0</ele><time>2026-05-03T07:18:27Z</time></trkpt><trkpt lat="44.03901245279506" lon="11.998891525408855"><ele>119.0</ele><time>2026-05-03T07:18:29Z</time></trkpt><trkpt lat="44.03905292922197" lon="11.998783572872844"><ele>119.0</ele><time>2026-05-03T07:18:31Z</time></trkpt><trkpt lat="44.03913105858532" lon="11.998654513774287"><ele>119.0</ele><time>2026-05-03T07:18:33Z</time></trkpt><trkpt lat="44.03919381595548" lon="11.998530479243243"><ele>119.16666666666666</ele><time>2026-05-03T07:18:35Z</time></trkpt><trkpt lat="44.03923335899911" lon="11.998458003297701"><ele>119.33333333333333</ele><time>2026-05-03T07:18:36Z</time></trkpt><trkpt lat="44.03927100389846" lon="11.9983867431223"><ele>119.5</ele><time>2026-05-03T07:18:37Z</time></trkpt><trkpt lat="44.03935125089779" lon="11.998261367532505"><ele>119.66666666666666</ele><time>2026-05-03T07:18:38.999Z</time></trkpt><trkpt lat="44.03941868397458" lon="11.998157996619943"><ele>119.83333333333333</ele><time>2026-05-03T07:18:40.999Z</time></trkpt><trkpt lat="44.03946358861591" lon="11.998077558103347"><ele>120.0</ele><time>2026-05-03T07:18:42.999Z</time></trkpt><trkpt lat="44.03951298012225" lon="11.998007037668712"><ele>120.2</ele><time>2026-05-03T07:18:45.999Z</time></trkpt><trkpt lat="44.03957630079709" lon="11.997968231389857"><ele>120.4</ele><time>2026-05-03T07:19:00.999Z</time></trkpt><trkpt lat="44.039635647624245" lon="11.997852927816982"><ele>120.6</ele><time>2026-05-03T07:19:02.999Z</time></trkpt><trkpt lat="44.03968057996157" lon="11.997720070073784"><ele>120.8</ele><time>2026-05-03T07:19:03.999Z</time></trkpt><trkpt lat="44.03974000965014" lon="11.997580900427403"><ele>121.0</ele><time>2026-05-03T07:19:04.999Z</time></trkpt><trkpt lat="44.03981567246243" lon="11.997423843211507"><ele>121.0</ele><time>2026-05-03T07:19:05.999Z</time></trkpt><trkpt lat="44.03989558029383" lon="11.997272147482343"><ele>121.0</ele><time>2026-05-03T07:19:06.999Z</time></trkpt><trkpt lat="44.03997567480495" lon="11.997114256109034"><ele>121.0</ele><time>2026-05-03T07:19:07.999Z</time></trkpt><trkpt lat="44.040057572488344" lon="11.996950748403842"><ele>121.0</ele><time>2026-05-03T07:19:08.999Z</time></trkpt><trkpt lat="44.04014420592792" lon="11.996775792394303"><ele>122.0</ele><time>2026-05-03T07:19:09.999Z</time></trkpt><trkpt lat="44.04022583830392" lon="11.996606149696314"><ele>123.0</ele><time>2026-05-03T07:19:10.999Z</time></trkpt><trkpt lat="44.04029516803745" lon="11.99642381982855"><ele>124.0</ele><time>2026-05-03T07:19:11.999Z</time></trkpt><trkpt lat="44.040370541117575" lon="11.996255046257073"><ele>125.0</ele><time>2026-05-03T07:19:12.999Z</time></trkpt><trkpt lat="44.040444681037734" lon="11.996086033623573"><ele>125.0</ele><time>2026-05-03T07:19:13.999Z</time></trkpt><trkpt lat="44.04051052454035" lon="11.99590567621855"><ele>125.0</ele><time>2026-05-03T07:19:14.999Z</time></trkpt><trkpt lat="44.040556600223574" lon="11.995716310419418"><ele>125.0</ele><time>2026-05-03T07:19:15.999Z</time></trkpt><trkpt lat="44.04058335134933" lon="11.995535950125833"><ele>125.0</ele><time>2026-05-03T07:19:16.999Z</time></trkpt><trkpt lat="44.04060461785753" lon="11.995343262941503"><ele>125.25</ele><time>2026-05-03T07:19:17.999Z</time></trkpt><trkpt lat="44.04062982548551" lon="11.99515818794425"><ele>125.5</ele><time>2026-05-03T07:19:18.999Z</time></trkpt><trkpt lat="44.04065103841267" lon="11.9949707332353"><ele>125.75</ele><time>2026-05-03T07:19:19.999Z</time></trkpt><trkpt lat="44.040679326381415" lon="11.994785592899845"><ele>126.0</ele><time>2026-05-03T07:19:20.999Z</time></trkpt><trkpt lat="44.04069242885215" lon="11.99460345446287"><ele>126.0</ele><time>2026-05-03T07:19:21.999Z</time></trkpt><trkpt lat="44.04069437055619" lon="11.994426074326702"><ele>126.0</ele><time>2026-05-03T07:19:22.999Z</time></trkpt><trkpt lat="44.04068449417036" lon="11.994244261717478"><ele>126.0</ele><time>2026-05-03T07:19:23.998Z</time></trkpt><trkpt lat="44.04061691376808" lon="11.994112428411757"><ele>126.0</ele><time>2026-05-03T07:19:24.998Z</time></trkpt><trkpt lat="44.04055412662349" lon="11.993988647739762"><ele>126.19999999999999</ele><time>2026-05-03T07:19:25.998Z</time></trkpt><trkpt lat="44.04050394515267" lon="11.9938752949517"><ele>126.39999999999999</ele><time>2026-05-03T07:19:26.998Z</time></trkpt><trkpt lat="44.04040029976109" lon="11.993822361528652"><ele>126.6</ele><time>2026-05-03T07:19:27.998Z</time></trkpt><trkpt lat="44.040292023793526" lon="11.99376060922681"><ele>126.8</ele><time>2026-05-03T07:19:28.998Z</time></trkpt><trkpt lat="44.04017564364795" lon="11.993767786423732"><ele>127.0</ele><time>2026-05-03T07:19:29.998Z</time></trkpt><trkpt lat="44.040043106107866" lon="11.993774476188616"><ele>126.25</ele><time>2026-05-03T07:19:30.998Z</time></trkpt><trkpt lat="44.03990226546361" lon="11.993767588606913"><ele>125.5</ele><time>2026-05-03T07:19:31.998Z</time></trkpt><trkpt lat="44.039760046105116" lon="11.993747615392788"><ele>124.75</ele><time>2026-05-03T07:19:32.998Z</time></trkpt><trkpt lat="44.03962618925124" lon="11.993716935530248"><ele>124.0</ele><time>2026-05-03T07:19:33.998Z</time></trkpt><trkpt lat="44.03949526332154" lon="11.993668652371934"><ele>124.0</ele><time>2026-05-03T07:19:34.998Z</time></trkpt><trkpt lat="44.03937115391716" lon="11.993619558778155"><ele>124.0</ele><time>2026-05-03T07:19:35.998Z</time></trkpt><trkpt lat="44.03924856782595" lon="11.993565676662064"><ele>124.0</ele><time>2026-05-03T07:19:36.998Z</time></trkpt><trkpt lat="44.03912753483201" lon="11.993513608427154"><ele>124.0</ele><time>2026-05-03T07:19:37.998Z</time></trkpt><trkpt lat="44.03901293831583" lon="11.993460691592498"><ele>123.80000000000001</ele><time>2026-05-03T07:19:38.998Z</time></trkpt><trkpt lat="44.03891372577761" lon="11.99342003519454"><ele>123.60000000000001</ele><time>2026-05-03T07:19:39.998Z</time></trkpt><trkpt lat="44.038815474713104" lon="11.993381136434023"><ele>123.4</ele><time>2026-05-03T07:19:40.998Z</time></trkpt><trkpt lat="44.03871874683533" lon="11.993333341011407"><ele>123.2</ele><time>2026-05-03T07:19:41.998Z</time></trkpt><trkpt lat="44.03862097863588" lon="11.99328853331129"><ele>123.0</ele><time>2026-05-03T07:19:42.998Z</time></trkpt><trkpt lat="44.03852304492629" lon="11.993231748921016"><ele>123.0</ele><time>2026-05-03T07:19:43.998Z</time></trkpt><trkpt lat="44.038423626834685" lon="11.993186730429013"><ele>123.00000000000001</ele><time>2026-05-03T07:19:44.998Z</time></trkpt><trkpt lat="44.03833625239724" lon="11.993127023640959"><ele>123.00000000000001</ele><time>2026-05-03T07:19:45.998Z</time></trkpt><trkpt lat="44.038259009933974" lon="11.993051273726513"><ele>123.0</ele><time>2026-05-03T07:19:46.998Z</time></trkpt><trkpt lat="44.038173857832206" lon="11.992989722561928"><ele>123.0</ele><time>2026-05-03T07:19:47.998Z</time></trkpt><trkpt lat="44.038085724256824" lon="11.992908881614836"><ele>123.80000000000001</ele><time>2026-05-03T07:19:48.998Z</time></trkpt><trkpt lat="44.038009510220576" lon="11.992805413808492"><ele>124.60000000000001</ele><time>2026-05-03T07:19:49.998Z</time></trkpt><trkpt lat="44.03792416134638" lon="11.992719285089443"><ele>125.39999999999999</ele><time>2026-05-03T07:19:50.999Z</time></trkpt><trkpt lat="44.03784263455624" lon="11.99263701355834"><ele>126.19999999999999</ele><time>2026-05-03T07:19:51.999Z</time></trkpt><trkpt lat="44.0377553354529" lon="11.99254891673116"><ele>127.0</ele><time>2026-05-03T07:19:52.999Z</time></trkpt><trkpt lat="44.03767265660778" lon="11.992465395471472"><ele>127.00000000000001</ele><time>2026-05-03T07:19:53.999Z</time></trkpt><trkpt lat="44.03759455246745" lon="11.992381414443427"><ele>127.0</ele><time>2026-05-03T07:19:54.999Z</time></trkpt><trkpt lat="44.037520045840175" lon="11.992295555411186"><ele>127.0</ele><time>2026-05-03T07:19:55.999Z</time></trkpt><trkpt lat="44.03746644056311" lon="11.992215720054542"><ele>127.0</ele><time>2026-05-03T07:19:56.999Z</time></trkpt><trkpt lat="44.037438443923584" lon="11.992128976289766"><ele>127.00000000000001</ele><time>2026-05-03T07:19:57.999Z</time></trkpt><trkpt lat="44.03742897419903" lon="11.992027769069031"><ele>127.0</ele><time>2026-05-03T07:19:58.999Z</time></trkpt><trkpt lat="44.03748405103215" lon="11.991945002495996"><ele>127.0</ele><time>2026-05-03T07:19:59.999Z</time></trkpt><trkpt lat="44.037567778653994" lon="11.991873088750557"><ele>126.99999999999999</ele><time>2026-05-03T07:20:00.999Z</time></trkpt><trkpt lat="44.037635874743984" lon="11.99177547184521"><ele>126.99999999999999</ele><time>2026-05-03T07:20:01.999Z</time></trkpt><trkpt lat="44.03764325384299" lon="11.991643981860106"><ele>127.0</ele><time>2026-05-03T07:20:02.999Z</time></trkpt><trkpt lat="44.0376616449003" lon="11.991492414571516"><ele>127.0</ele><time>2026-05-03T07:20:04.999Z</time></trkpt><trkpt lat="44.03760856833268" lon="11.99133854910499"><ele>127.0</ele><time>2026-05-03T07:20:06.999Z</time></trkpt><trkpt lat="44.037502990119805" lon="11.991259175445578"><ele>126.99999999999999</ele><time>2026-05-03T07:20:08.999Z</time></trkpt><trkpt lat="44.03743432565598" lon="11.99117501099277"><ele>126.99999999999999</ele><time>2026-05-03T07:20:10.999Z</time></trkpt><trkpt lat="44.03736995480196" lon="11.991110618126834"><ele>127.0</ele><time>2026-05-03T07:20:12.999Z</time></trkpt><trkpt lat="44.03729422863376" lon="11.991032385054698"><ele>127.0</ele><time>2026-05-03T07:20:14.999Z</time></trkpt><trkpt lat="44.037199772480136" lon="11.990941971620744"><ele>127.19999999999999</ele><time>2026-05-03T07:20:16.999Z</time></trkpt><trkpt lat="44.03717462475368" lon="11.99076472593018"><ele>127.39999999999999</ele><time>2026-05-03T07:20:18.999Z</time></trkpt><trkpt lat="44.03712412521589" lon="11.990671403090422"><ele>127.60000000000001</ele><time>2026-05-03T07:20:20.999Z</time></trkpt><trkpt lat="44.03709409366919" lon="11.990514251273716"><ele>127.80000000000001</ele><time>2026-05-03T07:20:22.999Z</time></trkpt><trkpt lat="44.037052420769996" lon="11.990428062766494"><ele>128.0</ele><time>2026-05-03T07:20:23.999Z</time></trkpt><trkpt lat="44.03701464854756" lon="11.99035195400779"><ele>128.0</ele><time>2026-05-03T07:20:24.999Z</time></trkpt><trkpt lat="44.036962577267694" lon="11.990278080681442"><ele>127.99999999999999</ele><time>2026-05-03T07:20:25.999Z</time></trkpt><trkpt lat="44.0369314211651" lon="11.990196914150019"><ele>128.0</ele><time>2026-05-03T07:20:26.999Z</time></trkpt><trkpt lat="44.03688340121753" lon="11.990122748288103"><ele>128.0</ele><time>2026-05-03T07:20:27.999Z</time></trkpt><trkpt lat="44.03684359654341" lon="11.99004259816623"><ele>127.99999999999999</ele><time>2026-05-03T07:20:28.999Z</time></trkpt><trkpt lat="44.03679964796913" lon="11.989944673003723"><ele>128.0</ele><time>2026-05-03T07:20:29.999Z</time></trkpt><trkpt lat="44.036755591172266" lon="11.989858641661367"><ele>128.0</ele><time>2026-05-03T07:20:30.999Z</time></trkpt><trkpt lat="44.03670839916005" lon="11.98976779542443"><ele>128.14285714285714</ele><time>2026-05-03T07:20:31.999Z</time></trkpt><trkpt lat="44.03666254919683" lon="11.98968216655136"><ele>128.28571428571428</ele><time>2026-05-03T07:20:32.999Z</time></trkpt><trkpt lat="44.03661411332575" lon="11.989597965612244"><ele>128.42857142857142</ele><time>2026-05-03T07:20:33.999Z</time></trkpt><trkpt lat="44.03655758883906" lon="11.989517357939256"><ele>128.57142857142856</ele><time>2026-05-03T07:20:34.999Z</time></trkpt><trkpt lat="44.036517976317505" lon="11.989443663920454"><ele>128.71428571428572</ele><time>2026-05-03T07:20:35.999Z</time></trkpt><trkpt lat="44.036466089639276" lon="11.989387370062168"><ele>128.85714285714283</ele><time>2026-05-03T07:20:37.999Z</time></trkpt><trkpt lat="44.03641155048742" lon="11.989331433344564"><ele>129.0</ele><time>2026-05-03T07:20:52.999Z</time></trkpt><trkpt lat="44.036349236992756" lon="11.989311067543003"><ele>129.0</ele><time>2026-05-03T07:20:53.999Z</time></trkpt><trkpt lat="44.03631132034217" lon="11.989214744968603"><ele>129.0</ele><time>2026-05-03T07:20:57.999Z</time></trkpt><trkpt lat="44.03628483353124" lon="11.989059141003645"><ele>129.0</ele><time>2026-05-03T07:20:59.999Z</time></trkpt><trkpt lat="44.036265292755196" lon="11.988920381346936"><ele>129.0</ele><time>2026-05-03T07:21:01.999Z</time></trkpt><trkpt lat="44.03624673010032" lon="11.988829562916175"><ele>129.0</ele><time>2026-05-03T07:21:02.999Z</time></trkpt><trkpt lat="44.03622699211076" lon="11.988732994457393"><ele>129.0</ele><time>2026-05-03T07:21:03.999Z</time></trkpt><trkpt lat="44.03620725813969" lon="11.988634753530498"><ele>129.2</ele><time>2026-05-03T07:21:04.999Z</time></trkpt><trkpt lat="44.03618722713307" lon="11.988521938933483"><ele>129.4</ele><time>2026-05-03T07:21:05.999Z</time></trkpt><trkpt lat="44.03616756020306" lon="11.98840028857908"><ele>129.6</ele><time>2026-05-03T07:21:06.999Z</time></trkpt><trkpt lat="44.036147986542865" lon="11.98827763250019"><ele>129.8</ele><time>2026-05-03T07:21:07.999Z</time></trkpt><trkpt lat="44.03612757744843" lon="11.988152965572096"><ele>130.0</ele><time>2026-05-03T07:21:08.999Z</time></trkpt><trkpt lat="44.03610210381802" lon="11.988019603900495"><ele>131.16666666666669</ele><time>2026-05-03T07:21:09.999Z</time></trkpt><trkpt lat="44.03607380375195" lon="11.987888877128901"><ele>132.33333333333334</ele><time>2026-05-03T07:21:10.999Z</time></trkpt><trkpt lat="44.03605202278874" lon="11.987764614305252"><ele>133.5</ele><time>2026-05-03T07:21:11.999Z</time></trkpt><trkpt lat="44.0360422681655" lon="11.98763966464586"><ele>134.66666666666666</ele><time>2026-05-03T07:21:12.999Z</time></trkpt><trkpt lat="44.03603586500001" lon="11.987539634763534"><ele>135.83333333333331</ele><time>2026-05-03T07:21:13.999Z</time></trkpt><trkpt lat="44.03602840418151" lon="11.987434126300665"><ele>137.0</ele><time>2026-05-03T07:21:14.999Z</time></trkpt><trkpt lat="44.03601771898357" lon="11.987346701206755"><ele>136.33333333333331</ele><time>2026-05-03T07:21:15.999Z</time></trkpt><trkpt lat="44.035995970427294" lon="11.98724862422417"><ele>135.66666666666666</ele><time>2026-05-03T07:21:16.999Z</time></trkpt><trkpt lat="44.035942631739346" lon="11.987146625268174"><ele>135.0</ele><time>2026-05-03T07:21:18.999Z</time></trkpt><trkpt lat="44.035896922860324" lon="11.987080710803996"><ele>134.33333333333334</ele><time>2026-05-03T07:21:19.999Z</time></trkpt><trkpt lat="44.03584584004516" lon="11.986968215100987"><ele>133.66666666666669</ele><time>2026-05-03T07:21:20.999Z</time></trkpt><trkpt lat="44.03580857991714" lon="11.986834968712207"><ele>133.0</ele><time>2026-05-03T07:21:21.999Z</time></trkpt><trkpt lat="44.03577882477365" lon="11.986710939063231"><ele>133.6</ele><time>2026-05-03T07:21:22.999Z</time></trkpt><trkpt lat="44.03574206663546" lon="11.986577243228082"><ele>134.20000000000002</ele><time>2026-05-03T07:21:23.999Z</time></trkpt><trkpt lat="44.035704375510555" lon="11.986440312751354"><ele>134.8</ele><time>2026-05-03T07:21:24.999Z</time></trkpt><trkpt lat="44.03566190782115" lon="11.98628350024328"><ele>135.4</ele><time>2026-05-03T07:21:25.999Z</time></trkpt><trkpt lat="44.035623599146184" lon="11.986132132230995"><ele>136.0</ele><time>2026-05-03T07:21:26.999Z</time></trkpt><trkpt lat="44.035580559549764" lon="11.986000062926548"><ele>136.0</ele><time>2026-05-03T07:21:27.999Z</time></trkpt><trkpt lat="44.03551520953563" lon="11.985897978436947"><ele>136.0</ele><time>2026-05-03T07:21:28.999Z</time></trkpt><trkpt lat="44.03546033747253" lon="11.985761924750687"><ele>136.0</ele><time>2026-05-03T07:21:29.999Z</time></trkpt><trkpt lat="44.03543588857566" lon="11.985623604868382"><ele>136.0</ele><time>2026-05-03T07:21:30.999Z</time></trkpt><trkpt lat="44.03546320951945" lon="11.985471666236448"><ele>136.0</ele><time>2026-05-03T07:21:31.999Z</time></trkpt><trkpt lat="44.0354771778902" lon="11.985318784672533"><ele>137.5</ele><time>2026-05-03T07:21:32.999Z</time></trkpt><trkpt lat="44.0354556590511" lon="11.985163417205113"><ele>139.0</ele><time>2026-05-03T07:21:33.999Z</time></trkpt><trkpt lat="44.0354303941623" lon="11.985009780101466"><ele>140.5</ele><time>2026-05-03T07:21:34.999Z</time></trkpt><trkpt lat="44.03542364160447" lon="11.984839347573864"><ele>142.0</ele><time>2026-05-03T07:21:35.999Z</time></trkpt><trkpt lat="44.035425473855234" lon="11.98468198942518"><ele>143.6</ele><time>2026-05-03T07:21:36.999Z</time></trkpt><trkpt lat="44.03542048250094" lon="11.984522291389297"><ele>145.2</ele><time>2026-05-03T07:21:37.999Z</time></trkpt><trkpt lat="44.03540081070055" lon="11.984387409873609"><ele>146.8</ele><time>2026-05-03T07:21:38.999Z</time></trkpt><trkpt lat="44.03538979748879" lon="11.984244840564113"><ele>148.4</ele><time>2026-05-03T07:21:39.999Z</time></trkpt><trkpt lat="44.035387961624096" lon="11.98411104663098"><ele>150.0</ele><time>2026-05-03T07:21:40.999Z</time></trkpt><trkpt lat="44.03540434131758" lon="11.98397846070774"><ele>151.33333333333334</ele><time>2026-05-03T07:21:41.999Z</time></trkpt><trkpt lat="44.03543708828844" lon="11.983861266074479"><ele>152.66666666666666</ele><time>2026-05-03T07:21:42.999Z</time></trkpt><trkpt lat="44.0354790920338" lon="11.983762886606522"><ele>154.0</ele><time>2026-05-03T07:21:43.999Z</time></trkpt><trkpt lat="44.035545452283976" lon="11.983663643265022"><ele>155.33333333333331</ele><time>2026-05-03T07:21:45.999Z</time></trkpt><trkpt lat="44.03561632556524" lon="11.983570541425152"><ele>156.66666666666666</ele><time>2026-05-03T07:21:47.999Z</time></trkpt><trkpt lat="44.0356789283419" lon="11.98356063641084"><ele>158.0</ele><time>2026-05-03T07:21:48.999Z</time></trkpt><trkpt lat="44.03574212149887" lon="11.983521722904719"><ele>164.2</ele><time>2026-05-03T07:21:49.999Z</time></trkpt><trkpt lat="44.03582220904424" lon="11.983470762628233"><ele>170.4</ele><time>2026-05-03T07:21:50.999Z</time></trkpt><trkpt lat="44.035904514297144" lon="11.98342119391166"><ele>176.6</ele><time>2026-05-03T07:21:51.999Z</time></trkpt><trkpt lat="44.035996151706144" lon="11.983365923006524"><ele>182.79999999999998</ele><time>2026-05-03T07:21:52.999Z</time></trkpt><trkpt lat="44.036083563851584" lon="11.983313200553198"><ele>189.0</ele><time>2026-05-03T07:21:53.999Z</time></trkpt><trkpt lat="44.036176045258145" lon="11.983257432098164"><ele>189.0</ele><time>2026-05-03T07:21:54.999Z</time></trkpt><trkpt lat="44.0362721872853" lon="11.983183866347764"><ele>189.0</ele><time>2026-05-03T07:21:55.999Z</time></trkpt><trkpt lat="44.03636833276216" lon="11.983089295015121"><ele>189.0</ele><time>2026-05-03T07:21:56.999Z</time></trkpt><trkpt lat="44.036463758972396" lon="11.982954567888163"><ele>189.0</ele><time>2026-05-03T07:21:57.999Z</time></trkpt><trkpt lat="44.03656391665317" lon="11.982832816536408"><ele>190.5</ele><time>2026-05-03T07:21:58.999Z</time></trkpt><trkpt lat="44.03666193292383" lon="11.982718111420908"><ele>192.0</ele><time>2026-05-03T07:21:59.999Z</time></trkpt><trkpt lat="44.036752470051844" lon="11.98260087792814"><ele>193.5</ele><time>2026-05-03T07:22:00.999Z</time></trkpt><trkpt lat="44.03682585394093" lon="11.982482036304265"><ele>195.0</ele><time>2026-05-03T07:22:01.999Z</time></trkpt><trkpt lat="44.03690200263291" lon="11.982384211980577"><ele>195.0</ele><time>2026-05-03T07:22:02.999Z</time></trkpt><trkpt lat="44.03701297926913" lon="11.982294956966955"><ele>195.0</ele><time>2026-05-03T07:22:04Z</time></trkpt><trkpt lat="44.037097108174834" lon="11.982167585627062"><ele>195.0</ele><time>2026-05-03T07:22:05Z</time></trkpt><trkpt lat="44.037187293134174" lon="11.982064674006676"><ele>195.0</ele><time>2026-05-03T07:22:06Z</time></trkpt><trkpt lat="44.03725617654946" lon="11.981921807002616"><ele>195.0</ele><time>2026-05-03T07:22:07Z</time></trkpt><trkpt lat="44.037333292199136" lon="11.981784359163306"><ele>195.0</ele><time>2026-05-03T07:22:08Z</time></trkpt><trkpt lat="44.03739723776761" lon="11.981650852568796"><ele>195.0</ele><time>2026-05-03T07:22:09Z</time></trkpt><trkpt lat="44.0374784499599" lon="11.981573970712379"><ele>195.0</ele><time>2026-05-03T07:22:10Z</time></trkpt><trkpt lat="44.03754767381431" lon="11.981554766455334"><ele>195.0</ele><time>2026-05-03T07:22:11Z</time></trkpt><trkpt lat="44.037654328572" lon="11.98147603766671"><ele>197.0</ele><time>2026-05-03T07:22:12Z</time></trkpt><trkpt lat="44.03772705215392" lon="11.981338968353754"><ele>199.0</ele><time>2026-05-03T07:22:14Z</time></trkpt><trkpt lat="44.03767733645078" lon="11.981222635481146"><ele>201.0</ele><time>2026-05-03T07:22:15Z</time></trkpt><trkpt lat="44.03758007070326" lon="11.981178968479043"><ele>203.0</ele><time>2026-05-03T07:22:17Z</time></trkpt><trkpt lat="44.03743916710309" lon="11.981174694440258"><ele>203.50000000000003</ele><time>2026-05-03T07:22:19Z</time></trkpt><trkpt lat="44.037367943139266" lon="11.981168340826226"><ele>204.0</ele><time>2026-05-03T07:22:20Z</time></trkpt><trkpt lat="44.037278447756876" lon="11.981204681850649"><ele>204.5</ele><time>2026-05-03T07:22:21Z</time></trkpt><trkpt lat="44.037196104205414" lon="11.981238027131267"><ele>205.0</ele><time>2026-05-03T07:22:22Z</time></trkpt><trkpt lat="44.03710196106826" lon="11.981275306054169"><ele>205.50000000000003</ele><time>2026-05-03T07:22:23Z</time></trkpt><trkpt lat="44.037006603814234" lon="11.981310096010404"><ele>206.0</ele><time>2026-05-03T07:22:24Z</time></trkpt><trkpt lat="44.03693998130072" lon="11.981298840793762"><ele>206.0</ele><time>2026-05-03T07:22:25Z</time></trkpt><trkpt lat="44.03685128700398" lon="11.981225599657664"><ele>206.0</ele><time>2026-05-03T07:22:27Z</time></trkpt><trkpt lat="44.03677771298761" lon="11.981246592141956"><ele>206.0</ele><time>2026-05-03T07:22:29Z</time></trkpt><trkpt lat="44.03671375038322" lon="11.981345973637263"><ele>206.0</ele><time>2026-05-03T07:22:32Z</time></trkpt><trkpt lat="44.03663285278242" lon="11.981471844031484"><ele>206.0</ele><time>2026-05-03T07:22:34Z</time></trkpt><trkpt lat="44.03657542619201" lon="11.981511325502105"><ele>205.00000000000003</ele><time>2026-05-03T07:22:34.999Z</time></trkpt><trkpt lat="44.03651296565731" lon="11.981551533643012"><ele>204.0</ele><time>2026-05-03T07:22:35.999Z</time></trkpt><trkpt lat="44.03643115805202" lon="11.981586204581385"><ele>203.0</ele><time>2026-05-03T07:22:36.999Z</time></trkpt><trkpt lat="44.03635887717697" lon="11.981598140018006"><ele>202.0</ele><time>2026-05-03T07:22:37.999Z</time></trkpt><trkpt lat="44.03627934793078" lon="11.981625018434672"><ele>201.00000000000003</ele><time>2026-05-03T07:22:38.999Z</time></trkpt><trkpt lat="44.03620228087951" lon="11.981671391483692"><ele>200.0</ele><time>2026-05-03T07:22:39.999Z</time></trkpt><trkpt lat="44.03612852778695" lon="11.981799540763038"><ele>200.0</ele><time>2026-05-03T07:22:40.999Z</time></trkpt><trkpt lat="44.03606469705483" lon="11.981925086229328"><ele>200.0</ele><time>2026-05-03T07:22:41.999Z</time></trkpt><trkpt lat="44.03598909086314" lon="11.982020069532071"><ele>200.0</ele><time>2026-05-03T07:22:42.999Z</time></trkpt><trkpt lat="44.035889259432054" lon="11.982096165325121"><ele>200.0</ele><time>2026-05-03T07:22:43.999Z</time></trkpt><trkpt lat="44.03577901948441" lon="11.98215684479877"><ele>200.0</ele><time>2026-05-03T07:22:44.999Z</time></trkpt><trkpt lat="44.035662071042886" lon="11.982215734526537"><ele>200.8</ele><time>2026-05-03T07:22:45.999Z</time></trkpt><trkpt lat="44.03556157110202" lon="11.982293683242471"><ele>201.6</ele><time>2026-05-03T07:22:46.999Z</time></trkpt><trkpt lat="44.03547225033079" lon="11.982362648752996"><ele>202.39999999999998</ele><time>2026-05-03T07:22:47.999Z</time></trkpt><trkpt lat="44.0353789057278" lon="11.98240891188036"><ele>203.2</ele><time>2026-05-03T07:22:48.999Z</time></trkpt><trkpt lat="44.035279953501835" lon="11.982409840598592"><ele>204.0</ele><time>2026-05-03T07:22:49.999Z</time></trkpt><trkpt lat="44.03518788068757" lon="11.982437932875854"><ele>204.0</ele><time>2026-05-03T07:22:50.999Z</time></trkpt><trkpt lat="44.0350689300314" lon="11.982430468449365"><ele>204.0</ele><time>2026-05-03T07:22:51.999Z</time></trkpt><trkpt lat="44.03495387034005" lon="11.982372834247784"><ele>204.0</ele><time>2026-05-03T07:22:52.999Z</time></trkpt><trkpt lat="44.03486320964419" lon="11.982294572074023"><ele>204.0</ele><time>2026-05-03T07:22:53.999Z</time></trkpt><trkpt lat="44.034762601038466" lon="11.982221182150473"><ele>203.6</ele><time>2026-05-03T07:22:54.999Z</time></trkpt><trkpt lat="44.03468983273719" lon="11.982122403863148"><ele>203.2</ele><time>2026-05-03T07:22:55.999Z</time></trkpt><trkpt lat="44.03461242993631" lon="11.982000744860647"><ele>202.79999999999998</ele><time>2026-05-03T07:22:56.999Z</time></trkpt><trkpt lat="44.03455477098022" lon="11.981882066830764"><ele>202.39999999999998</ele><time>2026-05-03T07:22:57.999Z</time></trkpt><trkpt lat="44.03451082371513" lon="11.981769393212446"><ele>202.0</ele><time>2026-05-03T07:22:58.999Z</time></trkpt><trkpt lat="44.03446164112473" lon="11.981657037701886"><ele>202.0</ele><time>2026-05-03T07:22:59.999Z</time></trkpt><trkpt lat="44.034395327681814" lon="11.98154296036641"><ele>202.0</ele><time>2026-05-03T07:23:00.999Z</time></trkpt><trkpt lat="44.034330798944595" lon="11.981423781636451"><ele>202.0</ele><time>2026-05-03T07:23:01.999Z</time></trkpt><trkpt lat="44.03427654604637" lon="11.981313778176128"><ele>202.0</ele><time>2026-05-03T07:23:02.999Z</time></trkpt><trkpt lat="44.03421531870548" lon="11.98119766671039"><ele>202.0</ele><time>2026-05-03T07:23:03.999Z</time></trkpt><trkpt lat="44.0341512344108" lon="11.981066867484675"><ele>201.39999999999998</ele><time>2026-05-03T07:23:04.999Z</time></trkpt><trkpt lat="44.03409163765134" lon="11.980948573541346"><ele>200.79999999999998</ele><time>2026-05-03T07:23:05.999Z</time></trkpt><trkpt lat="44.03403793558484" lon="11.980848545687369"><ele>200.2</ele><time>2026-05-03T07:23:06.999Z</time></trkpt><trkpt lat="44.03398414134136" lon="11.980748110636245"><ele>199.6</ele><time>2026-05-03T07:23:07.999Z</time></trkpt><trkpt lat="44.03392905961817" lon="11.980648327207184"><ele>199.0</ele><time>2026-05-03T07:23:08.999Z</time></trkpt><trkpt lat="44.033878400505095" lon="11.98055336345661"><ele>198.99999999999997</ele><time>2026-05-03T07:23:09.999Z</time></trkpt><trkpt lat="44.033831618151936" lon="11.980470131614505"><ele>199.0</ele><time>2026-05-03T07:23:10.999Z</time></trkpt><trkpt lat="44.033780701305666" lon="11.980372860299754"><ele>199.0</ele><time>2026-05-03T07:23:11.999Z</time></trkpt><trkpt lat="44.03371188188019" lon="11.98027834640204"><ele>199.0</ele><time>2026-05-03T07:23:12.999Z</time></trkpt><trkpt lat="44.033652782810876" lon="11.980197741811347"><ele>198.99999999999997</ele><time>2026-05-03T07:23:13.999Z</time></trkpt><trkpt lat="44.03359054146654" lon="11.980131645042848"><ele>199.0</ele><time>2026-05-03T07:23:14.999Z</time></trkpt><trkpt lat="44.03352093755518" lon="11.9800723010772"><ele>198.99999999999997</ele><time>2026-05-03T07:23:15.999Z</time></trkpt><trkpt lat="44.0334575307993" lon="11.980025360251936"><ele>199.0</ele><time>2026-05-03T07:23:16.999Z</time></trkpt><trkpt lat="44.03340686836436" lon="11.979964645664353"><ele>199.0</ele><time>2026-05-03T07:23:17.999Z</time></trkpt><trkpt lat="44.033347402891735" lon="11.979854593345586"><ele>199.0</ele><time>2026-05-03T07:23:19.999Z</time></trkpt><trkpt lat="44.03326664689938" lon="11.979775473421578"><ele>198.99999999999997</ele><time>2026-05-03T07:23:21.999Z</time></trkpt><trkpt lat="44.03323324300512" lon="11.979682848008984"><ele>199.0</ele><time>2026-05-03T07:23:23.999Z</time></trkpt><trkpt lat="44.03315788228021" lon="11.979664022848207"><ele>199.0</ele><time>2026-05-03T07:23:25.999Z</time></trkpt><trkpt lat="44.03306171791077" lon="11.979691021233325"><ele>199.0</ele><time>2026-05-03T07:23:27.999Z</time></trkpt><trkpt lat="44.03295937935537" lon="11.9797204205583"><ele>199.0</ele><time>2026-05-03T07:23:29.999Z</time></trkpt><trkpt lat="44.03286337618393" lon="11.979791671216356"><ele>199.0</ele><time>2026-05-03T07:23:31.999Z</time></trkpt><trkpt lat="44.032788829179836" lon="11.979847670083977"><ele>199.0</ele><time>2026-05-03T07:23:33.999Z</time></trkpt><trkpt lat="44.03284665987537" lon="11.9797360648766"><ele>198.99999999999997</ele><time>2026-05-03T07:23:36.999Z</time></trkpt><trkpt lat="44.03288994213048" lon="11.979669977766775"><ele>199.0</ele><time>2026-05-03T07:23:39.999Z</time></trkpt><trkpt lat="44.032932259539855" lon="11.97958784817044"><ele>199.0</ele><time>2026-05-03T07:23:41.999Z</time></trkpt><trkpt lat="44.03280503915276" lon="11.979554377983849"><ele>199.0</ele><time>2026-05-03T07:23:44.999Z</time></trkpt><trkpt lat="44.03271299809056" lon="11.979505723567561"><ele>198.99999999999997</ele><time>2026-05-03T07:23:46.999Z</time></trkpt><trkpt lat="44.03265232645216" lon="11.97946696317398"><ele>199.0</ele><time>2026-05-03T07:23:47.999Z</time></trkpt><trkpt lat="44.03255154545581" lon="11.979448756017018"><ele>199.66666666666666</ele><time>2026-05-03T07:23:49.999Z</time></trkpt><trkpt lat="44.03246589466126" lon="11.979392208005601"><ele>200.33333333333331</ele><time>2026-05-03T07:23:51.999Z</time></trkpt><trkpt lat="44.03244693886706" lon="11.979301213603625"><ele>201.0</ele><time>2026-05-03T07:23:52.999Z</time></trkpt><trkpt lat="44.0321958661881" lon="11.97889068600762"><ele>201.0</ele><time>2026-05-03T07:23:55.999Z</time></trkpt><trkpt lat="44.03212170064452" lon="11.978809337892239"><ele>201.0</ele><time>2026-05-03T07:23:56.999Z</time></trkpt><trkpt lat="44.03205150584534" lon="11.9787306252024"><ele>201.0</ele><time>2026-05-03T07:23:57.999Z</time></trkpt><trkpt lat="44.03197979866389" lon="11.978691346875802"><ele>201.0</ele><time>2026-05-03T07:23:58.999Z</time></trkpt><trkpt lat="44.0319139498376" lon="11.97864257481166"><ele>201.0</ele><time>2026-05-03T07:23:59.999Z</time></trkpt><trkpt lat="44.031858870265005" lon="11.978592887777157"><ele>201.0</ele><time>2026-05-03T07:24:00.999Z</time></trkpt><trkpt lat="44.03180385165019" lon="11.978518828915506"><ele>201.0</ele><time>2026-05-03T07:24:01.999Z</time></trkpt><trkpt lat="44.03175011541935" lon="11.978424788475461"><ele>201.0</ele><time>2026-05-03T07:24:03Z</time></trkpt><trkpt lat="44.03168408853267" lon="11.978334288848284"><ele>201.0</ele><time>2026-05-03T07:24:04Z</time></trkpt><trkpt lat="44.03162753415398" lon="11.978252932077742"><ele>201.0</ele><time>2026-05-03T07:24:05Z</time></trkpt><trkpt lat="44.031564190641234" lon="11.9781736485107"><ele>201.0</ele><time>2026-05-03T07:24:06Z</time></trkpt><trkpt lat="44.0314949567081" lon="11.978118219138441"><ele>201.0</ele><time>2026-05-03T07:24:07Z</time></trkpt><trkpt lat="44.031423124065206" lon="11.978044963637013"><ele>201.4</ele><time>2026-05-03T07:24:08Z</time></trkpt><trkpt lat="44.031347855314245" lon="11.97796601275316"><ele>201.8</ele><time>2026-05-03T07:24:09Z</time></trkpt><trkpt lat="44.03127245833762" lon="11.977894018212782"><ele>202.20000000000002</ele><time>2026-05-03T07:24:10Z</time></trkpt><trkpt lat="44.031172021008736" lon="11.977820729919943"><ele>202.60000000000002</ele><time>2026-05-03T07:24:11Z</time></trkpt><trkpt lat="44.0311020698292" lon="11.9777657160357"><ele>203.0</ele><time>2026-05-03T07:24:12Z</time></trkpt><trkpt lat="44.03096555276201" lon="11.97775205649484"><ele>203.0</ele><time>2026-05-03T07:24:13Z</time></trkpt><trkpt lat="44.03098172320944" lon="11.977619362758315"><ele>203.0</ele><time>2026-05-03T07:24:16Z</time></trkpt><trkpt lat="44.03114098254075" lon="11.977594928683654"><ele>203.0</ele><time>2026-05-03T07:24:18Z</time></trkpt><trkpt lat="44.03120089032854" lon="11.97754239550214"><ele>203.0</ele><time>2026-05-03T07:24:20Z</time></trkpt><trkpt lat="44.031263195749226" lon="11.977384655627697"><ele>203.60000000000002</ele><time>2026-05-03T07:24:24Z</time></trkpt><trkpt lat="44.031302758807016" lon="11.977291454025773"><ele>204.20000000000002</ele><time>2026-05-03T07:24:26Z</time></trkpt><trkpt lat="44.031400014677985" lon="11.977233269467385"><ele>204.8</ele><time>2026-05-03T07:24:28Z</time></trkpt><trkpt lat="44.03150022478873" lon="11.97714965749471"><ele>205.4</ele><time>2026-05-03T07:24:30Z</time></trkpt><trkpt lat="44.0315627535373" lon="11.977041002900883"><ele>206.0</ele><time>2026-05-03T07:24:31Z</time></trkpt><trkpt lat="44.03160517365177" lon="11.976939378020168"><ele>209.60000000000002</ele><time>2026-05-03T07:24:32Z</time></trkpt><trkpt lat="44.03166620102208" lon="11.976795408840028"><ele>213.2</ele><time>2026-05-03T07:24:34Z</time></trkpt><trkpt lat="44.03171499590972" lon="11.976650534445554"><ele>216.79999999999998</ele><time>2026-05-03T07:24:36Z</time></trkpt><trkpt lat="44.03175090985287" lon="11.976500451294536"><ele>220.39999999999998</ele><time>2026-05-03T07:24:38Z</time></trkpt><trkpt lat="44.031808583680494" lon="11.976457845509202"><ele>224.0</ele><time>2026-05-03T07:24:39Z</time></trkpt><trkpt lat="44.03184102359287" lon="11.976353838676875"><ele>224.00000000000003</ele><time>2026-05-03T07:24:40Z</time></trkpt><trkpt lat="44.031900655742845" lon="11.976304488332575"><ele>224.0</ele><time>2026-05-03T07:24:41Z</time></trkpt><trkpt lat="44.03194086167827" lon="11.976219015498467"><ele>224.0</ele><time>2026-05-03T07:24:42Z</time></trkpt><trkpt lat="44.03198673737236" lon="11.976154905354088"><ele>224.0</ele><time>2026-05-03T07:24:43Z</time></trkpt><trkpt lat="44.0319856250518" lon="11.9760416302031"><ele>224.00000000000003</ele><time>2026-05-03T07:24:45Z</time></trkpt><trkpt lat="44.03196265566848" lon="11.975956388348742"><ele>224.0</ele><time>2026-05-03T07:24:46Z</time></trkpt><trkpt lat="44.0318966852877" lon="11.975847234636865"><ele>223.0</ele><time>2026-05-03T07:24:49Z</time></trkpt><trkpt lat="44.03183320497321" lon="11.975740144655848"><ele>221.99999999999997</ele><time>2026-05-03T07:24:51Z</time></trkpt><trkpt lat="44.031749981321184" lon="11.975696840740845"><ele>220.99999999999997</ele><time>2026-05-03T07:24:53.999Z</time></trkpt><trkpt lat="44.03164606992177" lon="11.975627197049747"><ele>220.0</ele><time>2026-05-03T07:24:55.999Z</time></trkpt><trkpt lat="44.03151616184892" lon="11.975580909849485"><ele>219.0</ele><time>2026-05-03T07:24:57.999Z</time></trkpt><trkpt lat="44.03137814982504" lon="11.975584538306766"><ele>221.5</ele><time>2026-05-03T07:24:59.999Z</time></trkpt><trkpt lat="44.03130234293333" lon="11.975579548666623"><ele>224.0</ele><time>2026-05-03T07:25:00.999Z</time></trkpt><trkpt lat="44.03116848709594" lon="11.975614964775321"><ele>226.5</ele><time>2026-05-03T07:25:02.999Z</time></trkpt><trkpt lat="44.031092736311116" lon="11.975653319779145"><ele>229.0</ele><time>2026-05-03T07:25:03.999Z</time></trkpt><trkpt lat="44.031030924708915" lon="11.975695865058544"><ele>231.5</ele><time>2026-05-03T07:25:04.999Z</time></trkpt><trkpt lat="44.03096348779686" lon="11.975738578281918"><ele>234.0</ele><time>2026-05-03T07:25:05.999Z</time></trkpt><trkpt lat="44.03088956797992" lon="11.975747689914373"><ele>234.0</ele><time>2026-05-03T07:25:06.999Z</time></trkpt><trkpt lat="44.03081302049548" lon="11.975763406999665"><ele>234.0</ele><time>2026-05-03T07:25:07.999Z</time></trkpt><trkpt lat="44.03074250033454" lon="11.97577853133376"><ele>234.0</ele><time>2026-05-03T07:25:08.999Z</time></trkpt><trkpt lat="44.030667726895366" lon="11.975808795304639"><ele>234.0</ele><time>2026-05-03T07:25:09.999Z</time></trkpt><trkpt lat="44.030590741987425" lon="11.97580017830615"><ele>234.0</ele><time>2026-05-03T07:25:10.999Z</time></trkpt><trkpt lat="44.03051090993663" lon="11.97580608699094"><ele>234.0</ele><time>2026-05-03T07:25:11.999Z</time></trkpt><trkpt lat="44.0304340098604" lon="11.975856470984407"><ele>234.79999999999998</ele><time>2026-05-03T07:25:12.999Z</time></trkpt><trkpt lat="44.03036236885429" lon="11.975897013518791"><ele>235.59999999999997</ele><time>2026-05-03T07:25:13.999Z</time></trkpt><trkpt lat="44.030289243404965" lon="11.975826021202677"><ele>236.4</ele><time>2026-05-03T07:25:16.999Z</time></trkpt><trkpt lat="44.030216063587375" lon="11.975830889980392"><ele>237.2</ele><time>2026-05-03T07:25:19.999Z</time></trkpt><trkpt lat="44.03012600667053" lon="11.975815091394729"><ele>238.0</ele><time>2026-05-03T07:25:22.999Z</time></trkpt><trkpt lat="44.0300241679877" lon="11.975721039887523"><ele>230.4</ele><time>2026-05-03T07:25:24.999Z</time></trkpt><trkpt lat="44.029931539068095" lon="11.97563289532911"><ele>222.8</ele><time>2026-05-03T07:25:26.999Z</time></trkpt><trkpt lat="44.02984981270612" lon="11.975527867426127"><ele>215.2</ele><time>2026-05-03T07:25:28.999Z</time></trkpt><trkpt lat="44.02979222812107" lon="11.975437794276822"><ele>207.6</ele><time>2026-05-03T07:25:29.999Z</time></trkpt><trkpt lat="44.029750256335305" lon="11.975340052723256"><ele>200.0</ele><time>2026-05-03T07:25:30.999Z</time></trkpt><trkpt lat="44.02971100772625" lon="11.975254020911953"><ele>200.00000000000003</ele><time>2026-05-03T07:25:31.999Z</time></trkpt><trkpt lat="44.02968767669473" lon="11.975141373900385"><ele>200.0</ele><time>2026-05-03T07:25:32.999Z</time></trkpt><trkpt lat="44.0296715076035" lon="11.97503582273946"><ele>200.0</ele><time>2026-05-03T07:25:33.999Z</time></trkpt><trkpt lat="44.02966960942704" lon="11.974946501757529"><ele>200.0</ele><time>2026-05-03T07:25:34.999Z</time></trkpt><trkpt lat="44.02966365554724" lon="11.974827825409552"><ele>200.00000000000003</ele><time>2026-05-03T07:25:36.999Z</time></trkpt><trkpt lat="44.0296642102126" lon="11.974731429535971"><ele>200.0</ele><time>2026-05-03T07:25:38.999Z</time></trkpt><trkpt lat="44.02964937647462" lon="11.974624173399961"><ele>202.16666666666669</ele><time>2026-05-03T07:25:40.999Z</time></trkpt><trkpt lat="44.02958229157053" lon="11.9745531847347"><ele>204.33333333333334</ele><time>2026-05-03T07:25:41.999Z</time></trkpt><trkpt lat="44.0295478833303" lon="11.974461345067729"><ele>206.5</ele><time>2026-05-03T07:25:42.999Z</time></trkpt><trkpt lat="44.02946574990862" lon="11.974468908168934"><ele>208.66666666666669</ele><time>2026-05-03T07:25:43.999Z</time></trkpt><trkpt lat="44.029461190614526" lon="11.974353225460819"><ele>210.83333333333334</ele><time>2026-05-03T07:25:54.999Z</time></trkpt><trkpt lat="44.029475091105226" lon="11.974234498451484"><ele>213.0</ele><time>2026-05-03T07:25:55.999Z</time></trkpt><trkpt lat="44.02946497130879" lon="11.974083265528852"><ele>216.4</ele><time>2026-05-03T07:25:57.999Z</time></trkpt><trkpt lat="44.029490238501175" lon="11.973932314539114"><ele>219.8</ele><time>2026-05-03T07:25:59.999Z</time></trkpt><trkpt lat="44.029547364214025" lon="11.97383937248732"><ele>223.2</ele><time>2026-05-03T07:26:01.999Z</time></trkpt><trkpt lat="44.02959522078166" lon="11.973709442351941"><ele>226.6</ele><time>2026-05-03T07:26:03.999Z</time></trkpt><trkpt lat="44.029683579231474" lon="11.973616157289303"><ele>230.0</ele><time>2026-05-03T07:26:05.999Z</time></trkpt><trkpt lat="44.02974170494929" lon="11.973557601569606"><ele>230.00000000000003</ele><time>2026-05-03T07:26:06.999Z</time></trkpt><trkpt lat="44.029825385648394" lon="11.973513208784025"><ele>230.0</ele><time>2026-05-03T07:26:09Z</time></trkpt><trkpt lat="44.02993149318293" lon="11.973459135602795"><ele>230.0</ele><time>2026-05-03T07:26:11Z</time></trkpt><trkpt lat="44.03000024822223" lon="11.973417730316825"><ele>230.0</ele><time>2026-05-03T07:26:32Z</time></trkpt><trkpt lat="44.029921795546954" lon="11.97346874766231"><ele>230.00000000000003</ele><time>2026-05-03T07:27:32.999Z</time></trkpt><trkpt lat="44.029896048058966" lon="11.973372803291797"><ele>230.0</ele><time>2026-05-03T07:29:29.999Z</time></trkpt><trkpt lat="44.02997536510962" lon="11.973359042362516"><ele>238.00000000000003</ele><time>2026-05-03T07:31:44.999Z</time></trkpt><trkpt lat="44.03004113981055" lon="11.973371122998596"><ele>246.0</ele><time>2026-05-03T07:36:13.999Z</time></trkpt><trkpt lat="44.03011111202876" lon="11.97335348406698"><ele>254.0</ele><time>2026-05-03T07:36:25.999Z</time></trkpt><trkpt lat="44.0301605756259" lon="11.973274098887947"><ele>262.0</ele><time>2026-05-03T07:36:28.999Z</time></trkpt><trkpt lat="44.03023634338831" lon="11.973220867901514"><ele>270.0</ele><time>2026-05-03T07:36:30.999Z</time></trkpt><trkpt lat="44.03031783068298" lon="11.973127761162587"><ele>278.0</ele><time>2026-05-03T07:36:32.999Z</time></trkpt><trkpt lat="44.030381273329674" lon="11.973119533556444"><ele>278.2</ele><time>2026-05-03T07:36:34.999Z</time></trkpt><trkpt lat="44.03046526051365" lon="11.973050080312692"><ele>278.4</ele><time>2026-05-03T07:36:38Z</time></trkpt><trkpt lat="44.03056025881531" lon="11.972964181460794"><ele>278.59999999999997</ele><time>2026-05-03T07:36:40Z</time></trkpt><trkpt lat="44.030630832765674" lon="11.972912280944552"><ele>278.8</ele><time>2026-05-03T07:36:42Z</time></trkpt><trkpt lat="44.030723435163324" lon="11.972895916160779"><ele>279.0</ele><time>2026-05-03T07:36:44Z</time></trkpt><trkpt lat="44.03079866015289" lon="11.972883935996368"><ele>285.59999999999997</ele><time>2026-05-03T07:36:46Z</time></trkpt><trkpt lat="44.03088755329243" lon="11.972872786085885"><ele>292.2</ele><time>2026-05-03T07:36:49Z</time></trkpt><trkpt lat="44.030982557384" lon="11.97284868126944"><ele>298.79999999999995</ele><time>2026-05-03T07:36:52Z</time></trkpt><trkpt lat="44.03105828932848" lon="11.972821340783181"><ele>305.4</ele><time>2026-05-03T07:36:54Z</time></trkpt><trkpt lat="44.03115254016202" lon="11.972835822364367"><ele>312.0</ele><time>2026-05-03T07:36:56Z</time></trkpt><trkpt lat="44.03126507211002" lon="11.972803412172503"><ele>312.0</ele><time>2026-05-03T07:36:58Z</time></trkpt><trkpt lat="44.03135760798889" lon="11.972709795040252"><ele>312.0</ele><time>2026-05-03T07:37:00Z</time></trkpt><trkpt lat="44.03142302038524" lon="11.972588061375745"><ele>312.0</ele><time>2026-05-03T07:37:02Z</time></trkpt><trkpt lat="44.03145539618909" lon="11.972449125333583"><ele>312.0</ele><time>2026-05-03T07:37:04Z</time></trkpt><trkpt lat="44.03152998247351" lon="11.972348170595309"><ele>312.0</ele><time>2026-05-03T07:37:07Z</time></trkpt><trkpt lat="44.03161741499919" lon="11.972315461056677"><ele>314.1666666666667</ele><time>2026-05-03T07:37:09Z</time></trkpt><trkpt lat="44.03169486014965" lon="11.972253912605952"><ele>316.3333333333333</ele><time>2026-05-03T07:37:11Z</time></trkpt><trkpt lat="44.031757694068915" lon="11.972147334795723"><ele>318.5</ele><time>2026-05-03T07:38:08.999Z</time></trkpt><trkpt lat="44.03182341296952" lon="11.972142264747873"><ele>320.66666666666663</ele><time>2026-05-03T07:38:19.999Z</time></trkpt><trkpt lat="44.03179200849045" lon="11.97222516816756"><ele>322.8333333333333</ele><time>2026-05-03T07:38:46Z</time></trkpt><trkpt lat="44.0317298704928" lon="11.972258528719122"><ele>325.0</ele><time>2026-05-03T07:38:52Z</time></trkpt><trkpt lat="44.0316921831819" lon="11.97236011624259"><ele>325.0</ele><time>2026-05-03T07:38:56Z</time></trkpt><trkpt lat="44.03168733086075" lon="11.972447880598962"><ele>325.0</ele><time>2026-05-03T07:38:58Z</time></trkpt><trkpt lat="44.031700213515045" lon="11.972555532914"><ele>325.0</ele><time>2026-05-03T07:39:01Z</time></trkpt><trkpt lat="44.03171478744919" lon="11.972649674824247"><ele>325.0</ele><time>2026-05-03T07:39:03Z</time></trkpt><trkpt lat="44.03178537008272" lon="11.972712439634435"><ele>325.0</ele><time>2026-05-03T07:39:08Z</time></trkpt><trkpt lat="44.03187382090181" lon="11.97267560971342"><ele>325.0</ele><time>2026-05-03T07:39:12Z</time></trkpt><trkpt lat="44.031938213323166" lon="11.972682148942038"><ele>325.16666666666663</ele><time>2026-05-03T07:39:14Z</time></trkpt><trkpt lat="44.03203053143526" lon="11.97266187179567"><ele>325.3333333333333</ele><time>2026-05-03T07:39:17Z</time></trkpt><trkpt lat="44.032091688471134" lon="11.97263739962545"><ele>325.5</ele><time>2026-05-03T07:39:19Z</time></trkpt><trkpt lat="44.032146844022265" lon="11.972579702485115"><ele>325.6666666666667</ele><time>2026-05-03T07:39:21Z</time></trkpt><trkpt lat="44.03224522134784" lon="11.972581351047344"><ele>325.83333333333337</ele><time>2026-05-03T07:39:23Z</time></trkpt><trkpt lat="44.0323600698698" lon="11.972600153841926"><ele>326.0</ele><time>2026-05-03T07:39:25Z</time></trkpt><trkpt lat="44.03244087539064" lon="11.972593025753879"><ele>325.0</ele><time>2026-05-03T07:39:26Z</time></trkpt><trkpt lat="44.032504514572835" lon="11.972605840477028"><ele>324.0</ele><time>2026-05-03T07:39:27Z</time></trkpt><trkpt lat="44.03259819141659" lon="11.97257819565727"><ele>323.0</ele><time>2026-05-03T07:39:29Z</time></trkpt><trkpt lat="44.032675650812635" lon="11.972532587348825"><ele>322.0</ele><time>2026-05-03T07:39:31Z</time></trkpt><trkpt lat="44.032781816981355" lon="11.97246926393342"><ele>321.0</ele><time>2026-05-03T07:39:32.999Z</time></trkpt><trkpt lat="44.032863263750166" lon="11.972419441922074"><ele>320.0</ele><time>2026-05-03T07:39:33.999Z</time></trkpt><trkpt lat="44.032949694810874" lon="11.972397562952565"><ele>321.8</ele><time>2026-05-03T07:39:34.999Z</time></trkpt><trkpt lat="44.03305702956063" lon="11.972346105183636"><ele>323.6</ele><time>2026-05-03T07:39:36.999Z</time></trkpt><trkpt lat="44.033162843128224" lon="11.972305345931941"><ele>325.4</ele><time>2026-05-03T07:39:38.999Z</time></trkpt><trkpt lat="44.033226015991175" lon="11.972308503143239"><ele>327.2</ele><time>2026-05-03T07:39:39.999Z</time></trkpt><trkpt lat="44.03332314776088" lon="11.972281873657487"><ele>329.0</ele><time>2026-05-03T07:39:41.999Z</time></trkpt><trkpt lat="44.03339897580776" lon="11.972295047285032"><ele>329.0</ele><time>2026-05-03T07:39:42.999Z</time></trkpt><trkpt lat="44.03351141568139" lon="11.972303473717629"><ele>329.0</ele><time>2026-05-03T07:39:44.999Z</time></trkpt><trkpt lat="44.033581362676614" lon="11.972316231171945"><ele>329.0</ele><time>2026-05-03T07:39:45.999Z</time></trkpt><trkpt lat="44.03365346869405" lon="11.972313412138993"><ele>329.0</ele><time>2026-05-03T07:39:46.999Z</time></trkpt><trkpt lat="44.03373077331045" lon="11.972304659952748"><ele>329.0</ele><time>2026-05-03T07:39:47.999Z</time></trkpt><trkpt lat="44.033836848896705" lon="11.972289581337265"><ele>329.0</ele><time>2026-05-03T07:39:49.999Z</time></trkpt><trkpt lat="44.03390128912113" lon="11.972296583744054"><ele>329.0</ele><time>2026-05-03T07:39:50.999Z</time></trkpt><trkpt lat="44.0339712906326" lon="11.972269389253091"><ele>329.0</ele><time>2026-05-03T07:39:59.999Z</time></trkpt><trkpt lat="44.034050740138476" lon="11.972207832239313"><ele>329.0</ele><time>2026-05-03T07:40:01.999Z</time></trkpt><trkpt lat="44.03411190998195" lon="11.972172497685918"><ele>329.0</ele><time>2026-05-03T07:40:02.999Z</time></trkpt><trkpt lat="44.0342108976752" lon="11.972117138481849"><ele>329.0</ele><time>2026-05-03T07:40:04.999Z</time></trkpt><trkpt lat="44.034281774102844" lon="11.972099939608555"><ele>329.0</ele><time>2026-05-03T07:40:06.999Z</time></trkpt><trkpt lat="44.03439444867282" lon="11.972063564229506"><ele>327.83333333333337</ele><time>2026-05-03T07:40:08.999Z</time></trkpt><trkpt lat="44.03448371764096" lon="11.97205029640575"><ele>326.6666666666667</ele><time>2026-05-03T07:40:10.999Z</time></trkpt><trkpt lat="44.0345934963964" lon="11.972021725709471"><ele>325.5</ele><time>2026-05-03T07:40:12.999Z</time></trkpt><trkpt lat="44.03468352156519" lon="11.972049372563905"><ele>324.3333333333333</ele><time>2026-05-03T07:40:15.999Z</time></trkpt><trkpt lat="44.034750440360504" lon="11.972033548176148"><ele>323.16666666666663</ele><time>2026-05-03T07:40:16.999Z</time></trkpt><trkpt lat="44.03481609143353" lon="11.97202750360706"><ele>322.0</ele><time>2026-05-03T07:40:17.999Z</time></trkpt><trkpt lat="44.03491802646097" lon="11.972048783686935"><ele>325.6</ele><time>2026-05-03T07:40:19.999Z</time></trkpt><trkpt lat="44.03501763999016" lon="11.972037477830849"><ele>329.20000000000005</ele><time>2026-05-03T07:40:21.999Z</time></trkpt><trkpt lat="44.03511901916575" lon="11.971986108894177"><ele>332.8</ele><time>2026-05-03T07:40:23.999Z</time></trkpt><trkpt lat="44.035217261645435" lon="11.971899735265149"><ele>336.4</ele><time>2026-05-03T07:40:25.999Z</time></trkpt><trkpt lat="44.03526132666797" lon="11.971764467340602"><ele>340.0</ele><time>2026-05-03T07:40:27.999Z</time></trkpt><trkpt lat="44.03527611784078" lon="11.971650360503004"><ele>341.6</ele><time>2026-05-03T07:40:28.999Z</time></trkpt><trkpt lat="44.03528025348277" lon="11.971557078383105"><ele>343.2</ele><time>2026-05-03T07:40:29.999Z</time></trkpt><trkpt lat="44.03532160913321" lon="11.971428658626731"><ele>344.79999999999995</ele><time>2026-05-03T07:40:31.999Z</time></trkpt><trkpt lat="44.03539295996306" lon="11.971352952313664"><ele>346.4</ele><time>2026-05-03T07:40:33.999Z</time></trkpt><trkpt lat="44.03550361940397" lon="11.971292139665215"><ele>348.0</ele><time>2026-05-03T07:40:35.999Z</time></trkpt><trkpt lat="44.035610810991045" lon="11.97127858474589"><ele>348.0</ele><time>2026-05-03T07:40:37.999Z</time></trkpt><trkpt lat="44.035722957546554" lon="11.97125744927352"><ele>348.0</ele><time>2026-05-03T07:40:39.999Z</time></trkpt><trkpt lat="44.035836791823186" lon="11.971249818389543"><ele>348.0</ele><time>2026-05-03T07:40:41.999Z</time></trkpt><trkpt lat="44.03601910234496" lon="11.971365789659654"><ele>348.0</ele><time>2026-05-03T07:40:43.999Z</time></trkpt><trkpt lat="44.036119536456276" lon="11.971155591587145"><ele>354.79999999999995</ele><time>2026-05-03T07:40:45.999Z</time></trkpt><trkpt lat="44.03615262590663" lon="11.971052742623236"><ele>361.6</ele><time>2026-05-03T07:40:47.999Z</time></trkpt><trkpt lat="44.03621284940503" lon="11.970950200424163"><ele>368.4</ele><time>2026-05-03T07:40:50Z</time></trkpt><trkpt lat="44.03628238192306" lon="11.970885478785092"><ele>375.20000000000005</ele><time>2026-05-03T07:41:46.999Z</time></trkpt><trkpt lat="44.03641555533992" lon="11.970868084244643"><ele>382.0</ele><time>2026-05-03T07:41:48.999Z</time></trkpt><trkpt lat="44.03649726214981" lon="11.970861692676793"><ele>382.0</ele><time>2026-05-03T07:41:49.999Z</time></trkpt><trkpt lat="44.036587533770536" lon="11.970874827438875"><ele>382.0</ele><time>2026-05-03T07:41:50.999Z</time></trkpt><trkpt lat="44.03668121751509" lon="11.97085776642112"><ele>382.0</ele><time>2026-05-03T07:41:51.999Z</time></trkpt><trkpt lat="44.036776945415625" lon="11.970823233336382"><ele>382.0</ele><time>2026-05-03T07:41:52.999Z</time></trkpt><trkpt lat="44.036878794044604" lon="11.970773357524706"><ele>382.0</ele><time>2026-05-03T07:41:53.999Z</time></trkpt><trkpt lat="44.03695750388852" lon="11.970708350451556"><ele>381.8</ele><time>2026-05-03T07:41:54.999Z</time></trkpt><trkpt lat="44.037039558182734" lon="11.970642879031708"><ele>381.6</ele><time>2026-05-03T07:41:55.999Z</time></trkpt><trkpt lat="44.03710521714776" lon="11.970553972543453"><ele>381.40000000000003</ele><time>2026-05-03T07:41:56.999Z</time></trkpt><trkpt lat="44.037173244544036" lon="11.970449903485768"><ele>381.20000000000005</ele><time>2026-05-03T07:41:57.999Z</time></trkpt><trkpt lat="44.03724531239717" lon="11.970337785134772"><ele>381.0</ele><time>2026-05-03T07:41:58.999Z</time></trkpt><trkpt lat="44.03730859079543" lon="11.970232606946745"><ele>381.0</ele><time>2026-05-03T07:41:59.999Z</time></trkpt><trkpt lat="44.03736690865604" lon="11.970142084793666"><ele>381.0</ele><time>2026-05-03T07:42:00.999Z</time></trkpt><trkpt lat="44.03743321766002" lon="11.970080862172075"><ele>381.0</ele><time>2026-05-03T07:42:01.999Z</time></trkpt><trkpt lat="44.037497466343346" lon="11.970018236193436"><ele>381.0</ele><time>2026-05-03T07:42:02.999Z</time></trkpt><trkpt lat="44.037558588341376" lon="11.96995615864738"><ele>381.0</ele><time>2026-05-03T07:42:03.999Z</time></trkpt><trkpt lat="44.03762776547568" lon="11.96988141390483"><ele>381.0</ele><time>2026-05-03T07:42:04.999Z</time></trkpt><trkpt lat="44.03769409748526" lon="11.969782811157955"><ele>383.20000000000005</ele><time>2026-05-03T07:42:05.999Z</time></trkpt><trkpt lat="44.03776630417282" lon="11.969676752786624"><ele>385.40000000000003</ele><time>2026-05-03T07:42:06.999Z</time></trkpt><trkpt lat="44.0378385264603" lon="11.96957502974213"><ele>387.6</ele><time>2026-05-03T07:42:07.999Z</time></trkpt><trkpt lat="44.03790330838161" lon="11.969482165588019"><ele>389.8</ele><time>2026-05-03T07:42:08.999Z</time></trkpt><trkpt lat="44.037967821499045" lon="11.969386339253049"><ele>392.0</ele><time>2026-05-03T07:42:09.999Z</time></trkpt><trkpt lat="44.03804492432766" lon="11.969289927585073"><ele>390.0</ele><time>2026-05-03T07:42:10.999Z</time></trkpt><trkpt lat="44.03811014737708" lon="11.969179880988664"><ele>388.0</ele><time>2026-05-03T07:42:11.999Z</time></trkpt><trkpt lat="44.03816767372936" lon="11.969054334106437"><ele>386.0</ele><time>2026-05-03T07:42:12.999Z</time></trkpt><trkpt lat="44.03821081368234" lon="11.968929839074294"><ele>384.0</ele><time>2026-05-03T07:42:13.999Z</time></trkpt><trkpt lat="44.03822745484566" lon="11.968808705291154"><ele>382.0</ele><time>2026-05-03T07:42:14.999Z</time></trkpt><trkpt lat="44.038242617042265" lon="11.968702622790733"><ele>382.0</ele><time>2026-05-03T07:42:15.999Z</time></trkpt><trkpt lat="44.03822579318363" lon="11.96858000634826"><ele>382.0</ele><time>2026-05-03T07:42:16.999Z</time></trkpt><trkpt lat="44.038243408620126" lon="11.968447252649066"><ele>382.0</ele><time>2026-05-03T07:42:17.999Z</time></trkpt><trkpt lat="44.038236956520414" lon="11.968306171833465"><ele>382.0</ele><time>2026-05-03T07:42:18.999Z</time></trkpt><trkpt lat="44.03823022824639" lon="11.968183109062956"><ele>382.0</ele><time>2026-05-03T07:42:19.999Z</time></trkpt><trkpt lat="44.03822452324394" lon="11.968086428786615"><ele>382.0</ele><time>2026-05-03T07:42:20.999Z</time></trkpt><trkpt lat="44.03824313189775" lon="11.967988467271507"><ele>382.0</ele><time>2026-05-03T07:42:21.999Z</time></trkpt><trkpt lat="44.038262065922424" lon="11.967886594817614"><ele>382.0</ele><time>2026-05-03T07:42:22.999Z</time></trkpt><trkpt lat="44.038295913235565" lon="11.967797754732171"><ele>382.0</ele><time>2026-05-03T07:42:23.999Z</time></trkpt><trkpt lat="44.03833971032538" lon="11.967703165004393"><ele>382.0</ele><time>2026-05-03T07:42:24.999Z</time></trkpt><trkpt lat="44.03840268381861" lon="11.967656232200433"><ele>382.0</ele><time>2026-05-03T07:42:25.999Z</time></trkpt><trkpt lat="44.038470733058396" lon="11.967619091253576"><ele>382.0</ele><time>2026-05-03T07:42:26.999Z</time></trkpt><trkpt lat="44.038548001827984" lon="11.967590797457245"><ele>388.40000000000003</ele><time>2026-05-03T07:42:27.999Z</time></trkpt><trkpt lat="44.03866374148463" lon="11.967460964039903"><ele>394.8</ele><time>2026-05-03T07:42:29.999Z</time></trkpt><trkpt lat="44.038735365817104" lon="11.9673862082947"><ele>401.2</ele><time>2026-05-03T07:42:30.999Z</time></trkpt><trkpt lat="44.03881126019319" lon="11.967295681753717"><ele>407.6</ele><time>2026-05-03T07:42:31.999Z</time></trkpt><trkpt lat="44.038878881740686" lon="11.967182854124651"><ele>414.0</ele><time>2026-05-03T07:42:32.999Z</time></trkpt><trkpt lat="44.0389393250713" lon="11.967062242450359"><ele>414.0</ele><time>2026-05-03T07:42:33.999Z</time></trkpt><trkpt lat="44.03899628699168" lon="11.966942356555583"><ele>414.0</ele><time>2026-05-03T07:42:34.999Z</time></trkpt><trkpt lat="44.03904860095622" lon="11.966824272613987"><ele>414.0</ele><time>2026-05-03T07:42:35.999Z</time></trkpt><trkpt lat="44.0390878600963" lon="11.966683903038424"><ele>414.0</ele><time>2026-05-03T07:42:36.999Z</time></trkpt><trkpt lat="44.03912184594215" lon="11.966550976001354"><ele>414.0</ele><time>2026-05-03T07:42:37.999Z</time></trkpt><trkpt lat="44.039161637965684" lon="11.966416770944015"><ele>410.4</ele><time>2026-05-03T07:42:38.999Z</time></trkpt><trkpt lat="44.03918833008077" lon="11.966301428689993"><ele>406.79999999999995</ele><time>2026-05-03T07:42:39.999Z</time></trkpt><trkpt lat="44.03919196453467" lon="11.966191752347562"><ele>403.20000000000005</ele><time>2026-05-03T07:42:40.999Z</time></trkpt><trkpt lat="44.039168951231304" lon="11.966057970423801"><ele>399.6</ele><time>2026-05-03T07:42:41.999Z</time></trkpt><trkpt lat="44.03913910151293" lon="11.965901859035288"><ele>396.0</ele><time>2026-05-03T07:42:42.999Z</time></trkpt><trkpt lat="44.03911863090749" lon="11.965750657885929"><ele>396.0</ele><time>2026-05-03T07:42:43.999Z</time></trkpt><trkpt lat="44.039095331612884" lon="11.965590913355836"><ele>396.0</ele><time>2026-05-03T07:42:44.999Z</time></trkpt><trkpt lat="44.03906299345805" lon="11.965461187245575"><ele>396.0</ele><time>2026-05-03T07:42:45.999Z</time></trkpt><trkpt lat="44.03912122818036" lon="11.965376283310846"><ele>396.0</ele><time>2026-05-03T07:42:46.999Z</time></trkpt><trkpt lat="44.03919115947189" lon="11.96537764422282"><ele>396.0</ele><time>2026-05-03T07:42:51.999Z</time></trkpt><trkpt lat="44.03926193893906" lon="11.965396622194008"><ele>396.0</ele><time>2026-05-03T07:42:52.999Z</time></trkpt><trkpt lat="44.03932749125338" lon="11.96541632930197"><ele>402.6666666666667</ele><time>2026-05-03T07:42:53.999Z</time></trkpt><trkpt lat="44.03938965172967" lon="11.965478850538304"><ele>409.33333333333337</ele><time>2026-05-03T07:42:55Z</time></trkpt><trkpt lat="44.03947586736507" lon="11.965521606106055"><ele>416.0</ele><time>2026-05-03T07:42:56Z</time></trkpt><trkpt lat="44.039584028327184" lon="11.96552527896481"><ele>422.6666666666667</ele><time>2026-05-03T07:42:57Z</time></trkpt><trkpt lat="44.03966720325559" lon="11.9655128203291"><ele>429.33333333333337</ele><time>2026-05-03T07:42:58Z</time></trkpt><trkpt lat="44.03975371389298" lon="11.96553692287646"><ele>436.0</ele><time>2026-05-03T07:42:59Z</time></trkpt><trkpt lat="44.039850553151425" lon="11.965570281993692"><ele>436.00000000000006</ele><time>2026-05-03T07:43:01Z</time></trkpt><trkpt lat="44.03990635431074" lon="11.965621031870205"><ele>436.0</ele><time>2026-05-03T07:43:02Z</time></trkpt><trkpt lat="44.039996269291656" lon="11.96565077653772"><ele>436.0</ele><time>2026-05-03T07:43:03Z</time></trkpt><trkpt lat="44.04007176752369" lon="11.965690965760594"><ele>436.0</ele><time>2026-05-03T07:43:04Z</time></trkpt><trkpt lat="44.0401511732912" lon="11.965728352625291"><ele>436.00000000000006</ele><time>2026-05-03T07:43:05Z</time></trkpt><trkpt lat="44.04022058050692" lon="11.965732654589077"><ele>436.0</ele><time>2026-05-03T07:43:06Z</time></trkpt><trkpt lat="44.04028259194446" lon="11.965771503696182"><ele>439.0</ele><time>2026-05-03T07:43:07Z</time></trkpt><trkpt lat="44.04035700106178" lon="11.965789487298457"><ele>442.0</ele><time>2026-05-03T07:43:08Z</time></trkpt><trkpt lat="44.04044439275022" lon="11.965806554412541"><ele>445.0</ele><time>2026-05-03T07:43:09Z</time></trkpt><trkpt lat="44.04055728730562" lon="11.965821572795033"><ele>448.0</ele><time>2026-05-03T07:43:10Z</time></trkpt><trkpt lat="44.04066203144595" lon="11.965830225471478"><ele>451.0</ele><time>2026-05-03T07:43:11Z</time></trkpt><trkpt lat="44.040761174319634" lon="11.965807278516323"><ele>450.83333333333337</ele><time>2026-05-03T07:43:12Z</time></trkpt><trkpt lat="44.04085930410425" lon="11.965802888299452"><ele>450.6666666666667</ele><time>2026-05-03T07:43:13Z</time></trkpt><trkpt lat="44.04093726852761" lon="11.965794497502449"><ele>450.5</ele><time>2026-05-03T07:43:14Z</time></trkpt><trkpt lat="44.041024978645595" lon="11.965777411499012"><ele>450.33333333333337</ele><time>2026-05-03T07:43:15Z</time></trkpt><trkpt lat="44.0411238869506" lon="11.96578248425054"><ele>450.1666666666667</ele><time>2026-05-03T07:43:16Z</time></trkpt><trkpt lat="44.04120246714165" lon="11.965777618904928"><ele>450.0</ele><time>2026-05-03T07:43:17Z</time></trkpt><trkpt lat="44.04127280145831" lon="11.965784852942827"><ele>450.0</ele><time>2026-05-03T07:43:18Z</time></trkpt><trkpt lat="44.04134815090396" lon="11.965810201603238"><ele>450.0</ele><time>2026-05-03T07:43:19Z</time></trkpt><trkpt lat="44.04143527279223" lon="11.96585330227957"><ele>450.0</ele><time>2026-05-03T07:43:20Z</time></trkpt><trkpt lat="44.04150264214849" lon="11.965918811430498"><ele>450.0</ele><time>2026-05-03T07:43:21Z</time></trkpt><trkpt lat="44.04155253869231" lon="11.965979386869884"><ele>450.0</ele><time>2026-05-03T07:43:22Z</time></trkpt><trkpt lat="44.04160208067397" lon="11.966054372279949"><ele>450.0</ele><time>2026-05-03T07:43:23Z</time></trkpt><trkpt lat="44.0416306329291" lon="11.966187490869894"><ele>447.8</ele><time>2026-05-03T07:43:24Z</time></trkpt><trkpt lat="44.041696495795115" lon="11.966270074896357"><ele>445.6</ele><time>2026-05-03T07:43:25Z</time></trkpt><trkpt lat="44.04178222579846" lon="11.966338406272131"><ele>443.4</ele><time>2026-05-03T07:43:26Z</time></trkpt><trkpt lat="44.041876156792895" lon="11.966348179328017"><ele>441.2</ele><time>2026-05-03T07:43:27Z</time></trkpt><trkpt lat="44.041959143415724" lon="11.966395245781156"><ele>439.0</ele><time>2026-05-03T07:43:28Z</time></trkpt><trkpt lat="44.0420457822708" lon="11.96647379809318"><ele>439.00000000000006</ele><time>2026-05-03T07:43:29Z</time></trkpt><trkpt lat="44.042134472016336" lon="11.966518630738106"><ele>439.0</ele><time>2026-05-03T07:43:30Z</time></trkpt><trkpt lat="44.04221666472237" lon="11.966530868599882"><ele>439.0</ele><time>2026-05-03T07:43:31Z</time></trkpt><trkpt lat="44.04229102423828" lon="11.966538242407246"><ele>439.0</ele><time>2026-05-03T07:43:32Z</time></trkpt><trkpt lat="44.0423835164832" lon="11.966560644294917"><ele>439.00000000000006</ele><time>2026-05-03T07:43:33Z</time></trkpt><trkpt lat="44.04247700144936" lon="11.966595699392455"><ele>439.0</ele><time>2026-05-03T07:43:34Z</time></trkpt><trkpt lat="44.042561537459505" lon="11.966668333718083"><ele>440.33333333333337</ele><time>2026-05-03T07:43:35Z</time></trkpt><trkpt lat="44.042642401393614" lon="11.966663945614565"><ele>441.6666666666667</ele><time>2026-05-03T07:43:36Z</time></trkpt><trkpt lat="44.04271780334717" lon="11.966665320642852"><ele>443.0</ele><time>2026-05-03T07:43:37Z</time></trkpt><trkpt lat="44.04280943074768" lon="11.966654334526014"><ele>444.33333333333337</ele><time>2026-05-03T07:43:38Z</time></trkpt><trkpt lat="44.04289743981341" lon="11.966645775462936"><ele>445.6666666666667</ele><time>2026-05-03T07:43:39Z</time></trkpt><trkpt lat="44.04298356506224" lon="11.96664258795186"><ele>447.0</ele><time>2026-05-03T07:43:39.999Z</time></trkpt><trkpt lat="44.04304707837524" lon="11.966603486951376"><ele>447.0</ele><time>2026-05-03T07:43:40.999Z</time></trkpt><trkpt lat="44.04309471719038" lon="11.966528214534797"><ele>447.0</ele><time>2026-05-03T07:43:42.999Z</time></trkpt><trkpt lat="44.04309350492409" lon="11.966368893724988"><ele>447.0</ele><time>2026-05-03T07:43:44.999Z</time></trkpt><trkpt lat="44.04310937244195" lon="11.966274230159012"><ele>447.0</ele><time>2026-05-03T07:43:45.999Z</time></trkpt><trkpt lat="44.04313826608083" lon="11.96616219786343"><ele>447.0</ele><time>2026-05-03T07:43:46.999Z</time></trkpt><trkpt lat="44.04317616036443" lon="11.96607107508569"><ele>447.0</ele><time>2026-05-03T07:43:47.999Z</time></trkpt><trkpt lat="44.04321550615647" lon="11.965998941708445"><ele>447.0</ele><time>2026-05-03T07:44:35.999Z</time></trkpt><trkpt lat="44.04328001029169" lon="11.965936266457655"><ele>447.00000000000006</ele><time>2026-05-03T07:44:38.999Z</time></trkpt><trkpt lat="44.04337170580523" lon="11.965826163700033"><ele>447.00000000000006</ele><time>2026-05-03T07:44:40.999Z</time></trkpt><trkpt lat="44.04342986653935" lon="11.965738618721403"><ele>447.0</ele><time>2026-05-03T07:44:41.999Z</time></trkpt><trkpt lat="44.04352373958044" lon="11.965721327530616"><ele>447.0</ele><time>2026-05-03T07:44:42.999Z</time></trkpt><trkpt lat="44.043586487332504" lon="11.965649167370845"><ele>448.6666666666667</ele><time>2026-05-03T07:44:43.999Z</time></trkpt><trkpt lat="44.043630603843084" lon="11.965542665238198"><ele>450.33333333333337</ele><time>2026-05-03T07:44:44.999Z</time></trkpt><trkpt lat="44.04367885256715" lon="11.96545215650265"><ele>452.0</ele><time>2026-05-03T07:44:45.999Z</time></trkpt><trkpt lat="44.04370791817389" lon="11.96534268277262"><ele>453.6666666666667</ele><time>2026-05-03T07:44:46.999Z</time></trkpt><trkpt lat="44.04374040218353" lon="11.965260429146863"><ele>455.33333333333337</ele><time>2026-05-03T07:44:47.999Z</time></trkpt><trkpt lat="44.04382710653378" lon="11.965188765815501"><ele>457.0</ele><time>2026-05-03T07:44:49.999Z</time></trkpt><trkpt lat="44.04390480830149" lon="11.965190775306786"><ele>457.00000000000006</ele><time>2026-05-03T07:44:50.999Z</time></trkpt><trkpt lat="44.04398697320886" lon="11.96521945949485"><ele>457.0</ele><time>2026-05-03T07:44:51.999Z</time></trkpt><trkpt lat="44.044061496284364" lon="11.965289906573707"><ele>457.0</ele><time>2026-05-03T07:44:52.999Z</time></trkpt><trkpt lat="44.04413307700845" lon="11.965359363109856"><ele>457.0</ele><time>2026-05-03T07:44:53.999Z</time></trkpt><trkpt lat="44.044206350230674" lon="11.965431055744448"><ele>457.00000000000006</ele><time>2026-05-03T07:44:54.999Z</time></trkpt><trkpt lat="44.04427424683052" lon="11.965497487668971"><ele>457.0</ele><time>2026-05-03T07:44:55.999Z</time></trkpt><trkpt lat="44.04434414032148" lon="11.965571153809755"><ele>459.6666666666667</ele><time>2026-05-03T07:44:56.999Z</time></trkpt><trkpt lat="44.044398066493336" lon="11.965654703293843"><ele>462.33333333333337</ele><time>2026-05-03T07:44:57.999Z</time></trkpt><trkpt lat="44.04443715192346" lon="11.965732028972043"><ele>465.0</ele><time>2026-05-03T07:44:58.999Z</time></trkpt><trkpt lat="44.04449004369024" lon="11.965898335300631"><ele>467.66666666666663</ele><time>2026-05-03T07:45:01Z</time></trkpt><trkpt lat="44.04453493793244" lon="11.966001900634769"><ele>470.3333333333333</ele><time>2026-05-03T07:45:02Z</time></trkpt><trkpt lat="44.044573495857094" lon="11.96607415376268"><ele>473.0</ele><time>2026-05-03T07:45:03Z</time></trkpt><trkpt lat="44.04462528157845" lon="11.966144191936067"><ele>473.79999999999995</ele><time>2026-05-03T07:45:04Z</time></trkpt><trkpt lat="44.04469414696018" lon="11.966232260460075"><ele>474.59999999999997</ele><time>2026-05-03T07:45:05Z</time></trkpt><trkpt lat="44.04481134061111" lon="11.966331627719363"><ele>475.40000000000003</ele><time>2026-05-03T07:45:07Z</time></trkpt><trkpt lat="44.04488520703512" lon="11.966372072017535"><ele>476.20000000000005</ele><time>2026-05-03T07:45:08Z</time></trkpt><trkpt lat="44.04496499428152" lon="11.96643317645266"><ele>477.0</ele><time>2026-05-03T07:45:09Z</time></trkpt><trkpt lat="44.04503369672851" lon="11.966542022331593"><ele>474.40000000000003</ele><time>2026-05-03T07:45:10Z</time></trkpt><trkpt lat="44.04508176764795" lon="11.966666323519705"><ele>471.80000000000007</ele><time>2026-05-03T07:45:11Z</time></trkpt><trkpt lat="44.045139166601295" lon="11.96679487598162"><ele>469.2</ele><time>2026-05-03T07:45:12Z</time></trkpt><trkpt lat="44.045215458639646" lon="11.966898535669474"><ele>466.6</ele><time>2026-05-03T07:45:13Z</time></trkpt><trkpt lat="44.04528219422166" lon="11.966998762620415"><ele>464.0</ele><time>2026-05-03T07:45:14Z</time></trkpt><trkpt lat="44.04538345641406" lon="11.967071772921651"><ele>464.0</ele><time>2026-05-03T07:45:15Z</time></trkpt><trkpt lat="44.04547954355052" lon="11.967138992398274"><ele>464.0</ele><time>2026-05-03T07:45:16Z</time></trkpt><trkpt lat="44.045582072666406" lon="11.967186870865438"><ele>464.0</ele><time>2026-05-03T07:45:17Z</time></trkpt><trkpt lat="44.04567830574591" lon="11.967217146293825"><ele>464.0</ele><time>2026-05-03T07:45:18Z</time></trkpt><trkpt lat="44.045758075730504" lon="11.967218737426418"><ele>464.0</ele><time>2026-05-03T07:45:19Z</time></trkpt><trkpt lat="44.04582990793413" lon="11.967274942683764"><ele>464.2</ele><time>2026-05-03T07:45:20Z</time></trkpt><trkpt lat="44.04590881523416" lon="11.967340704143936"><ele>464.4</ele><time>2026-05-03T07:45:21Z</time></trkpt><trkpt lat="44.04597887621668" lon="11.967410626717701"><ele>464.6</ele><time>2026-05-03T07:45:22Z</time></trkpt><trkpt lat="44.04605651959422" lon="11.967501920779528"><ele>464.8</ele><time>2026-05-03T07:45:23Z</time></trkpt><trkpt lat="44.04614208795431" lon="11.967601947263494"><ele>465.0</ele><time>2026-05-03T07:45:24Z</time></trkpt><trkpt lat="44.04624263336559" lon="11.967691346066745"><ele>464.6</ele><time>2026-05-03T07:45:25Z</time></trkpt><trkpt lat="44.04633545300336" lon="11.967746146883162"><ele>464.2</ele><time>2026-05-03T07:45:26Z</time></trkpt><trkpt lat="44.04643288678699" lon="11.967808950366367"><ele>463.79999999999995</ele><time>2026-05-03T07:45:27Z</time></trkpt><trkpt lat="44.046501911620936" lon="11.967853691073039"><ele>463.4</ele><time>2026-05-03T07:45:28Z</time></trkpt><trkpt lat="44.04651765684536" lon="11.968023728719826"><ele>463.0</ele><time>2026-05-03T07:45:30Z</time></trkpt><trkpt lat="44.046595945169635" lon="11.968126929075813"><ele>463.71428571428567</ele><time>2026-05-03T07:45:32Z</time></trkpt><trkpt lat="44.046678737130314" lon="11.968174776528862"><ele>464.4285714285714</ele><time>2026-05-03T07:45:33Z</time></trkpt><trkpt lat="44.04673896932196" lon="11.96823184084523"><ele>465.1428571428571</ele><time>2026-05-03T07:45:34Z</time></trkpt><trkpt lat="44.04679398263488" lon="11.968297811214292"><ele>465.8571428571429</ele><time>2026-05-03T07:45:35Z</time></trkpt><trkpt lat="44.04684924397134" lon="11.968345748746438"><ele>466.5714285714286</ele><time>2026-05-03T07:45:36Z</time></trkpt><trkpt lat="44.04690105274953" lon="11.96839718292791"><ele>467.28571428571433</ele><time>2026-05-03T07:45:37Z</time></trkpt><trkpt lat="44.04695615491454" lon="11.96844647915801"><ele>468.0</ele><time>2026-05-03T07:45:38Z</time></trkpt><trkpt lat="44.04703790542691" lon="11.96855824024997"><ele>466.0</ele><time>2026-05-03T07:45:40Z</time></trkpt><trkpt lat="44.04707885345339" lon="11.968640447194476"><ele>464.0</ele><time>2026-05-03T07:45:40.999Z</time></trkpt><trkpt lat="44.04712218524329" lon="11.96872848520574"><ele>462.0</ele><time>2026-05-03T07:45:41.999Z</time></trkpt><trkpt lat="44.04715870002108" lon="11.968828633104302"><ele>460.0</ele><time>2026-05-03T07:45:42.999Z</time></trkpt><trkpt lat="44.04717997971928" lon="11.968947765339907"><ele>458.0</ele><time>2026-05-03T07:45:43.999Z</time></trkpt><trkpt lat="44.04718592922784" lon="11.969081702031184"><ele>456.0</ele><time>2026-05-03T07:45:44.999Z</time></trkpt><trkpt lat="44.047215636553624" lon="11.96920164596016"><ele>453.8</ele><time>2026-05-03T07:45:45.999Z</time></trkpt><trkpt lat="44.04723375915273" lon="11.969323228149369"><ele>451.6</ele><time>2026-05-03T07:45:46.999Z</time></trkpt><trkpt lat="44.047256241020555" lon="11.969453502657585"><ele>449.4</ele><time>2026-05-03T07:45:47.999Z</time></trkpt><trkpt lat="44.04728547987918" lon="11.969586196328462"><ele>447.2</ele><time>2026-05-03T07:45:48.999Z</time></trkpt><trkpt lat="44.04730281346905" lon="11.9697127736873"><ele>445.0</ele><time>2026-05-03T07:45:49.999Z</time></trkpt><trkpt lat="44.04732619163361" lon="11.969828040253836"><ele>445.00000000000006</ele><time>2026-05-03T07:45:50.999Z</time></trkpt><trkpt lat="44.047345691741896" lon="11.969936593139131"><ele>445.0</ele><time>2026-05-03T07:45:51.999Z</time></trkpt><trkpt lat="44.047359354968926" lon="11.970041366976892"><ele>445.0</ele><time>2026-05-03T07:45:52.999Z</time></trkpt><trkpt lat="44.04736562987767" lon="11.970143092710162"><ele>445.0</ele><time>2026-05-03T07:45:53.999Z</time></trkpt><trkpt lat="44.04737425348107" lon="11.970237754672127"><ele>445.00000000000006</ele><time>2026-05-03T07:45:54.999Z</time></trkpt><trkpt lat="44.047363282798685" lon="11.970341739412877"><ele>445.0</ele><time>2026-05-03T07:45:55.999Z</time></trkpt><trkpt lat="44.04730047319457" lon="11.97042994841574"><ele>443.6666666666667</ele><time>2026-05-03T07:45:56.999Z</time></trkpt><trkpt lat="44.047293615665325" lon="11.970537722623083"><ele>442.33333333333337</ele><time>2026-05-03T07:45:57.999Z</time></trkpt><trkpt lat="44.047291412373625" lon="11.970659586813206"><ele>441.0</ele><time>2026-05-03T07:45:58.999Z</time></trkpt><trkpt lat="44.04728808346527" lon="11.970786380827455"><ele>439.66666666666663</ele><time>2026-05-03T07:45:59.999Z</time></trkpt><trkpt lat="44.04728316986231" lon="11.970912890775008"><ele>438.3333333333333</ele><time>2026-05-03T07:46:00.999Z</time></trkpt><trkpt lat="44.047277910226654" lon="11.971030322649613"><ele>437.0</ele><time>2026-05-03T07:46:01.999Z</time></trkpt><trkpt lat="44.04729833762204" lon="11.971140039380858"><ele>434.8</ele><time>2026-05-03T07:46:02.999Z</time></trkpt><trkpt lat="44.047289636304846" lon="11.97123523158499"><ele>432.6</ele><time>2026-05-03T07:46:03.999Z</time></trkpt><trkpt lat="44.04726114181446" lon="11.971314296695306"><ele>430.40000000000003</ele><time>2026-05-03T07:46:04.999Z</time></trkpt><trkpt lat="44.04711715784342" lon="11.9713300912937"><ele>428.20000000000005</ele><time>2026-05-03T07:46:06.999Z</time></trkpt><trkpt lat="44.047038479100024" lon="11.971271620105918"><ele>426.0</ele><time>2026-05-03T07:46:07.999Z</time></trkpt><trkpt lat="44.04694564419777" lon="11.97121606801248"><ele>426.0</ele><time>2026-05-03T07:46:08.999Z</time></trkpt><trkpt lat="44.04684277518587" lon="11.971153302681614"><ele>426.0</ele><time>2026-05-03T07:46:09.999Z</time></trkpt><trkpt lat="44.046739924578745" lon="11.971088139403243"><ele>426.0</ele><time>2026-05-03T07:46:10.999Z</time></trkpt><trkpt lat="44.04662759923307" lon="11.971015023739648"><ele>426.0</ele><time>2026-05-03T07:46:11.999Z</time></trkpt><trkpt lat="44.046504274020094" lon="11.970934906970745"><ele>427.25</ele><time>2026-05-03T07:46:12.999Z</time></trkpt><trkpt lat="44.04637940930755" lon="11.970854032222297"><ele>428.5</ele><time>2026-05-03T07:46:13.999Z</time></trkpt><trkpt lat="44.04625656051519" lon="11.970774997812528"><ele>429.75</ele><time>2026-05-03T07:46:14.999Z</time></trkpt><trkpt lat="44.046133958840485" lon="11.970695897339601"><ele>431.0</ele><time>2026-05-03T07:46:15.999Z</time></trkpt><trkpt lat="44.04601356841928" lon="11.970616229281495"><ele>431.0</ele><time>2026-05-03T07:46:16.999Z</time></trkpt><trkpt lat="44.04590161588562" lon="11.970541439465281"><ele>431.0</ele><time>2026-05-03T07:46:17.999Z</time></trkpt><trkpt lat="44.04579849462768" lon="11.970480531115907"><ele>431.0</ele><time>2026-05-03T07:46:18.999Z</time></trkpt><trkpt lat="44.045694566959426" lon="11.970433918137823"><ele>431.0</ele><time>2026-05-03T07:46:19.999Z</time></trkpt><trkpt lat="44.04558697215509" lon="11.970470594515865"><ele>433.75</ele><time>2026-05-03T07:46:20.999Z</time></trkpt><trkpt lat="44.0454900323378" lon="11.970517252669044"><ele>436.5</ele><time>2026-05-03T07:46:21.999Z</time></trkpt><trkpt lat="44.045381097245226" lon="11.970591434179305"><ele>439.25</ele><time>2026-05-03T07:46:22.999Z</time></trkpt><trkpt lat="44.0452700699653" lon="11.970666004698892"><ele>442.0</ele><time>2026-05-03T07:46:23.999Z</time></trkpt><trkpt lat="44.04515097651013" lon="11.97073836633984"><ele>442.0</ele><time>2026-05-03T07:46:24.999Z</time></trkpt><trkpt lat="44.0450358344892" lon="11.970814783636444"><ele>442.0</ele><time>2026-05-03T07:46:25.999Z</time></trkpt><trkpt lat="44.044922265313595" lon="11.970888701527711"><ele>442.0</ele><time>2026-05-03T07:46:26.999Z</time></trkpt><trkpt lat="44.04480830570954" lon="11.970960327671255"><ele>442.0</ele><time>2026-05-03T07:46:27.999Z</time></trkpt><trkpt lat="44.044710868132434" lon="11.971013971942403"><ele>442.0</ele><time>2026-05-03T07:46:28.999Z</time></trkpt><trkpt lat="44.04461914619189" lon="11.971057460058997"><ele>442.00000000000006</ele><time>2026-05-03T07:46:29.999Z</time></trkpt><trkpt lat="44.044528050040036" lon="11.971105686268032"><ele>442.00000000000006</ele><time>2026-05-03T07:46:30.999Z</time></trkpt><trkpt lat="44.04444870431587" lon="11.9711471163727"><ele>442.0</ele><time>2026-05-03T07:46:31.999Z</time></trkpt><trkpt lat="44.044385749328995" lon="11.9711755363982"><ele>442.0</ele><time>2026-05-03T07:46:32.999Z</time></trkpt><trkpt lat="44.04426818635951" lon="11.971181341043255"><ele>442.0</ele><time>2026-05-03T07:46:34.999Z</time></trkpt><trkpt lat="44.04420745905384" lon="11.97128342338152"><ele>442.00000000000006</ele><time>2026-05-03T07:46:35.999Z</time></trkpt><trkpt lat="44.044140844625495" lon="11.971361093851948"><ele>442.00000000000006</ele><time>2026-05-03T07:46:36.999Z</time></trkpt><trkpt lat="44.044070515294" lon="11.971450483130386"><ele>442.0</ele><time>2026-05-03T07:46:37.999Z</time></trkpt><trkpt lat="44.044007799957555" lon="11.971546091924557"><ele>442.0</ele><time>2026-05-03T07:46:38.999Z</time></trkpt><trkpt lat="44.04394675280102" lon="11.971633866628554"><ele>436.1666666666667</ele><time>2026-05-03T07:46:39.999Z</time></trkpt><trkpt lat="44.04389997745804" lon="11.971707985939627"><ele>430.33333333333337</ele><time>2026-05-03T07:46:40.999Z</time></trkpt><trkpt lat="44.043859069393854" lon="11.97185354533708"><ele>424.5</ele><time>2026-05-03T07:46:42.999Z</time></trkpt><trkpt lat="44.04387644628776" lon="11.97200598396309"><ele>418.66666666666663</ele><time>2026-05-03T07:46:44.999Z</time></trkpt><trkpt lat="44.04392243264123" lon="11.972071797873376"><ele>412.8333333333333</ele><time>2026-05-03T07:46:45.999Z</time></trkpt><trkpt lat="44.04397098955484" lon="11.97216985314937"><ele>407.0</ele><time>2026-05-03T07:46:48.999Z</time></trkpt><trkpt lat="44.044013325959384" lon="11.972244658914981"><ele>407.0</ele><time>2026-05-03T07:46:55.999Z</time></trkpt><trkpt lat="44.04385552393092" lon="11.97222148762685"><ele>407.0</ele><time>2026-05-03T07:47:02.999Z</time></trkpt><trkpt lat="44.04378646351285" lon="11.972209208990714"><ele>407.0</ele><time>2026-05-03T07:47:03.999Z</time></trkpt><trkpt lat="44.043705613904066" lon="11.972162373806652"><ele>407.0</ele><time>2026-05-03T07:47:04.999Z</time></trkpt><trkpt lat="44.043615114119206" lon="11.972098166042143"><ele>407.0</ele><time>2026-05-03T07:47:07Z</time></trkpt><trkpt lat="44.04354149758691" lon="11.972072862126721"><ele>406.99999999999994</ele><time>2026-05-03T07:47:09Z</time></trkpt><trkpt lat="44.04341958938073" lon="11.972065080368537"><ele>407.0</ele><time>2026-05-03T07:47:11Z</time></trkpt><trkpt lat="44.04335456003389" lon="11.972047225409765"><ele>407.0</ele><time>2026-05-03T07:47:12Z</time></trkpt><trkpt lat="44.043272460568936" lon="11.972057056820844"><ele>407.0</ele><time>2026-05-03T07:47:13Z</time></trkpt><trkpt lat="44.043190273717784" lon="11.972091962114211"><ele>406.99999999999994</ele><time>2026-05-03T07:47:14Z</time></trkpt><trkpt lat="44.0431157819258" lon="11.972101108491017"><ele>407.0</ele><time>2026-05-03T07:47:15Z</time></trkpt><trkpt lat="44.04300236137077" lon="11.97213728783507"><ele>404.8333333333333</ele><time>2026-05-03T07:47:17Z</time></trkpt><trkpt lat="44.043089458312906" lon="11.972078282479563"><ele>402.66666666666663</ele><time>2026-05-03T07:47:22Z</time></trkpt><trkpt lat="44.043112241888956" lon="11.971990376113032"><ele>400.5</ele><time>2026-05-03T07:47:24Z</time></trkpt><trkpt lat="44.04303238023894" lon="11.971946818418932"><ele>398.33333333333337</ele><time>2026-05-03T07:47:26Z</time></trkpt><trkpt lat="44.04296874464617" lon="11.971969294979083"><ele>396.1666666666667</ele><time>2026-05-03T07:47:27Z</time></trkpt><trkpt lat="44.04285965713998" lon="11.971932132339422"><ele>394.0</ele><time>2026-05-03T07:47:29Z</time></trkpt><trkpt lat="44.042738365730585" lon="11.971954837108855"><ele>394.00000000000006</ele><time>2026-05-03T07:47:31Z</time></trkpt><trkpt lat="44.042656634388635" lon="11.972029277501427"><ele>394.0</ele><time>2026-05-03T07:47:33Z</time></trkpt><trkpt lat="44.04259829004598" lon="11.972068231029594"><ele>394.0</ele><time>2026-05-03T07:47:34Z</time></trkpt><trkpt lat="44.042530812116574" lon="11.972138900453272"><ele>394.0</ele><time>2026-05-03T07:47:36Z</time></trkpt><trkpt lat="44.04248065775425" lon="11.972208811150677"><ele>394.00000000000006</ele><time>2026-05-03T07:47:38Z</time></trkpt><trkpt lat="44.042411879146144" lon="11.972236454825365"><ele>394.0</ele><time>2026-05-03T07:47:43Z</time></trkpt><trkpt lat="44.04234372170398" lon="11.97228732722559"><ele>386.0</ele><time>2026-05-03T07:47:45.999Z</time></trkpt><trkpt lat="44.04226126560264" lon="11.972390390724229"><ele>378.0</ele><time>2026-05-03T07:47:47.999Z</time></trkpt><trkpt lat="44.04219999868553" lon="11.972503649736433"><ele>370.0</ele><time>2026-05-03T07:47:49.999Z</time></trkpt><trkpt lat="44.04219072858151" lon="11.972645136196267"><ele>362.0</ele><time>2026-05-03T07:47:51.999Z</time></trkpt><trkpt lat="44.04219746343996" lon="11.972796881875327"><ele>354.0</ele><time>2026-05-03T07:47:53.999Z</time></trkpt><trkpt lat="44.04215898953442" lon="11.972905105129552"><ele>354.0</ele><time>2026-05-03T07:47:55.999Z</time></trkpt><trkpt lat="44.04214773603984" lon="11.97305742875167"><ele>354.0</ele><time>2026-05-03T07:47:57.999Z</time></trkpt><trkpt lat="44.04213438759455" lon="11.973192995451084"><ele>354.0</ele><time>2026-05-03T07:47:59.999Z</time></trkpt><trkpt lat="44.04210161578939" lon="11.973306863522005"><ele>354.0</ele><time>2026-05-03T07:48:01.999Z</time></trkpt><trkpt lat="44.04204576020439" lon="11.973405039902575"><ele>354.0</ele><time>2026-05-03T07:48:03.999Z</time></trkpt><trkpt lat="44.0419879519041" lon="11.973488840669036"><ele>354.0</ele><time>2026-05-03T07:48:05.999Z</time></trkpt><trkpt lat="44.04191300682876" lon="11.97353510114304"><ele>354.0</ele><time>2026-05-03T07:48:08.999Z</time></trkpt><trkpt lat="44.041875524241284" lon="11.973436892046529"><ele>354.0</ele><time>2026-05-03T07:48:11.999Z</time></trkpt><trkpt lat="44.041920595004065" lon="11.973335610180202"><ele>354.0</ele><time>2026-05-03T07:48:14.999Z</time></trkpt><trkpt lat="44.04193749563606" lon="11.973218621576304"><ele>354.0</ele><time>2026-05-03T07:48:18.999Z</time></trkpt><trkpt lat="44.04197061751915" lon="11.973098931876832"><ele>354.0</ele><time>2026-05-03T07:48:20.999Z</time></trkpt><trkpt lat="44.04197857366901" lon="11.972961321407015"><ele>354.0</ele><time>2026-05-03T07:48:22.999Z</time></trkpt><trkpt lat="44.04197217613399" lon="11.972808819551112"><ele>354.0</ele><time>2026-05-03T07:48:24.999Z</time></trkpt><trkpt lat="44.041965225750864" lon="11.972671839414334"><ele>354.0</ele><time>2026-05-03T07:48:26.999Z</time></trkpt><trkpt lat="44.04194864960624" lon="11.972582120389047"><ele>354.0</ele><time>2026-05-03T07:48:28.999Z</time></trkpt><trkpt lat="44.04191875620516" lon="11.97246816139018"><ele>354.0</ele><time>2026-05-03T07:48:30.999Z</time></trkpt><trkpt lat="44.04189886115962" lon="11.972331090620463"><ele>353.6666666666667</ele><time>2026-05-03T07:48:32.999Z</time></trkpt><trkpt lat="44.04192195668524" lon="11.97222777866949"><ele>353.3333333333333</ele><time>2026-05-03T07:48:34.999Z</time></trkpt><trkpt lat="44.041989387362825" lon="11.97216798717839"><ele>353.0</ele><time>2026-05-03T07:48:36.999Z</time></trkpt><trkpt lat="44.042066504268085" lon="11.972084334298161"><ele>352.66666666666663</ele><time>2026-05-03T07:48:38.999Z</time></trkpt><trkpt lat="44.04214096881634" lon="11.971989688409552"><ele>352.3333333333333</ele><time>2026-05-03T07:48:40.999Z</time></trkpt><trkpt lat="44.04218501389885" lon="11.971919430620638"><ele>352.0</ele><time>2026-05-03T07:48:41.999Z</time></trkpt><trkpt lat="44.042247680054935" lon="11.971846747365056"><ele>352.0</ele><time>2026-05-03T07:48:43.999Z</time></trkpt><trkpt lat="44.042336942218185" lon="11.971786958991776"><ele>352.0</ele><time>2026-05-03T07:48:45.999Z</time></trkpt><trkpt lat="44.042404261446706" lon="11.971737122861605"><ele>352.0</ele><time>2026-05-03T07:48:47.999Z</time></trkpt><trkpt lat="44.042476318309866" lon="11.971676549602616"><ele>352.0</ele><time>2026-05-03T07:48:49.999Z</time></trkpt><trkpt lat="44.04253693462205" lon="11.971617810027782"><ele>352.0</ele><time>2026-05-03T07:48:51.999Z</time></trkpt><trkpt lat="44.042585371889764" lon="11.971527927059233"><ele>352.0</ele><time>2026-05-03T07:48:53.999Z</time></trkpt><trkpt lat="44.04265105681426" lon="11.97152511702601"><ele>356.5</ele><time>2026-05-03T07:48:55.999Z</time></trkpt><trkpt lat="44.04269132335183" lon="11.971431385575691"><ele>361.0</ele><time>2026-05-03T07:48:57.999Z</time></trkpt><trkpt lat="44.04272926622702" lon="11.971352382519488"><ele>365.5</ele><time>2026-05-03T07:48:59.999Z</time></trkpt><trkpt lat="44.042776864650484" lon="11.971261845914785"><ele>370.0</ele><time>2026-05-03T07:49:03.999Z</time></trkpt><trkpt lat="44.04278054242527" lon="11.971121139078587"><ele>374.5</ele><time>2026-05-03T07:49:05.999Z</time></trkpt><trkpt lat="44.04277587840214" lon="11.970994603265103"><ele>379.0</ele><time>2026-05-03T07:49:07.999Z</time></trkpt><trkpt lat="44.04280563776538" lon="11.970905495450818"><ele>376.66666666666663</ele><time>2026-05-03T07:49:09.999Z</time></trkpt><trkpt lat="44.04281349932081" lon="11.970766064930622"><ele>374.3333333333333</ele><time>2026-05-03T07:49:11.999Z</time></trkpt><trkpt lat="44.04279439842516" lon="11.970649170340899"><ele>372.0</ele><time>2026-05-03T07:49:14Z</time></trkpt><trkpt lat="44.04283532794594" lon="11.970550284165185"><ele>369.6666666666667</ele><time>2026-05-03T07:49:16Z</time></trkpt><trkpt lat="44.042800287901905" lon="11.970474627695067"><ele>367.33333333333337</ele><time>2026-05-03T07:49:19Z</time></trkpt><trkpt lat="44.042730017157055" lon="11.970422751321465"><ele>365.0</ele><time>2026-05-03T07:49:21Z</time></trkpt><trkpt lat="44.04266655021743" lon="11.970348026293706"><ele>365.0</ele><time>2026-05-03T07:50:27.999Z</time></trkpt><trkpt lat="44.04268193725126" lon="11.970221125090113"><ele>365.0</ele><time>2026-05-03T07:50:38.999Z</time></trkpt><trkpt lat="44.042680787973055" lon="11.970131307507799"><ele>365.0</ele><time>2026-05-03T07:50:49.999Z</time></trkpt><trkpt lat="44.042636409949516" lon="11.970038967722981"><ele>365.0</ele><time>2026-05-03T07:50:52.999Z</time></trkpt><trkpt lat="44.0425610558338" lon="11.970052092416719"><ele>365.0</ele><time>2026-05-03T07:50:56.999Z</time></trkpt><trkpt lat="44.04251302012523" lon="11.96998574723629"><ele>365.0</ele><time>2026-05-03T07:51:17.999Z</time></trkpt><trkpt lat="44.042509115432495" lon="11.969885296079395"><ele>363.28571428571433</ele><time>2026-05-03T07:51:38Z</time></trkpt><trkpt lat="44.04252980545074" lon="11.969801481390459"><ele>361.57142857142856</ele><time>2026-05-03T07:51:42Z</time></trkpt><trkpt lat="44.04248269472411" lon="11.969719703355299"><ele>359.8571428571429</ele><time>2026-05-03T07:54:41.999Z</time></trkpt><trkpt lat="44.04243686323629" lon="11.969780526806082"><ele>358.14285714285717</ele><time>2026-05-03T07:54:45.999Z</time></trkpt><trkpt lat="44.042459972437484" lon="11.969694117620577"><ele>356.42857142857144</ele><time>2026-05-03T07:55:17.999Z</time></trkpt><trkpt lat="44.04240399522276" lon="11.969744152431673"><ele>354.7142857142857</ele><time>2026-05-03T07:55:37Z</time></trkpt><trkpt lat="44.04234038939554" lon="11.969764276426181"><ele>353.0</ele><time>2026-05-03T07:55:43Z</time></trkpt><trkpt lat="44.042264713489" lon="11.969772056470205"><ele>353.0</ele><time>2026-05-03T07:55:48Z</time></trkpt><trkpt lat="44.04220269625591" lon="11.96979315190149"><ele>353.0</ele><time>2026-05-03T07:57:02.999Z</time></trkpt><trkpt lat="44.042124261231365" lon="11.969765707675919"><ele>353.0</ele><time>2026-05-03T08:01:51.999Z</time></trkpt><trkpt lat="44.04205469054559" lon="11.969709124253896"><ele>353.0</ele><time>2026-05-03T08:01:54.999Z</time></trkpt><trkpt lat="44.042041800034056" lon="11.969609429188694"><ele>353.0</ele><time>2026-05-03T08:01:56.999Z</time></trkpt><trkpt lat="44.0420567713956" lon="11.969515899645744"><ele>353.0</ele><time>2026-05-03T08:01:59.999Z</time></trkpt><trkpt lat="44.04209194640684" lon="11.969413361479946"><ele>353.0</ele><time>2026-05-03T08:02:01.999Z</time></trkpt><trkpt lat="44.04211344210609" lon="11.969274399062527"><ele>356.0</ele><time>2026-05-03T08:02:03.999Z</time></trkpt><trkpt lat="44.04215157234565" lon="11.96917511321593"><ele>359.0</ele><time>2026-05-03T08:02:05.999Z</time></trkpt><trkpt lat="44.042251440014404" lon="11.96917022042008"><ele>362.0</ele><time>2026-05-03T08:02:07.999Z</time></trkpt><trkpt lat="44.04235338234978" lon="11.969164447716533"><ele>365.0</ele><time>2026-05-03T08:02:09.999Z</time></trkpt><trkpt lat="44.04238143827033" lon="11.969070284936215"><ele>368.0</ele><time>2026-05-03T08:02:12.999Z</time></trkpt><trkpt lat="44.04237299122053" lon="11.968935321495497"><ele>368.0</ele><time>2026-05-03T08:02:14.999Z</time></trkpt><trkpt lat="44.042368967399696" lon="11.968819624058733"><ele>368.0</ele><time>2026-05-03T08:02:16.999Z</time></trkpt><trkpt lat="44.042355707349394" lon="11.968694865508692"><ele>368.0</ele><time>2026-05-03T08:02:19.999Z</time></trkpt><trkpt lat="44.04234149398698" lon="11.968607286448007"><ele>368.0</ele><time>2026-05-03T08:02:21.999Z</time></trkpt><trkpt lat="44.04234563864285" lon="11.968517834077591"><ele>368.0</ele><time>2026-05-03T08:02:23.999Z</time></trkpt><trkpt lat="44.04238452783096" lon="11.968417906839973"><ele>368.0</ele><time>2026-05-03T08:02:26.999Z</time></trkpt><trkpt lat="44.042417775153154" lon="11.968316081376294"><ele>370.83333333333337</ele><time>2026-05-03T08:02:32.999Z</time></trkpt><trkpt lat="44.042453323625665" lon="11.968237608838203"><ele>373.6666666666667</ele><time>2026-05-03T08:02:39.999Z</time></trkpt><trkpt lat="44.04247489286549" lon="11.968137396729809"><ele>376.5</ele><time>2026-05-03T08:02:45.999Z</time></trkpt><trkpt lat="44.042428567754165" lon="11.968042261840612"><ele>379.33333333333337</ele><time>2026-05-03T08:02:49.999Z</time></trkpt><trkpt lat="44.04244144675516" lon="11.967924407676842"><ele>382.1666666666667</ele><time>2026-05-03T08:02:53.999Z</time></trkpt><trkpt lat="44.04238052266994" lon="11.967865947916396"><ele>385.0</ele><time>2026-05-03T08:02:56.999Z</time></trkpt><trkpt lat="44.04236827972397" lon="11.967769902037448"><ele>385.0</ele><time>2026-05-03T08:02:59.999Z</time></trkpt><trkpt lat="44.04240035540527" lon="11.96768087921163"><ele>385.0</ele><time>2026-05-03T08:03:03.999Z</time></trkpt><trkpt lat="44.04244632028522" lon="11.967611976118684"><ele>385.0</ele><time>2026-05-03T08:03:06.999Z</time></trkpt><trkpt lat="44.04250927934928" lon="11.96754632002276"><ele>385.0</ele><time>2026-05-03T08:03:11.999Z</time></trkpt><trkpt lat="44.042463539588525" lon="11.967613383890184"><ele>385.0</ele><time>2026-05-03T08:03:32.999Z</time></trkpt><trkpt lat="44.0424450850521" lon="11.9675248710628"><ele>385.0</ele><time>2026-05-03T08:06:19.999Z</time></trkpt><trkpt lat="44.04249436437037" lon="11.967452428355385"><ele>385.0</ele><time>2026-05-03T08:06:28.999Z</time></trkpt><trkpt lat="44.04247176588836" lon="11.967340377786348"><ele>393.00000000000006</ele><time>2026-05-03T08:06:33.999Z</time></trkpt><trkpt lat="44.042546137993966" lon="11.96731584041301"><ele>401.0</ele><time>2026-05-03T08:06:37.999Z</time></trkpt><trkpt lat="44.04262141730132" lon="11.96728248831759"><ele>409.0</ele><time>2026-05-03T08:06:40.999Z</time></trkpt><trkpt lat="44.0426892239251" lon="11.967298130464714"><ele>417.0</ele><time>2026-05-03T08:06:44.999Z</time></trkpt><trkpt lat="44.04265127943671" lon="11.96721904228464"><ele>425.00000000000006</ele><time>2026-05-03T08:06:54.999Z</time></trkpt><trkpt lat="44.04268043342707" lon="11.967087224209067"><ele>433.0</ele><time>2026-05-03T08:06:58.999Z</time></trkpt><trkpt lat="44.04265761929184" lon="11.966967314456864"><ele>433.00000000000006</ele><time>2026-05-03T08:07:01.999Z</time></trkpt><trkpt lat="44.042589296565346" lon="11.966898824372407"><ele>433.0</ele><time>2026-05-03T08:07:03.999Z</time></trkpt><trkpt lat="44.04266299189219" lon="11.966871154115124"><ele>433.0</ele><time>2026-05-03T08:07:08.999Z</time></trkpt><trkpt lat="44.04263105127657" lon="11.966760463938934"><ele>433.0</ele><time>2026-05-03T08:07:17.999Z</time></trkpt><trkpt lat="44.04260253689402" lon="11.966679080267232"><ele>433.00000000000006</ele><time>2026-05-03T08:07:20.999Z</time></trkpt><trkpt lat="44.0425309483488" lon="11.966641159625505"><ele>433.0</ele><time>2026-05-03T08:07:45.999Z</time></trkpt><trkpt lat="44.0424542658357" lon="11.966598233246852"><ele>434.00000000000006</ele><time>2026-05-03T08:08:55.999Z</time></trkpt><trkpt lat="44.04236391645561" lon="11.96654973613507"><ele>435.0</ele><time>2026-05-03T08:08:57.999Z</time></trkpt><trkpt lat="44.04226409863571" lon="11.966524613890686"><ele>436.0</ele><time>2026-05-03T08:08:58.999Z</time></trkpt><trkpt lat="44.04216463685215" lon="11.966502932797752"><ele>437.0</ele><time>2026-05-03T08:08:59.999Z</time></trkpt><trkpt lat="44.04209653432438" lon="11.966505040875457"><ele>438.00000000000006</ele><time>2026-05-03T08:09:00.999Z</time></trkpt><trkpt lat="44.04205905784321" lon="11.966431422845927"><ele>439.0</ele><time>2026-05-03T08:09:01.999Z</time></trkpt><trkpt lat="44.0419882463976" lon="11.966388065910339"><ele>439.00000000000006</ele><time>2026-05-03T08:09:02.999Z</time></trkpt><trkpt lat="44.041915365909134" lon="11.966342338137927"><ele>439.0</ele><time>2026-05-03T08:09:03.999Z</time></trkpt><trkpt lat="44.04184617598369" lon="11.966310038211974"><ele>439.0</ele><time>2026-05-03T08:09:04.999Z</time></trkpt><trkpt lat="44.041774947189445" lon="11.966276274250529"><ele>439.0</ele><time>2026-05-03T08:09:06.999Z</time></trkpt><trkpt lat="44.04169000642548" lon="11.966203833823199"><ele>439.00000000000006</ele><time>2026-05-03T08:09:08.999Z</time></trkpt><trkpt lat="44.04164307299646" lon="11.966137645959357"><ele>439.0</ele><time>2026-05-03T08:09:09.999Z</time></trkpt><trkpt lat="44.041582282807624" lon="11.96597614836828"><ele>441.2</ele><time>2026-05-03T08:09:11.999Z</time></trkpt><trkpt lat="44.04149996969677" lon="11.96586275474881"><ele>443.4</ele><time>2026-05-03T08:09:13.999Z</time></trkpt><trkpt lat="44.04141032383423" lon="11.965791758382874"><ele>445.6</ele><time>2026-05-03T08:09:14.999Z</time></trkpt><trkpt lat="44.041322022983394" lon="11.965766104863707"><ele>447.8</ele><time>2026-05-03T08:09:15.999Z</time></trkpt><trkpt lat="44.04123042201258" lon="11.965740763398077"><ele>450.0</ele><time>2026-05-03T08:09:16.999Z</time></trkpt><trkpt lat="44.04113620983605" lon="11.965732619147204"><ele>450.0</ele><time>2026-05-03T08:09:17.999Z</time></trkpt><trkpt lat="44.04104515628898" lon="11.965745350954792"><ele>450.0</ele><time>2026-05-03T08:09:18.999Z</time></trkpt><trkpt lat="44.04094402614038" lon="11.965745190441236"><ele>450.0</ele><time>2026-05-03T08:09:19.999Z</time></trkpt><trkpt lat="44.04084385638306" lon="11.965783624097325"><ele>450.0</ele><time>2026-05-03T08:09:20.999Z</time></trkpt><trkpt lat="44.04075169705754" lon="11.96578306171011"><ele>450.0</ele><time>2026-05-03T08:09:21.999Z</time></trkpt><trkpt lat="44.04067856407049" lon="11.965794517005326"><ele>450.2</ele><time>2026-05-03T08:09:22.999Z</time></trkpt><trkpt lat="44.04058765595312" lon="11.965770538149018"><ele>450.4</ele><time>2026-05-03T08:09:23.999Z</time></trkpt><trkpt lat="44.040478606278484" lon="11.965765492757551"><ele>450.6</ele><time>2026-05-03T08:09:24.999Z</time></trkpt><trkpt lat="44.040374679942694" lon="11.965748059370059"><ele>450.8</ele><time>2026-05-03T08:09:25.999Z</time></trkpt><trkpt lat="44.04027697544929" lon="11.965724082716726"><ele>451.0</ele><time>2026-05-03T08:09:26.999Z</time></trkpt><trkpt lat="44.04019948134639" lon="11.965701315866445"><ele>451.0</ele><time>2026-05-03T08:09:27.999Z</time></trkpt><trkpt lat="44.040124870019504" lon="11.965719175474918"><ele>451.0</ele><time>2026-05-03T08:09:29.999Z</time></trkpt><trkpt lat="44.04002128301698" lon="11.965614904734112"><ele>451.0</ele><time>2026-05-03T08:09:31.999Z</time></trkpt><trkpt lat="44.039936477048784" lon="11.965568057378428"><ele>451.0</ele><time>2026-05-03T08:09:32.999Z</time></trkpt><trkpt lat="44.039857141122646" lon="11.965523191038482"><ele>451.0</ele><time>2026-05-03T08:09:33.999Z</time></trkpt><trkpt lat="44.039774910941226" lon="11.965489394691073"><ele>448.0</ele><time>2026-05-03T08:09:34.999Z</time></trkpt><trkpt lat="44.039697608879464" lon="11.965469936128201"><ele>445.0</ele><time>2026-05-03T08:09:35.999Z</time></trkpt><trkpt lat="44.03960738918832" lon="11.96547911912183"><ele>442.0</ele><time>2026-05-03T08:09:36.999Z</time></trkpt><trkpt lat="44.03951197966432" lon="11.965485819113532"><ele>439.0</ele><time>2026-05-03T08:09:37.999Z</time></trkpt><trkpt lat="44.039425847356824" lon="11.965461245224965"><ele>436.0</ele><time>2026-05-03T08:09:38.999Z</time></trkpt><trkpt lat="44.03933196271242" lon="11.965378703877988"><ele>436.0</ele><time>2026-05-03T08:09:39.999Z</time></trkpt><trkpt lat="44.03923073969889" lon="11.96536007842575"><ele>436.0</ele><time>2026-05-03T08:09:40.999Z</time></trkpt><trkpt lat="44.039130389722864" lon="11.965340234580047"><ele>436.0</ele><time>2026-05-03T08:09:42.999Z</time></trkpt><trkpt lat="44.039092160903834" lon="11.965247024018385"><ele>436.0</ele><time>2026-05-03T08:09:44.999Z</time></trkpt><trkpt lat="44.03902190679098" lon="11.965138809032265"><ele>436.0</ele><time>2026-05-03T08:09:46.999Z</time></trkpt><trkpt lat="44.03892564455737" lon="11.965169220321666"><ele>433.50000000000006</ele><time>2026-05-03T08:09:47.999Z</time></trkpt><trkpt lat="44.03886377380332" lon="11.965075990687753"><ele>431.0</ele><time>2026-05-03T08:09:51.999Z</time></trkpt><trkpt lat="44.03881879943227" lon="11.964987071035562"><ele>428.5</ele><time>2026-05-03T08:09:52.999Z</time></trkpt><trkpt lat="44.038778510252044" lon="11.964874518716082"><ele>426.0</ele><time>2026-05-03T08:09:54.999Z</time></trkpt><trkpt lat="44.038735438883116" lon="11.964771709240779"><ele>423.50000000000006</ele><time>2026-05-03T08:09:57.999Z</time></trkpt><trkpt lat="44.03868153927351" lon="11.964658939057045"><ele>421.0</ele><time>2026-05-03T08:09:59.999Z</time></trkpt><trkpt lat="44.0386314117851" lon="11.9645532432662"><ele>421.00000000000006</ele><time>2026-05-03T08:10:01.999Z</time></trkpt><trkpt lat="44.038650026174246" lon="11.964399911519848"><ele>421.0</ele><time>2026-05-03T08:10:03.999Z</time></trkpt><trkpt lat="44.03860984393165" lon="11.964290004413813"><ele>421.0</ele><time>2026-05-03T08:10:05.999Z</time></trkpt><trkpt lat="44.03857783337564" lon="11.96419070371441"><ele>421.0</ele><time>2026-05-03T08:10:07.999Z</time></trkpt><trkpt lat="44.03857604639481" lon="11.96408238173232"><ele>421.00000000000006</ele><time>2026-05-03T08:10:09.999Z</time></trkpt><trkpt lat="44.03855592372548" lon="11.963990346431123"><ele>421.0</ele><time>2026-05-03T08:10:12Z</time></trkpt><trkpt lat="44.03851849736779" lon="11.963870491742654"><ele>418.6666666666667</ele><time>2026-05-03T08:10:14Z</time></trkpt><trkpt lat="44.03849569746112" lon="11.963734198260857"><ele>416.33333333333337</ele><time>2026-05-03T08:10:17Z</time></trkpt><trkpt lat="44.038463178574986" lon="11.963647398620683"><ele>414.0</ele><time>2026-05-03T08:10:19Z</time></trkpt><trkpt lat="44.03842407337293" lon="11.963564737003878"><ele>411.66666666666663</ele><time>2026-05-03T08:10:21Z</time></trkpt><trkpt lat="44.03836637170357" lon="11.963475483612694"><ele>409.3333333333333</ele><time>2026-05-03T08:10:23Z</time></trkpt><trkpt lat="44.03830141969989" lon="11.963383367219095"><ele>407.0</ele><time>2026-05-03T08:10:25Z</time></trkpt><trkpt lat="44.03824941670335" lon="11.963322171042078"><ele>411.14285714285717</ele><time>2026-05-03T08:10:26Z</time></trkpt><trkpt lat="44.03820453707509" lon="11.963259581211588"><ele>415.2857142857143</ele><time>2026-05-03T08:10:27Z</time></trkpt><trkpt lat="44.038137620251085" lon="11.96321393783992"><ele>419.42857142857144</ele><time>2026-05-03T08:10:28Z</time></trkpt><trkpt lat="44.038098772264135" lon="11.963136367729705"><ele>423.57142857142856</ele><time>2026-05-03T08:10:29Z</time></trkpt><trkpt lat="44.038057162585474" lon="11.96305399394082"><ele>427.7142857142857</ele><time>2026-05-03T08:10:32Z</time></trkpt><trkpt lat="44.03801585742937" lon="11.962980759379818"><ele>431.8571428571429</ele><time>2026-05-03T08:10:34.999Z</time></trkpt><trkpt lat="44.03795646576076" lon="11.962909772017493"><ele>436.0</ele><time>2026-05-03T08:10:36.999Z</time></trkpt><trkpt lat="44.03789033043431" lon="11.962843972749763"><ele>436.0</ele><time>2026-05-03T08:10:38.999Z</time></trkpt><trkpt lat="44.03781259526999" lon="11.962773186839883"><ele>436.0</ele><time>2026-05-03T08:10:40.999Z</time></trkpt><trkpt lat="44.03818376876628" lon="11.962563268140322"><ele>436.0</ele><time>2026-05-03T08:10:41.999Z</time></trkpt><trkpt lat="44.03819558802521" lon="11.962463138269113"><ele>436.0</ele><time>2026-05-03T08:10:42.999Z</time></trkpt><trkpt lat="44.03768562459528" lon="11.962637418111065"><ele>436.0</ele><time>2026-05-03T08:10:43.999Z</time></trkpt><trkpt lat="44.03762910673119" lon="11.962576983928857"><ele>436.0</ele><time>2026-05-03T08:10:45.999Z</time></trkpt><trkpt lat="44.03753576628889" lon="11.962475101953792"><ele>436.0</ele><time>2026-05-03T08:10:47.999Z</time></trkpt><trkpt lat="44.03748087111627" lon="11.96241275397769"><ele>436.0</ele><time>2026-05-03T08:10:48.999Z</time></trkpt><trkpt lat="44.0373872548344" lon="11.962316987649691"><ele>436.0</ele><time>2026-05-03T08:10:50.999Z</time></trkpt><trkpt lat="44.03730903569959" lon="11.962270052582559"><ele>444.0</ele><time>2026-05-03T08:10:52.999Z</time></trkpt><trkpt lat="44.03724267846359" lon="11.962215589846855"><ele>452.0</ele><time>2026-05-03T08:10:54.999Z</time></trkpt><trkpt lat="44.03741389927836" lon="11.961560857346221"><ele>458.66666666666663</ele><time>2026-05-03T08:10:56.999Z</time></trkpt><trkpt lat="44.037356539397514" lon="11.961508319915993"><ele>465.3333333333333</ele><time>2026-05-03T08:10:58.999Z</time></trkpt><trkpt lat="44.03732473682885" lon="11.961428575758326"><ele>472.0</ele><time>2026-05-03T08:11:01.999Z</time></trkpt><trkpt lat="44.03731919778655" lon="11.96133263450715"><ele>478.66666666666663</ele><time>2026-05-03T08:11:03.999Z</time></trkpt><trkpt lat="44.03732640767739" lon="11.961166158862081"><ele>485.3333333333333</ele><time>2026-05-03T08:11:05.999Z</time></trkpt><trkpt lat="44.037281085888054" lon="11.961039999916691"><ele>492.0</ele><time>2026-05-03T08:11:07.999Z</time></trkpt><trkpt lat="44.037231315863124" lon="11.960951937668037"><ele>495.6</ele><time>2026-05-03T08:11:10.999Z</time></trkpt><trkpt lat="44.037224840190305" lon="11.960855215344267"><ele>499.20000000000005</ele><time>2026-05-03T08:11:12.999Z</time></trkpt><trkpt lat="44.03724477411974" lon="11.960744866324083"><ele>502.8</ele><time>2026-05-03T08:11:14.999Z</time></trkpt><trkpt lat="44.03722463423233" lon="11.960632570701367"><ele>506.4</ele><time>2026-05-03T08:11:16.999Z</time></trkpt><trkpt lat="44.037224883431755" lon="11.960486086156148"><ele>510.0</ele><time>2026-05-03T08:11:18.999Z</time></trkpt><trkpt lat="44.037239488086" lon="11.960326628117503"><ele>510.0</ele><time>2026-05-03T08:11:20.999Z</time></trkpt><trkpt lat="44.03721232534225" lon="11.960192129676178"><ele>510.0</ele><time>2026-05-03T08:11:22.999Z</time></trkpt><trkpt lat="44.03710884334378" lon="11.9601057520707"><ele>510.0</ele><time>2026-05-03T08:11:24.999Z</time></trkpt><trkpt lat="44.03702324878429" lon="11.960022836332872"><ele>510.0</ele><time>2026-05-03T08:11:26.999Z</time></trkpt><trkpt lat="44.03697396370764" lon="11.95996379270759"><ele>510.0</ele><time>2026-05-03T08:11:27.999Z</time></trkpt><trkpt lat="44.03686600256661" lon="11.959829449459644"><ele>509.8</ele><time>2026-05-03T08:11:29.999Z</time></trkpt><trkpt lat="44.036806051837154" lon="11.95977872882893"><ele>509.6</ele><time>2026-05-03T08:11:30.999Z</time></trkpt><trkpt lat="44.03670950363732" lon="11.95966810175435"><ele>509.4</ele><time>2026-05-03T08:11:32.999Z</time></trkpt><trkpt lat="44.036595198264116" lon="11.959584006878133"><ele>509.2</ele><time>2026-05-03T08:11:34.999Z</time></trkpt><trkpt lat="44.036521311230416" lon="11.959499083627191"><ele>509.0</ele><time>2026-05-03T08:11:36.999Z</time></trkpt><trkpt lat="44.03644270066376" lon="11.959360890913175"><ele>507.16666666666663</ele><time>2026-05-03T08:11:38.999Z</time></trkpt><trkpt lat="44.03639739747696" lon="11.959286111783076"><ele>505.3333333333333</ele><time>2026-05-03T08:11:39.999Z</time></trkpt><trkpt lat="44.03634221186042" lon="11.959226148494436"><ele>503.5</ele><time>2026-05-03T08:11:40.999Z</time></trkpt><trkpt lat="44.036282237953614" lon="11.959167384438253"><ele>501.66666666666663</ele><time>2026-05-03T08:11:41.999Z</time></trkpt><trkpt lat="44.03623998233406" lon="11.959089992577645"><ele>499.8333333333333</ele><time>2026-05-03T08:11:42.999Z</time></trkpt><trkpt lat="44.036232168042034" lon="11.958942061714293"><ele>498.0</ele><time>2026-05-03T08:11:44.999Z</time></trkpt><trkpt lat="44.03623125176156" lon="11.958831319125277"><ele>498.0</ele><time>2026-05-03T08:11:45.999Z</time></trkpt><trkpt lat="44.03623457192715" lon="11.958729054793471"><ele>497.99999999999994</ele><time>2026-05-03T08:11:46.999Z</time></trkpt><trkpt lat="44.03620794856922" lon="11.958629133948948"><ele>498.0</ele><time>2026-05-03T08:11:47.999Z</time></trkpt><trkpt lat="44.036197123560434" lon="11.958516754173704"><ele>498.0</ele><time>2026-05-03T08:11:48.999Z</time></trkpt><trkpt lat="44.03618969832804" lon="11.95841941800889"><ele>497.99999999999994</ele><time>2026-05-03T08:11:49.999Z</time></trkpt><trkpt lat="44.036173138559995" lon="11.95830967070344"><ele>498.0</ele><time>2026-05-03T08:11:50.999Z</time></trkpt><trkpt lat="44.03615753257215" lon="11.958220814668424"><ele>498.0</ele><time>2026-05-03T08:11:51.999Z</time></trkpt><trkpt lat="44.03612028630747" lon="11.958140089196672"><ele>496.6666666666667</ele><time>2026-05-03T08:11:52.999Z</time></trkpt><trkpt lat="44.03608105133084" lon="11.958062130274866"><ele>495.33333333333337</ele><time>2026-05-03T08:11:53.999Z</time></trkpt><trkpt lat="44.03597445802166" lon="11.957956607405524"><ele>494.0</ele><time>2026-05-03T08:11:55.999Z</time></trkpt><trkpt lat="44.03592175958669" lon="11.957905040916007"><ele>492.6666666666667</ele><time>2026-05-03T08:11:56.999Z</time></trkpt><trkpt lat="44.03585052173112" lon="11.957867935052686"><ele>491.33333333333337</ele><time>2026-05-03T08:11:57.999Z</time></trkpt><trkpt lat="44.0357605733186" lon="11.957882748555107"><ele>490.0</ele><time>2026-05-03T08:11:58.999Z</time></trkpt><trkpt lat="44.03567843352987" lon="11.957891101601913"><ele>490.00000000000006</ele><time>2026-05-03T08:11:59.999Z</time></trkpt><trkpt lat="44.03559773167461" lon="11.957879973985639"><ele>490.0</ele><time>2026-05-03T08:12:00.999Z</time></trkpt><trkpt lat="44.03552710229104" lon="11.957860662861027"><ele>490.0</ele><time>2026-05-03T08:12:01.999Z</time></trkpt><trkpt lat="44.035455367180575" lon="11.957819139624926"><ele>490.0</ele><time>2026-05-03T08:12:02.999Z</time></trkpt><trkpt lat="44.03536802236163" lon="11.95772247128035"><ele>490.00000000000006</ele><time>2026-05-03T08:12:04.999Z</time></trkpt><trkpt lat="44.035304175780965" lon="11.957621559997731"><ele>490.0</ele><time>2026-05-03T08:12:06.999Z</time></trkpt><trkpt lat="44.03531823876578" lon="11.957466108181062"><ele>492.8</ele><time>2026-05-03T08:12:08.999Z</time></trkpt><trkpt lat="44.035294100522215" lon="11.95731372321481"><ele>495.6</ele><time>2026-05-03T08:12:10.999Z</time></trkpt><trkpt lat="44.035282476341116" lon="11.957208455199993"><ele>498.4</ele><time>2026-05-03T08:12:11.999Z</time></trkpt><trkpt lat="44.0352682210414" lon="11.957106365493146"><ele>501.2</ele><time>2026-05-03T08:12:12.999Z</time></trkpt><trkpt lat="44.03521796917239" lon="11.956942828451416"><ele>504.0</ele><time>2026-05-03T08:12:14.999Z</time></trkpt><trkpt lat="44.03514758553007" lon="11.956860057457094"><ele>504.0</ele><time>2026-05-03T08:12:15.999Z</time></trkpt><trkpt lat="44.03510270231641" lon="11.95678831212918"><ele>504.0</ele><time>2026-05-03T08:12:16.999Z</time></trkpt><trkpt lat="44.03505422359192" lon="11.956722775032306"><ele>504.0</ele><time>2026-05-03T08:12:18Z</time></trkpt><trkpt lat="44.03497770672486" lon="11.95660748188599"><ele>504.0</ele><time>2026-05-03T08:12:20Z</time></trkpt><trkpt lat="44.03489733079032" lon="11.956522440443761"><ele>504.0</ele><time>2026-05-03T08:12:22Z</time></trkpt><trkpt lat="44.034877993487605" lon="11.956438897618005"><ele>504.0</ele><time>2026-05-03T08:12:23Z</time></trkpt><trkpt lat="44.034860876042224" lon="11.956352733092817"><ele>505.8333333333333</ele><time>2026-05-03T08:12:24Z</time></trkpt><trkpt lat="44.03480979683043" lon="11.956217359278105"><ele>507.66666666666663</ele><time>2026-05-03T08:12:26Z</time></trkpt><trkpt lat="44.03475718144049" lon="11.956165335911892"><ele>509.5</ele><time>2026-05-03T08:12:27Z</time></trkpt><trkpt lat="44.034676534975404" lon="11.956102690144833"><ele>511.3333333333333</ele><time>2026-05-03T08:12:29Z</time></trkpt><trkpt lat="44.03460710220032" lon="11.956024157605068"><ele>513.1666666666666</ele><time>2026-05-03T08:12:31Z</time></trkpt><trkpt lat="44.03454291421008" lon="11.95596490980599"><ele>515.0</ele><time>2026-05-03T08:12:33Z</time></trkpt><trkpt lat="44.034498287025784" lon="11.955831067397401"><ele>515.0</ele><time>2026-05-03T08:12:35Z</time></trkpt><trkpt lat="44.03433143320204" lon="11.955537573029956"><ele>515.0</ele><time>2026-05-03T08:12:37.999Z</time></trkpt><trkpt lat="44.03429676401228" lon="11.95545969048487"><ele>515.0</ele><time>2026-05-03T08:12:38.999Z</time></trkpt><trkpt lat="44.03421886847147" lon="11.955324305123279"><ele>511.0</ele><time>2026-05-03T08:12:40.999Z</time></trkpt><trkpt lat="44.03411164513051" lon="11.95522938984984"><ele>507.0</ele><time>2026-05-03T08:12:42.999Z</time></trkpt><trkpt lat="44.034012396698095" lon="11.955139395918366"><ele>503.0</ele><time>2026-05-03T08:12:44.999Z</time></trkpt><trkpt lat="44.033926056076744" lon="11.95500890053956"><ele>499.0</ele><time>2026-05-03T08:12:46.999Z</time></trkpt><trkpt lat="44.03382201711985" lon="11.954918346501861"><ele>499.0</ele><time>2026-05-03T08:12:48.999Z</time></trkpt><trkpt lat="44.03375657500662" lon="11.95479048904049"><ele>499.0</ele><time>2026-05-03T08:12:50.999Z</time></trkpt><trkpt lat="44.03371763222987" lon="11.954703983317565"><ele>499.0</ele><time>2026-05-03T08:12:51.999Z</time></trkpt><trkpt lat="44.03363169639321" lon="11.954610939279164"><ele>499.0</ele><time>2026-05-03T08:12:53.999Z</time></trkpt><trkpt lat="44.03363526276865" lon="11.954464464727783"><ele>499.0</ele><time>2026-05-03T08:12:55.999Z</time></trkpt><trkpt lat="44.03358330364016" lon="11.954320847797236"><ele>499.00000000000006</ele><time>2026-05-03T08:12:57.999Z</time></trkpt><trkpt lat="44.03352094221573" lon="11.9542957800955"><ele>499.0</ele><time>2026-05-03T08:12:58.999Z</time></trkpt><trkpt lat="44.03343539083226" lon="11.954222067901544"><ele>499.0</ele><time>2026-05-03T08:13:00.999Z</time></trkpt><trkpt lat="44.03341336085351" lon="11.954139565112152"><ele>499.0</ele><time>2026-05-03T08:13:02.999Z</time></trkpt><trkpt lat="44.03341439661794" lon="11.954045685468733"><ele>499.00000000000006</ele><time>2026-05-03T08:13:04.999Z</time></trkpt><trkpt lat="44.03336048984286" lon="11.95391899081863"><ele>499.0</ele><time>2026-05-03T08:13:07.999Z</time></trkpt><trkpt lat="44.03328653125371" lon="11.953777474781587"><ele>500.1666666666667</ele><time>2026-05-03T08:13:08.999Z</time></trkpt><trkpt lat="44.03321964441675" lon="11.953693248037313"><ele>501.33333333333337</ele><time>2026-05-03T08:13:09.999Z</time></trkpt><trkpt lat="44.03315551531036" lon="11.953620599304196"><ele>502.5</ele><time>2026-05-03T08:13:10.999Z</time></trkpt><trkpt lat="44.03311144073952" lon="11.95352467235904"><ele>503.66666666666663</ele><time>2026-05-03T08:13:11.999Z</time></trkpt><trkpt lat="44.03308520305139" lon="11.953414399307269"><ele>504.8333333333333</ele><time>2026-05-03T08:13:12.999Z</time></trkpt><trkpt lat="44.03306367270135" lon="11.9533246109662"><ele>506.0</ele><time>2026-05-03T08:13:13.999Z</time></trkpt><trkpt lat="44.03300915418332" lon="11.953268806648504"><ele>507.8</ele><time>2026-05-03T08:13:14.999Z</time></trkpt><trkpt lat="44.032941603960346" lon="11.953213848499672"><ele>509.6</ele><time>2026-05-03T08:13:15.999Z</time></trkpt><trkpt lat="44.03287044341475" lon="11.95313173312638"><ele>511.4</ele><time>2026-05-03T08:13:16.999Z</time></trkpt><trkpt lat="44.03278478280344" lon="11.953036657433696"><ele>513.2</ele><time>2026-05-03T08:13:17.999Z</time></trkpt><trkpt lat="44.03265246264231" lon="11.952935808685835"><ele>515.0</ele><time>2026-05-03T08:13:19.999Z</time></trkpt><trkpt lat="44.03257013077264" lon="11.952878434828376"><ele>507.0</ele><time>2026-05-03T08:13:21.999Z</time></trkpt><trkpt lat="44.032436544194624" lon="11.952734059213174"><ele>499.0</ele><time>2026-05-03T08:13:24.999Z</time></trkpt><trkpt lat="44.03240049555251" lon="11.952655077195608"><ele>491.0</ele><time>2026-05-03T08:13:25.999Z</time></trkpt><trkpt lat="44.03240971742435" lon="11.952511785930364"><ele>483.0</ele><time>2026-05-03T08:13:26.999Z</time></trkpt><trkpt lat="44.032370018852866" lon="11.952354653750817"><ele>483.0</ele><time>2026-05-03T08:13:27.999Z</time></trkpt><trkpt lat="44.032368661739355" lon="11.952240901155314"><ele>482.99999999999994</ele><time>2026-05-03T08:13:28.999Z</time></trkpt><trkpt lat="44.032357745071174" lon="11.952119059751013"><ele>482.99999999999994</ele><time>2026-05-03T08:13:29.999Z</time></trkpt><trkpt lat="44.03233948380551" lon="11.951974598807245"><ele>483.0</ele><time>2026-05-03T08:13:30.999Z</time></trkpt><trkpt lat="44.0322718526301" lon="11.951835127152727"><ele>483.0</ele><time>2026-05-03T08:13:31.999Z</time></trkpt><trkpt lat="44.03227046181561" lon="11.951692232840097"><ele>484.59999999999997</ele><time>2026-05-03T08:13:32.999Z</time></trkpt><trkpt lat="44.03225785071236" lon="11.951564205206859"><ele>486.19999999999993</ele><time>2026-05-03T08:13:33.999Z</time></trkpt><trkpt lat="44.03223725324179" lon="11.951441970453294"><ele>487.8</ele><time>2026-05-03T08:13:34.999Z</time></trkpt><trkpt lat="44.03220268902514" lon="11.951303118140775"><ele>489.4</ele><time>2026-05-03T08:13:35.999Z</time></trkpt><trkpt lat="44.03220699550364" lon="11.951154462524627"><ele>491.0</ele><time>2026-05-03T08:13:36.999Z</time></trkpt><trkpt lat="44.03224253118287" lon="11.951009973983183"><ele>491.0</ele><time>2026-05-03T08:13:37.999Z</time></trkpt><trkpt lat="44.03237429012923" lon="11.951006151400804"><ele>491.0</ele><time>2026-05-03T08:13:38.999Z</time></trkpt><trkpt lat="44.03232158217267" lon="11.950944456866633"><ele>491.0</ele><time>2026-05-03T08:13:41.999Z</time></trkpt><trkpt lat="44.03220583321976" lon="11.950998318344055"><ele>491.0</ele><time>2026-05-03T08:14:11.999Z</time></trkpt><trkpt lat="44.03221071228715" lon="11.950892822988292"><ele>491.0</ele><time>2026-05-03T08:14:19.999Z</time></trkpt><trkpt lat="44.032212806856826" lon="11.950777357486636"><ele>492.6</ele><time>2026-05-03T08:14:21.999Z</time></trkpt><trkpt lat="44.03220677875547" lon="11.950634326882819"><ele>494.20000000000005</ele><time>2026-05-03T08:14:24Z</time></trkpt><trkpt lat="44.03217079175796" lon="11.950494818633619"><ele>495.79999999999995</ele><time>2026-05-03T08:14:26Z</time></trkpt><trkpt lat="44.03223805183162" lon="11.950409477969677"><ele>497.4</ele><time>2026-05-03T08:14:27Z</time></trkpt><trkpt lat="44.032219541306695" lon="11.95028589408503"><ele>499.0</ele><time>2026-05-03T08:14:29Z</time></trkpt><trkpt lat="44.03220485657716" lon="11.950149585348763"><ele>501.00000000000006</ele><time>2026-05-03T08:14:31Z</time></trkpt><trkpt lat="44.03219574336398" lon="11.950029892319803"><ele>503.0</ele><time>2026-05-03T08:14:33Z</time></trkpt><trkpt lat="44.032187446359536" lon="11.94992091949246"><ele>505.0</ele><time>2026-05-03T08:14:35Z</time></trkpt><trkpt lat="44.032180431292616" lon="11.949828783609963"><ele>507.0</ele><time>2026-05-03T08:14:37Z</time></trkpt><trkpt lat="44.03217734210459" lon="11.949678273369061"><ele>509.00000000000006</ele><time>2026-05-03T08:14:40.999Z</time></trkpt><trkpt lat="44.03224925114637" lon="11.949598292859555"><ele>511.0</ele><time>2026-05-03T08:14:41.999Z</time></trkpt><trkpt lat="44.03232013904222" lon="11.949514349625709"><ele>511.00000000000006</ele><time>2026-05-03T08:14:43.999Z</time></trkpt><trkpt lat="44.03240017945659" lon="11.94940162864685"><ele>511.0</ele><time>2026-05-03T08:14:45.999Z</time></trkpt><trkpt lat="44.03244014891306" lon="11.949331666314224"><ele>511.0</ele><time>2026-05-03T08:14:46.999Z</time></trkpt><trkpt lat="44.03248209236799" lon="11.949256547790483"><ele>511.0</ele><time>2026-05-03T08:14:47.999Z</time></trkpt><trkpt lat="44.0325301307853" lon="11.94917751727833"><ele>511.00000000000006</ele><time>2026-05-03T08:14:48.999Z</time></trkpt><trkpt lat="44.03257244633946" lon="11.949088554551874"><ele>511.0</ele><time>2026-05-03T08:14:49.999Z</time></trkpt><trkpt lat="44.03258804646551" lon="11.949001098660398"><ele>515.1666666666667</ele><time>2026-05-03T08:14:50.999Z</time></trkpt><trkpt lat="44.03259802028022" lon="11.948906655363505"><ele>519.3333333333334</ele><time>2026-05-03T08:14:51.999Z</time></trkpt><trkpt lat="44.032605497501194" lon="11.94880709818793"><ele>523.5</ele><time>2026-05-03T08:14:52.999Z</time></trkpt><trkpt lat="44.032613234314404" lon="11.948717386402683"><ele>527.6666666666666</ele><time>2026-05-03T08:14:53.999Z</time></trkpt><trkpt lat="44.03262106114342" lon="11.948626592727459"><ele>531.8333333333333</ele><time>2026-05-03T08:14:54.999Z</time></trkpt><trkpt lat="44.03259964998657" lon="11.94846911418081"><ele>536.0</ele><time>2026-05-03T08:14:56.999Z</time></trkpt><trkpt lat="44.032575700646504" lon="11.948381716268521"><ele>536.3333333333333</ele><time>2026-05-03T08:14:57.999Z</time></trkpt><trkpt lat="44.032534413954956" lon="11.948303237300381"><ele>536.6666666666666</ele><time>2026-05-03T08:14:58.999Z</time></trkpt><trkpt lat="44.032426314477654" lon="11.948236279241952"><ele>537.0</ele><time>2026-05-03T08:15:00.999Z</time></trkpt><trkpt lat="44.032356661227396" lon="11.948235238399576"><ele>537.3333333333334</ele><time>2026-05-03T08:15:01.999Z</time></trkpt><trkpt lat="44.03229398493965" lon="11.948219012828465"><ele>537.6666666666667</ele><time>2026-05-03T08:15:02.999Z</time></trkpt><trkpt lat="44.03224211492329" lon="11.948162355059404"><ele>538.0</ele><time>2026-05-03T08:15:03.999Z</time></trkpt><trkpt lat="44.03215098892891" lon="11.948063756855289"><ele>538.0</ele><time>2026-05-03T08:15:05.999Z</time></trkpt><trkpt lat="44.03208719040361" lon="11.94795060228824"><ele>538.0</ele><time>2026-05-03T08:15:07.999Z</time></trkpt><trkpt lat="44.032083435888595" lon="11.947819746276267"><ele>538.0</ele><time>2026-05-03T08:15:09.999Z</time></trkpt><trkpt lat="44.03208010249155" lon="11.947725757296883"><ele>538.0</ele><time>2026-05-03T08:15:10.999Z</time></trkpt><trkpt lat="44.03204682918331" lon="11.947581427628103"><ele>538.0</ele><time>2026-05-03T08:15:12.999Z</time></trkpt><trkpt lat="44.03201695550509" lon="11.94742731120476"><ele>540.5</ele><time>2026-05-03T08:15:14.999Z</time></trkpt><trkpt lat="44.03199050157938" lon="11.947292479344908"><ele>543.0</ele><time>2026-05-03T08:15:16.999Z</time></trkpt><trkpt lat="44.031934310909186" lon="11.947157809892975"><ele>545.5</ele><time>2026-05-03T08:15:18.999Z</time></trkpt><trkpt lat="44.03190493669733" lon="11.947071477734713"><ele>548.0</ele><time>2026-05-03T08:15:19.999Z</time></trkpt><trkpt lat="44.03187314292987" lon="11.946975004925173"><ele>550.5</ele><time>2026-05-03T08:15:20.999Z</time></trkpt><trkpt lat="44.031844685556074" lon="11.946875935746712"><ele>553.0</ele><time>2026-05-03T08:15:21.999Z</time></trkpt><trkpt lat="44.031800985328346" lon="11.94669816036014"><ele>556.1999999999999</ele><time>2026-05-03T08:15:23.999Z</time></trkpt><trkpt lat="44.03178818039376" lon="11.946525494357832"><ele>559.4</ele><time>2026-05-03T08:15:25.999Z</time></trkpt><trkpt lat="44.03178924545369" lon="11.946426373088597"><ele>562.5999999999999</ele><time>2026-05-03T08:15:26.999Z</time></trkpt><trkpt lat="44.031784567969346" lon="11.946257761904812"><ele>565.8</ele><time>2026-05-03T08:15:28.999Z</time></trkpt><trkpt lat="44.03177741387968" lon="11.94616422277114"><ele>569.0</ele><time>2026-05-03T08:15:29.999Z</time></trkpt><trkpt lat="44.031751301518945" lon="11.946063949057185"><ele>569.0000000000001</ele><time>2026-05-03T08:15:30.999Z</time></trkpt><trkpt lat="44.031720309866884" lon="11.945984007905656"><ele>569.0</ele><time>2026-05-03T08:15:31.999Z</time></trkpt><trkpt lat="44.03168844849577" lon="11.945907885618604"><ele>569.0</ele><time>2026-05-03T08:15:32.999Z</time></trkpt><trkpt lat="44.03167455736677" lon="11.945737775103057"><ele>569.0</ele><time>2026-05-03T08:15:34.999Z</time></trkpt><trkpt lat="44.03167250059199" lon="11.945649902356303"><ele>569.0</ele><time>2026-05-03T08:15:35.999Z</time></trkpt><trkpt lat="44.031653059321144" lon="11.945560943451806"><ele>569.0000000000001</ele><time>2026-05-03T08:15:36.999Z</time></trkpt><trkpt lat="44.03166486291145" lon="11.945471323254326"><ele>569.0</ele><time>2026-05-03T08:15:37.999Z</time></trkpt><trkpt lat="44.03167789189037" lon="11.945370531777927"><ele>571.8333333333333</ele><time>2026-05-03T08:15:38.999Z</time></trkpt><trkpt lat="44.03168578834027" lon="11.94526578601881"><ele>574.6666666666666</ele><time>2026-05-03T08:15:39.999Z</time></trkpt><trkpt lat="44.03167504325533" lon="11.945168131049924"><ele>577.5</ele><time>2026-05-03T08:15:40.999Z</time></trkpt><trkpt lat="44.03167467617219" lon="11.945071004888048"><ele>580.3333333333334</ele><time>2026-05-03T08:15:41.999Z</time></trkpt><trkpt lat="44.03166238225205" lon="11.94488709152504"><ele>583.1666666666667</ele><time>2026-05-03T08:15:43.999Z</time></trkpt><trkpt lat="44.03168488899435" lon="11.944794770534799"><ele>586.0</ele><time>2026-05-03T08:15:44.999Z</time></trkpt><trkpt lat="44.03171679768781" lon="11.944681967302978"><ele>586.0</ele><time>2026-05-03T08:15:45.999Z</time></trkpt><trkpt lat="44.031741704014024" lon="11.944594827390704"><ele>586.0</ele><time>2026-05-03T08:15:46.999Z</time></trkpt><trkpt lat="44.03171351667972" lon="11.944502153772168"><ele>586.0</ele><time>2026-05-03T08:15:47.999Z</time></trkpt><trkpt lat="44.03167035842118" lon="11.944397493708847"><ele>586.0</ele><time>2026-05-03T08:15:48.999Z</time></trkpt><trkpt lat="44.03158093347306" lon="11.944268169221711"><ele>586.0</ele><time>2026-05-03T08:15:49.999Z</time></trkpt><trkpt lat="44.03150811942658" lon="11.944151638288407"><ele>586.0</ele><time>2026-05-03T08:15:50.999Z</time></trkpt><trkpt lat="44.03145579830115" lon="11.944039319571734"><ele>586.0</ele><time>2026-05-03T08:15:51.999Z</time></trkpt><trkpt lat="44.03142333808114" lon="11.943930948277377"><ele>586.0</ele><time>2026-05-03T08:15:52.999Z</time></trkpt><trkpt lat="44.03139733732533" lon="11.943801762043181"><ele>586.0</ele><time>2026-05-03T08:15:53.999Z</time></trkpt><trkpt lat="44.03137734282523" lon="11.943687487226667"><ele>586.0</ele><time>2026-05-03T08:15:54.999Z</time></trkpt><trkpt lat="44.03136509870572" lon="11.94360060905602"><ele>586.0</ele><time>2026-05-03T08:15:55.999Z</time></trkpt><trkpt lat="44.031304397770555" lon="11.943558677670408"><ele>586.0</ele><time>2026-05-03T08:16:01.999Z</time></trkpt><trkpt lat="44.031281475278945" lon="11.94364761193139"><ele>586.0</ele><time>2026-05-03T08:16:03.999Z</time></trkpt><trkpt lat="44.031297669793396" lon="11.94375261063616"><ele>586.0</ele><time>2026-05-03T08:16:06.999Z</time></trkpt><trkpt lat="44.03127578137684" lon="11.94385731104324"><ele>586.0</ele><time>2026-05-03T08:16:08.999Z</time></trkpt><trkpt lat="44.03126551758185" lon="11.943978781504194"><ele>586.0</ele><time>2026-05-03T08:16:10.999Z</time></trkpt><trkpt lat="44.03124111785784" lon="11.944126944543852"><ele>586.0</ele><time>2026-05-03T08:16:12.999Z</time></trkpt><trkpt lat="44.03123747509968" lon="11.944277286812136"><ele>586.5</ele><time>2026-05-03T08:16:14.999Z</time></trkpt><trkpt lat="44.03123937914488" lon="11.944395570300674"><ele>587.0</ele><time>2026-05-03T08:16:16.999Z</time></trkpt><trkpt lat="44.03122487680955" lon="11.944510253454967"><ele>587.5</ele><time>2026-05-03T08:16:18.999Z</time></trkpt><trkpt lat="44.031205394916384" lon="11.944613143568557"><ele>588.0</ele><time>2026-05-03T08:16:25.999Z</time></trkpt><trkpt lat="44.03118744611331" lon="11.94470124851129"><ele>588.5</ele><time>2026-05-03T08:16:28.999Z</time></trkpt><trkpt lat="44.03116491392708" lon="11.944783267617158"><ele>589.0</ele><time>2026-05-03T08:16:32Z</time></trkpt><trkpt lat="44.031124423183115" lon="11.94491593186327"><ele>589.0</ele><time>2026-05-03T08:16:35Z</time></trkpt><trkpt lat="44.031091618831276" lon="11.945024195146662"><ele>589.0</ele><time>2026-05-03T08:16:37Z</time></trkpt><trkpt lat="44.03105098994663" lon="11.94510372696113"><ele>589.0</ele><time>2026-05-03T08:16:39Z</time></trkpt><trkpt lat="44.031031252569285" lon="11.945211156169778"><ele>589.0</ele><time>2026-05-03T08:16:41Z</time></trkpt><trkpt lat="44.03101981903916" lon="11.945319106934072"><ele>589.0</ele><time>2026-05-03T08:16:43Z</time></trkpt><trkpt lat="44.03099634407649" lon="11.945408149380842"><ele>589.0</ele><time>2026-05-03T08:16:45Z</time></trkpt><trkpt lat="44.03096721794063" lon="11.945529400129141"><ele>587.8333333333334</ele><time>2026-05-03T08:16:47Z</time></trkpt><trkpt lat="44.03094033426485" lon="11.945622607231025"><ele>586.6666666666667</ele><time>2026-05-03T08:16:49Z</time></trkpt><trkpt lat="44.03088551972425" lon="11.945695690964445"><ele>585.5</ele><time>2026-05-03T08:16:50.999Z</time></trkpt><trkpt lat="44.030825159368085" lon="11.94573359507758"><ele>584.3333333333334</ele><time>2026-05-03T08:16:51.999Z</time></trkpt><trkpt lat="44.03076931752224" lon="11.945833884801218"><ele>583.1666666666666</ele><time>2026-05-03T08:16:53.999Z</time></trkpt><trkpt lat="44.030704251701735" lon="11.945910860925597"><ele>582.0</ele><time>2026-05-03T08:16:55.999Z</time></trkpt><trkpt lat="44.03058148176797" lon="11.945924355142857"><ele>579.3333333333334</ele><time>2026-05-03T08:16:57.999Z</time></trkpt><trkpt lat="44.03047864354265" lon="11.945925683908515"><ele>576.6666666666666</ele><time>2026-05-03T08:16:59.999Z</time></trkpt><trkpt lat="44.03040719361232" lon="11.945930092588187"><ele>574.0</ele><time>2026-05-03T08:17:00.999Z</time></trkpt><trkpt lat="44.03033485417041" lon="11.94591168644983"><ele>571.3333333333333</ele><time>2026-05-03T08:17:02.999Z</time></trkpt><trkpt lat="44.03023338928837" lon="11.945892916833085"><ele>568.6666666666666</ele><time>2026-05-03T08:17:07.999Z</time></trkpt><trkpt lat="44.03016269215065" lon="11.945851169782362"><ele>566.0</ele><time>2026-05-03T08:17:09.999Z</time></trkpt><trkpt lat="44.03007451767028" lon="11.945790616869877"><ele>566.0</ele><time>2026-05-03T08:17:11.999Z</time></trkpt><trkpt lat="44.0300067123945" lon="11.945778819838772"><ele>566.0</ele><time>2026-05-03T08:17:12.999Z</time></trkpt><trkpt lat="44.02994122098477" lon="11.945732702521743"><ele>566.0</ele><time>2026-05-03T08:17:13.999Z</time></trkpt><trkpt lat="44.029879450143845" lon="11.945693610871334"><ele>566.0</ele><time>2026-05-03T08:17:14.999Z</time></trkpt><trkpt lat="44.029809368941265" lon="11.945688786349836"><ele>566.0</ele><time>2026-05-03T08:17:17.999Z</time></trkpt><trkpt lat="44.02974600637404" lon="11.945722282512234"><ele>566.0</ele><time>2026-05-03T08:17:20.999Z</time></trkpt><trkpt lat="44.029689081792235" lon="11.945805954873844"><ele>566.0</ele><time>2026-05-03T08:17:24.999Z</time></trkpt><trkpt lat="44.02968639204581" lon="11.945901533811128"><ele>558.8333333333333</ele><time>2026-05-03T08:17:26.999Z</time></trkpt><trkpt lat="44.02966799692136" lon="11.945988301410905"><ele>551.6666666666666</ele><time>2026-05-03T08:17:31.999Z</time></trkpt><trkpt lat="44.02961530591132" lon="11.946069136906155"><ele>544.5</ele><time>2026-05-03T08:17:33.999Z</time></trkpt><trkpt lat="44.029578164772346" lon="11.946147177415849"><ele>537.3333333333334</ele><time>2026-05-03T08:17:36.999Z</time></trkpt><trkpt lat="44.02953838962413" lon="11.946265929062273"><ele>530.1666666666667</ele><time>2026-05-03T08:17:39.999Z</time></trkpt><trkpt lat="44.029574389752845" lon="11.946351274567911"><ele>523.0</ele><time>2026-05-03T08:17:42.999Z</time></trkpt><trkpt lat="44.0296150117661" lon="11.946463107056426"><ele>523.0</ele><time>2026-05-03T08:17:46.999Z</time></trkpt><trkpt lat="44.0296548527534" lon="11.946544503415604"><ele>523.0</ele><time>2026-05-03T08:17:51.999Z</time></trkpt><trkpt lat="44.029703193465096" lon="11.946620819236507"><ele>523.0</ele><time>2026-05-03T08:17:53.999Z</time></trkpt><trkpt lat="44.02975972020738" lon="11.946706725878617"><ele>523.0</ele><time>2026-05-03T08:17:57.999Z</time></trkpt><trkpt lat="44.029805225355034" lon="11.946772553598919"><ele>523.0</ele><time>2026-05-03T08:18:00.999Z</time></trkpt><trkpt lat="44.02985177541768" lon="11.946852033560035"><ele>523.0</ele><time>2026-05-03T08:18:04.999Z</time></trkpt><trkpt lat="44.0298769446172" lon="11.94696547654537"><ele>523.0</ele><time>2026-05-03T08:18:09.999Z</time></trkpt><trkpt lat="44.0297982162659" lon="11.946971438292223"><ele>523.0</ele><time>2026-05-03T08:18:12.999Z</time></trkpt><trkpt lat="44.02973163127989" lon="11.946948636718261"><ele>523.0</ele><time>2026-05-03T08:18:16.999Z</time></trkpt><trkpt lat="44.029636255073534" lon="11.946897172096557"><ele>523.0</ele><time>2026-05-03T08:18:19.999Z</time></trkpt><trkpt lat="44.02953789613531" lon="11.946875232588015"><ele>523.0</ele><time>2026-05-03T08:18:21.999Z</time></trkpt><trkpt lat="44.029496442524334" lon="11.94678851732095"><ele>523.0</ele><time>2026-05-03T08:18:24.999Z</time></trkpt><trkpt lat="44.02948446382996" lon="11.946678349921502"><ele>523.0</ele><time>2026-05-03T08:18:28.999Z</time></trkpt><trkpt lat="44.029465399751494" lon="11.946572031663104"><ele>523.0</ele><time>2026-05-03T08:18:32.999Z</time></trkpt><trkpt lat="44.029436995383705" lon="11.946458382116672"><ele>523.0</ele><time>2026-05-03T08:18:36Z</time></trkpt><trkpt lat="44.029419574104985" lon="11.946369180929558"><ele>523.0</ele><time>2026-05-03T08:18:39Z</time></trkpt><trkpt lat="44.02938609608785" lon="11.946262935184697"><ele>523.0</ele><time>2026-05-03T08:18:42Z</time></trkpt><trkpt lat="44.02938539843657" lon="11.946166343484833"><ele>523.0</ele><time>2026-05-03T08:18:44Z</time></trkpt><trkpt lat="44.029349043070155" lon="11.946022597678851"><ele>523.0</ele><time>2026-05-03T08:18:46Z</time></trkpt><trkpt lat="44.02931889065219" lon="11.945919692600889"><ele>523.0</ele><time>2026-05-03T08:18:48Z</time></trkpt><trkpt lat="44.029299809554516" lon="11.945828821248481"><ele>523.0</ele><time>2026-05-03T08:18:50Z</time></trkpt><trkpt lat="44.02926274226223" lon="11.945757109284761"><ele>523.0</ele><time>2026-05-03T08:18:52Z</time></trkpt><trkpt lat="44.02921561309613" lon="11.945668814295692"><ele>523.0</ele><time>2026-05-03T08:18:55Z</time></trkpt><trkpt lat="44.029154284937576" lon="11.945558857608537"><ele>523.0</ele><time>2026-05-03T08:18:58Z</time></trkpt><trkpt lat="44.02913976710847" lon="11.945455295737988"><ele>518.1666666666667</ele><time>2026-05-03T08:19:00Z</time></trkpt><trkpt lat="44.02911945657051" lon="11.94534513461936"><ele>513.3333333333334</ele><time>2026-05-03T08:19:01.999Z</time></trkpt><trkpt lat="44.02909415122803" lon="11.94524898050185"><ele>508.5</ele><time>2026-05-03T08:19:03.999Z</time></trkpt><trkpt lat="44.02904287692755" lon="11.945156337236382"><ele>503.66666666666663</ele><time>2026-05-03T08:19:06.999Z</time></trkpt><trkpt lat="44.0290139501566" lon="11.945071214241658"><ele>498.8333333333333</ele><time>2026-05-03T08:19:10.999Z</time></trkpt><trkpt lat="44.02901536466261" lon="11.944937177246725"><ele>494.0</ele><time>2026-05-03T08:19:18.999Z</time></trkpt><trkpt lat="44.029088957375585" lon="11.94490228933758"><ele>499.66666666666663</ele><time>2026-05-03T08:19:21.999Z</time></trkpt><trkpt lat="44.02917175922261" lon="11.944818875400525"><ele>505.3333333333333</ele><time>2026-05-03T08:19:24.999Z</time></trkpt><trkpt lat="44.029242288974075" lon="11.944762415244945"><ele>511.0</ele><time>2026-05-03T08:19:26.999Z</time></trkpt><trkpt lat="44.029303394761705" lon="11.944738228077652"><ele>516.6666666666666</ele><time>2026-05-03T08:19:27.999Z</time></trkpt><trkpt lat="44.02936283027803" lon="11.944691217040905"><ele>522.3333333333334</ele><time>2026-05-03T08:19:28.999Z</time></trkpt><trkpt lat="44.02944759602487" lon="11.944636515368279"><ele>528.0</ele><time>2026-05-03T08:19:30.999Z</time></trkpt><trkpt lat="44.0295138820298" lon="11.94456457244671"><ele>528.0</ele><time>2026-05-03T08:19:32.999Z</time></trkpt><trkpt lat="44.029449112944064" lon="11.94454920038509"><ele>528.0</ele><time>2026-05-03T08:19:36.999Z</time></trkpt><trkpt lat="44.02949990639657" lon="11.944480885791979"><ele>528.0</ele><time>2026-05-03T08:19:39.999Z</time></trkpt><trkpt lat="44.02944142065332" lon="11.944398038842966"><ele>528.0</ele><time>2026-05-03T08:19:42.999Z</time></trkpt><trkpt lat="44.029368277661845" lon="11.944392929427423"><ele>528.0</ele><time>2026-05-03T08:19:46.999Z</time></trkpt><trkpt lat="44.02928391494864" lon="11.944342636527796"><ele>528.0</ele><time>2026-05-03T08:19:50.999Z</time></trkpt><trkpt lat="44.029225892524565" lon="11.944305521312202"><ele>528.0</ele><time>2026-05-03T08:19:54.999Z</time></trkpt><trkpt lat="44.02917190271718" lon="11.944258651367894"><ele>525.0</ele><time>2026-05-03T08:19:58.999Z</time></trkpt><trkpt lat="44.02914283559516" lon="11.944162921820238"><ele>522.0</ele><time>2026-05-03T08:20:05.999Z</time></trkpt><trkpt lat="44.029135590580104" lon="11.944047169132439"><ele>519.0</ele><time>2026-05-03T08:20:09.999Z</time></trkpt><trkpt lat="44.02907784343504" lon="11.943976292986806"><ele>516.0</ele><time>2026-05-03T08:20:12.999Z</time></trkpt><trkpt lat="44.02904247385003" lon="11.943879315398506"><ele>513.0</ele><time>2026-05-03T08:20:16.999Z</time></trkpt><trkpt lat="44.02907107569449" lon="11.94379352716011"><ele>510.0</ele><time>2026-05-03T08:20:21.999Z</time></trkpt><trkpt lat="44.029133928814055" lon="11.943734573225823"><ele>510.0</ele><time>2026-05-03T08:20:26.999Z</time></trkpt><trkpt lat="44.02924964331513" lon="11.943718709483901"><ele>510.0</ele><time>2026-05-03T08:20:43Z</time></trkpt><trkpt lat="44.02930677150708" lon="11.943642832256394"><ele>510.0</ele><time>2026-05-03T08:21:06.999Z</time></trkpt><trkpt lat="44.02929535730088" lon="11.94352102522678"><ele>510.0</ele><time>2026-05-03T08:21:21.999Z</time></trkpt><trkpt lat="44.029282361934534" lon="11.943433866244552"><ele>510.0</ele><time>2026-05-03T08:21:25.999Z</time></trkpt><trkpt lat="44.029258460374884" lon="11.943351829860633"><ele>510.0</ele><time>2026-05-03T08:21:32.999Z</time></trkpt><trkpt lat="44.02934425870544" lon="11.943408240948127"><ele>510.0</ele><time>2026-05-03T08:22:59.001Z</time></trkpt><trkpt lat="44.02939500988401" lon="11.943475250341615"><ele>510.0</ele><time>2026-05-03T08:23:02.001Z</time></trkpt><trkpt lat="44.02941053430152" lon="11.943589750150979"><ele>510.0</ele><time>2026-05-03T08:23:06.001Z</time></trkpt><trkpt lat="44.02937845991886" lon="11.943679443213506"><ele>510.0</ele><time>2026-05-03T08:23:12.001Z</time></trkpt><trkpt lat="44.02931295441202" lon="11.943671421390682"><ele>510.0</ele><time>2026-05-03T08:23:38Z</time></trkpt><trkpt lat="44.02922519852218" lon="11.94363150254595"><ele>510.0</ele><time>2026-05-03T08:26:29Z</time></trkpt><trkpt lat="44.02915773672236" lon="11.943575892388896"><ele>506.0</ele><time>2026-05-03T08:26:49Z</time></trkpt><trkpt lat="44.029114660078676" lon="11.943491182944523"><ele>502.0</ele><time>2026-05-03T08:26:56Z</time></trkpt><trkpt lat="44.02903213620051" lon="11.94351232485651"><ele>498.0</ele><time>2026-05-03T08:27:02.001Z</time></trkpt><trkpt lat="44.02896262954591" lon="11.943601953602053"><ele>494.0</ele><time>2026-05-03T08:27:05.001Z</time></trkpt><trkpt lat="44.028904823292834" lon="11.943668504277898"><ele>490.0</ele><time>2026-05-03T08:27:11.001Z</time></trkpt><trkpt lat="44.02883838099648" lon="11.943683574277143"><ele>486.0</ele><time>2026-05-03T08:27:16Z</time></trkpt><trkpt lat="44.02873935303847" lon="11.94366103333956"><ele>486.0</ele><time>2026-05-03T08:27:20Z</time></trkpt><trkpt lat="44.028685214773326" lon="11.943613923144962"><ele>486.0</ele><time>2026-05-03T08:27:23Z</time></trkpt><trkpt lat="44.028617581488156" lon="11.94356991545934"><ele>486.0</ele><time>2026-05-03T08:27:28Z</time></trkpt><trkpt lat="44.02855209954988" lon="11.943574393862669"><ele>486.0</ele><time>2026-05-03T08:27:57Z</time></trkpt><trkpt lat="44.02858225042451" lon="11.943662882863173"><ele>486.0</ele><time>2026-05-03T08:28:17Z</time></trkpt><trkpt lat="44.02864971748996" lon="11.943702054802282"><ele>486.0</ele><time>2026-05-03T08:28:20Z</time></trkpt><trkpt lat="44.02874115730149" lon="11.943712265396277"><ele>486.0</ele><time>2026-05-03T08:28:23Z</time></trkpt><trkpt lat="44.02880358154812" lon="11.943749327365646"><ele>486.0</ele><time>2026-05-03T08:28:26Z</time></trkpt><trkpt lat="44.028903762415425" lon="11.943776428160998"><ele>486.0</ele><time>2026-05-03T08:28:29Z</time></trkpt><trkpt lat="44.028972092553026" lon="11.943792255219378"><ele>486.0</ele><time>2026-05-03T08:28:33Z</time></trkpt><trkpt lat="44.0290525981995" lon="11.943810312921142"><ele>486.0</ele><time>2026-05-03T08:28:37Z</time></trkpt><trkpt lat="44.02911840288063" lon="11.943718186702833"><ele>486.0</ele><time>2026-05-03T08:30:20Z</time></trkpt><trkpt lat="44.029119615756684" lon="11.943822989675427"><ele>486.0</ele><time>2026-05-03T08:30:24Z</time></trkpt><trkpt lat="44.02907937916602" lon="11.943902467192789"><ele>486.0</ele><time>2026-05-03T08:30:29Z</time></trkpt><trkpt lat="44.02899641597493" lon="11.943905331049667"><ele>486.0</ele><time>2026-05-03T08:30:32Z</time></trkpt><trkpt lat="44.02893136724823" lon="11.94392442680234"><ele>486.0</ele><time>2026-05-03T08:30:38Z</time></trkpt><trkpt lat="44.02888017458407" lon="11.943983867296112"><ele>486.0</ele><time>2026-05-03T08:30:46Z</time></trkpt><trkpt lat="44.02880657896278" lon="11.944005917255907"><ele>486.0</ele><time>2026-05-03T08:31:26Z</time></trkpt><trkpt lat="44.02882436506372" lon="11.944098888955939"><ele>486.0</ele><time>2026-05-03T08:31:44Z</time></trkpt><trkpt lat="44.02887768989278" lon="11.94415475333284"><ele>486.0</ele><time>2026-05-03T08:31:47Z</time></trkpt><trkpt lat="44.02893913816057" lon="11.944190477566405"><ele>486.0</ele><time>2026-05-03T08:31:51Z</time></trkpt><trkpt lat="44.02900272664448" lon="11.944093174276441"><ele>486.0</ele><time>2026-05-03T08:31:55Z</time></trkpt><trkpt lat="44.02905468757495" lon="11.944029172314707"><ele>486.0</ele><time>2026-05-03T08:31:58Z</time></trkpt><trkpt lat="44.02912359808031" lon="11.944089798538144"><ele>486.0</ele><time>2026-05-03T08:32:02Z</time></trkpt><trkpt lat="44.02916920962292" lon="11.944156758547022"><ele>486.0</ele><time>2026-05-03T08:32:05Z</time></trkpt><trkpt lat="44.02920618048497" lon="11.944234667216135"><ele>486.0</ele><time>2026-05-03T08:32:38Z</time></trkpt><trkpt lat="44.029246581148136" lon="11.9443158417532"><ele>493.0</ele><time>2026-05-03T08:32:41Z</time></trkpt><trkpt lat="44.029323919304176" lon="11.944349927727117"><ele>500.0</ele><time>2026-05-03T08:32:43Z</time></trkpt><trkpt lat="44.02939767630275" lon="11.944360634737208"><ele>507.0</ele><time>2026-05-03T08:32:45Z</time></trkpt><trkpt lat="44.02947264294535" lon="11.944406662598901"><ele>514.0</ele><time>2026-05-03T08:32:48Z</time></trkpt><trkpt lat="44.02946220610423" lon="11.944498201802146"><ele>521.0</ele><time>2026-05-03T08:32:53Z</time></trkpt><trkpt lat="44.029386067381516" lon="11.944575119956694"><ele>528.0</ele><time>2026-05-03T08:32:55Z</time></trkpt><trkpt lat="44.029262855285815" lon="11.94461538493008"><ele>528.0</ele><time>2026-05-03T08:32:57Z</time></trkpt><trkpt lat="44.02920267071686" lon="11.944662910975225"><ele>528.0</ele><time>2026-05-03T08:32:58Z</time></trkpt><trkpt lat="44.0291203529116" lon="11.944727050350803"><ele>528.0</ele><time>2026-05-03T08:32:59Z</time></trkpt><trkpt lat="44.029062768731656" lon="11.94477372137636"><ele>528.0</ele><time>2026-05-03T08:33:00Z</time></trkpt><trkpt lat="44.02900727219158" lon="11.944897207796423"><ele>528.0</ele><time>2026-05-03T08:33:02Z</time></trkpt><trkpt lat="44.02899073367876" lon="11.944983671726797"><ele>528.0</ele><time>2026-05-03T08:33:04Z</time></trkpt><trkpt lat="44.02901857280877" lon="11.945136438661772"><ele>528.6</ele><time>2026-05-03T08:33:06Z</time></trkpt><trkpt lat="44.02904238611633" lon="11.945250324133445"><ele>529.1999999999999</ele><time>2026-05-03T08:33:07Z</time></trkpt><trkpt lat="44.02907747892158" lon="11.94539508336691"><ele>529.8</ele><time>2026-05-03T08:33:09Z</time></trkpt><trkpt lat="44.02912521683595" lon="11.945487059805474"><ele>530.4</ele><time>2026-05-03T08:33:13Z</time></trkpt><trkpt lat="44.02916780537604" lon="11.94556495183507"><ele>531.0</ele><time>2026-05-03T08:33:16Z</time></trkpt><trkpt lat="44.02923799447602" lon="11.945670352927397"><ele>531.0</ele><time>2026-05-03T08:33:18Z</time></trkpt><trkpt lat="44.02928992727613" lon="11.945770908796577"><ele>531.0</ele><time>2026-05-03T08:33:20Z</time></trkpt><trkpt lat="44.029339384716174" lon="11.945922439748715"><ele>531.0</ele><time>2026-05-03T08:33:22Z</time></trkpt><trkpt lat="44.029362877274814" lon="11.946026849541482"><ele>531.0</ele><time>2026-05-03T08:33:24Z</time></trkpt><trkpt lat="44.02937849280539" lon="11.946166939623522"><ele>531.0</ele><time>2026-05-03T08:33:26Z</time></trkpt><trkpt lat="44.029396736603346" lon="11.946294764506503"><ele>529.6666666666666</ele><time>2026-05-03T08:33:28Z</time></trkpt><trkpt lat="44.029416327373646" lon="11.946421696721725"><ele>528.3333333333334</ele><time>2026-05-03T08:33:30Z</time></trkpt><trkpt lat="44.02943652618746" lon="11.946528305554205"><ele>527.0</ele><time>2026-05-03T08:33:32Z</time></trkpt><trkpt lat="44.02946178802884" lon="11.946628865939013"><ele>525.6666666666667</ele><time>2026-05-03T08:33:37Z</time></trkpt><trkpt lat="44.02951263430876" lon="11.94654803938074"><ele>524.3333333333334</ele><time>2026-05-03T08:33:47Z</time></trkpt><trkpt lat="44.02950979418613" lon="11.94641832330573"><ele>523.0</ele><time>2026-05-03T08:33:49Z</time></trkpt><trkpt lat="44.02951165720357" lon="11.94630165070927"><ele>523.0</ele><time>2026-05-03T08:33:51Z</time></trkpt><trkpt lat="44.029509426168765" lon="11.946194465081314"><ele>523.0</ele><time>2026-05-03T08:33:53Z</time></trkpt><trkpt lat="44.02951383109723" lon="11.946061630083127"><ele>523.0</ele><time>2026-05-03T08:33:56Z</time></trkpt><trkpt lat="44.02952026525076" lon="11.945960843192234"><ele>523.0</ele><time>2026-05-03T08:33:58Z</time></trkpt><trkpt lat="44.02951987393916" lon="11.945829651238535"><ele>523.0</ele><time>2026-05-03T08:34:00Z</time></trkpt><trkpt lat="44.02955892541044" lon="11.945701935003989"><ele>523.0</ele><time>2026-05-03T08:34:02Z</time></trkpt><trkpt lat="44.02962369734255" lon="11.945610822232013"><ele>524.6</ele><time>2026-05-03T08:34:04Z</time></trkpt><trkpt lat="44.02970677444875" lon="11.945585105960422"><ele>526.1999999999999</ele><time>2026-05-03T08:34:06Z</time></trkpt><trkpt lat="44.029803463910305" lon="11.945653454586049"><ele>527.8</ele><time>2026-05-03T08:34:08Z</time></trkpt><trkpt lat="44.02988249483082" lon="11.945723616972087"><ele>529.4</ele><time>2026-05-03T08:34:09Z</time></trkpt><trkpt lat="44.02997336548748" lon="11.945754299258057"><ele>531.0</ele><time>2026-05-03T08:34:10Z</time></trkpt><trkpt lat="44.03008512845799" lon="11.945846452445233"><ele>534.0</ele><time>2026-05-03T08:34:12Z</time></trkpt><trkpt lat="44.03015559396247" lon="11.94589983921031"><ele>537.0</ele><time>2026-05-03T08:34:13Z</time></trkpt><trkpt lat="44.03021636075867" lon="11.945944744082022"><ele>540.0</ele><time>2026-05-03T08:34:14Z</time></trkpt><trkpt lat="44.03027776977438" lon="11.945969718990465"><ele>543.0</ele><time>2026-05-03T08:34:15Z</time></trkpt><trkpt lat="44.030413908750184" lon="11.945996232764713"><ele>546.0</ele><time>2026-05-03T08:34:17Z</time></trkpt><trkpt lat="44.03048468016663" lon="11.946004966147692"><ele>549.0</ele><time>2026-05-03T08:34:18Z</time></trkpt><trkpt lat="44.03054885725475" lon="11.946005403695487"><ele>549.0</ele><time>2026-05-03T08:34:19Z</time></trkpt><trkpt lat="44.030625981688864" lon="11.945954504194335"><ele>549.0</ele><time>2026-05-03T08:34:21Z</time></trkpt><trkpt lat="44.03071135660087" lon="11.945872717100535"><ele>549.0</ele><time>2026-05-03T08:34:23Z</time></trkpt><trkpt lat="44.030823960266915" lon="11.94577196626789"><ele>549.0</ele><time>2026-05-03T08:34:25Z</time></trkpt><trkpt lat="44.03086572235197" lon="11.945702552774083"><ele>549.0</ele><time>2026-05-03T08:34:26Z</time></trkpt><trkpt lat="44.030899951718986" lon="11.945628489240738"><ele>555.6</ele><time>2026-05-03T08:34:27Z</time></trkpt><trkpt lat="44.03093328997806" lon="11.945548340338576"><ele>562.2</ele><time>2026-05-03T08:34:28Z</time></trkpt><trkpt lat="44.03097261137421" lon="11.945419558354645"><ele>568.8000000000001</ele><time>2026-05-03T08:34:30Z</time></trkpt><trkpt lat="44.0310045444806" lon="11.945258743407813"><ele>575.4</ele><time>2026-05-03T08:34:32Z</time></trkpt><trkpt lat="44.0310516417171" lon="11.945133692854146"><ele>582.0</ele><time>2026-05-03T08:34:34Z</time></trkpt><trkpt lat="44.03107022542661" lon="11.945011147485628"><ele>583.1666666666666</ele><time>2026-05-03T08:34:36Z</time></trkpt><trkpt lat="44.03109446325347" lon="11.944904163137435"><ele>584.3333333333334</ele><time>2026-05-03T08:34:39Z</time></trkpt><trkpt lat="44.031130439964095" lon="11.944783605747507"><ele>585.5</ele><time>2026-05-03T08:34:41Z</time></trkpt><trkpt lat="44.031163008852594" lon="11.944704447512262"><ele>586.6666666666667</ele><time>2026-05-03T08:34:43Z</time></trkpt><trkpt lat="44.031196326404576" lon="11.944622973918763"><ele>587.8333333333334</ele><time>2026-05-03T08:34:45Z</time></trkpt><trkpt lat="44.031238910045296" lon="11.944519677514633"><ele>589.0</ele><time>2026-05-03T08:34:47Z</time></trkpt><trkpt lat="44.03122723383687" lon="11.944348549285358"><ele>588.4</ele><time>2026-05-03T08:34:49Z</time></trkpt><trkpt lat="44.03122242762488" lon="11.94418661388918"><ele>587.8</ele><time>2026-05-03T08:34:51Z</time></trkpt><trkpt lat="44.03123450388582" lon="11.944098691009257"><ele>587.2</ele><time>2026-05-03T08:34:52Z</time></trkpt><trkpt lat="44.031271122675065" lon="11.943955669190853"><ele>586.6</ele><time>2026-05-03T08:34:54Z</time></trkpt><trkpt lat="44.03128812971773" lon="11.943811987398242"><ele>586.0</ele><time>2026-05-03T08:34:56Z</time></trkpt><trkpt lat="44.03130255594177" lon="11.943681718266726"><ele>586.0</ele><time>2026-05-03T08:34:58Z</time></trkpt><trkpt lat="44.03130291703903" lon="11.94358183490999"><ele>586.0</ele><time>2026-05-03T08:34:59Z</time></trkpt><trkpt lat="44.03131265874736" lon="11.943492661147685"><ele>586.0</ele><time>2026-05-03T08:35:00Z</time></trkpt><trkpt lat="44.03130975153053" lon="11.943402746739746"><ele>586.0</ele><time>2026-05-03T08:35:01Z</time></trkpt><trkpt lat="44.031291431179824" lon="11.94330623854912"><ele>586.0</ele><time>2026-05-03T08:35:02Z</time></trkpt><trkpt lat="44.0312697917095" lon="11.943149740433595"><ele>586.0</ele><time>2026-05-03T08:35:04Z</time></trkpt><trkpt lat="44.03125160747341" lon="11.942990244412004"><ele>586.4</ele><time>2026-05-03T08:35:06Z</time></trkpt><trkpt lat="44.03123844083511" lon="11.942899825618484"><ele>586.8</ele><time>2026-05-03T08:35:07Z</time></trkpt><trkpt lat="44.031214115960076" lon="11.942734673092877"><ele>587.1999999999999</ele><time>2026-05-03T08:35:09Z</time></trkpt><trkpt lat="44.03119875168174" lon="11.942601274127892"><ele>587.6</ele><time>2026-05-03T08:35:11Z</time></trkpt><trkpt lat="44.031182710705096" lon="11.942441284814048"><ele>588.0</ele><time>2026-05-03T08:35:13Z</time></trkpt><trkpt lat="44.03117437762161" lon="11.942283814878786"><ele>589.0</ele><time>2026-05-03T08:35:15Z</time></trkpt><trkpt lat="44.03114879046814" lon="11.942118082317915"><ele>590.0</ele><time>2026-05-03T08:35:17Z</time></trkpt><trkpt lat="44.031100512858956" lon="11.941964652990343"><ele>591.0</ele><time>2026-05-03T08:35:19Z</time></trkpt><trkpt lat="44.03105587514949" lon="11.941883663013662"><ele>592.0</ele><time>2026-05-03T08:35:20Z</time></trkpt><trkpt lat="44.03101537440066" lon="11.941799789515862"><ele>593.0</ele><time>2026-05-03T08:35:21Z</time></trkpt><trkpt lat="44.030967789567825" lon="11.941705164249766"><ele>594.8571428571428</ele><time>2026-05-03T08:35:22Z</time></trkpt><trkpt lat="44.03092937965765" lon="11.94162222330479"><ele>596.7142857142857</ele><time>2026-05-03T08:35:23Z</time></trkpt><trkpt lat="44.030884782191286" lon="11.941544396092715"><ele>598.5714285714286</ele><time>2026-05-03T08:35:24Z</time></trkpt><trkpt lat="44.0308510360639" lon="11.941459018713985"><ele>600.4285714285713</ele><time>2026-05-03T08:35:25Z</time></trkpt><trkpt lat="44.03082252330352" lon="11.941378512558156"><ele>602.2857142857142</ele><time>2026-05-03T08:35:26Z</time></trkpt><trkpt lat="44.03079748006921" lon="11.941287741107365"><ele>604.1428571428571</ele><time>2026-05-03T08:35:27Z</time></trkpt><trkpt lat="44.03078236155071" lon="11.941198595849508"><ele>606.0</ele><time>2026-05-03T08:35:28Z</time></trkpt><trkpt lat="44.03078220348379" lon="11.941004458928976"><ele>607.2</ele><time>2026-05-03T08:35:30Z</time></trkpt><trkpt lat="44.03079584863163" lon="11.94089859379654"><ele>608.4000000000001</ele><time>2026-05-03T08:35:31Z</time></trkpt><trkpt lat="44.030803283536066" lon="11.940793837747835"><ele>609.6</ele><time>2026-05-03T08:35:32Z</time></trkpt><trkpt lat="44.03081134908208" lon="11.940706451444129"><ele>610.8000000000001</ele><time>2026-05-03T08:35:33Z</time></trkpt><trkpt lat="44.03080822776098" lon="11.940534870786255"><ele>612.0</ele><time>2026-05-03T08:35:35Z</time></trkpt><trkpt lat="44.03077052887257" lon="11.940374422455118"><ele>610.0</ele><time>2026-05-03T08:35:37Z</time></trkpt><trkpt lat="44.03070646060514" lon="11.940296788999209"><ele>608.0</ele><time>2026-05-03T08:35:38Z</time></trkpt><trkpt lat="44.03064865524697" lon="11.940206343273704"><ele>606.0</ele><time>2026-05-03T08:35:39Z</time></trkpt><trkpt lat="44.0305948238267" lon="11.940115629008705"><ele>604.0</ele><time>2026-05-03T08:35:40Z</time></trkpt><trkpt lat="44.03054404404726" lon="11.940046670295652"><ele>602.0</ele><time>2026-05-03T08:35:41Z</time></trkpt><trkpt lat="44.03047789674317" lon="11.939969850665017"><ele>600.0</ele><time>2026-05-03T08:35:43Z</time></trkpt><trkpt lat="44.03038581214194" lon="11.939938335159432"><ele>600.0</ele><time>2026-05-03T08:35:50Z</time></trkpt><trkpt lat="44.03030956737419" lon="11.939843279730802"><ele>600.0</ele><time>2026-05-03T08:35:52Z</time></trkpt><trkpt lat="44.03024890992194" lon="11.939781839213614"><ele>600.0</ele><time>2026-05-03T08:35:53Z</time></trkpt><trkpt lat="44.03018914417495" lon="11.939700242440974"><ele>600.0</ele><time>2026-05-03T08:35:54Z</time></trkpt><trkpt lat="44.03013361856652" lon="11.939616869241906"><ele>600.0</ele><time>2026-05-03T08:35:55Z</time></trkpt><trkpt lat="44.030059665446544" lon="11.939503033377544"><ele>600.0</ele><time>2026-05-03T08:35:57Z</time></trkpt><trkpt lat="44.029989180288936" lon="11.939372386060155"><ele>600.0</ele><time>2026-05-03T08:35:59Z</time></trkpt><trkpt lat="44.02990500978158" lon="11.939246148957835"><ele>600.0</ele><time>2026-05-03T08:36:01Z</time></trkpt><trkpt lat="44.029858990664934" lon="11.939186039680566"><ele>600.0</ele><time>2026-05-03T08:36:02Z</time></trkpt><trkpt lat="44.02979862123144" lon="11.939127930092187"><ele>600.0</ele><time>2026-05-03T08:36:03Z</time></trkpt><trkpt lat="44.02973735596675" lon="11.939089056962482"><ele>600.0</ele><time>2026-05-03T08:36:04Z</time></trkpt><trkpt lat="44.029655165841675" lon="11.939032397878522"><ele>596.0</ele><time>2026-05-03T08:36:06Z</time></trkpt><trkpt lat="44.02959798406378" lon="11.93891624869393"><ele>592.0</ele><time>2026-05-03T08:36:09Z</time></trkpt><trkpt lat="44.029537962478" lon="11.93878279272284"><ele>588.0</ele><time>2026-05-03T08:36:11Z</time></trkpt><trkpt lat="44.02949991116084" lon="11.938709894901542"><ele>584.0</ele><time>2026-05-03T08:36:12Z</time></trkpt><trkpt lat="44.02946767542417" lon="11.938619961938862"><ele>580.0</ele><time>2026-05-03T08:36:13Z</time></trkpt><trkpt lat="44.0293966673364" lon="11.938598771227964"><ele>576.0</ele><time>2026-05-03T08:36:15Z</time></trkpt><trkpt lat="44.0293126263815" lon="11.938628937101148"><ele>576.0</ele><time>2026-05-03T08:36:17Z</time></trkpt><trkpt lat="44.029258573436934" lon="11.938675639960113"><ele>576.0</ele><time>2026-05-03T08:36:18Z</time></trkpt><trkpt lat="44.029182044518265" lon="11.938722049012906"><ele>576.0</ele><time>2026-05-03T08:36:20Z</time></trkpt><trkpt lat="44.02912843478376" lon="11.938810035080095"><ele>576.0</ele><time>2026-05-03T08:36:22Z</time></trkpt><trkpt lat="44.0291045654716" lon="11.938956017605282"><ele>576.0</ele><time>2026-05-03T08:36:24Z</time></trkpt><trkpt lat="44.029084268079956" lon="11.939096381232194"><ele>576.0</ele><time>2026-05-03T08:36:26Z</time></trkpt><trkpt lat="44.029036771246034" lon="11.939158031842666"><ele>571.0</ele><time>2026-05-03T08:36:28Z</time></trkpt><trkpt lat="44.028953344261296" lon="11.939133885871586"><ele>566.0</ele><time>2026-05-03T08:36:30Z</time></trkpt><trkpt lat="44.02890665287547" lon="11.93901272964242"><ele>561.0</ele><time>2026-05-03T08:36:32Z</time></trkpt><trkpt lat="44.02885613935976" lon="11.938912984778046"><ele>556.0</ele><time>2026-05-03T08:36:34Z</time></trkpt><trkpt lat="44.02879645448047" lon="11.938836150936288"><ele>551.0</ele><time>2026-05-03T08:36:38Z</time></trkpt><trkpt lat="44.02878463557977" lon="11.938740874822798"><ele>546.0</ele><time>2026-05-03T08:36:41Z</time></trkpt><trkpt lat="44.02871638040111" lon="11.938591014285587"><ele>546.0</ele><time>2026-05-03T08:36:43Z</time></trkpt><trkpt lat="44.028652821697555" lon="11.938500472349867"><ele>546.0</ele><time>2026-05-03T08:36:44Z</time></trkpt><trkpt lat="44.02859366372001" lon="11.93844232161566"><ele>546.0</ele><time>2026-05-03T08:36:45Z</time></trkpt><trkpt lat="44.028516876049615" lon="11.93839334153118"><ele>546.0</ele><time>2026-05-03T08:36:47Z</time></trkpt><trkpt lat="44.02840982712836" lon="11.93836857554913"><ele>546.0</ele><time>2026-05-03T08:36:49Z</time></trkpt><trkpt lat="44.02833119657698" lon="11.938353572534721"><ele>546.0</ele><time>2026-05-03T08:36:51Z</time></trkpt><trkpt lat="44.0282439156201" lon="11.938240166837685"><ele>546.3333333333334</ele><time>2026-05-03T08:36:54Z</time></trkpt><trkpt lat="44.028135641084425" lon="11.938271933054356"><ele>546.6666666666666</ele><time>2026-05-03T08:36:58Z</time></trkpt><trkpt lat="44.028072362593285" lon="11.93827036292765"><ele>547.0</ele><time>2026-05-03T08:36:59Z</time></trkpt><trkpt lat="44.02798507112676" lon="11.938287997641204"><ele>547.3333333333333</ele><time>2026-05-03T08:37:02Z</time></trkpt><trkpt lat="44.02792023613668" lon="11.938285669521886"><ele>547.6666666666666</ele><time>2026-05-03T08:37:05Z</time></trkpt><trkpt lat="44.027838331316126" lon="11.938261651157537"><ele>548.0</ele><time>2026-05-03T08:37:07Z</time></trkpt><trkpt lat="44.02774592302147" lon="11.938256701424503"><ele>548.0</ele><time>2026-05-03T08:37:11Z</time></trkpt><trkpt lat="44.02768103233562" lon="11.938229240758796"><ele>548.0</ele><time>2026-05-03T08:37:18Z</time></trkpt><trkpt lat="44.02760473950008" lon="11.938169262802502"><ele>548.0</ele><time>2026-05-03T08:37:22Z</time></trkpt><trkpt lat="44.027555990720856" lon="11.938077969062634"><ele>548.0</ele><time>2026-05-03T08:37:25Z</time></trkpt><trkpt lat="44.02749415413871" lon="11.938011316234373"><ele>548.0</ele><time>2026-05-03T08:37:28Z</time></trkpt><trkpt lat="44.02742984446135" lon="11.937968488834219"><ele>548.0</ele><time>2026-05-03T08:37:32Z</time></trkpt><trkpt lat="44.027364263879434" lon="11.937955334634246"><ele>548.0</ele><time>2026-05-03T08:37:37Z</time></trkpt><trkpt lat="44.02729875773614" lon="11.93794921371287"><ele>548.0</ele><time>2026-05-03T08:37:54Z</time></trkpt><trkpt lat="44.027317235244304" lon="11.937849318199573"><ele>548.0</ele><time>2026-05-03T08:38:07Z</time></trkpt><trkpt lat="44.02736951207275" lon="11.93778347871504"><ele>548.0</ele><time>2026-05-03T08:38:09Z</time></trkpt><trkpt lat="44.02745818437893" lon="11.937705602451064"><ele>548.0</ele><time>2026-05-03T08:38:11Z</time></trkpt><trkpt lat="44.02753323911603" lon="11.937706564102543"><ele>548.0</ele><time>2026-05-03T08:38:13Z</time></trkpt><trkpt lat="44.027620298389905" lon="11.937710298004358"><ele>548.0</ele><time>2026-05-03T08:38:15Z</time></trkpt><trkpt lat="44.02768731562034" lon="11.937707483527907"><ele>548.0</ele><time>2026-05-03T08:38:17Z</time></trkpt><trkpt lat="44.0277830702987" lon="11.937716036256528"><ele>548.0</ele><time>2026-05-03T08:38:20Z</time></trkpt><trkpt lat="44.02785312980641" lon="11.937767543140241"><ele>548.0</ele><time>2026-05-03T08:38:26Z</time></trkpt><trkpt lat="44.02791877871803" lon="11.937812500328745"><ele>548.0</ele><time>2026-05-03T08:38:31Z</time></trkpt><trkpt lat="44.027932386260844" lon="11.937912911848512"><ele>548.0</ele><time>2026-05-03T08:39:04Z</time></trkpt><trkpt lat="44.027985145048866" lon="11.937985164380809"><ele>548.0</ele><time>2026-05-03T08:39:32Z</time></trkpt><trkpt lat="44.028043099860525" lon="11.937910402520842"><ele>548.0</ele><time>2026-05-03T08:40:04Z</time></trkpt><trkpt lat="44.02808614407627" lon="11.937836353595289"><ele>548.0</ele><time>2026-05-03T08:40:08Z</time></trkpt><trkpt lat="44.02813102080679" lon="11.937768229053082"><ele>548.0</ele><time>2026-05-03T08:40:14Z</time></trkpt><trkpt lat="44.02824185746852" lon="11.937756565727758"><ele>548.0</ele><time>2026-05-03T08:40:31Z</time></trkpt><trkpt lat="44.028325677977" lon="11.937732984005159"><ele>548.0</ele><time>2026-05-03T08:40:37Z</time></trkpt><trkpt lat="44.0283939763039" lon="11.937736305967764"><ele>550.3333333333333</ele><time>2026-05-03T08:40:44Z</time></trkpt><trkpt lat="44.02846440700042" lon="11.93772724038718"><ele>552.6666666666666</ele><time>2026-05-03T08:41:08Z</time></trkpt><trkpt lat="44.028472148831085" lon="11.93760843793197"><ele>555.0</ele><time>2026-05-03T08:41:37Z</time></trkpt><trkpt lat="44.028482562406595" lon="11.937509333335466"><ele>557.3333333333334</ele><time>2026-05-03T08:41:42Z</time></trkpt><trkpt lat="44.02841112334113" lon="11.937503041983737"><ele>559.6666666666667</ele><time>2026-05-03T08:42:46Z</time></trkpt><trkpt lat="44.02831352711659" lon="11.937536550411405"><ele>562.0</ele><time>2026-05-03T08:42:49Z</time></trkpt><trkpt lat="44.02824165774464" lon="11.937520987890911"><ele>564.8333333333334</ele><time>2026-05-03T08:42:51Z</time></trkpt><trkpt lat="44.02816683507246" lon="11.937514631578587"><ele>567.6666666666667</ele><time>2026-05-03T08:42:53Z</time></trkpt><trkpt lat="44.028074299639556" lon="11.937483665243029"><ele>570.5</ele><time>2026-05-03T08:42:56Z</time></trkpt><trkpt lat="44.027986429350854" lon="11.937430059391403"><ele>573.3333333333334</ele><time>2026-05-03T08:42:58Z</time></trkpt><trkpt lat="44.02791986008217" lon="11.937423163462647"><ele>576.1666666666666</ele><time>2026-05-03T08:43:00Z</time></trkpt><trkpt lat="44.02785891834512" lon="11.937335305589617"><ele>579.0</ele><time>2026-05-03T08:43:03Z</time></trkpt><trkpt lat="44.02780585648886" lon="11.937253278131408"><ele>579.0</ele><time>2026-05-03T08:43:07Z</time></trkpt><trkpt lat="44.027744861582065" lon="11.937222161237539"><ele>579.0</ele><time>2026-05-03T08:43:10Z</time></trkpt><trkpt lat="44.02768759720215" lon="11.937169976647535"><ele>579.0</ele><time>2026-05-03T08:43:13Z</time></trkpt><trkpt lat="44.0276318577278" lon="11.937114941172005"><ele>579.0</ele><time>2026-05-03T08:43:16Z</time></trkpt><trkpt lat="44.0275512382085" lon="11.937037954262516"><ele>579.0</ele><time>2026-05-03T08:43:19Z</time></trkpt><trkpt lat="44.027473630934104" lon="11.93699146094561"><ele>579.0</ele><time>2026-05-03T08:43:23Z</time></trkpt><trkpt lat="44.02741657360903" lon="11.936946199397275"><ele>580.3333333333334</ele><time>2026-05-03T08:43:26Z</time></trkpt><trkpt lat="44.027343412741494" lon="11.9370305069434"><ele>581.6666666666666</ele><time>2026-05-03T08:43:31Z</time></trkpt><trkpt lat="44.027285705778" lon="11.937090744349666"><ele>583.0</ele><time>2026-05-03T08:43:36Z</time></trkpt><trkpt lat="44.027231671200674" lon="11.937029879114249"><ele>584.3333333333333</ele><time>2026-05-03T08:44:53Z</time></trkpt><trkpt lat="44.02729939117029" lon="11.937048160399966"><ele>585.6666666666666</ele><time>2026-05-03T08:48:18Z</time></trkpt><trkpt lat="44.02737506120714" lon="11.937094206025822"><ele>587.0</ele><time>2026-05-03T08:51:52Z</time></trkpt><trkpt lat="44.02738268040561" lon="11.93700659190486"><ele>587.0</ele><time>2026-05-03T08:52:16Z</time></trkpt><trkpt lat="44.02732486780097" lon="11.936963264201408"><ele>587.0</ele><time>2026-05-03T08:52:37Z</time></trkpt><trkpt lat="44.02722657330026" lon="11.936903074534088"><ele>587.0</ele><time>2026-05-03T08:56:58Z</time></trkpt><trkpt lat="44.0271630461827" lon="11.936884157916625"><ele>587.0</ele><time>2026-05-03T08:59:31Z</time></trkpt><trkpt lat="44.0270837438839" lon="11.936817441119645"><ele>587.0</ele><time>2026-05-03T08:59:33Z</time></trkpt><trkpt lat="44.02701808930398" lon="11.936806368392613"><ele>587.0</ele><time>2026-05-03T08:59:35Z</time></trkpt><trkpt lat="44.02693531359991" lon="11.936818452422058"><ele>587.0</ele><time>2026-05-03T08:59:38Z</time></trkpt><trkpt lat="44.026954329216096" lon="11.936724052807659"><ele>587.0</ele><time>2026-05-03T09:02:37Z</time></trkpt><trkpt lat="44.02704281644384" lon="11.936652533458847"><ele>587.0</ele><time>2026-05-03T09:02:39Z</time></trkpt><trkpt lat="44.02714852189614" lon="11.93655980136462"><ele>587.0</ele><time>2026-05-03T09:02:41Z</time></trkpt><trkpt lat="44.027253906923406" lon="11.936502521353574"><ele>587.0</ele><time>2026-05-03T09:02:43Z</time></trkpt><trkpt lat="44.02734054319838" lon="11.936514723336842"><ele>589.5</ele><time>2026-05-03T09:02:44Z</time></trkpt><trkpt lat="44.027417203008504" lon="11.936520779609372"><ele>592.0</ele><time>2026-05-03T09:02:45Z</time></trkpt><trkpt lat="44.027495640137055" lon="11.936530130444527"><ele>594.5</ele><time>2026-05-03T09:02:46Z</time></trkpt><trkpt lat="44.02757472614414" lon="11.93653165062019"><ele>597.0</ele><time>2026-05-03T09:02:47Z</time></trkpt><trkpt lat="44.02765589623308" lon="11.936529325143981"><ele>599.5</ele><time>2026-05-03T09:02:48Z</time></trkpt><trkpt lat="44.02773773475283" lon="11.936514022841143"><ele>602.0</ele><time>2026-05-03T09:02:49Z</time></trkpt><trkpt lat="44.027821160787425" lon="11.936483309817353"><ele>603.2</ele><time>2026-05-03T09:02:50Z</time></trkpt><trkpt lat="44.02790617038888" lon="11.936437754091232"><ele>604.4000000000001</ele><time>2026-05-03T09:02:51Z</time></trkpt><trkpt lat="44.027974158641186" lon="11.93635440990011"><ele>605.5999999999999</ele><time>2026-05-03T09:02:52Z</time></trkpt><trkpt lat="44.02803981553698" lon="11.936256299451891"><ele>606.8</ele><time>2026-05-03T09:02:53Z</time></trkpt><trkpt lat="44.02810262526921" lon="11.936165462411026"><ele>608.0</ele><time>2026-05-03T09:02:54Z</time></trkpt><trkpt lat="44.02817833590155" lon="11.93608728050001"><ele>608.0</ele><time>2026-05-03T09:02:55Z</time></trkpt><trkpt lat="44.02826572806014" lon="11.936029314644365"><ele>608.0</ele><time>2026-05-03T09:02:56Z</time></trkpt><trkpt lat="44.02835941547728" lon="11.935977697381517"><ele>608.0</ele><time>2026-05-03T09:02:57Z</time></trkpt><trkpt lat="44.02846023769395" lon="11.935935244203373"><ele>608.0</ele><time>2026-05-03T09:02:58Z</time></trkpt><trkpt lat="44.02854471106104" lon="11.935885820270295"><ele>608.0</ele><time>2026-05-03T09:02:59Z</time></trkpt><trkpt lat="44.028635574266985" lon="11.935830728594116"><ele>611.6</ele><time>2026-05-03T09:03:00Z</time></trkpt><trkpt lat="44.028712600250586" lon="11.93573907396255"><ele>615.1999999999999</ele><time>2026-05-03T09:03:01Z</time></trkpt><trkpt lat="44.02877261963718" lon="11.935615137055217"><ele>618.8</ele><time>2026-05-03T09:03:02Z</time></trkpt><trkpt lat="44.028832893465555" lon="11.9355367832022"><ele>622.4</ele><time>2026-05-03T09:03:03Z</time></trkpt><trkpt lat="44.02890471418798" lon="11.935461226726613"><ele>626.0</ele><time>2026-05-03T09:03:04Z</time></trkpt><trkpt lat="44.02897840832747" lon="11.93539628024862"><ele>626.0</ele><time>2026-05-03T09:03:05Z</time></trkpt><trkpt lat="44.02904426465155" lon="11.935359455214156"><ele>626.0</ele><time>2026-05-03T09:03:06Z</time></trkpt><trkpt lat="44.02912528803285" lon="11.935295572512668"><ele>626.0</ele><time>2026-05-03T09:03:08Z</time></trkpt><trkpt lat="44.029189380774966" lon="11.935340528226718"><ele>626.0</ele><time>2026-05-03T09:03:11Z</time></trkpt><trkpt lat="44.02925978455315" lon="11.935328852068091"><ele>626.0</ele><time>2026-05-03T09:03:46Z</time></trkpt><trkpt lat="44.02932366009861" lon="11.935378970608555"><ele>626.0</ele><time>2026-05-03T09:03:49Z</time></trkpt><trkpt lat="44.02941595193069" lon="11.935364402100221"><ele>629.0</ele><time>2026-05-03T09:03:51Z</time></trkpt><trkpt lat="44.02949003613914" lon="11.935338815881437"><ele>632.0</ele><time>2026-05-03T09:03:52Z</time></trkpt><trkpt lat="44.0295780391883" lon="11.935300551047229"><ele>635.0</ele><time>2026-05-03T09:03:53Z</time></trkpt><trkpt lat="44.02967934653389" lon="11.93528616392357"><ele>638.0</ele><time>2026-05-03T09:03:54Z</time></trkpt><trkpt lat="44.02977839982762" lon="11.93526567772445"><ele>641.0</ele><time>2026-05-03T09:03:55Z</time></trkpt><trkpt lat="44.02987833081878" lon="11.935253043731137"><ele>643.8</ele><time>2026-05-03T09:03:56Z</time></trkpt><trkpt lat="44.02997875174005" lon="11.935253302226345"><ele>646.5999999999999</ele><time>2026-05-03T09:03:57Z</time></trkpt><trkpt lat="44.030068367602034" lon="11.935233522336507"><ele>649.4</ele><time>2026-05-03T09:03:58Z</time></trkpt><trkpt lat="44.03014797552182" lon="11.935209269637298"><ele>652.2</ele><time>2026-05-03T09:03:59Z</time></trkpt><trkpt lat="44.030229360476234" lon="11.935153607474032"><ele>655.0</ele><time>2026-05-03T09:04:00Z</time></trkpt><trkpt lat="44.03029492468312" lon="11.935069959893728"><ele>652.4</ele><time>2026-05-03T09:04:01Z</time></trkpt><trkpt lat="44.03037010450169" lon="11.934966178779561"><ele>649.8</ele><time>2026-05-03T09:04:02Z</time></trkpt><trkpt lat="44.03043855696806" lon="11.934855376179112"><ele>647.2</ele><time>2026-05-03T09:04:03Z</time></trkpt><trkpt lat="44.03048838937563" lon="11.934744004178759"><ele>644.6</ele><time>2026-05-03T09:04:04Z</time></trkpt><trkpt lat="44.030523033923274" lon="11.93462128229362"><ele>642.0</ele><time>2026-05-03T09:04:05Z</time></trkpt><trkpt lat="44.03053677287683" lon="11.934469340013772"><ele>642.0</ele><time>2026-05-03T09:04:06Z</time></trkpt><trkpt lat="44.0305598928039" lon="11.934336974777963"><ele>642.0</ele><time>2026-05-03T09:04:07Z</time></trkpt><trkpt lat="44.030548087277566" lon="11.934192925748103"><ele>642.0</ele><time>2026-05-03T09:04:08Z</time></trkpt><trkpt lat="44.03053248921118" lon="11.934062774139141"><ele>642.0</ele><time>2026-05-03T09:04:09Z</time></trkpt><trkpt lat="44.03046846033982" lon="11.93398819229664"><ele>642.0</ele><time>2026-05-03T09:04:10Z</time></trkpt><trkpt lat="44.03038160575994" lon="11.933896702107528"><ele>642.0</ele><time>2026-05-03T09:04:12Z</time></trkpt><trkpt lat="44.030316140849" lon="11.933867423537109"><ele>642.0</ele><time>2026-05-03T09:04:15Z</time></trkpt><trkpt lat="44.030396297488686" lon="11.933895293139"><ele>642.0</ele><time>2026-05-03T09:04:35Z</time></trkpt><trkpt lat="44.030472694549324" lon="11.9339959881801"><ele>642.0</ele><time>2026-05-03T09:04:37Z</time></trkpt><trkpt lat="44.030559383709225" lon="11.933987144092072"><ele>642.0</ele><time>2026-05-03T09:04:40Z</time></trkpt><trkpt lat="44.03059311845943" lon="11.934088410661126"><ele>642.0</ele><time>2026-05-03T09:04:42Z</time></trkpt><trkpt lat="44.03060334653931" lon="11.93422505936374"><ele>642.0</ele><time>2026-05-03T09:04:44Z</time></trkpt><trkpt lat="44.03062621151698" lon="11.934364485059735"><ele>642.0</ele><time>2026-05-03T09:04:46Z</time></trkpt><trkpt lat="44.03065837557297" lon="11.934479367329905"><ele>642.0</ele><time>2026-05-03T09:04:48Z</time></trkpt><trkpt lat="44.03070239930368" lon="11.934547334507576"><ele>642.0</ele><time>2026-05-03T09:04:49Z</time></trkpt><trkpt lat="44.030747426407586" lon="11.934621192219613"><ele>642.0</ele><time>2026-05-03T09:04:50Z</time></trkpt><trkpt lat="44.03080410076463" lon="11.934695631089932"><ele>642.0</ele><time>2026-05-03T09:04:51Z</time></trkpt><trkpt lat="44.030851889962456" lon="11.93476652038639"><ele>644.1666666666666</ele><time>2026-05-03T09:04:52Z</time></trkpt><trkpt lat="44.030838581836875" lon="11.934878096293925"><ele>646.3333333333334</ele><time>2026-05-03T09:04:56Z</time></trkpt><trkpt lat="44.030815268472274" lon="11.934965126186452"><ele>648.5</ele><time>2026-05-03T09:04:59Z</time></trkpt><trkpt lat="44.03077562238346" lon="11.935073277091453"><ele>650.6666666666667</ele><time>2026-05-03T09:05:02Z</time></trkpt><trkpt lat="44.03074946324811" lon="11.935179240420453"><ele>652.8333333333334</ele><time>2026-05-03T09:05:05Z</time></trkpt><trkpt lat="44.030710819917786" lon="11.93524969181638"><ele>655.0</ele><time>2026-05-03T09:05:15Z</time></trkpt><trkpt lat="44.03078434769599" lon="11.935245302688081"><ele>655.3333333333334</ele><time>2026-05-03T09:05:20Z</time></trkpt><trkpt lat="44.030854126076584" lon="11.93518812627726"><ele>655.6666666666667</ele><time>2026-05-03T09:05:23Z</time></trkpt><trkpt lat="44.03091095860765" lon="11.935142416954278"><ele>656.0</ele><time>2026-05-03T09:05:26Z</time></trkpt><trkpt lat="44.0309705346146" lon="11.935058763382195"><ele>656.3333333333334</ele><time>2026-05-03T09:05:29Z</time></trkpt><trkpt lat="44.03102621498878" lon="11.934974233642388"><ele>656.6666666666666</ele><time>2026-05-03T09:05:31Z</time></trkpt><trkpt lat="44.031080015982766" lon="11.934925873993114"><ele>657.0</ele><time>2026-05-03T09:05:33Z</time></trkpt><trkpt lat="44.03117395897051" lon="11.934897963432027"><ele>657.3333333333334</ele><time>2026-05-03T09:05:35Z</time></trkpt><trkpt lat="44.03127980215093" lon="11.93489119970309"><ele>657.6666666666666</ele><time>2026-05-03T09:05:37Z</time></trkpt><trkpt lat="44.03134453369663" lon="11.934877852983762"><ele>658.0</ele><time>2026-05-03T09:05:38Z</time></trkpt><trkpt lat="44.03142203849094" lon="11.934810365150177"><ele>658.3333333333333</ele><time>2026-05-03T09:05:40Z</time></trkpt><trkpt lat="44.03150513531765" lon="11.934775130641324"><ele>658.6666666666666</ele><time>2026-05-03T09:05:43Z</time></trkpt><trkpt lat="44.03157871569937" lon="11.934766940392265"><ele>659.0</ele><time>2026-05-03T09:05:45Z</time></trkpt><trkpt lat="44.031656381020674" lon="11.934765997342542"><ele>660.8000000000001</ele><time>2026-05-03T09:05:47Z</time></trkpt><trkpt lat="44.031751159423784" lon="11.934766980005609"><ele>662.6</ele><time>2026-05-03T09:05:49Z</time></trkpt><trkpt lat="44.03184774347591" lon="11.934716048411454"><ele>664.4</ele><time>2026-05-03T09:05:51Z</time></trkpt><trkpt lat="44.031954291858945" lon="11.934662610510404"><ele>666.2</ele><time>2026-05-03T09:05:53Z</time></trkpt><trkpt lat="44.03204366661838" lon="11.934629075738918"><ele>668.0</ele><time>2026-05-03T09:05:55Z</time></trkpt><trkpt lat="44.03213451408919" lon="11.934642739949332"><ele>668.0</ele><time>2026-05-03T09:05:57Z</time></trkpt><trkpt lat="44.03220681520684" lon="11.934681676327003"><ele>668.0</ele><time>2026-05-03T09:05:59Z</time></trkpt><trkpt lat="44.03227324061399" lon="11.934639242369073"><ele>668.0</ele><time>2026-05-03T09:06:01Z</time></trkpt><trkpt lat="44.032338812110595" lon="11.93464355682399"><ele>668.0</ele><time>2026-05-03T09:06:03Z</time></trkpt><trkpt lat="44.03242723155441" lon="11.934643174856564"><ele>668.0</ele><time>2026-05-03T09:06:05Z</time></trkpt><trkpt lat="44.032517469329854" lon="11.934640481071533"><ele>668.0</ele><time>2026-05-03T09:06:07Z</time></trkpt><trkpt lat="44.03259746976485" lon="11.934586575189908"><ele>670.25</ele><time>2026-05-03T09:06:09Z</time></trkpt><trkpt lat="44.03267636729801" lon="11.934553316700997"><ele>672.5</ele><time>2026-05-03T09:06:11Z</time></trkpt><trkpt lat="44.03275577599783" lon="11.93451740328093"><ele>674.75</ele><time>2026-05-03T09:06:14Z</time></trkpt><trkpt lat="44.032839205678165" lon="11.93452004919219"><ele>677.0</ele><time>2026-05-03T09:06:17Z</time></trkpt><trkpt lat="44.03308750772053" lon="11.934612381898614"><ele>677.0</ele><time>2026-05-03T09:06:21Z</time></trkpt><trkpt lat="44.033188221789" lon="11.93465356137253"><ele>677.0</ele><time>2026-05-03T09:06:23Z</time></trkpt><trkpt lat="44.03328768227901" lon="11.934703908551327"><ele>677.0</ele><time>2026-05-03T09:06:25Z</time></trkpt><trkpt lat="44.03340540751892" lon="11.9347743053603"><ele>677.0</ele><time>2026-05-03T09:06:27Z</time></trkpt><trkpt lat="44.03345951724034" lon="11.934828281335086"><ele>677.0</ele><time>2026-05-03T09:06:28Z</time></trkpt><trkpt lat="44.033518596238295" lon="11.934885887144787"><ele>677.6666666666666</ele><time>2026-05-03T09:06:29Z</time></trkpt><trkpt lat="44.033585361083446" lon="11.934940743160809"><ele>678.3333333333333</ele><time>2026-05-03T09:06:30Z</time></trkpt><trkpt lat="44.0336612980531" lon="11.935016910281636"><ele>679.0</ele><time>2026-05-03T09:06:32Z</time></trkpt><trkpt lat="44.03374150765761" lon="11.934995280035286"><ele>679.6666666666666</ele><time>2026-05-03T09:06:36Z</time></trkpt><trkpt lat="44.03380307145887" lon="11.934950023193537"><ele>680.3333333333334</ele><time>2026-05-03T09:06:40Z</time></trkpt><trkpt lat="44.03386060066054" lon="11.934868515115253"><ele>681.0</ele><time>2026-05-03T09:06:45Z</time></trkpt><trkpt lat="44.033945801698536" lon="11.934805978133845"><ele>681.0</ele><time>2026-05-03T09:06:48Z</time></trkpt><trkpt lat="44.03398081197007" lon="11.934727497247353"><ele>681.0</ele><time>2026-05-03T09:06:50Z</time></trkpt><trkpt lat="44.034047492874706" lon="11.934710578058077"><ele>681.0</ele><time>2026-05-03T09:06:52Z</time></trkpt><trkpt lat="44.03414652824518" lon="11.934748177078953"><ele>681.0</ele><time>2026-05-03T09:06:54Z</time></trkpt><trkpt lat="44.03422626938709" lon="11.934845364324854"><ele>681.0</ele><time>2026-05-03T09:06:56Z</time></trkpt><trkpt lat="44.034285915460224" lon="11.93493300732334"><ele>681.0</ele><time>2026-05-03T09:06:58Z</time></trkpt><trkpt lat="44.034366028327504" lon="11.935030655913094"><ele>675.4</ele><time>2026-05-03T09:07:00Z</time></trkpt><trkpt lat="44.03444584956378" lon="11.93517088455333"><ele>669.8</ele><time>2026-05-03T09:07:02Z</time></trkpt><trkpt lat="44.034535407035435" lon="11.935257890240523"><ele>664.1999999999999</ele><time>2026-05-03T09:07:04Z</time></trkpt><trkpt lat="44.034642544959354" lon="11.935301962283653"><ele>658.5999999999999</ele><time>2026-05-03T09:07:06Z</time></trkpt><trkpt lat="44.03470467694175" lon="11.93535725584182"><ele>653.0</ele><time>2026-05-03T09:07:07Z</time></trkpt><trkpt lat="44.034765336998916" lon="11.93538662224358"><ele>653.0</ele><time>2026-05-03T09:07:08Z</time></trkpt><trkpt lat="44.03483055249055" lon="11.93541929738156"><ele>653.0</ele><time>2026-05-03T09:07:09Z</time></trkpt><trkpt lat="44.034907400403" lon="11.935421433935693"><ele>653.0</ele><time>2026-05-03T09:07:10Z</time></trkpt><trkpt lat="44.03501699180821" lon="11.935467489646834"><ele>653.0</ele><time>2026-05-03T09:07:12Z</time></trkpt><trkpt lat="44.03510353488984" lon="11.935457120919471"><ele>653.0</ele><time>2026-05-03T09:07:14Z</time></trkpt><trkpt lat="44.035178483384826" lon="11.9354642563404"><ele>653.0</ele><time>2026-05-03T09:07:16Z</time></trkpt><trkpt lat="44.035251989019166" lon="11.93545636385147"><ele>651.25</ele><time>2026-05-03T09:07:18Z</time></trkpt><trkpt lat="44.0353367787485" lon="11.93549493287035"><ele>649.5</ele><time>2026-05-03T09:07:21Z</time></trkpt><trkpt lat="44.035418349464926" lon="11.935553235463699"><ele>647.75</ele><time>2026-05-03T09:07:23Z</time></trkpt><trkpt lat="44.03552844544866" lon="11.935633085798727"><ele>646.0</ele><time>2026-05-03T09:07:26Z</time></trkpt><trkpt lat="44.03581246501002" lon="11.935815942226137"><ele>645.1666666666667</ele><time>2026-05-03T09:07:28Z</time></trkpt><trkpt lat="44.03589320818522" lon="11.93587847301311"><ele>644.3333333333334</ele><time>2026-05-03T09:07:29Z</time></trkpt><trkpt lat="44.03596349482208" lon="11.935938204947249"><ele>643.5</ele><time>2026-05-03T09:07:30Z</time></trkpt><trkpt lat="44.03603847524902" lon="11.935988899245519"><ele>642.6666666666666</ele><time>2026-05-03T09:07:31Z</time></trkpt><trkpt lat="44.036118594616475" lon="11.93604131196595"><ele>641.8333333333333</ele><time>2026-05-03T09:07:32Z</time></trkpt><trkpt lat="44.03620476078574" lon="11.936092400862554"><ele>641.0</ele><time>2026-05-03T09:07:33Z</time></trkpt><trkpt lat="44.03627131280657" lon="11.9361327706483"><ele>639.1666666666666</ele><time>2026-05-03T09:07:34Z</time></trkpt><trkpt lat="44.036358851517704" lon="11.9361119784336"><ele>637.3333333333333</ele><time>2026-05-03T09:07:36Z</time></trkpt><trkpt lat="44.03647672299027" lon="11.9360631793062"><ele>635.5</ele><time>2026-05-03T09:07:38Z</time></trkpt><trkpt lat="44.03654806531636" lon="11.93602718747997"><ele>633.6666666666666</ele><time>2026-05-03T09:07:39Z</time></trkpt><trkpt lat="44.03662160890346" lon="11.93599374040662"><ele>631.8333333333334</ele><time>2026-05-03T09:07:40Z</time></trkpt><trkpt lat="44.03669240257321" lon="11.935967323466794"><ele>630.0</ele><time>2026-05-03T09:07:41Z</time></trkpt><trkpt lat="44.036762248436816" lon="11.935946597646456"><ele>630.0</ele><time>2026-05-03T09:07:42Z</time></trkpt><trkpt lat="44.03682740598219" lon="11.935930050922764"><ele>630.0</ele><time>2026-05-03T09:07:43Z</time></trkpt><trkpt lat="44.0368955049702" lon="11.935913795727245"><ele>630.0</ele><time>2026-05-03T09:07:44Z</time></trkpt><trkpt lat="44.036969881735516" lon="11.935899050652463"><ele>630.0</ele><time>2026-05-03T09:07:45Z</time></trkpt><trkpt lat="44.037049055500674" lon="11.935887714696115"><ele>630.0</ele><time>2026-05-03T09:07:46Z</time></trkpt><trkpt lat="44.03714651103331" lon="11.935906695266151"><ele>630.0</ele><time>2026-05-03T09:07:47Z</time></trkpt><trkpt lat="44.03721309913839" lon="11.935820906502235"><ele>631.1666666666666</ele><time>2026-05-03T09:07:49Z</time></trkpt><trkpt lat="44.03721494237092" lon="11.93570953449759"><ele>632.3333333333334</ele><time>2026-05-03T09:07:50Z</time></trkpt><trkpt lat="44.03723429916995" lon="11.935608597662247"><ele>633.5</ele><time>2026-05-03T09:07:51Z</time></trkpt><trkpt lat="44.03723791938851" lon="11.935480913500246"><ele>634.6666666666667</ele><time>2026-05-03T09:07:52Z</time></trkpt><trkpt lat="44.03723042158722" lon="11.935382788228717"><ele>635.8333333333334</ele><time>2026-05-03T09:07:53Z</time></trkpt><trkpt lat="44.037219291212004" lon="11.935281452653028"><ele>637.0</ele><time>2026-05-03T09:07:54Z</time></trkpt><trkpt lat="44.03718914234729" lon="11.935171700880442"><ele>637.0</ele><time>2026-05-03T09:07:55Z</time></trkpt><trkpt lat="44.0371442169023" lon="11.935087088338367"><ele>637.0</ele><time>2026-05-03T09:07:56Z</time></trkpt><trkpt lat="44.03711064049578" lon="11.935007279050925"><ele>637.0</ele><time>2026-05-03T09:07:57Z</time></trkpt><trkpt lat="44.03716412514258" lon="11.934915527752725"><ele>637.0</ele><time>2026-05-03T09:07:59Z</time></trkpt><trkpt lat="44.03720885697135" lon="11.934797788313656"><ele>637.0</ele><time>2026-05-03T09:08:01Z</time></trkpt><trkpt lat="44.037264411709884" lon="11.934689639193998"><ele>637.0</ele><time>2026-05-03T09:08:03Z</time></trkpt><trkpt lat="44.037320782458714" lon="11.934547481412087"><ele>634.0</ele><time>2026-05-03T09:08:05Z</time></trkpt><trkpt lat="44.03734361722764" lon="11.93441144085439"><ele>631.0</ele><time>2026-05-03T09:08:07Z</time></trkpt><trkpt lat="44.03737852915745" lon="11.934276359191397"><ele>628.0</ele><time>2026-05-03T09:08:10Z</time></trkpt><trkpt lat="44.037390703637165" lon="11.934184991361422"><ele>625.0</ele><time>2026-05-03T09:08:13Z</time></trkpt><trkpt lat="44.03743431140552" lon="11.934113795594856"><ele>622.0</ele><time>2026-05-03T09:08:16Z</time></trkpt><trkpt lat="44.037507991740924" lon="11.934132130283198"><ele>619.0</ele><time>2026-05-03T09:08:20Z</time></trkpt><trkpt lat="44.03757938002596" lon="11.934137873601076"><ele>618.3333333333334</ele><time>2026-05-03T09:08:23Z</time></trkpt><trkpt lat="44.037625544987826" lon="11.934204759330141"><ele>617.6666666666667</ele><time>2026-05-03T09:08:26Z</time></trkpt><trkpt lat="44.037665635817554" lon="11.934302885113643"><ele>617.0</ele><time>2026-05-03T09:08:29Z</time></trkpt><trkpt lat="44.03769954712699" lon="11.934381145706853"><ele>616.3333333333334</ele><time>2026-05-03T09:08:31Z</time></trkpt><trkpt lat="44.037761821521805" lon="11.9344667497577"><ele>615.6666666666666</ele><time>2026-05-03T09:08:34Z</time></trkpt><trkpt lat="44.03774751923" lon="11.93458290891401"><ele>615.0</ele><time>2026-05-03T09:08:37Z</time></trkpt><trkpt lat="44.03778588866358" lon="11.934714588175652"><ele>615.0</ele><time>2026-05-03T09:08:39Z</time></trkpt><trkpt lat="44.03782839452951" lon="11.934790329875023"><ele>615.0</ele><time>2026-05-03T09:08:41Z</time></trkpt><trkpt lat="44.037895900236826" lon="11.934900756077818"><ele>615.0</ele><time>2026-05-03T09:08:43Z</time></trkpt><trkpt lat="44.037950631489295" lon="11.934962058699721"><ele>615.0</ele><time>2026-05-03T09:08:44Z</time></trkpt><trkpt lat="44.03800184753912" lon="11.935033467014348"><ele>615.0</ele><time>2026-05-03T09:08:45Z</time></trkpt><trkpt lat="44.0380645641272" lon="11.935108168245332"><ele>615.0</ele><time>2026-05-03T09:08:46Z</time></trkpt><trkpt lat="44.03809627085657" lon="11.93525984210068"><ele>615.5</ele><time>2026-05-03T09:08:48Z</time></trkpt><trkpt lat="44.038170795550215" lon="11.935370423455504"><ele>616.0</ele><time>2026-05-03T09:08:50Z</time></trkpt><trkpt lat="44.03830469230562" lon="11.935475382583457"><ele>616.5</ele><time>2026-05-03T09:08:52Z</time></trkpt><trkpt lat="44.03838638637381" lon="11.935527024321207"><ele>617.0</ele><time>2026-05-03T09:08:53Z</time></trkpt><trkpt lat="44.038503160501946" lon="11.93555869350118"><ele>610.0</ele><time>2026-05-03T09:08:55Z</time></trkpt><trkpt lat="44.038574000846836" lon="11.935502132149487"><ele>603.0</ele><time>2026-05-03T09:08:57Z</time></trkpt><trkpt lat="44.038641530594674" lon="11.935447005641088"><ele>596.0</ele><time>2026-05-03T09:08:58Z</time></trkpt><trkpt lat="44.0387205504493" lon="11.935404933028614"><ele>589.0</ele><time>2026-05-03T09:08:59Z</time></trkpt><trkpt lat="44.03881635926044" lon="11.93540524132594"><ele>582.0</ele><time>2026-05-03T09:09:01Z</time></trkpt><trkpt lat="44.038926695052865" lon="11.935363067988753"><ele>582.0</ele><time>2026-05-03T09:09:02Z</time></trkpt><trkpt lat="44.03900597926119" lon="11.935344099706908"><ele>582.0</ele><time>2026-05-03T09:09:03Z</time></trkpt><trkpt lat="44.039074157054394" lon="11.935326611963246"><ele>582.0</ele><time>2026-05-03T09:09:04Z</time></trkpt><trkpt lat="44.03916417399397" lon="11.93528215362458"><ele>582.0</ele><time>2026-05-03T09:09:06Z</time></trkpt><trkpt lat="44.03923037305624" lon="11.935243338524536"><ele>582.0</ele><time>2026-05-03T09:09:07Z</time></trkpt><trkpt lat="44.03929558674878" lon="11.935200299811495"><ele>582.0</ele><time>2026-05-03T09:09:08Z</time></trkpt><trkpt lat="44.03937624985211" lon="11.93512652669233"><ele>576.4285714285714</ele><time>2026-05-03T09:09:10Z</time></trkpt><trkpt lat="44.03942845697353" lon="11.93506582490085"><ele>570.8571428571428</ele><time>2026-05-03T09:09:12Z</time></trkpt><trkpt lat="44.03949062194005" lon="11.935016457614907"><ele>565.2857142857142</ele><time>2026-05-03T09:09:20Z</time></trkpt><trkpt lat="44.03955504795889" lon="11.934978157919554"><ele>559.7142857142857</ele><time>2026-05-03T09:09:24Z</time></trkpt><trkpt lat="44.039621678858715" lon="11.934958167486442"><ele>554.1428571428571</ele><time>2026-05-03T09:09:29Z</time></trkpt><trkpt lat="44.039550274335646" lon="11.934933265303037"><ele>548.5714285714286</ele><time>2026-05-03T09:09:32Z</time></trkpt><trkpt lat="44.03946037148414" lon="11.934938710613812"><ele>543.0</ele><time>2026-05-03T09:09:34Z</time></trkpt><trkpt lat="44.03939518826476" lon="11.934936394857894"><ele>542.5</ele><time>2026-05-03T09:09:36Z</time></trkpt><trkpt lat="44.03928152702865" lon="11.934888474704806"><ele>542.0</ele><time>2026-05-03T09:10:08Z</time></trkpt><trkpt lat="44.0392163929518" lon="11.93487775711372"><ele>541.5</ele><time>2026-05-03T09:10:09Z</time></trkpt><trkpt lat="44.03914012713108" lon="11.934856968887994"><ele>541.0</ele><time>2026-05-03T09:10:10Z</time></trkpt><trkpt lat="44.03905067137943" lon="11.934816911880919"><ele>540.5</ele><time>2026-05-03T09:10:11Z</time></trkpt><trkpt lat="44.03900147117293" lon="11.934725328798063"><ele>540.0</ele><time>2026-05-03T09:10:12Z</time></trkpt><trkpt lat="44.03898918788609" lon="11.934620166693142"><ele>546.0</ele><time>2026-05-03T09:10:13Z</time></trkpt><trkpt lat="44.03896883238595" lon="11.934487873618362"><ele>552.0</ele><time>2026-05-03T09:10:14Z</time></trkpt><trkpt lat="44.038948506908035" lon="11.934361890317357"><ele>558.0</ele><time>2026-05-03T09:10:15Z</time></trkpt><trkpt lat="44.03893043965004" lon="11.934214398623345"><ele>564.0</ele><time>2026-05-03T09:10:16Z</time></trkpt><trkpt lat="44.03892318157253" lon="11.934073019576182"><ele>570.0</ele><time>2026-05-03T09:10:17Z</time></trkpt><trkpt lat="44.03892729442915" lon="11.933921738647781"><ele>570.0</ele><time>2026-05-03T09:10:18Z</time></trkpt><trkpt lat="44.03894412156169" lon="11.933782914194442"><ele>570.0</ele><time>2026-05-03T09:10:19Z</time></trkpt><trkpt lat="44.03898037349119" lon="11.933644738362768"><ele>570.0</ele><time>2026-05-03T09:10:20Z</time></trkpt><trkpt lat="44.039014581259316" lon="11.933485648827887"><ele>570.0</ele><time>2026-05-03T09:10:21Z</time></trkpt><trkpt lat="44.039031388840655" lon="11.933336179230782"><ele>570.0</ele><time>2026-05-03T09:10:22Z</time></trkpt><trkpt lat="44.03903959978465" lon="11.9331803152993"><ele>572.25</ele><time>2026-05-03T09:10:23Z</time></trkpt><trkpt lat="44.03903619146457" lon="11.933027076879966"><ele>574.5</ele><time>2026-05-03T09:10:24Z</time></trkpt><trkpt lat="44.03901919809288" lon="11.932868790894057"><ele>576.75</ele><time>2026-05-03T09:10:25Z</time></trkpt><trkpt lat="44.03899717658573" lon="11.932704890710044"><ele>579.0</ele><time>2026-05-03T09:10:26Z</time></trkpt><trkpt lat="44.03898348392047" lon="11.932542902488855"><ele>579.0</ele><time>2026-05-03T09:10:27Z</time></trkpt><trkpt lat="44.03897146832684" lon="11.93238632948692"><ele>579.0</ele><time>2026-05-03T09:10:28Z</time></trkpt><trkpt lat="44.03899754680996" lon="11.932243030211996"><ele>579.0</ele><time>2026-05-03T09:10:29Z</time></trkpt><trkpt lat="44.0390278290007" lon="11.932101491879628"><ele>579.0</ele><time>2026-05-03T09:10:30Z</time></trkpt><trkpt lat="44.03906246062871" lon="11.931994462809739"><ele>579.0</ele><time>2026-05-03T09:10:31Z</time></trkpt><trkpt lat="44.03908366352873" lon="11.931889788620238"><ele>579.0</ele><time>2026-05-03T09:10:32Z</time></trkpt><trkpt lat="44.039114969706475" lon="11.931741143821899"><ele>579.0</ele><time>2026-05-03T09:10:34Z</time></trkpt><trkpt lat="44.03913740890746" lon="11.93159758364402"><ele>579.0</ele><time>2026-05-03T09:10:36Z</time></trkpt><trkpt lat="44.03913217406908" lon="11.931497056566613"><ele>579.0</ele><time>2026-05-03T09:10:37Z</time></trkpt><trkpt lat="44.03908936324809" lon="11.931383649335443"><ele>579.0</ele><time>2026-05-03T09:10:39Z</time></trkpt><trkpt lat="44.03932602756769" lon="11.931254383238933"><ele>573.3333333333334</ele><time>2026-05-03T09:10:41Z</time></trkpt><trkpt lat="44.039307291006985" lon="11.931143883443019"><ele>567.6666666666666</ele><time>2026-05-03T09:10:43Z</time></trkpt><trkpt lat="44.039271323295225" lon="11.931058011883609"><ele>562.0</ele><time>2026-05-03T09:10:45Z</time></trkpt><trkpt lat="44.039235877426975" lon="11.930954251076935"><ele>556.3333333333333</ele><time>2026-05-03T09:10:48Z</time></trkpt><trkpt lat="44.039206891020484" lon="11.930867783162906"><ele>550.6666666666666</ele><time>2026-05-03T09:10:50Z</time></trkpt><trkpt lat="44.03916415575918" lon="11.930769430441416"><ele>545.0</ele><time>2026-05-03T09:10:52Z</time></trkpt><trkpt lat="44.0391098116253" lon="11.930666805736564"><ele>545.0</ele><time>2026-05-03T09:10:54Z</time></trkpt><trkpt lat="44.03906377711974" lon="11.930544411421835"><ele>545.0</ele><time>2026-05-03T09:10:56Z</time></trkpt><trkpt lat="44.03899744334341" lon="11.93039803823861"><ele>545.0</ele><time>2026-05-03T09:10:58Z</time></trkpt><trkpt lat="44.0389633224702" lon="11.930319736370748"><ele>545.0</ele><time>2026-05-03T09:10:59Z</time></trkpt><trkpt lat="44.03891332118828" lon="11.930246477728941"><ele>545.0</ele><time>2026-05-03T09:11:00Z</time></trkpt><trkpt lat="44.03885841606286" lon="11.930174617326582"><ele>545.0</ele><time>2026-05-03T09:11:01Z</time></trkpt><trkpt lat="44.038769890098884" lon="11.930110825565684"><ele>541.0</ele><time>2026-05-03T09:11:02Z</time></trkpt><trkpt lat="44.038701293420814" lon="11.930040566577265"><ele>537.0</ele><time>2026-05-03T09:11:03Z</time></trkpt><trkpt lat="44.03865346252593" lon="11.929955420636578"><ele>533.0</ele><time>2026-05-03T09:11:04Z</time></trkpt><trkpt lat="44.038639737727756" lon="11.92984577888645"><ele>529.0</ele><time>2026-05-03T09:11:05Z</time></trkpt><trkpt lat="44.0386038101072" lon="11.929735090690446"><ele>525.0</ele><time>2026-05-03T09:11:06Z</time></trkpt><trkpt lat="44.03854776110517" lon="11.929624809667414"><ele>521.0</ele><time>2026-05-03T09:11:07Z</time></trkpt><trkpt lat="44.03848642162055" lon="11.929543431745378"><ele>521.0</ele><time>2026-05-03T09:11:08Z</time></trkpt><trkpt lat="44.038434788881275" lon="11.92947544063422"><ele>521.0</ele><time>2026-05-03T09:11:09Z</time></trkpt><trkpt lat="44.038375348758045" lon="11.929389760807569"><ele>521.0</ele><time>2026-05-03T09:11:10Z</time></trkpt><trkpt lat="44.038325312384764" lon="11.929327553600455"><ele>521.0</ele><time>2026-05-03T09:11:11Z</time></trkpt><trkpt lat="44.03823800259045" lon="11.929259355167106"><ele>521.0</ele><time>2026-05-03T09:11:12Z</time></trkpt><trkpt lat="44.038169965051985" lon="11.929211757636713"><ele>521.0</ele><time>2026-05-03T09:11:13Z</time></trkpt><trkpt lat="44.03808710149391" lon="11.929112622516218"><ele>515.8</ele><time>2026-05-03T09:11:15Z</time></trkpt><trkpt lat="44.037979970323335" lon="11.929061433036665"><ele>510.6</ele><time>2026-05-03T09:11:17Z</time></trkpt><trkpt lat="44.03793290462267" lon="11.928995810249006"><ele>505.4</ele><time>2026-05-03T09:11:18Z</time></trkpt><trkpt lat="44.0378593833601" lon="11.928861367081955"><ele>500.2</ele><time>2026-05-03T09:11:20Z</time></trkpt><trkpt lat="44.037845280996144" lon="11.928732308944564"><ele>495.0</ele><time>2026-05-03T09:11:22Z</time></trkpt><trkpt lat="44.03792585862307" lon="11.928720362602828"><ele>494.99999999999994</ele><time>2026-05-03T09:11:25Z</time></trkpt><trkpt lat="44.038009607590325" lon="11.928741487080902"><ele>495.0</ele><time>2026-05-03T09:11:28Z</time></trkpt><trkpt lat="44.03806764906155" lon="11.928686978872923"><ele>494.99999999999994</ele><time>2026-05-03T09:11:36Z</time></trkpt><trkpt lat="44.03808827770592" lon="11.928592781332013"><ele>494.99999999999994</ele><time>2026-05-03T09:11:41Z</time></trkpt><trkpt lat="44.03813670587556" lon="11.928517492392942"><ele>495.0</ele><time>2026-05-03T09:11:44Z</time></trkpt><trkpt lat="44.03817762978184" lon="11.928584743337654"><ele>494.99999999999994</ele><time>2026-05-03T09:11:46Z</time></trkpt><trkpt lat="44.03823372255331" lon="11.928523579323791"><ele>494.99999999999994</ele><time>2026-05-03T09:11:48Z</time></trkpt><trkpt lat="44.03825994018198" lon="11.928434009827479"><ele>494.2</ele><time>2026-05-03T09:11:50Z</time></trkpt><trkpt lat="44.0382149655812" lon="11.928255219801965"><ele>493.4</ele><time>2026-05-03T09:11:52Z</time></trkpt><trkpt lat="44.03825477457961" lon="11.928106618478866"><ele>492.6</ele><time>2026-05-03T09:11:54Z</time></trkpt><trkpt lat="44.0383257514738" lon="11.928045058339517"><ele>491.8</ele><time>2026-05-03T09:11:55Z</time></trkpt><trkpt lat="44.03842180297795" lon="11.928094998420766"><ele>491.0</ele><time>2026-05-03T09:11:57Z</time></trkpt><trkpt lat="44.038433019851304" lon="11.92800798203982"><ele>489.66666666666663</ele><time>2026-05-03T09:11:59Z</time></trkpt><trkpt lat="44.03848843461491" lon="11.927911052406817"><ele>488.3333333333333</ele><time>2026-05-03T09:12:02Z</time></trkpt><trkpt lat="44.03849804175565" lon="11.92781779312557"><ele>487.0</ele><time>2026-05-03T09:12:03Z</time></trkpt><trkpt lat="44.0385014399389" lon="11.927689071672262"><ele>485.66666666666663</ele><time>2026-05-03T09:12:05Z</time></trkpt><trkpt lat="44.03851376626276" lon="11.927580626026709"><ele>484.3333333333333</ele><time>2026-05-03T09:12:07Z</time></trkpt><trkpt lat="44.03856298796094" lon="11.927472990170356"><ele>483.0</ele><time>2026-05-03T09:12:09Z</time></trkpt><trkpt lat="44.03865103124943" lon="11.927454954773099"><ele>483.0</ele><time>2026-05-03T09:12:11Z</time></trkpt><trkpt lat="44.03874171642674" lon="11.927498712456842"><ele>483.0</ele><time>2026-05-03T09:12:13Z</time></trkpt><trkpt lat="44.038734738895506" lon="11.927633361261028"><ele>483.0</ele><time>2026-05-03T09:12:14Z</time></trkpt><trkpt lat="44.03877682985685" lon="11.927725742015122"><ele>483.0</ele><time>2026-05-03T09:12:16Z</time></trkpt><trkpt lat="44.038839642362184" lon="11.92777667918302"><ele>483.0</ele><time>2026-05-03T09:12:18Z</time></trkpt><trkpt lat="44.03889865108549" lon="11.927825010588517"><ele>483.0</ele><time>2026-05-03T09:12:19Z</time></trkpt><trkpt lat="44.03896471364879" lon="11.927858115116308"><ele>482.2</ele><time>2026-05-03T09:12:20Z</time></trkpt><trkpt lat="44.03906488435448" lon="11.927873864944665"><ele>481.4</ele><time>2026-05-03T09:12:22Z</time></trkpt><trkpt lat="44.039154311431275" lon="11.927897352764365"><ele>480.59999999999997</ele><time>2026-05-03T09:12:24Z</time></trkpt><trkpt lat="44.03923280201798" lon="11.927936294086745"><ele>479.79999999999995</ele><time>2026-05-03T09:12:26Z</time></trkpt><trkpt lat="44.03932165817646" lon="11.928007012963768"><ele>479.0</ele><time>2026-05-03T09:12:28Z</time></trkpt><trkpt lat="44.039403087329156" lon="11.928006134984036"><ele>477.66666666666663</ele><time>2026-05-03T09:12:29Z</time></trkpt><trkpt lat="44.03949363151591" lon="11.928002233005154"><ele>476.3333333333333</ele><time>2026-05-03T09:12:30Z</time></trkpt><trkpt lat="44.03957833146473" lon="11.92795345111091"><ele>475.0</ele><time>2026-05-03T09:12:31Z</time></trkpt><trkpt lat="44.039649269864974" lon="11.92793811992877"><ele>473.66666666666663</ele><time>2026-05-03T09:12:32Z</time></trkpt><trkpt lat="44.03972396564507" lon="11.927932880322986"><ele>472.3333333333333</ele><time>2026-05-03T09:12:33Z</time></trkpt><trkpt lat="44.03981364100514" lon="11.92792524829018"><ele>471.0</ele><time>2026-05-03T09:12:34Z</time></trkpt><trkpt lat="44.039903931914445" lon="11.92792764079233"><ele>471.8</ele><time>2026-05-03T09:12:35Z</time></trkpt><trkpt lat="44.040004790401206" lon="11.927932818014758"><ele>472.6</ele><time>2026-05-03T09:12:36Z</time></trkpt><trkpt lat="44.04011517114951" lon="11.9279386708887"><ele>473.4</ele><time>2026-05-03T09:12:37Z</time></trkpt><trkpt lat="44.04018069218018" lon="11.927938781534365"><ele>474.2</ele><time>2026-05-03T09:12:38Z</time></trkpt><trkpt lat="44.04026175360263" lon="11.927997309627859"><ele>475.0</ele><time>2026-05-03T09:12:40Z</time></trkpt><trkpt lat="44.04037584050722" lon="11.92808002370025"><ele>475.00000000000006</ele><time>2026-05-03T09:12:42Z</time></trkpt><trkpt lat="44.04043715339868" lon="11.928105093853516"><ele>475.0</ele><time>2026-05-03T09:12:43Z</time></trkpt><trkpt lat="44.04050437953427" lon="11.928115885204859"><ele>475.0</ele><time>2026-05-03T09:12:45Z</time></trkpt><trkpt lat="44.04046854687236" lon="11.928039760313432"><ele>475.0</ele><time>2026-05-03T09:12:53Z</time></trkpt><trkpt lat="44.040420767092726" lon="11.927938378665303"><ele>475.00000000000006</ele><time>2026-05-03T09:13:00Z</time></trkpt><trkpt lat="44.04039900395105" lon="11.927806409437592"><ele>475.0</ele><time>2026-05-03T09:13:02Z</time></trkpt><trkpt lat="44.04038084028769" lon="11.927655166131379"><ele>478.1666666666667</ele><time>2026-05-03T09:13:04Z</time></trkpt><trkpt lat="44.04036585003855" lon="11.927557377686362"><ele>481.33333333333337</ele><time>2026-05-03T09:13:05Z</time></trkpt><trkpt lat="44.0403988874177" lon="11.92743605192207"><ele>484.5</ele><time>2026-05-03T09:13:06Z</time></trkpt><trkpt lat="44.04037313471717" lon="11.927336994142303"><ele>487.66666666666663</ele><time>2026-05-03T09:13:07Z</time></trkpt><trkpt lat="44.04035304274934" lon="11.927241185785277"><ele>490.8333333333333</ele><time>2026-05-03T09:13:08Z</time></trkpt><trkpt lat="44.04033681511562" lon="11.927139054071313"><ele>494.0</ele><time>2026-05-03T09:13:09Z</time></trkpt><trkpt lat="44.040333204149064" lon="11.927042237748278"><ele>493.99999999999994</ele><time>2026-05-03T09:13:10Z</time></trkpt><trkpt lat="44.040329848398535" lon="11.926936333782631"><ele>494.0</ele><time>2026-05-03T09:13:11Z</time></trkpt><trkpt lat="44.04032984839418" lon="11.92680804393418"><ele>494.0</ele><time>2026-05-03T09:13:12Z</time></trkpt><trkpt lat="44.04032354199406" lon="11.926689993809147"><ele>494.0</ele><time>2026-05-03T09:13:13Z</time></trkpt><trkpt lat="44.04029601187738" lon="11.926555723274697"><ele>493.99999999999994</ele><time>2026-05-03T09:13:14Z</time></trkpt><trkpt lat="44.04026639291072" lon="11.926446982329313"><ele>494.0</ele><time>2026-05-03T09:13:15Z</time></trkpt><trkpt lat="44.040225204466296" lon="11.926349320779172"><ele>496.16666666666663</ele><time>2026-05-03T09:13:16Z</time></trkpt><trkpt lat="44.040197514046405" lon="11.926228460232279"><ele>498.3333333333333</ele><time>2026-05-03T09:13:17Z</time></trkpt><trkpt lat="44.04017229411211" lon="11.92611223374662"><ele>500.5</ele><time>2026-05-03T09:13:18Z</time></trkpt><trkpt lat="44.04012366570812" lon="11.926021351339756"><ele>502.66666666666663</ele><time>2026-05-03T09:13:19Z</time></trkpt><trkpt lat="44.040099260592726" lon="11.92591820857906"><ele>504.8333333333333</ele><time>2026-05-03T09:13:20Z</time></trkpt><trkpt lat="44.040063977455226" lon="11.925840589973815"><ele>507.0</ele><time>2026-05-03T09:13:21Z</time></trkpt><trkpt lat="44.0400082977968" lon="11.925718207798624"><ele>509.1666666666667</ele><time>2026-05-03T09:13:23Z</time></trkpt><trkpt lat="44.0399726613542" lon="11.925639879985125"><ele>511.33333333333337</ele><time>2026-05-03T09:13:24Z</time></trkpt><trkpt lat="44.03993899789976" lon="11.92555970682524"><ele>513.5</ele><time>2026-05-03T09:13:25Z</time></trkpt><trkpt lat="44.03991797489776" lon="11.925475446139908"><ele>515.6666666666667</ele><time>2026-05-03T09:13:26Z</time></trkpt><trkpt lat="44.039904834842496" lon="11.925386249889014"><ele>517.8333333333334</ele><time>2026-05-03T09:13:27Z</time></trkpt><trkpt lat="44.03990244756135" lon="11.92520283453486"><ele>520.0</ele><time>2026-05-03T09:13:29Z</time></trkpt><trkpt lat="44.03990204372768" lon="11.92510908828008"><ele>516.6</ele><time>2026-05-03T09:13:30Z</time></trkpt><trkpt lat="44.03990249973581" lon="11.925018630210017"><ele>513.2</ele><time>2026-05-03T09:13:31Z</time></trkpt><trkpt lat="44.03990337504001" lon="11.924844996545717"><ele>509.79999999999995</ele><time>2026-05-03T09:13:33Z</time></trkpt><trkpt lat="44.039911790951294" lon="11.9246545988693"><ele>506.4</ele><time>2026-05-03T09:13:35Z</time></trkpt><trkpt lat="44.039929964197164" lon="11.924550427511964"><ele>503.0</ele><time>2026-05-03T09:13:36Z</time></trkpt><trkpt lat="44.03996046441454" lon="11.924463784512117"><ele>508.16666666666663</ele><time>2026-05-03T09:13:37Z</time></trkpt><trkpt lat="44.039991046448726" lon="11.924361087518935"><ele>513.3333333333333</ele><time>2026-05-03T09:13:38Z</time></trkpt><trkpt lat="44.0400167548958" lon="11.924251940693804"><ele>518.5</ele><time>2026-05-03T09:13:39Z</time></trkpt><trkpt lat="44.0400394890652" lon="11.924130004249271"><ele>523.6666666666666</ele><time>2026-05-03T09:13:40Z</time></trkpt><trkpt lat="44.04005155195677" lon="11.923999663919714"><ele>528.8333333333334</ele><time>2026-05-03T09:13:41Z</time></trkpt><trkpt lat="44.04005381124947" lon="11.923876458377965"><ele>534.0</ele><time>2026-05-03T09:13:42Z</time></trkpt><trkpt lat="44.040033403362976" lon="11.923780666806865"><ele>534.4285714285714</ele><time>2026-05-03T09:13:43Z</time></trkpt><trkpt lat="44.04011145025737" lon="11.92374732816043"><ele>534.8571428571429</ele><time>2026-05-03T09:13:44Z</time></trkpt><trkpt lat="44.04017455502111" lon="11.923677634032035"><ele>535.2857142857142</ele><time>2026-05-03T09:13:45Z</time></trkpt><trkpt lat="44.040227233455134" lon="11.92362492554553"><ele>535.7142857142858</ele><time>2026-05-03T09:13:46Z</time></trkpt><trkpt lat="44.04028266662027" lon="11.923580840213612"><ele>536.1428571428571</ele><time>2026-05-03T09:13:47Z</time></trkpt><trkpt lat="44.04034879547243" lon="11.923518110701574"><ele>536.5714285714286</ele><time>2026-05-03T09:13:49Z</time></trkpt><trkpt lat="44.04039607874417" lon="11.923576276066768"><ele>537.0</ele><time>2026-05-03T09:19:34Z</time></trkpt><trkpt lat="44.040430866066984" lon="11.923457121509086"><ele>537.0</ele><time>2026-05-03T09:28:30Z</time></trkpt><trkpt lat="44.040343125487865" lon="11.923471076906003"><ele>537.0</ele><time>2026-05-03T09:28:34Z</time></trkpt><trkpt lat="44.04030012335291" lon="11.92354189145467"><ele>537.0</ele><time>2026-05-03T09:28:36Z</time></trkpt><trkpt lat="44.04022699304952" lon="11.92360048858227"><ele>537.0</ele><time>2026-05-03T09:28:38Z</time></trkpt><trkpt lat="44.04013750622826" lon="11.923671564515333"><ele>537.0</ele><time>2026-05-03T09:28:40Z</time></trkpt><trkpt lat="44.0400461542853" lon="11.923743148091008"><ele>537.0</ele><time>2026-05-03T09:28:42Z</time></trkpt><trkpt lat="44.0399604751734" lon="11.923775853601429"><ele>537.8000000000001</ele><time>2026-05-03T09:28:44Z</time></trkpt><trkpt lat="44.03986520128565" lon="11.9236950332682"><ele>538.6</ele><time>2026-05-03T09:28:46Z</time></trkpt><trkpt lat="44.039872085149014" lon="11.923568887541448"><ele>539.4000000000001</ele><time>2026-05-03T09:28:47Z</time></trkpt><trkpt lat="44.03982434346377" lon="11.923502671081899"><ele>540.2</ele><time>2026-05-03T09:28:48Z</time></trkpt><trkpt lat="44.03975659900622" lon="11.923427161965623"><ele>541.0</ele><time>2026-05-03T09:28:49Z</time></trkpt><trkpt lat="44.03966369898527" lon="11.923346258032964"><ele>541.0</ele><time>2026-05-03T09:28:50Z</time></trkpt><trkpt lat="44.03956896413213" lon="11.923285686768601"><ele>541.0</ele><time>2026-05-03T09:28:51Z</time></trkpt><trkpt lat="44.0394628725073" lon="11.923246135931539"><ele>541.0</ele><time>2026-05-03T09:28:52Z</time></trkpt><trkpt lat="44.03937416444517" lon="11.923212545231406"><ele>541.0</ele><time>2026-05-03T09:28:53Z</time></trkpt><trkpt lat="44.0392810543508" lon="11.923177287635758"><ele>541.0</ele><time>2026-05-03T09:28:54Z</time></trkpt><trkpt lat="44.03918734177672" lon="11.923142997774923"><ele>541.4</ele><time>2026-05-03T09:28:55Z</time></trkpt><trkpt lat="44.03908558780873" lon="11.923106403407239"><ele>541.8</ele><time>2026-05-03T09:28:56Z</time></trkpt><trkpt lat="44.03898500107158" lon="11.923067667692356"><ele>542.1999999999999</ele><time>2026-05-03T09:28:57Z</time></trkpt><trkpt lat="44.038881121248245" lon="11.923030735763104"><ele>542.6</ele><time>2026-05-03T09:28:58Z</time></trkpt><trkpt lat="44.038770598809386" lon="11.923011833044265"><ele>543.0</ele><time>2026-05-03T09:28:59Z</time></trkpt><trkpt lat="44.038657898261846" lon="11.92305193132571"><ele>543.0</ele><time>2026-05-03T09:29:00Z</time></trkpt><trkpt lat="44.03854476811097" lon="11.923077221306894"><ele>543.0</ele><time>2026-05-03T09:29:01Z</time></trkpt><trkpt lat="44.038429034801105" lon="11.923111311530391"><ele>543.0</ele><time>2026-05-03T09:29:02Z</time></trkpt><trkpt lat="44.03830072884677" lon="11.92314693696969"><ele>543.0</ele><time>2026-05-03T09:29:03Z</time></trkpt><trkpt lat="44.03818001496086" lon="11.923195366233015"><ele>544.5</ele><time>2026-05-03T09:29:04Z</time></trkpt><trkpt lat="44.03805951175" lon="11.923220584249716"><ele>546.0</ele><time>2026-05-03T09:29:05Z</time></trkpt><trkpt lat="44.03792959156029" lon="11.923202668149811"><ele>547.5</ele><time>2026-05-03T09:29:06Z</time></trkpt><trkpt lat="44.03779690543964" lon="11.923199474323873"><ele>549.0</ele><time>2026-05-03T09:29:07Z</time></trkpt><trkpt lat="44.0376700646277" lon="11.923190710560734"><ele>549.0</ele><time>2026-05-03T09:29:08Z</time></trkpt><trkpt lat="44.03755842502379" lon="11.92316710832559"><ele>549.0</ele><time>2026-05-03T09:29:09Z</time></trkpt><trkpt lat="44.03743574287466" lon="11.923125373653995"><ele>549.0</ele><time>2026-05-03T09:29:10Z</time></trkpt><trkpt lat="44.03730401912398" lon="11.923107837897485"><ele>549.0</ele><time>2026-05-03T09:29:11Z</time></trkpt><trkpt lat="44.0371768171255" lon="11.923106561147089"><ele>550.5</ele><time>2026-05-03T09:29:12Z</time></trkpt><trkpt lat="44.037037634656954" lon="11.92311201738749"><ele>552.0</ele><time>2026-05-03T09:29:13Z</time></trkpt><trkpt lat="44.03691067704786" lon="11.923127875673218"><ele>553.5</ele><time>2026-05-03T09:29:14Z</time></trkpt><trkpt lat="44.036784651599994" lon="11.923166483011427"><ele>555.0</ele><time>2026-05-03T09:29:15Z</time></trkpt><trkpt lat="44.03667575107108" lon="11.923237542743285"><ele>553.6</ele><time>2026-05-03T09:29:16Z</time></trkpt><trkpt lat="44.036567789345646" lon="11.923236019933404"><ele>552.2</ele><time>2026-05-03T09:29:17Z</time></trkpt><trkpt lat="44.036474331679145" lon="11.923222858886916"><ele>550.8</ele><time>2026-05-03T09:29:18Z</time></trkpt><trkpt lat="44.03638679347968" lon="11.923177783879861"><ele>549.4</ele><time>2026-05-03T09:29:19Z</time></trkpt><trkpt lat="44.036306461956755" lon="11.923107509925455"><ele>548.0</ele><time>2026-05-03T09:29:20Z</time></trkpt><trkpt lat="44.03621343787061" lon="11.923021306082886"><ele>548.0</ele><time>2026-05-03T09:29:21Z</time></trkpt><trkpt lat="44.03611339430837" lon="11.922927670660332"><ele>548.0</ele><time>2026-05-03T09:29:22Z</time></trkpt><trkpt lat="44.036007382017914" lon="11.922843446809939"><ele>548.0</ele><time>2026-05-03T09:29:23Z</time></trkpt><trkpt lat="44.03587151805247" lon="11.922819806160865"><ele>548.0</ele><time>2026-05-03T09:29:24Z</time></trkpt><trkpt lat="44.03575968643342" lon="11.922793197982683"><ele>547.0</ele><time>2026-05-03T09:29:25Z</time></trkpt><trkpt lat="44.03566696534697" lon="11.922740485986923"><ele>546.0</ele><time>2026-05-03T09:29:26Z</time></trkpt><trkpt lat="44.03556183308765" lon="11.922683085032542"><ele>545.0</ele><time>2026-05-03T09:29:27Z</time></trkpt><trkpt lat="44.035460575756616" lon="11.922661122422712"><ele>544.0</ele><time>2026-05-03T09:29:28Z</time></trkpt><trkpt lat="44.03538845414626" lon="11.922674096308961"><ele>543.0</ele><time>2026-05-03T09:29:29Z</time></trkpt><trkpt lat="44.03532218513134" lon="11.922691695795"><ele>543.0</ele><time>2026-05-03T09:29:31Z</time></trkpt><trkpt lat="44.035237359744606" lon="11.922676300439013"><ele>543.0</ele><time>2026-05-03T09:29:33Z</time></trkpt><trkpt lat="44.035142128736105" lon="11.922700385144518"><ele>543.0</ele><time>2026-05-03T09:29:35Z</time></trkpt><trkpt lat="44.03502623135545" lon="11.92270854301397"><ele>543.0</ele><time>2026-05-03T09:29:37Z</time></trkpt><trkpt lat="44.03491988039356" lon="11.922693466521766"><ele>543.0</ele><time>2026-05-03T09:29:39Z</time></trkpt><trkpt lat="44.03488884661795" lon="11.922555697893399"><ele>544.8333333333334</ele><time>2026-05-03T09:29:44.999Z</time></trkpt><trkpt lat="44.03483015728828" lon="11.922491221612583"><ele>546.6666666666666</ele><time>2026-05-03T09:29:48.999Z</time></trkpt><trkpt lat="44.034857209832104" lon="11.922383010109257"><ele>548.5</ele><time>2026-05-03T09:30:18Z</time></trkpt><trkpt lat="44.034910695350646" lon="11.922263929120438"><ele>550.3333333333333</ele><time>2026-05-03T09:30:20Z</time></trkpt><trkpt lat="44.034939973638195" lon="11.922174582513568"><ele>552.1666666666666</ele><time>2026-05-03T09:30:21Z</time></trkpt><trkpt lat="44.03496054681202" lon="11.922088269134546"><ele>554.0</ele><time>2026-05-03T09:30:22Z</time></trkpt><trkpt lat="44.034993213537625" lon="11.921995991133299"><ele>555.0</ele><time>2026-05-03T09:30:23Z</time></trkpt><trkpt lat="44.0350179137314" lon="11.921829266297802"><ele>556.0</ele><time>2026-05-03T09:30:25Z</time></trkpt><trkpt lat="44.03505758412088" lon="11.921657381507163"><ele>557.0</ele><time>2026-05-03T09:30:27Z</time></trkpt><trkpt lat="44.03507865221527" lon="11.921550993815977"><ele>558.0</ele><time>2026-05-03T09:30:28Z</time></trkpt><trkpt lat="44.035103497498845" lon="11.921432699911183"><ele>559.0</ele><time>2026-05-03T09:30:29Z</time></trkpt><trkpt lat="44.03513140106566" lon="11.921323163165608"><ele>559.0</ele><time>2026-05-03T09:30:30Z</time></trkpt><trkpt lat="44.035161675209615" lon="11.92119558291578"><ele>559.0</ele><time>2026-05-03T09:30:31Z</time></trkpt><trkpt lat="44.03518875019174" lon="11.921074113096225"><ele>559.0</ele><time>2026-05-03T09:30:32Z</time></trkpt><trkpt lat="44.035203893459325" lon="11.920969867903924"><ele>559.0</ele><time>2026-05-03T09:30:33Z</time></trkpt><trkpt lat="44.035232701458504" lon="11.920867685764737"><ele>559.0</ele><time>2026-05-03T09:30:34Z</time></trkpt><trkpt lat="44.035271948604375" lon="11.920743830707437"><ele>559.0</ele><time>2026-05-03T09:30:35Z</time></trkpt><trkpt lat="44.03530071735131" lon="11.920615746168831"><ele>557.2</ele><time>2026-05-03T09:30:36Z</time></trkpt><trkpt lat="44.03533708856836" lon="11.920461048163137"><ele>555.4</ele><time>2026-05-03T09:30:37Z</time></trkpt><trkpt lat="44.03536450848088" lon="11.920322602015238"><ele>553.6</ele><time>2026-05-03T09:30:38Z</time></trkpt><trkpt lat="44.035383808284756" lon="11.920218066194483"><ele>551.8</ele><time>2026-05-03T09:30:39Z</time></trkpt><trkpt lat="44.0353922612595" lon="11.920120119910695"><ele>550.0</ele><time>2026-05-03T09:30:40Z</time></trkpt><trkpt lat="44.035388676469275" lon="11.920003796797202"><ele>548.0</ele><time>2026-05-03T09:30:41Z</time></trkpt><trkpt lat="44.0353863071353" lon="11.919905233046409"><ele>546.0</ele><time>2026-05-03T09:30:42Z</time></trkpt><trkpt lat="44.03539969510101" lon="11.91976143875176"><ele>544.0</ele><time>2026-05-03T09:30:44Z</time></trkpt><trkpt lat="44.03539385437183" lon="11.919620494788242"><ele>542.0</ele><time>2026-05-03T09:30:46Z</time></trkpt><trkpt lat="44.03535708269733" lon="11.919500266881585"><ele>540.0</ele><time>2026-05-03T09:30:48Z</time></trkpt><trkpt lat="44.035281774137864" lon="11.919437935896267"><ele>540.0</ele><time>2026-05-03T09:30:50Z</time></trkpt><trkpt lat="44.03520759605479" lon="11.919368846028709"><ele>540.0</ele><time>2026-05-03T09:30:52Z</time></trkpt><trkpt lat="44.03511475433632" lon="11.919343537178188"><ele>540.0</ele><time>2026-05-03T09:30:54Z</time></trkpt><trkpt lat="44.03503021189557" lon="11.919297079721376"><ele>540.0</ele><time>2026-05-03T09:30:56Z</time></trkpt><trkpt lat="44.034953684299545" lon="11.919324916941441"><ele>540.0</ele><time>2026-05-03T09:30:59Z</time></trkpt><trkpt lat="44.034788639334174" lon="11.91935272050727"><ele>537.3333333333334</ele><time>2026-05-03T09:31:01Z</time></trkpt><trkpt lat="44.034686453119356" lon="11.919401583771185"><ele>534.6666666666666</ele><time>2026-05-03T09:31:03Z</time></trkpt><trkpt lat="44.03462024290715" lon="11.919437402911877"><ele>532.0</ele><time>2026-05-03T09:31:04Z</time></trkpt><trkpt lat="44.034545922634244" lon="11.919478663146647"><ele>529.3333333333333</ele><time>2026-05-03T09:31:05Z</time></trkpt><trkpt lat="44.03448434851689" lon="11.919502671273351"><ele>526.6666666666666</ele><time>2026-05-03T09:31:06Z</time></trkpt><trkpt lat="44.03442103288277" lon="11.919506116948574"><ele>524.0</ele><time>2026-05-03T09:31:07Z</time></trkpt><trkpt lat="44.03434037746605" lon="11.919544540389056"><ele>524.0</ele><time>2026-05-03T09:31:09Z</time></trkpt><trkpt lat="44.03425824243551" lon="11.919580870583813"><ele>524.0</ele><time>2026-05-03T09:31:11Z</time></trkpt><trkpt lat="44.03414397631287" lon="11.919624445404423"><ele>524.0</ele><time>2026-05-03T09:31:13Z</time></trkpt><trkpt lat="44.03406073112732" lon="11.919652926702152"><ele>524.0</ele><time>2026-05-03T09:31:14Z</time></trkpt><trkpt lat="44.03398441788847" lon="11.919668632028227"><ele>524.0</ele><time>2026-05-03T09:31:15Z</time></trkpt><trkpt lat="44.033879179366224" lon="11.919687887822628"><ele>522.6</ele><time>2026-05-03T09:31:17Z</time></trkpt><trkpt lat="44.03379832472363" lon="11.919725146447881"><ele>521.2</ele><time>2026-05-03T09:31:19Z</time></trkpt><trkpt lat="44.03369714288072" lon="11.919774630609535"><ele>519.8000000000001</ele><time>2026-05-03T09:31:21Z</time></trkpt><trkpt lat="44.033576285241715" lon="11.919795072862227"><ele>518.4</ele><time>2026-05-03T09:31:23Z</time></trkpt><trkpt lat="44.03349912342683" lon="11.919812693291897"><ele>517.0</ele><time>2026-05-03T09:31:24Z</time></trkpt><trkpt lat="44.03342266539806" lon="11.919821978435472"><ele>517.0</ele><time>2026-05-03T09:31:25Z</time></trkpt><trkpt lat="44.03335872799449" lon="11.91969312982415"><ele>517.0</ele><time>2026-05-03T09:31:27Z</time></trkpt><trkpt lat="44.0333077733321" lon="11.919544740813773"><ele>517.0</ele><time>2026-05-03T09:31:29Z</time></trkpt><trkpt lat="44.03324809006925" lon="11.91943152628366"><ele>517.0</ele><time>2026-05-03T09:31:31Z</time></trkpt><trkpt lat="44.03319304877885" lon="11.919335290696065"><ele>517.0</ele><time>2026-05-03T09:31:47.999Z</time></trkpt><trkpt lat="44.0331539122838" lon="11.919264208736182"><ele>516.3333333333334</ele><time>2026-05-03T09:31:49.999Z</time></trkpt><trkpt lat="44.033118862142686" lon="11.919161587205398"><ele>515.6666666666667</ele><time>2026-05-03T09:32:35Z</time></trkpt><trkpt lat="44.03309508959007" lon="11.919073040828659"><ele>515.0</ele><time>2026-05-03T09:32:37Z</time></trkpt><trkpt lat="44.03306103500421" lon="11.918977389021801"><ele>514.3333333333334</ele><time>2026-05-03T09:32:39Z</time></trkpt><trkpt lat="44.03302139343371" lon="11.918893293948868"><ele>513.6666666666666</ele><time>2026-05-03T09:32:41Z</time></trkpt><trkpt lat="44.03296522896086" lon="11.918791412626796"><ele>513.0</ele><time>2026-05-03T09:32:43Z</time></trkpt><trkpt lat="44.032905201056586" lon="11.918673382306926"><ele>513.0</ele><time>2026-05-03T09:32:45Z</time></trkpt><trkpt lat="44.03282932032532" lon="11.918578391864145"><ele>513.0</ele><time>2026-05-03T09:32:47Z</time></trkpt><trkpt lat="44.03274492239155" lon="11.918530805016719"><ele>513.0</ele><time>2026-05-03T09:32:49Z</time></trkpt><trkpt lat="44.03264832510033" lon="11.918597139971766"><ele>513.0</ele><time>2026-05-03T09:32:51Z</time></trkpt><trkpt lat="44.03257375562788" lon="11.918606073634779"><ele>513.0</ele><time>2026-05-03T09:32:53Z</time></trkpt><trkpt lat="44.032483579378294" lon="11.918616877035786"><ele>512.1666666666666</ele><time>2026-05-03T09:32:55Z</time></trkpt><trkpt lat="44.03240072917047" lon="11.918623652864937"><ele>511.33333333333337</ele><time>2026-05-03T09:32:56Z</time></trkpt><trkpt lat="44.03231842903668" lon="11.918654916917191"><ele>510.5</ele><time>2026-05-03T09:32:57Z</time></trkpt><trkpt lat="44.03224197042534" lon="11.918648301756068"><ele>509.6666666666667</ele><time>2026-05-03T09:32:58Z</time></trkpt><trkpt lat="44.03215651690179" lon="11.918664662267982"><ele>508.83333333333337</ele><time>2026-05-03T09:32:59Z</time></trkpt><trkpt lat="44.032079826450804" lon="11.918667844150347"><ele>508.0</ele><time>2026-05-03T09:33:00Z</time></trkpt><trkpt lat="44.03200733025683" lon="11.918659840797122"><ele>508.00000000000006</ele><time>2026-05-03T09:33:01Z</time></trkpt><trkpt lat="44.03193802652698" lon="11.918634331133237"><ele>508.0</ele><time>2026-05-03T09:33:02Z</time></trkpt><trkpt lat="44.03186906658935" lon="11.918536264218085"><ele>508.0</ele><time>2026-05-03T09:33:04Z</time></trkpt><trkpt lat="44.03189767276271" lon="11.918393958750775"><ele>508.0</ele><time>2026-05-03T09:33:07Z</time></trkpt><trkpt lat="44.03195290241631" lon="11.918319923456048"><ele>508.00000000000006</ele><time>2026-05-03T09:33:08Z</time></trkpt><trkpt lat="44.03201472047212" lon="11.918265104001916"><ele>508.0</ele><time>2026-05-03T09:33:09Z</time></trkpt><trkpt lat="44.03194365988803" lon="11.918112911816657"><ele>503.0</ele><time>2026-05-03T09:33:12Z</time></trkpt><trkpt lat="44.031862212749076" lon="11.918099277944313"><ele>497.99999999999994</ele><time>2026-05-03T09:33:13Z</time></trkpt><trkpt lat="44.03174520983754" lon="11.918084484711944"><ele>492.99999999999994</ele><time>2026-05-03T09:33:14Z</time></trkpt><trkpt lat="44.03163068855056" lon="11.918090660493498"><ele>488.0</ele><time>2026-05-03T09:33:15Z</time></trkpt><trkpt lat="44.03154080761497" lon="11.9180974083207"><ele>483.0</ele><time>2026-05-03T09:33:16Z</time></trkpt><trkpt lat="44.03146040539089" lon="11.918082196487342"><ele>483.0</ele><time>2026-05-03T09:33:17Z</time></trkpt><trkpt lat="44.031378349577366" lon="11.918045608928564"><ele>482.99999999999994</ele><time>2026-05-03T09:33:18Z</time></trkpt><trkpt lat="44.03129436471629" lon="11.917976200943345"><ele>482.99999999999994</ele><time>2026-05-03T09:33:19Z</time></trkpt><trkpt lat="44.0312006413449" lon="11.917915128594402"><ele>483.0</ele><time>2026-05-03T09:33:20Z</time></trkpt><trkpt lat="44.03110672311862" lon="11.917853454181952"><ele>483.0</ele><time>2026-05-03T09:33:21Z</time></trkpt><trkpt lat="44.03101099132309" lon="11.917784800954566"><ele>483.0</ele><time>2026-05-03T09:33:22Z</time></trkpt><trkpt lat="44.03091490656924" lon="11.917711581669806"><ele>482.99999999999994</ele><time>2026-05-03T09:33:23Z</time></trkpt><trkpt lat="44.030813307280546" lon="11.917635491165194"><ele>482.99999999999994</ele><time>2026-05-03T09:33:24Z</time></trkpt><trkpt lat="44.030724988962994" lon="11.917575495362023"><ele>483.0</ele><time>2026-05-03T09:33:25Z</time></trkpt><trkpt lat="44.03062713783013" lon="11.917514996101211"><ele>483.0</ele><time>2026-05-03T09:33:26Z</time></trkpt><trkpt lat="44.030533766508945" lon="11.917458376823737"><ele>480.59999999999997</ele><time>2026-05-03T09:33:27Z</time></trkpt><trkpt lat="44.03044279455715" lon="11.917404948202224"><ele>478.19999999999993</ele><time>2026-05-03T09:33:28Z</time></trkpt><trkpt lat="44.03037079803194" lon="11.917364889249386"><ele>475.8</ele><time>2026-05-03T09:33:29Z</time></trkpt><trkpt lat="44.03029533580591" lon="11.917266841638789"><ele>473.4</ele><time>2026-05-03T09:33:31Z</time></trkpt><trkpt lat="44.03035420598284" lon="11.917105243837849"><ele>471.0</ele><time>2026-05-03T09:33:33Z</time></trkpt><trkpt lat="44.03041919380528" lon="11.91705625811117"><ele>471.0</ele><time>2026-05-03T09:33:34Z</time></trkpt><trkpt lat="44.030458097412115" lon="11.916976083423801"><ele>471.0</ele><time>2026-05-03T09:33:35Z</time></trkpt><trkpt lat="44.03046897109647" lon="11.91687954549473"><ele>471.0</ele><time>2026-05-03T09:33:36Z</time></trkpt><trkpt lat="44.030443974439585" lon="11.91677944319158"><ele>471.0</ele><time>2026-05-03T09:33:37Z</time></trkpt><trkpt lat="44.0303410638669" lon="11.91672757756532"><ele>471.0</ele><time>2026-05-03T09:33:38Z</time></trkpt><trkpt lat="44.03025521905107" lon="11.916763825518146"><ele>471.0</ele><time>2026-05-03T09:33:39Z</time></trkpt><trkpt lat="44.030162545594884" lon="11.916737273955095"><ele>470.3333333333333</ele><time>2026-05-03T09:33:40Z</time></trkpt><trkpt lat="44.030083472424884" lon="11.916719822522046"><ele>469.66666666666663</ele><time>2026-05-03T09:33:41Z</time></trkpt><trkpt lat="44.03003459652322" lon="11.916659877524204"><ele>469.0</ele><time>2026-05-03T09:33:42Z</time></trkpt><trkpt lat="44.029955232924046" lon="11.916520065213708"><ele>468.3333333333333</ele><time>2026-05-03T09:33:44Z</time></trkpt><trkpt lat="44.029900837366846" lon="11.916443636021182"><ele>467.66666666666663</ele><time>2026-05-03T09:33:46Z</time></trkpt><trkpt lat="44.029843678744875" lon="11.916389744564281"><ele>467.0</ele><time>2026-05-03T09:33:48Z</time></trkpt><trkpt lat="44.02979897672598" lon="11.916275570437923"><ele>466.99999999999994</ele><time>2026-05-03T09:33:49.999Z</time></trkpt><trkpt lat="44.02974420803182" lon="11.916209892029338"><ele>467.0</ele><time>2026-05-03T09:33:50.999Z</time></trkpt><trkpt lat="44.0297030369334" lon="11.9161279265605"><ele>467.0</ele><time>2026-05-03T09:33:51.999Z</time></trkpt><trkpt lat="44.02972201185987" lon="11.91603344291206"><ele>467.0</ele><time>2026-05-03T09:33:52.999Z</time></trkpt><trkpt lat="44.02968438961806" lon="11.915906183844214"><ele>466.99999999999994</ele><time>2026-05-03T09:33:54.999Z</time></trkpt><trkpt lat="44.02975723516265" lon="11.915896890712997"><ele>467.0</ele><time>2026-05-03T09:33:55.999Z</time></trkpt><trkpt lat="44.02982644054746" lon="11.91579929584338"><ele>467.0</ele><time>2026-05-03T09:33:57.999Z</time></trkpt><trkpt lat="44.029879316082074" lon="11.915727405121553"><ele>467.0</ele><time>2026-05-03T09:34:00.999Z</time></trkpt><trkpt lat="44.029715575139676" lon="11.915896505489107"><ele>467.0</ele><time>2026-05-03T09:34:12Z</time></trkpt><trkpt lat="44.02963813293272" lon="11.915925669882679"><ele>467.0</ele><time>2026-05-03T09:34:13Z</time></trkpt><trkpt lat="44.02954206285136" lon="11.915926284270684"><ele>467.0</ele><time>2026-05-03T09:34:14Z</time></trkpt><trkpt lat="44.02943820563456" lon="11.915944108535616"><ele>467.00000000000006</ele><time>2026-05-03T09:34:15Z</time></trkpt><trkpt lat="44.029334646827174" lon="11.915947468185417"><ele>467.00000000000006</ele><time>2026-05-03T09:34:16Z</time></trkpt><trkpt lat="44.02922640549529" lon="11.915924775289428"><ele>467.0</ele><time>2026-05-03T09:34:17Z</time></trkpt><trkpt lat="44.02915188199424" lon="11.915853595562186"><ele>467.0</ele><time>2026-05-03T09:34:18Z</time></trkpt><trkpt lat="44.02910528559682" lon="11.915767554098222"><ele>462.66666666666663</ele><time>2026-05-03T09:34:19Z</time></trkpt><trkpt lat="44.02906901627486" lon="11.915674747536684"><ele>458.3333333333333</ele><time>2026-05-03T09:34:20Z</time></trkpt><trkpt lat="44.02901989090302" lon="11.915566957916766"><ele>454.0</ele><time>2026-05-03T09:34:21Z</time></trkpt><trkpt lat="44.02896585100432" lon="11.91546196458294"><ele>449.66666666666663</ele><time>2026-05-03T09:34:22Z</time></trkpt><trkpt lat="44.02890761311038" lon="11.915384952232435"><ele>445.3333333333333</ele><time>2026-05-03T09:34:23Z</time></trkpt><trkpt lat="44.0288181424541" lon="11.915356457013305"><ele>441.0</ele><time>2026-05-03T09:34:24Z</time></trkpt><trkpt lat="44.02871317801132" lon="11.915411645508803"><ele>441.0</ele><time>2026-05-03T09:34:25Z</time></trkpt><trkpt lat="44.02863712964627" lon="11.915446823024915"><ele>441.0</ele><time>2026-05-03T09:34:26Z</time></trkpt><trkpt lat="44.02865196447882" lon="11.915623326421354"><ele>441.0</ele><time>2026-05-03T09:34:27Z</time></trkpt><trkpt lat="44.028596679014306" lon="11.915724980345228"><ele>441.0</ele><time>2026-05-03T09:34:28Z</time></trkpt><trkpt lat="44.028525109825516" lon="11.915839474947987"><ele>441.0</ele><time>2026-05-03T09:34:29Z</time></trkpt><trkpt lat="44.02845163263901" lon="11.915938013824238"><ele>447.5</ele><time>2026-05-03T09:34:30Z</time></trkpt><trkpt lat="44.02837610123088" lon="11.916035377819078"><ele>454.0</ele><time>2026-05-03T09:34:31Z</time></trkpt><trkpt lat="44.0282571941715" lon="11.91616209294838"><ele>460.5</ele><time>2026-05-03T09:34:32Z</time></trkpt><trkpt lat="44.02817192877933" lon="11.916255073406534"><ele>467.0</ele><time>2026-05-03T09:34:33Z</time></trkpt><trkpt lat="44.028098659178845" lon="11.91633730466886"><ele>467.0</ele><time>2026-05-03T09:34:34Z</time></trkpt><trkpt lat="44.028004163301894" lon="11.916365569475932"><ele>467.00000000000006</ele><time>2026-05-03T09:34:35Z</time></trkpt><trkpt lat="44.02789708822581" lon="11.916385829658934"><ele>467.00000000000006</ele><time>2026-05-03T09:34:36Z</time></trkpt><trkpt lat="44.02777689063128" lon="11.9163989512068"><ele>467.0</ele><time>2026-05-03T09:34:37Z</time></trkpt><trkpt lat="44.02766195658568" lon="11.916413851998819"><ele>467.0</ele><time>2026-05-03T09:34:38Z</time></trkpt><trkpt lat="44.02755338728973" lon="11.916410756491533"><ele>465.5</ele><time>2026-05-03T09:34:39Z</time></trkpt><trkpt lat="44.02745648794959" lon="11.916378306206687"><ele>464.0</ele><time>2026-05-03T09:34:40Z</time></trkpt><trkpt lat="44.02733484261672" lon="11.916340648310985"><ele>462.5</ele><time>2026-05-03T09:34:41Z</time></trkpt><trkpt lat="44.027220034306666" lon="11.916308698515115"><ele>461.0</ele><time>2026-05-03T09:34:42Z</time></trkpt><trkpt lat="44.027105816140924" lon="11.916292380503027"><ele>461.0</ele><time>2026-05-03T09:34:43Z</time></trkpt><trkpt lat="44.02696873107082" lon="11.916281699038946"><ele>461.0</ele><time>2026-05-03T09:34:44Z</time></trkpt><trkpt lat="44.02686394353678" lon="11.916274852800866"><ele>461.0</ele><time>2026-05-03T09:34:45Z</time></trkpt><trkpt lat="44.02676792154383" lon="11.916243025703567"><ele>461.0</ele><time>2026-05-03T09:34:46Z</time></trkpt><trkpt lat="44.026680299059535" lon="11.916192762788992"><ele>461.0</ele><time>2026-05-03T09:34:47Z</time></trkpt><trkpt lat="44.02659434855364" lon="11.91611311548801"><ele>455.0</ele><time>2026-05-03T09:34:48Z</time></trkpt><trkpt lat="44.026524736083765" lon="11.916014087089742"><ele>449.0</ele><time>2026-05-03T09:34:49Z</time></trkpt><trkpt lat="44.02647464376695" lon="11.915902115051837"><ele>443.0</ele><time>2026-05-03T09:34:50Z</time></trkpt><trkpt lat="44.02641142277489" lon="11.915776901983708"><ele>437.0</ele><time>2026-05-03T09:34:51Z</time></trkpt><trkpt lat="44.02634726979452" lon="11.915659453101819"><ele>431.0</ele><time>2026-05-03T09:34:52Z</time></trkpt><trkpt lat="44.026276738653785" lon="11.915545887052003"><ele>431.4</ele><time>2026-05-03T09:34:53Z</time></trkpt><trkpt lat="44.02620196610105" lon="11.915445837148498"><ele>431.8</ele><time>2026-05-03T09:34:54Z</time></trkpt><trkpt lat="44.02612541488064" lon="11.9153744696756"><ele>432.19999999999993</ele><time>2026-05-03T09:34:55Z</time></trkpt><trkpt lat="44.02607320463316" lon="11.915281711769426"><ele>432.59999999999997</ele><time>2026-05-03T09:34:56Z</time></trkpt><trkpt lat="44.02605015741937" lon="11.91516861856452"><ele>433.0</ele><time>2026-05-03T09:34:57Z</time></trkpt><trkpt lat="44.026007310196974" lon="11.91504954676386"><ele>433.0</ele><time>2026-05-03T09:34:58Z</time></trkpt><trkpt lat="44.025953766829524" lon="11.914927014043727"><ele>432.99999999999994</ele><time>2026-05-03T09:34:59Z</time></trkpt><trkpt lat="44.025893628542974" lon="11.91480874175556"><ele>432.99999999999994</ele><time>2026-05-03T09:35:00Z</time></trkpt><trkpt lat="44.025827460916574" lon="11.914692357783208"><ele>433.0</ele><time>2026-05-03T09:35:01Z</time></trkpt><trkpt lat="44.02575253347774" lon="11.914582275934436"><ele>433.0</ele><time>2026-05-03T09:35:02Z</time></trkpt><trkpt lat="44.025675472343934" lon="11.914479567247561"><ele>432.59999999999997</ele><time>2026-05-03T09:35:03Z</time></trkpt><trkpt lat="44.025601225681065" lon="11.914387419842901"><ele>432.19999999999993</ele><time>2026-05-03T09:35:04Z</time></trkpt><trkpt lat="44.02553086289535" lon="11.914305957011257"><ele>431.8</ele><time>2026-05-03T09:35:05Z</time></trkpt><trkpt lat="44.025462402164734" lon="11.914227805535184"><ele>431.4</ele><time>2026-05-03T09:35:06Z</time></trkpt><trkpt lat="44.02539158518139" lon="11.914150789041804"><ele>431.0</ele><time>2026-05-03T09:35:07Z</time></trkpt><trkpt lat="44.02531487962667" lon="11.914077152806952"><ele>431.0</ele><time>2026-05-03T09:35:08Z</time></trkpt><trkpt lat="44.02523918665742" lon="11.914008821482406"><ele>431.0</ele><time>2026-05-03T09:35:09Z</time></trkpt><trkpt lat="44.025164611766485" lon="11.913933357042492"><ele>431.0</ele><time>2026-05-03T09:35:10Z</time></trkpt><trkpt lat="44.02510324880151" lon="11.913854620288392"><ele>431.0</ele><time>2026-05-03T09:35:11Z</time></trkpt><trkpt lat="44.025043217742066" lon="11.913749610531651"><ele>431.0</ele><time>2026-05-03T09:35:12Z</time></trkpt><trkpt lat="44.02501531847853" lon="11.913614009906187"><ele>428.20000000000005</ele><time>2026-05-03T09:35:13Z</time></trkpt><trkpt lat="44.02496490885828" lon="11.913486769899505"><ele>425.40000000000003</ele><time>2026-05-03T09:35:14Z</time></trkpt><trkpt lat="44.02491084623164" lon="11.913366237987743"><ele>422.6</ele><time>2026-05-03T09:35:15Z</time></trkpt><trkpt lat="44.02483888607275" lon="11.913245268826822"><ele>419.8</ele><time>2026-05-03T09:35:16Z</time></trkpt><trkpt lat="44.024767458460765" lon="11.913130074526572"><ele>417.0</ele><time>2026-05-03T09:35:17Z</time></trkpt><trkpt lat="44.02469116658539" lon="11.913010037963739"><ele>417.0</ele><time>2026-05-03T09:35:18Z</time></trkpt><trkpt lat="44.02461904027365" lon="11.91289894512451"><ele>417.0</ele><time>2026-05-03T09:35:19Z</time></trkpt><trkpt lat="44.024545002886825" lon="11.912784380338588"><ele>417.0</ele><time>2026-05-03T09:35:20Z</time></trkpt><trkpt lat="44.02447183806323" lon="11.91267116583356"><ele>417.0</ele><time>2026-05-03T09:35:21Z</time></trkpt><trkpt lat="44.02439688943511" lon="11.91255356721832"><ele>417.0</ele><time>2026-05-03T09:35:22Z</time></trkpt><trkpt lat="44.024320319761834" lon="11.912434427326202"><ele>420.20000000000005</ele><time>2026-05-03T09:35:23Z</time></trkpt><trkpt lat="44.024245059170134" lon="11.912329086398012"><ele>423.4</ele><time>2026-05-03T09:35:24Z</time></trkpt><trkpt lat="44.02417037028005" lon="11.912232199634616"><ele>426.59999999999997</ele><time>2026-05-03T09:35:25Z</time></trkpt><trkpt lat="44.02408240803792" lon="11.912144179178988"><ele>429.79999999999995</ele><time>2026-05-03T09:35:26Z</time></trkpt><trkpt lat="44.023982159065596" lon="11.91208464602849"><ele>433.0</ele><time>2026-05-03T09:35:27Z</time></trkpt><trkpt lat="44.02388173014344" lon="11.91204353146371"><ele>433.0</ele><time>2026-05-03T09:35:28Z</time></trkpt><trkpt lat="44.02378295968078" lon="11.912004627254369"><ele>432.99999999999994</ele><time>2026-05-03T09:35:29Z</time></trkpt><trkpt lat="44.02367999751552" lon="11.911966374683768"><ele>432.99999999999994</ele><time>2026-05-03T09:35:30Z</time></trkpt><trkpt lat="44.02358584944415" lon="11.911929167885543"><ele>433.0</ele><time>2026-05-03T09:35:31Z</time></trkpt><trkpt lat="44.0234971109397" lon="11.911869699138702"><ele>433.0</ele><time>2026-05-03T09:35:32Z</time></trkpt><trkpt lat="44.023413710366945" lon="11.911793171674681"><ele>436.0</ele><time>2026-05-03T09:35:33Z</time></trkpt><trkpt lat="44.02333088550322" lon="11.911703918254865"><ele>438.99999999999994</ele><time>2026-05-03T09:35:34Z</time></trkpt><trkpt lat="44.02325034886391" lon="11.911611931274122"><ele>441.99999999999994</ele><time>2026-05-03T09:35:35Z</time></trkpt><trkpt lat="44.023173011275155" lon="11.911514617020018"><ele>445.0</ele><time>2026-05-03T09:35:36Z</time></trkpt><trkpt lat="44.023092427182526" lon="11.91141888903259"><ele>448.0</ele><time>2026-05-03T09:35:37Z</time></trkpt><trkpt lat="44.02301083043876" lon="11.911332050273709"><ele>448.0</ele><time>2026-05-03T09:35:38Z</time></trkpt><trkpt lat="44.02292467149115" lon="11.91125782625646"><ele>447.99999999999994</ele><time>2026-05-03T09:35:39Z</time></trkpt><trkpt lat="44.02283108572142" lon="11.911197595216409"><ele>447.99999999999994</ele><time>2026-05-03T09:35:40Z</time></trkpt><trkpt lat="44.02272746181122" lon="11.911135084077351"><ele>448.0</ele><time>2026-05-03T09:35:41Z</time></trkpt><trkpt lat="44.02262863278819" lon="11.911080348005711"><ele>448.0</ele><time>2026-05-03T09:35:42Z</time></trkpt><trkpt lat="44.02253058132892" lon="11.911032894259213"><ele>446.0</ele><time>2026-05-03T09:35:43Z</time></trkpt><trkpt lat="44.02242979258488" lon="11.911014488203508"><ele>443.99999999999994</ele><time>2026-05-03T09:35:44Z</time></trkpt><trkpt lat="44.022330230006176" lon="11.910976818877709"><ele>441.99999999999994</ele><time>2026-05-03T09:35:45Z</time></trkpt><trkpt lat="44.02224648639213" lon="11.910906964825424"><ele>440.0</ele><time>2026-05-03T09:35:46Z</time></trkpt><trkpt lat="44.022156578313755" lon="11.910866716421044"><ele>438.0</ele><time>2026-05-03T09:35:47Z</time></trkpt><trkpt lat="44.02205904256598" lon="11.910848910557728"><ele>440.2</ele><time>2026-05-03T09:35:48Z</time></trkpt><trkpt lat="44.021950205929755" lon="11.910821034368155"><ele>442.4</ele><time>2026-05-03T09:35:49Z</time></trkpt><trkpt lat="44.021859849273355" lon="11.910776420781689"><ele>444.59999999999997</ele><time>2026-05-03T09:35:50Z</time></trkpt><trkpt lat="44.021778464518185" lon="11.910780960055815"><ele>446.79999999999995</ele><time>2026-05-03T09:35:51Z</time></trkpt><trkpt lat="44.02170149001852" lon="11.910764725348995"><ele>449.0</ele><time>2026-05-03T09:35:52Z</time></trkpt><trkpt lat="44.021629620121985" lon="11.910695181838818"><ele>451.2</ele><time>2026-05-03T09:35:54Z</time></trkpt><trkpt lat="44.021701874548" lon="11.910602710357798"><ele>453.4</ele><time>2026-05-03T09:35:55Z</time></trkpt><trkpt lat="44.02175013823263" lon="11.910463622922935"><ele>455.6</ele><time>2026-05-03T09:35:57Z</time></trkpt><trkpt lat="44.021754260867596" lon="11.910341662637594"><ele>457.8</ele><time>2026-05-03T09:35:58Z</time></trkpt><trkpt lat="44.021727629593535" lon="11.910197856304862"><ele>460.0</ele><time>2026-05-03T09:35:59Z</time></trkpt><trkpt lat="44.02170900152509" lon="11.910069982351645"><ele>460.6</ele><time>2026-05-03T09:36:00Z</time></trkpt><trkpt lat="44.021708110687655" lon="11.90995596684059"><ele>461.2</ele><time>2026-05-03T09:36:00.999Z</time></trkpt><trkpt lat="44.02171640052185" lon="11.909838760467203"><ele>461.79999999999995</ele><time>2026-05-03T09:36:01.999Z</time></trkpt><trkpt lat="44.02172488920782" lon="11.909687988785816"><ele>462.4</ele><time>2026-05-03T09:36:02.999Z</time></trkpt><trkpt lat="44.021721878137164" lon="11.909542630958693"><ele>463.0</ele><time>2026-05-03T09:36:03.999Z</time></trkpt><trkpt lat="44.021707161389244" lon="11.909406200920413"><ele>463.0</ele><time>2026-05-03T09:36:04.999Z</time></trkpt><trkpt lat="44.021664892802875" lon="11.90927673844552"><ele>462.99999999999994</ele><time>2026-05-03T09:36:05.999Z</time></trkpt><trkpt lat="44.021631783440405" lon="11.909141444439909"><ele>462.99999999999994</ele><time>2026-05-03T09:36:06.999Z</time></trkpt><trkpt lat="44.02160706607408" lon="11.909008312599394"><ele>463.0</ele><time>2026-05-03T09:36:08Z</time></trkpt><trkpt lat="44.02157826551638" lon="11.908880036077022"><ele>463.0</ele><time>2026-05-03T09:36:09Z</time></trkpt><trkpt lat="44.02154947201389" lon="11.90876372444491"><ele>460.1666666666667</ele><time>2026-05-03T09:36:10Z</time></trkpt><trkpt lat="44.0215148252508" lon="11.90865499145902"><ele>457.33333333333337</ele><time>2026-05-03T09:36:11Z</time></trkpt><trkpt lat="44.02147239608216" lon="11.908554870745878"><ele>454.5</ele><time>2026-05-03T09:36:12Z</time></trkpt><trkpt lat="44.021416661709836" lon="11.908471233975828"><ele>451.66666666666663</ele><time>2026-05-03T09:36:13Z</time></trkpt><trkpt lat="44.02135765099443" lon="11.908397854978357"><ele>448.8333333333333</ele><time>2026-05-03T09:36:14Z</time></trkpt><trkpt lat="44.0212857944342" lon="11.908325250068701"><ele>446.0</ele><time>2026-05-03T09:36:15Z</time></trkpt><trkpt lat="44.02120737644544" lon="11.908254275253759"><ele>445.99999999999994</ele><time>2026-05-03T09:36:16Z</time></trkpt><trkpt lat="44.02113698437133" lon="11.90819631644104"><ele>446.0</ele><time>2026-05-03T09:36:17Z</time></trkpt><trkpt lat="44.02106176374573" lon="11.908150438855706"><ele>446.0</ele><time>2026-05-03T09:36:18Z</time></trkpt><trkpt lat="44.0209841162588" lon="11.908112327178175"><ele>446.0</ele><time>2026-05-03T09:36:19Z</time></trkpt><trkpt lat="44.02090203321968" lon="11.908087972792686"><ele>445.99999999999994</ele><time>2026-05-03T09:36:20Z</time></trkpt><trkpt lat="44.020817505613785" lon="11.90807122878973"><ele>446.0</ele><time>2026-05-03T09:36:21Z</time></trkpt><trkpt lat="44.02073889333495" lon="11.908056044014009"><ele>443.85714285714283</ele><time>2026-05-03T09:36:22Z</time></trkpt><trkpt lat="44.02066098857167" lon="11.908037080279751"><ele>441.71428571428567</ele><time>2026-05-03T09:36:23Z</time></trkpt><trkpt lat="44.020591815311555" lon="11.908001397934026"><ele>439.57142857142856</ele><time>2026-05-03T09:36:24Z</time></trkpt><trkpt lat="44.02052486846537" lon="11.907954815668475"><ele>437.42857142857144</ele><time>2026-05-03T09:36:25Z</time></trkpt><trkpt lat="44.020483859975904" lon="11.907880084353213"><ele>435.2857142857143</ele><time>2026-05-03T09:36:26Z</time></trkpt><trkpt lat="44.020477721875864" lon="11.907778546099202"><ele>433.14285714285717</ele><time>2026-05-03T09:36:27Z</time></trkpt><trkpt lat="44.02046456756892" lon="11.907671321289055"><ele>431.0</ele><time>2026-05-03T09:36:28Z</time></trkpt><trkpt lat="44.020433280466094" lon="11.907542760477416"><ele>431.0</ele><time>2026-05-03T09:36:29Z</time></trkpt><trkpt lat="44.02040409323191" lon="11.907429149487397"><ele>431.0</ele><time>2026-05-03T09:36:30Z</time></trkpt><trkpt lat="44.02037154020691" lon="11.907301834526852"><ele>431.0</ele><time>2026-05-03T09:36:31Z</time></trkpt><trkpt lat="44.02034333476764" lon="11.907184954902588"><ele>431.0</ele><time>2026-05-03T09:36:32Z</time></trkpt><trkpt lat="44.02031116127827" lon="11.907066885679106"><ele>431.0</ele><time>2026-05-03T09:36:33Z</time></trkpt><trkpt lat="44.02025953146618" lon="11.906942125338041"><ele>431.0</ele><time>2026-05-03T09:36:34Z</time></trkpt><trkpt lat="44.02019667562431" lon="11.906833614204755"><ele>431.0</ele><time>2026-05-03T09:36:35Z</time></trkpt><trkpt lat="44.020130043463745" lon="11.906730893595856"><ele>431.0</ele><time>2026-05-03T09:36:36Z</time></trkpt><trkpt lat="44.02005809755752" lon="11.906629662465997"><ele>431.0</ele><time>2026-05-03T09:36:37Z</time></trkpt><trkpt lat="44.01998259952577" lon="11.906526187337079"><ele>431.0</ele><time>2026-05-03T09:36:38Z</time></trkpt><trkpt lat="44.019906005810114" lon="11.906426120174608"><ele>428.8</ele><time>2026-05-03T09:36:39Z</time></trkpt><trkpt lat="44.01982659036911" lon="11.906329898338067"><ele>426.6</ele><time>2026-05-03T09:36:40Z</time></trkpt><trkpt lat="44.019753943312814" lon="11.906244097075751"><ele>424.4</ele><time>2026-05-03T09:36:41Z</time></trkpt><trkpt lat="44.01968176792873" lon="11.906163936168136"><ele>422.2</ele><time>2026-05-03T09:36:42Z</time></trkpt><trkpt lat="44.019606830033496" lon="11.9060896405633"><ele>420.0</ele><time>2026-05-03T09:36:43Z</time></trkpt><trkpt lat="44.01951884898705" lon="11.906031162438493"><ele>420.0</ele><time>2026-05-03T09:36:44Z</time></trkpt><trkpt lat="44.01942607920764" lon="11.905990824678861"><ele>420.0</ele><time>2026-05-03T09:36:45Z</time></trkpt><trkpt lat="44.01932483898907" lon="11.905949120817116"><ele>420.0</ele><time>2026-05-03T09:36:46Z</time></trkpt><trkpt lat="44.01921288038486" lon="11.90592856862514"><ele>420.0</ele><time>2026-05-03T09:36:47Z</time></trkpt><trkpt lat="44.01911179472936" lon="11.905872019412287"><ele>420.0</ele><time>2026-05-03T09:36:48Z</time></trkpt><trkpt lat="44.019004459712974" lon="11.905836157590931"><ele>421.8</ele><time>2026-05-03T09:36:49Z</time></trkpt><trkpt lat="44.01890027573553" lon="11.905803074218467"><ele>423.6</ele><time>2026-05-03T09:36:50Z</time></trkpt><trkpt lat="44.01880385671904" lon="11.905772456644808"><ele>425.4</ele><time>2026-05-03T09:36:51Z</time></trkpt><trkpt lat="44.01871797635692" lon="11.9057451855511"><ele>427.2</ele><time>2026-05-03T09:36:52Z</time></trkpt><trkpt lat="44.01863483380578" lon="11.905718785722955"><ele>429.0</ele><time>2026-05-03T09:36:53Z</time></trkpt><trkpt lat="44.01854445439299" lon="11.905690977513524"><ele>429.0</ele><time>2026-05-03T09:36:54Z</time></trkpt><trkpt lat="44.01845287575822" lon="11.905663193362502"><ele>429.0</ele><time>2026-05-03T09:36:55Z</time></trkpt><trkpt lat="44.0183606120366" lon="11.90563921919762"><ele>429.0</ele><time>2026-05-03T09:36:56Z</time></trkpt><trkpt lat="44.018269174533906" lon="11.9056151615649"><ele>429.0</ele><time>2026-05-03T09:36:57Z</time></trkpt><trkpt lat="44.0181741609999" lon="11.905588482052348"><ele>429.0</ele><time>2026-05-03T09:36:58Z</time></trkpt><trkpt lat="44.01808018718773" lon="11.905562094114293"><ele>428.0</ele><time>2026-05-03T09:36:59Z</time></trkpt><trkpt lat="44.017986679464414" lon="11.905531586683065"><ele>427.0</ele><time>2026-05-03T09:37:00Z</time></trkpt><trkpt lat="44.01789371816252" lon="11.905496516155916"><ele>426.0</ele><time>2026-05-03T09:37:01Z</time></trkpt><trkpt lat="44.01780853669918" lon="11.905455937388659"><ele>425.0</ele><time>2026-05-03T09:37:02Z</time></trkpt><trkpt lat="44.01773097798935" lon="11.905402397359197"><ele>424.0</ele><time>2026-05-03T09:37:03Z</time></trkpt><trkpt lat="44.01767371065055" lon="11.905336976819974"><ele>423.0</ele><time>2026-05-03T09:37:04Z</time></trkpt><trkpt lat="44.017627544980385" lon="11.90526173335997"><ele>423.0</ele><time>2026-05-03T09:37:05Z</time></trkpt><trkpt lat="44.01758972237398" lon="11.905175588284525"><ele>423.0</ele><time>2026-05-03T09:37:06Z</time></trkpt><trkpt lat="44.017571706298554" lon="11.905080596957458"><ele>423.0</ele><time>2026-05-03T09:37:07Z</time></trkpt><trkpt lat="44.017551644153095" lon="11.904980907593618"><ele>423.0</ele><time>2026-05-03T09:37:08Z</time></trkpt><trkpt lat="44.01753398461643" lon="11.904893898295915"><ele>423.0</ele><time>2026-05-03T09:37:09Z</time></trkpt><trkpt lat="44.017507291394026" lon="11.90474719771096"><ele>423.0</ele><time>2026-05-03T09:37:11Z</time></trkpt><trkpt lat="44.017477415406056" lon="11.904582565079522"><ele>426.0</ele><time>2026-05-03T09:37:13Z</time></trkpt><trkpt lat="44.017459107613575" lon="11.904494438214304"><ele>429.0</ele><time>2026-05-03T09:37:14Z</time></trkpt><trkpt lat="44.01744417263164" lon="11.904337573866359"><ele>432.0</ele><time>2026-05-03T09:37:16Z</time></trkpt><trkpt lat="44.01748995418567" lon="11.904219054940862"><ele>435.0</ele><time>2026-05-03T09:37:18Z</time></trkpt><trkpt lat="44.017531842262606" lon="11.904151550565198"><ele>438.0</ele><time>2026-05-03T09:37:19Z</time></trkpt><trkpt lat="44.017576419924126" lon="11.904085159408679"><ele>441.0</ele><time>2026-05-03T09:37:20Z</time></trkpt><trkpt lat="44.01762919236839" lon="11.904014292123366"><ele>441.0</ele><time>2026-05-03T09:37:21Z</time></trkpt><trkpt lat="44.017686137035334" lon="11.903948723540157"><ele>441.0</ele><time>2026-05-03T09:37:22Z</time></trkpt><trkpt lat="44.01774966956543" lon="11.903909677777557"><ele>441.0</ele><time>2026-05-03T09:37:23Z</time></trkpt><trkpt lat="44.01782113373597" lon="11.90388301948739"><ele>441.0</ele><time>2026-05-03T09:37:24Z</time></trkpt><trkpt lat="44.0179005068806" lon="11.90386320714039"><ele>441.0</ele><time>2026-05-03T09:37:25Z</time></trkpt><trkpt lat="44.01799095459902" lon="11.903822078288126"><ele>441.0</ele><time>2026-05-03T09:37:26Z</time></trkpt><trkpt lat="44.018077868398194" lon="11.903746106476289"><ele>441.0</ele><time>2026-05-03T09:37:27Z</time></trkpt><trkpt lat="44.01815473948902" lon="11.903644237116897"><ele>441.0</ele><time>2026-05-03T09:37:28Z</time></trkpt><trkpt lat="44.01821649790102" lon="11.90352075374349"><ele>441.0</ele><time>2026-05-03T09:37:29Z</time></trkpt><trkpt lat="44.01826421267113" lon="11.903375064018347"><ele>441.0</ele><time>2026-05-03T09:37:30Z</time></trkpt><trkpt lat="44.01830871430448" lon="11.90323019240221"><ele>441.0</ele><time>2026-05-03T09:37:31Z</time></trkpt><trkpt lat="44.01834712400992" lon="11.903073903658116"><ele>443.0</ele><time>2026-05-03T09:37:32Z</time></trkpt><trkpt lat="44.01836726094837" lon="11.902904945969189"><ele>445.0</ele><time>2026-05-03T09:37:33Z</time></trkpt><trkpt lat="44.018372548586775" lon="11.902740099274864"><ele>447.0</ele><time>2026-05-03T09:37:34Z</time></trkpt><trkpt lat="44.01835610720659" lon="11.902578905294057"><ele>449.0</ele><time>2026-05-03T09:37:35Z</time></trkpt><trkpt lat="44.01831504429946" lon="11.902420877317766"><ele>442.5</ele><time>2026-05-03T09:37:36Z</time></trkpt><trkpt lat="44.01827984063981" lon="11.902269705096064"><ele>436.0</ele><time>2026-05-03T09:37:37Z</time></trkpt><trkpt lat="44.01823687362123" lon="11.902128614749216"><ele>429.5</ele><time>2026-05-03T09:37:38Z</time></trkpt><trkpt lat="44.01817488390773" lon="11.901992288183877"><ele>423.0</ele><time>2026-05-03T09:37:39Z</time></trkpt><trkpt lat="44.01809681732766" lon="11.901884619393293"><ele>423.0</ele><time>2026-05-03T09:37:40Z</time></trkpt><trkpt lat="44.01801289634537" lon="11.901797922487999"><ele>423.0</ele><time>2026-05-03T09:37:41Z</time></trkpt><trkpt lat="44.01792314047084" lon="11.901738277437282"><ele>423.0</ele><time>2026-05-03T09:37:42Z</time></trkpt><trkpt lat="44.017816384516934" lon="11.901699941251831"><ele>423.0</ele><time>2026-05-03T09:37:43Z</time></trkpt><trkpt lat="44.0176984675241" lon="11.901695884915881"><ele>423.0</ele><time>2026-05-03T09:37:44Z</time></trkpt><trkpt lat="44.01759719257493" lon="11.901694705120608"><ele>425.2</ele><time>2026-05-03T09:37:45Z</time></trkpt><trkpt lat="44.0175079376519" lon="11.901702168925238"><ele>427.4</ele><time>2026-05-03T09:37:46Z</time></trkpt><trkpt lat="44.01742777912101" lon="11.901700553738221"><ele>429.59999999999997</ele><time>2026-05-03T09:37:47Z</time></trkpt><trkpt lat="44.017311677033206" lon="11.901662058317266"><ele>431.79999999999995</ele><time>2026-05-03T09:37:49Z</time></trkpt><trkpt lat="44.017216493296345" lon="11.901654378274063"><ele>434.0</ele><time>2026-05-03T09:37:51Z</time></trkpt><trkpt lat="44.017128321395084" lon="11.901613019197304"><ele>433.99999999999994</ele><time>2026-05-03T09:37:53Z</time></trkpt><trkpt lat="44.01708131659131" lon="11.901554118000835"><ele>434.0</ele><time>2026-05-03T09:37:54Z</time></trkpt><trkpt lat="44.0170003389937" lon="11.901454138094019"><ele>434.0</ele><time>2026-05-03T09:37:56Z</time></trkpt><trkpt lat="44.016908324561875" lon="11.901369037417508"><ele>434.0</ele><time>2026-05-03T09:37:58Z</time></trkpt><trkpt lat="44.01684936617691" lon="11.901321907072907"><ele>433.99999999999994</ele><time>2026-05-03T09:37:59Z</time></trkpt><trkpt lat="44.01678300477573" lon="11.90127994833899"><ele>434.0</ele><time>2026-05-03T09:38:00Z</time></trkpt><trkpt lat="44.01671700864164" lon="11.901245572952796"><ele>431.99999999999994</ele><time>2026-05-03T09:38:01Z</time></trkpt><trkpt lat="44.016648519223985" lon="11.901220234943125"><ele>430.0</ele><time>2026-05-03T09:38:02Z</time></trkpt><trkpt lat="44.01657629329863" lon="11.901225531632361"><ele>428.0</ele><time>2026-05-03T09:38:03Z</time></trkpt><trkpt lat="44.016495919517666" lon="11.901225559034987"><ele>426.0</ele><time>2026-05-03T09:38:04Z</time></trkpt><trkpt lat="44.01640910965237" lon="11.901250046999635"><ele>423.99999999999994</ele><time>2026-05-03T09:38:05Z</time></trkpt><trkpt lat="44.016321041741065" lon="11.901284928765525"><ele>422.0</ele><time>2026-05-03T09:38:06Z</time></trkpt><trkpt lat="44.016234270532756" lon="11.901320546532407"><ele>421.99999999999994</ele><time>2026-05-03T09:38:07Z</time></trkpt><trkpt lat="44.0161519527133" lon="11.901342622661588"><ele>422.0</ele><time>2026-05-03T09:38:08Z</time></trkpt><trkpt lat="44.01607368985897" lon="11.901343585229046"><ele>422.0</ele><time>2026-05-03T09:38:09Z</time></trkpt><trkpt lat="44.01599753561898" lon="11.901317024253096"><ele>422.0</ele><time>2026-05-03T09:38:10Z</time></trkpt><trkpt lat="44.015944225539904" lon="11.901209153404276"><ele>421.99999999999994</ele><time>2026-05-03T09:38:11Z</time></trkpt><trkpt lat="44.01587701983948" lon="11.901142640759483"><ele>422.0</ele><time>2026-05-03T09:38:12Z</time></trkpt><trkpt lat="44.015799374927695" lon="11.901076824758144"><ele>421.8333333333333</ele><time>2026-05-03T09:38:12.999Z</time></trkpt><trkpt lat="44.015733874321114" lon="11.901035908950785"><ele>421.66666666666663</ele><time>2026-05-03T09:38:14Z</time></trkpt><trkpt lat="44.015663124331425" lon="11.90102610149629"><ele>421.5</ele><time>2026-05-03T09:38:15Z</time></trkpt><trkpt lat="44.01559601212439" lon="11.901031190291775"><ele>421.33333333333337</ele><time>2026-05-03T09:38:16Z</time></trkpt><trkpt lat="44.0154951387556" lon="11.90099932314764"><ele>421.1666666666667</ele><time>2026-05-03T09:38:18Z</time></trkpt><trkpt lat="44.01552501137198" lon="11.900837952430054"><ele>421.0</ele><time>2026-05-03T09:38:22Z</time></trkpt><trkpt lat="44.015543951309674" lon="11.900714621444004"><ele>428.75</ele><time>2026-05-03T09:38:23Z</time></trkpt><trkpt lat="44.01554644860502" lon="11.900587420489327"><ele>436.5</ele><time>2026-05-03T09:38:24Z</time></trkpt><trkpt lat="44.01553799855413" lon="11.900413967263777"><ele>444.25</ele><time>2026-05-03T09:38:25Z</time></trkpt><trkpt lat="44.01552099522445" lon="11.900243880751205"><ele>452.0</ele><time>2026-05-03T09:38:26Z</time></trkpt><trkpt lat="44.01550749099456" lon="11.900088665208893"><ele>453.0</ele><time>2026-05-03T09:38:27Z</time></trkpt><trkpt lat="44.015489672336784" lon="11.89994258237525"><ele>454.0</ele><time>2026-05-03T09:38:28Z</time></trkpt><trkpt lat="44.01545125236474" lon="11.899789912580191"><ele>455.0</ele><time>2026-05-03T09:38:29Z</time></trkpt><trkpt lat="44.01537290562589" lon="11.899655259837207"><ele>456.0</ele><time>2026-05-03T09:38:30Z</time></trkpt><trkpt lat="44.01528836799566" lon="11.899528336187846"><ele>456.0</ele><time>2026-05-03T09:38:31Z</time></trkpt><trkpt lat="44.01517288157223" lon="11.899393521649014"><ele>456.0</ele><time>2026-05-03T09:38:32Z</time></trkpt><trkpt lat="44.01504098012569" lon="11.899314622917837"><ele>456.0</ele><time>2026-05-03T09:38:33Z</time></trkpt><trkpt lat="44.01492445332844" lon="11.899241877693196"><ele>456.0</ele><time>2026-05-03T09:38:34Z</time></trkpt><trkpt lat="44.01479998312873" lon="11.899160031870593"><ele>455.4</ele><time>2026-05-03T09:38:35Z</time></trkpt><trkpt lat="44.014673184427636" lon="11.899126263989555"><ele>454.8</ele><time>2026-05-03T09:38:36Z</time></trkpt><trkpt lat="44.01456852787201" lon="11.899120124899317"><ele>454.19999999999993</ele><time>2026-05-03T09:38:37Z</time></trkpt><trkpt lat="44.014472688963465" lon="11.89908573351861"><ele>453.59999999999997</ele><time>2026-05-03T09:38:38Z</time></trkpt><trkpt lat="44.01440110300081" lon="11.899006121703328"><ele>453.0</ele><time>2026-05-03T09:38:39Z</time></trkpt><trkpt lat="44.01436039192558" lon="11.898879630418367"><ele>453.0</ele><time>2026-05-03T09:38:40Z</time></trkpt><trkpt lat="44.01430476851811" lon="11.898721076612906"><ele>453.0</ele><time>2026-05-03T09:38:41Z</time></trkpt><trkpt lat="44.01423260582459" lon="11.898538896321272"><ele>453.0</ele><time>2026-05-03T09:38:42Z</time></trkpt><trkpt lat="44.014169115208155" lon="11.898376904577715"><ele>453.0</ele><time>2026-05-03T09:38:43Z</time></trkpt><trkpt lat="44.014123629301636" lon="11.89823498261013"><ele>455.4</ele><time>2026-05-03T09:38:44Z</time></trkpt><trkpt lat="44.014121837696436" lon="11.89811619522908"><ele>457.79999999999995</ele><time>2026-05-03T09:38:45Z</time></trkpt><trkpt lat="44.01415347465263" lon="11.897977532615839"><ele>460.2</ele><time>2026-05-03T09:38:46Z</time></trkpt><trkpt lat="44.01420355292262" lon="11.89785510301004"><ele>462.6</ele><time>2026-05-03T09:38:47Z</time></trkpt><trkpt lat="44.014291661138486" lon="11.897787363242754"><ele>465.0</ele><time>2026-05-03T09:38:48Z</time></trkpt><trkpt lat="44.014402243416825" lon="11.89780296648795"><ele>458.75</ele><time>2026-05-03T09:38:49Z</time></trkpt><trkpt lat="44.01451121664581" lon="11.897872914204767"><ele>452.5</ele><time>2026-05-03T09:38:50Z</time></trkpt><trkpt lat="44.014626030576096" lon="11.89796151849367"><ele>446.25</ele><time>2026-05-03T09:38:51Z</time></trkpt><trkpt lat="44.01476181042699" lon="11.898008428244097"><ele>440.0</ele><time>2026-05-03T09:38:52Z</time></trkpt><trkpt lat="44.0149188999883" lon="11.898020702568802"><ele>433.3333333333333</ele><time>2026-05-03T09:38:53Z</time></trkpt><trkpt lat="44.01508595844929" lon="11.89802375945354"><ele>426.66666666666663</ele><time>2026-05-03T09:38:54Z</time></trkpt><trkpt lat="44.01525439796602" lon="11.89803993921913"><ele>420.0</ele><time>2026-05-03T09:38:55Z</time></trkpt><trkpt lat="44.015404578532554" lon="11.898030096002103"><ele>420.0</ele><time>2026-05-03T09:38:56Z</time></trkpt><trkpt lat="44.01554599403641" lon="11.898035817886912"><ele>420.0</ele><time>2026-05-03T09:38:57Z</time></trkpt><trkpt lat="44.01568702544662" lon="11.898035309135018"><ele>420.0</ele><time>2026-05-03T09:38:58Z</time></trkpt><trkpt lat="44.01580952142466" lon="11.89799123351664"><ele>420.0</ele><time>2026-05-03T09:38:59Z</time></trkpt><trkpt lat="44.01592939677109" lon="11.89792345031107"><ele>422.5</ele><time>2026-05-03T09:39:00Z</time></trkpt><trkpt lat="44.01603872215303" lon="11.897817110271497"><ele>425.0</ele><time>2026-05-03T09:39:01Z</time></trkpt><trkpt lat="44.016123824406755" lon="11.89768918568792"><ele>427.5</ele><time>2026-05-03T09:39:02Z</time></trkpt><trkpt lat="44.016220352010095" lon="11.8975903436541"><ele>430.0</ele><time>2026-05-03T09:39:03Z</time></trkpt><trkpt lat="44.016309232605295" lon="11.897475160697457"><ele>430.0</ele><time>2026-05-03T09:39:04Z</time></trkpt><trkpt lat="44.016414852935235" lon="11.897362806634744"><ele>430.0</ele><time>2026-05-03T09:39:05Z</time></trkpt><trkpt lat="44.016524173100336" lon="11.897255544854838"><ele>430.0</ele><time>2026-05-03T09:39:06Z</time></trkpt><trkpt lat="44.016617073961186" lon="11.897133950835894"><ele>430.0</ele><time>2026-05-03T09:39:07Z</time></trkpt><trkpt lat="44.016710062976884" lon="11.897038313744641"><ele>423.5</ele><time>2026-05-03T09:39:08Z</time></trkpt><trkpt lat="44.01676794980144" lon="11.896887090382743"><ele>417.0</ele><time>2026-05-03T09:39:09Z</time></trkpt><trkpt lat="44.01675308346728" lon="11.896719849807514"><ele>410.5</ele><time>2026-05-03T09:39:10Z</time></trkpt><trkpt lat="44.01674274716468" lon="11.896578227919166"><ele>404.0</ele><time>2026-05-03T09:39:11Z</time></trkpt><trkpt lat="44.01665881875926" lon="11.896466656248302"><ele>413.5</ele><time>2026-05-03T09:39:12Z</time></trkpt><trkpt lat="44.01656365575633" lon="11.896376151672483"><ele>423.0</ele><time>2026-05-03T09:39:13Z</time></trkpt><trkpt lat="44.01645184002172" lon="11.896306942858564"><ele>432.5</ele><time>2026-05-03T09:39:14Z</time></trkpt><trkpt lat="44.016362752682795" lon="11.896200024621137"><ele>442.0</ele><time>2026-05-03T09:39:15Z</time></trkpt><trkpt lat="44.01629529968989" lon="11.896104762348902"><ele>442.0</ele><time>2026-05-03T09:39:16Z</time></trkpt><trkpt lat="44.016255212156786" lon="11.896015420760163"><ele>442.00000000000006</ele><time>2026-05-03T09:39:17Z</time></trkpt><trkpt lat="44.016235725318225" lon="11.895851899450117"><ele>442.00000000000006</ele><time>2026-05-03T09:39:18Z</time></trkpt><trkpt lat="44.016275141021524" lon="11.89569580935947"><ele>442.0</ele><time>2026-05-03T09:39:19Z</time></trkpt><trkpt lat="44.01630962502323" lon="11.895550145236838"><ele>442.0</ele><time>2026-05-03T09:39:20Z</time></trkpt><trkpt lat="44.0163562585556" lon="11.895426005492162"><ele>439.40000000000003</ele><time>2026-05-03T09:39:21Z</time></trkpt><trkpt lat="44.01643981655637" lon="11.895331181414662"><ele>436.80000000000007</ele><time>2026-05-03T09:39:22Z</time></trkpt><trkpt lat="44.016537504930255" lon="11.895295012976337"><ele>434.2</ele><time>2026-05-03T09:39:23Z</time></trkpt><trkpt lat="44.01663094293245" lon="11.895269616619755"><ele>431.6</ele><time>2026-05-03T09:39:24Z</time></trkpt><trkpt lat="44.01670574291225" lon="11.895223725746659"><ele>429.0</ele><time>2026-05-03T09:39:25Z</time></trkpt><trkpt lat="44.01681106186796" lon="11.895214375359634"><ele>423.5</ele><time>2026-05-03T09:39:27Z</time></trkpt><trkpt lat="44.01692813614005" lon="11.895177709332684"><ele>418.0</ele><time>2026-05-03T09:39:29Z</time></trkpt><trkpt lat="44.01705594550196" lon="11.8951503076778"><ele>412.5</ele><time>2026-05-03T09:39:31Z</time></trkpt><trkpt lat="44.017178876392705" lon="11.895094327151739"><ele>407.0</ele><time>2026-05-03T09:39:32Z</time></trkpt><trkpt lat="44.017243200100665" lon="11.89499530845878"><ele>406.99999999999994</ele><time>2026-05-03T09:39:33Z</time></trkpt><trkpt lat="44.017279680274044" lon="11.894910324387581"><ele>407.0</ele><time>2026-05-03T09:39:34Z</time></trkpt><trkpt lat="44.017310416328286" lon="11.894810597217724"><ele>407.0</ele><time>2026-05-03T09:39:36Z</time></trkpt><trkpt lat="44.01734666996366" lon="11.894703775136977"><ele>407.0</ele><time>2026-05-03T09:39:38Z</time></trkpt><trkpt lat="44.017394145527575" lon="11.894546958103225"><ele>406.99999999999994</ele><time>2026-05-03T09:39:40Z</time></trkpt><trkpt lat="44.01741810538072" lon="11.894447927216785"><ele>407.0</ele><time>2026-05-03T09:39:41Z</time></trkpt><trkpt lat="44.01706999400292" lon="11.893941432313193"><ele>411.20000000000005</ele><time>2026-05-03T09:39:43Z</time></trkpt><trkpt lat="44.01707465519659" lon="11.893827939138166"><ele>415.4</ele><time>2026-05-03T09:39:44Z</time></trkpt><trkpt lat="44.01707825235121" lon="11.893717056990699"><ele>419.59999999999997</ele><time>2026-05-03T09:39:45Z</time></trkpt><trkpt lat="44.01708102657178" lon="11.893619642108003"><ele>423.79999999999995</ele><time>2026-05-03T09:39:46Z</time></trkpt><trkpt lat="44.017126799448974" lon="11.893400238308374"><ele>428.0</ele><time>2026-05-03T09:39:48Z</time></trkpt><trkpt lat="44.01713900644883" lon="11.893295118462115"><ele>431.4</ele><time>2026-05-03T09:39:49Z</time></trkpt><trkpt lat="44.01716218945847" lon="11.893179097054764"><ele>434.79999999999995</ele><time>2026-05-03T09:39:50Z</time></trkpt><trkpt lat="44.01717716086967" lon="11.893027975658157"><ele>438.2</ele><time>2026-05-03T09:39:51Z</time></trkpt><trkpt lat="44.01720893198459" lon="11.892918518837384"><ele>441.6</ele><time>2026-05-03T09:39:52Z</time></trkpt><trkpt lat="44.01727136744017" lon="11.892853548195278"><ele>445.0</ele><time>2026-05-03T09:39:53Z</time></trkpt><trkpt lat="44.01736876757856" lon="11.892832358827798"><ele>445.0</ele><time>2026-05-03T09:39:54Z</time></trkpt><trkpt lat="44.01745006090117" lon="11.892815773754238"><ele>445.0</ele><time>2026-05-03T09:39:55Z</time></trkpt><trkpt lat="44.01751364180231" lon="11.892761113737194"><ele>445.0</ele><time>2026-05-03T09:39:56Z</time></trkpt><trkpt lat="44.01755943071253" lon="11.892613572094952"><ele>445.0</ele><time>2026-05-03T09:39:58Z</time></trkpt><trkpt lat="44.017534360157114" lon="11.892485787536051"><ele>445.0</ele><time>2026-05-03T09:40:00Z</time></trkpt><trkpt lat="44.017452573342645" lon="11.89242356560484"><ele>445.0</ele><time>2026-05-03T09:40:02Z</time></trkpt><trkpt lat="44.01738768008354" lon="11.892487612097547"><ele>445.0</ele><time>2026-05-03T09:40:03Z</time></trkpt><trkpt lat="44.01734743070659" lon="11.892589498743728"><ele>445.0</ele><time>2026-05-03T09:40:04Z</time></trkpt><trkpt lat="44.01726128411746" lon="11.892613520542728"><ele>445.0</ele><time>2026-05-03T09:40:06Z</time></trkpt><trkpt lat="44.01714311464006" lon="11.892604077290478"><ele>445.0</ele><time>2026-05-03T09:40:08Z</time></trkpt><trkpt lat="44.01706108557323" lon="11.892630142421517"><ele>445.00000000000006</ele><time>2026-05-03T09:40:09Z</time></trkpt><trkpt lat="44.01699300391191" lon="11.8926726919861"><ele>445.0</ele><time>2026-05-03T09:40:10Z</time></trkpt><trkpt lat="44.01690276068222" lon="11.892705822688885"><ele>445.0</ele><time>2026-05-03T09:40:11Z</time></trkpt><trkpt lat="44.01680563212594" lon="11.892750319558738"><ele>445.0</ele><time>2026-05-03T09:40:12Z</time></trkpt><trkpt lat="44.016708478505485" lon="11.892777875710982"><ele>445.00000000000006</ele><time>2026-05-03T09:40:12.999Z</time></trkpt><trkpt lat="44.016633185618474" lon="11.892807102615402"><ele>445.0</ele><time>2026-05-03T09:40:13.999Z</time></trkpt><trkpt lat="44.01656134562016" lon="11.892868876271663"><ele>447.0</ele><time>2026-05-03T09:40:14.999Z</time></trkpt><trkpt lat="44.01648569758166" lon="11.892928426341593"><ele>449.0</ele><time>2026-05-03T09:40:15.999Z</time></trkpt><trkpt lat="44.01643096801007" lon="11.893028882922092"><ele>451.0</ele><time>2026-05-03T09:40:16.999Z</time></trkpt><trkpt lat="44.016351562586806" lon="11.893124887485495"><ele>453.0</ele><time>2026-05-03T09:40:17.999Z</time></trkpt><trkpt lat="44.01626625488856" lon="11.893221259680221"><ele>455.0</ele><time>2026-05-03T09:40:18.999Z</time></trkpt><trkpt lat="44.01620285892852" lon="11.89329984470826"><ele>454.99999999999994</ele><time>2026-05-03T09:40:20Z</time></trkpt><trkpt lat="44.016113549969475" lon="11.893396240861822"><ele>455.0</ele><time>2026-05-03T09:40:22Z</time></trkpt><trkpt lat="44.01604878147607" lon="11.893469745968257"><ele>455.0</ele><time>2026-05-03T09:40:23Z</time></trkpt><trkpt lat="44.01598148599445" lon="11.893536621537985"><ele>455.0</ele><time>2026-05-03T09:40:24Z</time></trkpt><trkpt lat="44.015911544992555" lon="11.893585993314097"><ele>454.99999999999994</ele><time>2026-05-03T09:40:25Z</time></trkpt><trkpt lat="44.01584399099097" lon="11.893629294904642"><ele>455.0</ele><time>2026-05-03T09:40:26Z</time></trkpt><trkpt lat="44.015741792298726" lon="11.893738886171768"><ele>453.8333333333333</ele><time>2026-05-03T09:40:28Z</time></trkpt><trkpt lat="44.015687628848795" lon="11.893788116712019"><ele>452.66666666666663</ele><time>2026-05-03T09:40:29Z</time></trkpt><trkpt lat="44.015602378053615" lon="11.893904050850049"><ele>451.5</ele><time>2026-05-03T09:40:31Z</time></trkpt><trkpt lat="44.01555294463737" lon="11.89396592713619"><ele>450.33333333333337</ele><time>2026-05-03T09:40:32Z</time></trkpt><trkpt lat="44.015515127124914" lon="11.894073308764973"><ele>449.1666666666667</ele><time>2026-05-03T09:40:33Z</time></trkpt><trkpt lat="44.015473358441746" lon="11.89417932021655"><ele>448.0</ele><time>2026-05-03T09:40:34Z</time></trkpt><trkpt lat="44.01542031225751" lon="11.894281027785382"><ele>450.33333333333337</ele><time>2026-05-03T09:40:35Z</time></trkpt><trkpt lat="44.01535649027163" lon="11.894377151171136"><ele>452.6666666666667</ele><time>2026-05-03T09:40:36Z</time></trkpt><trkpt lat="44.01528673571928" lon="11.894451156150073"><ele>455.0</ele><time>2026-05-03T09:40:37Z</time></trkpt><trkpt lat="44.015214297590326" lon="11.894509888928884"><ele>457.33333333333337</ele><time>2026-05-03T09:40:38Z</time></trkpt><trkpt lat="44.01513733363481" lon="11.894578613972332"><ele>459.6666666666667</ele><time>2026-05-03T09:40:39Z</time></trkpt><trkpt lat="44.01508340605837" lon="11.894630101742973"><ele>462.0</ele><time>2026-05-03T09:40:40Z</time></trkpt><trkpt lat="44.01502629407291" lon="11.894669453960685"><ele>463.5</ele><time>2026-05-03T09:40:43Z</time></trkpt><trkpt lat="44.01493591229031" lon="11.894629344555126"><ele>465.0</ele><time>2026-05-03T09:40:46Z</time></trkpt><trkpt lat="44.01485044131613" lon="11.894628629485364"><ele>466.5</ele><time>2026-05-03T09:40:49Z</time></trkpt><trkpt lat="44.014783339081326" lon="11.894613352415657"><ele>468.0</ele><time>2026-05-03T09:40:52Z</time></trkpt><trkpt lat="44.014712439349104" lon="11.894664196972219"><ele>469.5</ele><time>2026-05-03T09:40:55Z</time></trkpt><trkpt lat="44.014643491944724" lon="11.894717542907609"><ele>471.0</ele><time>2026-05-03T09:40:57Z</time></trkpt><trkpt lat="44.014543159593934" lon="11.894696510238903"><ele>471.0</ele><time>2026-05-03T09:40:59Z</time></trkpt><trkpt lat="44.014434740583184" lon="11.89471333174612"><ele>471.0</ele><time>2026-05-03T09:41:01Z</time></trkpt><trkpt lat="44.01437309735728" lon="11.894666502322172"><ele>471.0</ele><time>2026-05-03T09:41:04Z</time></trkpt><trkpt lat="44.01427947145608" lon="11.894678629965917"><ele>471.0</ele><time>2026-05-03T09:41:07Z</time></trkpt><trkpt lat="44.01418113391368" lon="11.894684849457008"><ele>471.0</ele><time>2026-05-03T09:41:12Z</time></trkpt><trkpt lat="44.01411746392551" lon="11.894666560924206"><ele>471.0</ele><time>2026-05-03T09:41:14Z</time></trkpt><trkpt lat="44.01404913189041" lon="11.894630203219954"><ele>474.8571428571429</ele><time>2026-05-03T09:41:18Z</time></trkpt><trkpt lat="44.01397560625014" lon="11.894597056733417"><ele>478.7142857142857</ele><time>2026-05-03T09:41:22Z</time></trkpt><trkpt lat="44.01391033471236" lon="11.894562162906075"><ele>482.57142857142856</ele><time>2026-05-03T09:41:28Z</time></trkpt><trkpt lat="44.01384707657672" lon="11.894536515064884"><ele>486.42857142857144</ele><time>2026-05-03T09:41:32Z</time></trkpt><trkpt lat="44.013758043462225" lon="11.894517071776546"><ele>490.2857142857142</ele><time>2026-05-03T09:42:20.999Z</time></trkpt><trkpt lat="44.013710231342515" lon="11.894440597618306"><ele>494.1428571428571</ele><time>2026-05-03T09:42:36Z</time></trkpt><trkpt lat="44.013639237221035" lon="11.89442819039931"><ele>498.0</ele><time>2026-05-03T09:43:19Z</time></trkpt><trkpt lat="44.01359648696999" lon="11.894337566436905"><ele>492.2</ele><time>2026-05-03T09:43:23Z</time></trkpt><trkpt lat="44.01359313095171" lon="11.894227957606976"><ele>486.4</ele><time>2026-05-03T09:43:31Z</time></trkpt><trkpt lat="44.01356670430814" lon="11.894108659053414"><ele>480.59999999999997</ele><time>2026-05-03T09:43:35Z</time></trkpt><trkpt lat="44.01352728010404" lon="11.89395652276227"><ele>474.79999999999995</ele><time>2026-05-03T09:43:37Z</time></trkpt><trkpt lat="44.013514231188516" lon="11.893830839429798"><ele>469.0</ele><time>2026-05-03T09:43:39Z</time></trkpt><trkpt lat="44.01349124807678" lon="11.893680544766609"><ele>469.0</ele><time>2026-05-03T09:43:42Z</time></trkpt><trkpt lat="44.01344669959046" lon="11.893548974852134"><ele>469.0</ele><time>2026-05-03T09:43:44Z</time></trkpt><trkpt lat="44.01337431922748" lon="11.893566969592518"><ele>469.0</ele><time>2026-05-03T09:43:46Z</time></trkpt><trkpt lat="44.01325835984963" lon="11.893602573836516"><ele>469.0</ele><time>2026-05-03T09:43:48Z</time></trkpt><trkpt lat="44.01315151915303" lon="11.893653898993929"><ele>469.0</ele><time>2026-05-03T09:43:50Z</time></trkpt><trkpt lat="44.01304559862843" lon="11.893723126113033"><ele>470.0</ele><time>2026-05-03T09:43:52Z</time></trkpt><trkpt lat="44.01295117162299" lon="11.89375864884922"><ele>471.0</ele><time>2026-05-03T09:43:54Z</time></trkpt><trkpt lat="44.01284248644084" lon="11.893627646849087"><ele>472.0</ele><time>2026-05-03T09:43:56Z</time></trkpt><trkpt lat="44.01279180910347" lon="11.893572261711236"><ele>473.0</ele><time>2026-05-03T09:43:57Z</time></trkpt><trkpt lat="44.01275752591189" lon="11.89349594969401"><ele>474.0</ele><time>2026-05-03T09:43:58Z</time></trkpt><trkpt lat="44.012692523949234" lon="11.893412703645435"><ele>469.1666666666667</ele><time>2026-05-03T09:43:59Z</time></trkpt><trkpt lat="44.01266887116851" lon="11.893323370190064"><ele>464.33333333333337</ele><time>2026-05-03T09:44:00Z</time></trkpt><trkpt lat="44.0126136673709" lon="11.893218034253865"><ele>459.5</ele><time>2026-05-03T09:44:02Z</time></trkpt><trkpt lat="44.01254658440963" lon="11.893096831372228"><ele>454.6666666666667</ele><time>2026-05-03T09:44:04Z</time></trkpt><trkpt lat="44.01248559921152" lon="11.893018088818183"><ele>449.83333333333337</ele><time>2026-05-03T09:44:06Z</time></trkpt><trkpt lat="44.01241720714535" lon="11.892975733350989"><ele>445.0</ele><time>2026-05-03T09:44:08Z</time></trkpt><trkpt lat="44.01239660286076" lon="11.8928214344729"><ele>445.00000000000006</ele><time>2026-05-03T09:44:12Z</time></trkpt><trkpt lat="44.01237601724127" lon="11.892705044876964"><ele>445.0</ele><time>2026-05-03T09:44:14Z</time></trkpt><trkpt lat="44.01240070982301" lon="11.892615543549097"><ele>445.0</ele><time>2026-05-03T09:44:20.999Z</time></trkpt><trkpt lat="44.01238352066496" lon="11.892521696526527"><ele>445.0</ele><time>2026-05-03T09:44:22.999Z</time></trkpt><trkpt lat="44.01230447510061" lon="11.892461131639221"><ele>445.00000000000006</ele><time>2026-05-03T09:44:24.999Z</time></trkpt><trkpt lat="44.01218814571197" lon="11.892448780925534"><ele>445.0</ele><time>2026-05-03T09:44:26.999Z</time></trkpt><trkpt lat="44.012136466134514" lon="11.892392786391504"><ele>441.50000000000006</ele><time>2026-05-03T09:44:29.999Z</time></trkpt><trkpt lat="44.01207851152599" lon="11.892270607211875"><ele>438.0</ele><time>2026-05-03T09:44:32Z</time></trkpt><trkpt lat="44.012034605844505" lon="11.89215890455434"><ele>434.5</ele><time>2026-05-03T09:44:34Z</time></trkpt><trkpt lat="44.012019147592" lon="11.892053555100489"><ele>431.0</ele><time>2026-05-03T09:44:37Z</time></trkpt><trkpt lat="44.01200366979678" lon="11.891950204015805"><ele>427.50000000000006</ele><time>2026-05-03T09:44:45Z</time></trkpt><trkpt lat="44.01200534729696" lon="11.89186231639007"><ele>424.0</ele><time>2026-05-03T09:44:55Z</time></trkpt><trkpt lat="44.01199163937279" lon="11.891748561320812"><ele>424.00000000000006</ele><time>2026-05-03T09:45:00Z</time></trkpt><trkpt lat="44.0119977622726" lon="11.891554022336644"><ele>424.0</ele><time>2026-05-03T09:48:32.999Z</time></trkpt><trkpt lat="44.01197325883934" lon="11.891640473467238"><ele>424.0</ele><time>2026-05-03T09:50:04Z</time></trkpt><trkpt lat="44.011968116065475" lon="11.89174200255943"><ele>424.0</ele><time>2026-05-03T09:50:09Z</time></trkpt><trkpt lat="44.01196587388447" lon="11.891832173145279"><ele>424.00000000000006</ele><time>2026-05-03T09:50:13Z</time></trkpt><trkpt lat="44.01198344033634" lon="11.891959587899153"><ele>424.0</ele><time>2026-05-03T09:50:15.999Z</time></trkpt><trkpt lat="44.01201673309493" lon="11.892071668422414"><ele>424.0</ele><time>2026-05-03T09:50:17.999Z</time></trkpt><trkpt lat="44.01209042185349" lon="11.89216172620438"><ele>424.0</ele><time>2026-05-03T09:50:19.999Z</time></trkpt><trkpt lat="44.012175194619736" lon="11.89219290677371"><ele>424.0</ele><time>2026-05-03T09:50:21.999Z</time></trkpt><trkpt lat="44.012253375096485" lon="11.892170604307882"><ele>424.0</ele><time>2026-05-03T09:50:23.999Z</time></trkpt><trkpt lat="44.01233372658797" lon="11.892172277638293"><ele>424.0</ele><time>2026-05-03T09:50:25.999Z</time></trkpt><trkpt lat="44.012423654692064" lon="11.892257234834624"><ele>424.00000000000006</ele><time>2026-05-03T09:50:27.999Z</time></trkpt><trkpt lat="44.012415568146295" lon="11.892346646499288"><ele>424.0</ele><time>2026-05-03T09:50:30.999Z</time></trkpt><trkpt lat="44.01236203583449" lon="11.892427519941572"><ele>424.0</ele><time>2026-05-03T09:50:32.999Z</time></trkpt><trkpt lat="44.01232199174544" lon="11.89255905606336"><ele>424.0</ele><time>2026-05-03T09:50:35.999Z</time></trkpt><trkpt lat="44.01235728554409" lon="11.892692632000278"><ele>424.00000000000006</ele><time>2026-05-03T09:50:37.999Z</time></trkpt><trkpt lat="44.0124004057702" lon="11.89278076605899"><ele>424.0</ele><time>2026-05-03T09:50:39.999Z</time></trkpt><trkpt lat="44.012486561870325" lon="11.892775869003678"><ele>427.50000000000006</ele><time>2026-05-03T09:50:41.999Z</time></trkpt><trkpt lat="44.012583727048074" lon="11.892891425572166"><ele>431.0</ele><time>2026-05-03T09:50:44.999Z</time></trkpt><trkpt lat="44.012619847884366" lon="11.892971622643289"><ele>434.5</ele><time>2026-05-03T09:50:45.999Z</time></trkpt><trkpt lat="44.012677122907135" lon="11.893056771978337"><ele>438.0</ele><time>2026-05-03T09:50:46.999Z</time></trkpt><trkpt lat="44.012707740174925" lon="11.893151446318903"><ele>441.50000000000006</ele><time>2026-05-03T09:50:47.999Z</time></trkpt><trkpt lat="44.01273779949841" lon="11.89326194815373"><ele>445.0</ele><time>2026-05-03T09:50:48.999Z</time></trkpt><trkpt lat="44.012779542213956" lon="11.893366820743609"><ele>449.83333333333337</ele><time>2026-05-03T09:50:50Z</time></trkpt><trkpt lat="44.01280352452779" lon="11.893467456338952"><ele>454.6666666666667</ele><time>2026-05-03T09:50:51Z</time></trkpt><trkpt lat="44.01283788514369" lon="11.893546505802872"><ele>459.5</ele><time>2026-05-03T09:50:52Z</time></trkpt><trkpt lat="44.01289157936143" lon="11.893616821826566"><ele>464.33333333333337</ele><time>2026-05-03T09:50:53Z</time></trkpt><trkpt lat="44.01302384613717" lon="11.8936242582524"><ele>469.1666666666667</ele><time>2026-05-03T09:50:55Z</time></trkpt><trkpt lat="44.01307939001972" lon="11.893568241316725"><ele>474.0</ele><time>2026-05-03T09:50:56Z</time></trkpt><trkpt lat="44.01313473673272" lon="11.893501117827011"><ele>474.0</ele><time>2026-05-03T09:50:57Z</time></trkpt><trkpt lat="44.013234936582805" lon="11.893425636669308"><ele>474.0</ele><time>2026-05-03T09:50:59Z</time></trkpt><trkpt lat="44.01330342198489" lon="11.893396077626488"><ele>474.0</ele><time>2026-05-03T09:51:01Z</time></trkpt><trkpt lat="44.0133843460027" lon="11.893398446883923"><ele>474.0</ele><time>2026-05-03T09:51:03Z</time></trkpt><trkpt lat="44.01344314194516" lon="11.89347824313658"><ele>474.0</ele><time>2026-05-03T09:51:05Z</time></trkpt><trkpt lat="44.01346848514536" lon="11.893602112471926"><ele>474.0</ele><time>2026-05-03T09:51:08Z</time></trkpt><trkpt lat="44.01344844389594" lon="11.8936997664477"><ele>473.1666666666667</ele><time>2026-05-03T09:51:10Z</time></trkpt><trkpt lat="44.01350181064911" lon="11.893806601284306"><ele>472.33333333333337</ele><time>2026-05-03T09:51:14Z</time></trkpt><trkpt lat="44.01351937657518" lon="11.89390588450306"><ele>471.5</ele><time>2026-05-03T09:51:19Z</time></trkpt><trkpt lat="44.013568622308256" lon="11.894018187126406"><ele>470.6666666666667</ele><time>2026-05-03T09:51:32Z</time></trkpt><trkpt lat="44.01358445272563" lon="11.894109986295978"><ele>469.83333333333337</ele><time>2026-05-03T09:51:40Z</time></trkpt><trkpt lat="44.01359124381167" lon="11.89420912537467"><ele>469.0</ele><time>2026-05-03T09:51:47Z</time></trkpt><trkpt lat="44.01367750597365" lon="11.894321574354917"><ele>469.4</ele><time>2026-05-03T09:52:56Z</time></trkpt><trkpt lat="44.013715821696024" lon="11.894402270576672"><ele>469.79999999999995</ele><time>2026-05-03T09:53:16Z</time></trkpt><trkpt lat="44.01377812544729" lon="11.894474077296387"><ele>470.20000000000005</ele><time>2026-05-03T09:53:22Z</time></trkpt><trkpt lat="44.01386603393285" lon="11.894468278153843"><ele>470.6</ele><time>2026-05-03T09:53:28Z</time></trkpt><trkpt lat="44.013955945884035" lon="11.894500055843249"><ele>471.0</ele><time>2026-05-03T09:53:31Z</time></trkpt><trkpt lat="44.01416673497143" lon="11.894537636665914"><ele>471.0</ele><time>2026-05-03T09:53:38Z</time></trkpt><trkpt lat="44.01424766106954" lon="11.894542829482472"><ele>471.0</ele><time>2026-05-03T09:53:40Z</time></trkpt><trkpt lat="44.014326076158085" lon="11.89453467835063"><ele>471.0</ele><time>2026-05-03T09:53:42Z</time></trkpt><trkpt lat="44.01441284286342" lon="11.89449348798883"><ele>471.0</ele><time>2026-05-03T09:53:44Z</time></trkpt><trkpt lat="44.01461832257736" lon="11.894543179070956"><ele>471.0</ele><time>2026-05-03T09:53:48Z</time></trkpt><trkpt lat="44.01468370069289" lon="11.89457050155024"><ele>471.0</ele><time>2026-05-03T09:53:49Z</time></trkpt><trkpt lat="44.014797570399516" lon="11.894607415468093"><ele>471.0</ele><time>2026-05-03T09:53:51Z</time></trkpt><trkpt lat="44.014861929141496" lon="11.894619251966583"><ele>471.0</ele><time>2026-05-03T09:53:52Z</time></trkpt><trkpt lat="44.014970286212886" lon="11.894640579870343"><ele>471.0</ele><time>2026-05-03T09:53:54Z</time></trkpt><trkpt lat="44.015033186100716" lon="11.894601314614908"><ele>471.0</ele><time>2026-05-03T09:53:56Z</time></trkpt><trkpt lat="44.01512888720821" lon="11.894533519616665"><ele>469.20000000000005</ele><time>2026-05-03T09:53:59Z</time></trkpt><trkpt lat="44.01523572665669" lon="11.894420814202885"><ele>467.40000000000003</ele><time>2026-05-03T09:54:01Z</time></trkpt><trkpt lat="44.0153103886371" lon="11.894373889838434"><ele>465.6</ele><time>2026-05-03T09:54:02Z</time></trkpt><trkpt lat="44.01538061848442" lon="11.894283319098408"><ele>463.8</ele><time>2026-05-03T09:54:03Z</time></trkpt><trkpt lat="44.01544104243578" lon="11.89419696567039"><ele>462.0</ele><time>2026-05-03T09:54:04Z</time></trkpt><trkpt lat="44.01549632964708" lon="11.894120398983581"><ele>460.5</ele><time>2026-05-03T09:54:05Z</time></trkpt><trkpt lat="44.01554388687045" lon="11.894024529466423"><ele>459.0</ele><time>2026-05-03T09:54:06Z</time></trkpt><trkpt lat="44.015593762430846" lon="11.893959236814998"><ele>457.5</ele><time>2026-05-03T09:54:07Z</time></trkpt><trkpt lat="44.015644937327735" lon="11.893870731253832"><ele>456.0</ele><time>2026-05-03T09:54:08Z</time></trkpt><trkpt lat="44.01570405113105" lon="11.893793974649974"><ele>454.5</ele><time>2026-05-03T09:54:09Z</time></trkpt><trkpt lat="44.01576991703149" lon="11.893701747181497"><ele>453.0</ele><time>2026-05-03T09:54:10Z</time></trkpt><trkpt lat="44.0158442868241" lon="11.893615854220403"><ele>453.0</ele><time>2026-05-03T09:54:11Z</time></trkpt><trkpt lat="44.0159060288105" lon="11.893545734173474"><ele>453.0</ele><time>2026-05-03T09:54:12Z</time></trkpt><trkpt lat="44.015967343523194" lon="11.893507856646767"><ele>453.0</ele><time>2026-05-03T09:54:13Z</time></trkpt><trkpt lat="44.016051748085765" lon="11.89348046225906"><ele>453.0</ele><time>2026-05-03T09:54:14Z</time></trkpt><trkpt lat="44.01612427471969" lon="11.893410210709277"><ele>453.0</ele><time>2026-05-03T09:54:15Z</time></trkpt><trkpt lat="44.01620000910421" lon="11.893363678366988"><ele>453.0</ele><time>2026-05-03T09:54:16Z</time></trkpt><trkpt lat="44.01626886253592" lon="11.893314398599049"><ele>453.4</ele><time>2026-05-03T09:54:17Z</time></trkpt><trkpt lat="44.01633074610531" lon="11.893247532816146"><ele>453.79999999999995</ele><time>2026-05-03T09:54:18Z</time></trkpt><trkpt lat="44.01639095832057" lon="11.893150190469202"><ele>454.2</ele><time>2026-05-03T09:54:19Z</time></trkpt><trkpt lat="44.016469317463766" lon="11.893033969270759"><ele>454.6</ele><time>2026-05-03T09:54:20Z</time></trkpt><trkpt lat="44.01654161787613" lon="11.892938964234034"><ele>455.0</ele><time>2026-05-03T09:54:21Z</time></trkpt><trkpt lat="44.0166035937973" lon="11.892878980356087"><ele>453.0</ele><time>2026-05-03T09:54:21.999Z</time></trkpt><trkpt lat="44.01667519001512" lon="11.892811681903076"><ele>451.0</ele><time>2026-05-03T09:54:22.999Z</time></trkpt><trkpt lat="44.01674462955271" lon="11.892753867842417"><ele>449.0</ele><time>2026-05-03T09:54:23.999Z</time></trkpt><trkpt lat="44.0168334134464" lon="11.892685136553943"><ele>447.0</ele><time>2026-05-03T09:54:24.999Z</time></trkpt><trkpt lat="44.01691575787153" lon="11.892646405816194"><ele>445.0</ele><time>2026-05-03T09:54:25.999Z</time></trkpt><trkpt lat="44.0170198805717" lon="11.892609060106654"><ele>443.75</ele><time>2026-05-03T09:54:26.999Z</time></trkpt><trkpt lat="44.01712183199831" lon="11.892565559451606"><ele>442.5</ele><time>2026-05-03T09:54:27.999Z</time></trkpt><trkpt lat="44.01727563448218" lon="11.892565937521697"><ele>441.25</ele><time>2026-05-03T09:54:29.999Z</time></trkpt><trkpt lat="44.01735894307671" lon="11.892585525857333"><ele>440.0</ele><time>2026-05-03T09:54:30.999Z</time></trkpt><trkpt lat="44.01748732694147" lon="11.892486446720243"><ele>441.0</ele><time>2026-05-03T09:54:33.999Z</time></trkpt><trkpt lat="44.017553537253306" lon="11.892686781061052"><ele>442.0</ele><time>2026-05-03T09:54:37.999Z</time></trkpt><trkpt lat="44.017525714860355" lon="11.89277966343667"><ele>443.0</ele><time>2026-05-03T09:54:38.999Z</time></trkpt><trkpt lat="44.0174855821481" lon="11.892863883994767"><ele>444.0</ele><time>2026-05-03T09:54:39.999Z</time></trkpt><trkpt lat="44.01742799197933" lon="11.892929664845056"><ele>445.0</ele><time>2026-05-03T09:54:40.999Z</time></trkpt><trkpt lat="44.01730792070919" lon="11.892970510139303"><ele>445.00000000000006</ele><time>2026-05-03T09:54:42.999Z</time></trkpt><trkpt lat="44.01721515895278" lon="11.89306397462725"><ele>445.0</ele><time>2026-05-03T09:54:44.999Z</time></trkpt><trkpt lat="44.017170177689195" lon="11.89317789252996"><ele>445.0</ele><time>2026-05-03T09:54:45.999Z</time></trkpt><trkpt lat="44.01714794822664" lon="11.8932898538234"><ele>445.0</ele><time>2026-05-03T09:54:46.999Z</time></trkpt><trkpt lat="44.017134904516936" lon="11.893378854441043"><ele>445.00000000000006</ele><time>2026-05-03T09:54:47.999Z</time></trkpt><trkpt lat="44.017084680664254" lon="11.893451254286756"><ele>445.0</ele><time>2026-05-03T09:54:48.999Z</time></trkpt><trkpt lat="44.017055367834075" lon="11.89356190166323"><ele>442.1666666666667</ele><time>2026-05-03T09:54:50.999Z</time></trkpt><trkpt lat="44.017060777396686" lon="11.893710983775142"><ele>439.33333333333337</ele><time>2026-05-03T09:54:52.999Z</time></trkpt><trkpt lat="44.01705697103658" lon="11.893803648379409"><ele>436.5</ele><time>2026-05-03T09:54:53.999Z</time></trkpt><trkpt lat="44.017047475549205" lon="11.89390952824331"><ele>433.66666666666663</ele><time>2026-05-03T09:54:54.999Z</time></trkpt><trkpt lat="44.01703898279007" lon="11.89400885123954"><ele>430.8333333333333</ele><time>2026-05-03T09:54:55.999Z</time></trkpt><trkpt lat="44.01701448077873" lon="11.89410207560869"><ele>428.0</ele><time>2026-05-03T09:54:56.999Z</time></trkpt><trkpt lat="44.0170323312223" lon="11.894258016828445"><ele>424.49999999999994</ele><time>2026-05-03T09:54:58.999Z</time></trkpt><trkpt lat="44.017045247208856" lon="11.894354802248731"><ele>421.0</ele><time>2026-05-03T09:54:59.999Z</time></trkpt><trkpt lat="44.01703253192101" lon="11.894452706875141"><ele>417.5</ele><time>2026-05-03T09:55:00.999Z</time></trkpt><trkpt lat="44.016953623308446" lon="11.894556261544674"><ele>414.0</ele><time>2026-05-03T09:55:03Z</time></trkpt><trkpt lat="44.01691931279406" lon="11.894635078303711"><ele>410.49999999999994</ele><time>2026-05-03T09:55:08Z</time></trkpt><trkpt lat="44.01691954455292" lon="11.89478015504929"><ele>407.0</ele><time>2026-05-03T09:55:10Z</time></trkpt><trkpt lat="44.01692512367801" lon="11.894903691166483"><ele>406.99999999999994</ele><time>2026-05-03T09:55:14Z</time></trkpt><trkpt lat="44.01692386221394" lon="11.894993902235928"><ele>407.0</ele><time>2026-05-03T09:55:18Z</time></trkpt><trkpt lat="44.016906693764845" lon="11.895079594241968"><ele>407.0</ele><time>2026-05-03T09:55:22Z</time></trkpt><trkpt lat="44.01695450337025" lon="11.895139310980737"><ele>407.0</ele><time>2026-05-03T09:56:04Z</time></trkpt><trkpt lat="44.017040989225514" lon="11.895104825724989"><ele>406.99999999999994</ele><time>2026-05-03T09:56:06Z</time></trkpt><trkpt lat="44.01716117756167" lon="11.895053473677418"><ele>407.0</ele><time>2026-05-03T09:56:08Z</time></trkpt><trkpt lat="44.017231985916965" lon="11.894984806804656"><ele>407.0</ele><time>2026-05-03T09:56:09Z</time></trkpt><trkpt lat="44.017286918897895" lon="11.894894313921114"><ele>407.0</ele><time>2026-05-03T09:56:10Z</time></trkpt><trkpt lat="44.01731250835616" lon="11.894756789921207"><ele>407.0</ele><time>2026-05-03T09:56:11Z</time></trkpt><trkpt lat="44.01735420203252" lon="11.894646888251001"><ele>407.0</ele><time>2026-05-03T09:56:12Z</time></trkpt><trkpt lat="44.01741977876711" lon="11.894574005783285"><ele>407.0</ele><time>2026-05-03T09:56:13Z</time></trkpt><trkpt lat="44.01752143661254" lon="11.894545944524996"><ele>402.20000000000005</ele><time>2026-05-03T09:56:14Z</time></trkpt><trkpt lat="44.01760878160296" lon="11.894476860262863"><ele>397.4</ele><time>2026-05-03T09:56:15Z</time></trkpt><trkpt lat="44.017702120151576" lon="11.894423479634064"><ele>392.6</ele><time>2026-05-03T09:56:16Z</time></trkpt><trkpt lat="44.017803180994285" lon="11.894366866312867"><ele>387.79999999999995</ele><time>2026-05-03T09:56:17Z</time></trkpt><trkpt lat="44.01790893523096" lon="11.894322077411692"><ele>383.0</ele><time>2026-05-03T09:56:18Z</time></trkpt><trkpt lat="44.01802480900852" lon="11.894269169982099"><ele>382.25</ele><time>2026-05-03T09:56:19Z</time></trkpt><trkpt lat="44.01814470675637" lon="11.894240807857475"><ele>381.5</ele><time>2026-05-03T09:56:20Z</time></trkpt><trkpt lat="44.01827666735058" lon="11.894193274883133"><ele>380.75</ele><time>2026-05-03T09:56:21Z</time></trkpt><trkpt lat="44.01839444489024" lon="11.894119040781371"><ele>380.0</ele><time>2026-05-03T09:56:22Z</time></trkpt><trkpt lat="44.018514375765534" lon="11.894057927873565"><ele>380.0</ele><time>2026-05-03T09:56:23Z</time></trkpt><trkpt lat="44.01864311967049" lon="11.893999926115884"><ele>380.0</ele><time>2026-05-03T09:56:24Z</time></trkpt><trkpt lat="44.01876968660497" lon="11.893958303254681"><ele>380.0</ele><time>2026-05-03T09:56:25Z</time></trkpt><trkpt lat="44.01888843639972" lon="11.89392257609807"><ele>380.0</ele><time>2026-05-03T09:56:26Z</time></trkpt><trkpt lat="44.01900544421286" lon="11.893911865519524"><ele>380.0</ele><time>2026-05-03T09:56:27Z</time></trkpt><trkpt lat="44.019110338099296" lon="11.893876186894591"><ele>380.0</ele><time>2026-05-03T09:56:28Z</time></trkpt><trkpt lat="44.01920638209412" lon="11.893800377725734"><ele>380.0</ele><time>2026-05-03T09:56:28.999Z</time></trkpt><trkpt lat="44.01929622103806" lon="11.893718634186147"><ele>380.0</ele><time>2026-05-03T09:56:29.999Z</time></trkpt><trkpt lat="44.019370830846285" lon="11.89361694392132"><ele>380.0</ele><time>2026-05-03T09:56:30.999Z</time></trkpt><trkpt lat="44.01945509190037" lon="11.893522785898162"><ele>381.5</ele><time>2026-05-03T09:56:31.999Z</time></trkpt><trkpt lat="44.019543477871295" lon="11.893408800557694"><ele>383.0</ele><time>2026-05-03T09:56:32.999Z</time></trkpt><trkpt lat="44.01963238759153" lon="11.893287109304786"><ele>384.5</ele><time>2026-05-03T09:56:33.999Z</time></trkpt><trkpt lat="44.019724370925154" lon="11.893140099058572"><ele>386.0</ele><time>2026-05-03T09:56:34.999Z</time></trkpt><trkpt lat="44.019802822068144" lon="11.892990444518368"><ele>386.0</ele><time>2026-05-03T09:56:35.999Z</time></trkpt><trkpt lat="44.01987338437406" lon="11.892813018647875"><ele>386.0</ele><time>2026-05-03T09:56:36.999Z</time></trkpt><trkpt lat="44.019926062660005" lon="11.892652690229898"><ele>386.0</ele><time>2026-05-03T09:56:37.999Z</time></trkpt><trkpt lat="44.019952150851296" lon="11.892494456238945"><ele>386.0</ele><time>2026-05-03T09:56:38.999Z</time></trkpt><trkpt lat="44.019985251998406" lon="11.892350789554877"><ele>387.0</ele><time>2026-05-03T09:56:39.999Z</time></trkpt><trkpt lat="44.01994749892107" lon="11.89220265385691"><ele>388.0</ele><time>2026-05-03T09:56:40.999Z</time></trkpt><trkpt lat="44.019886777988575" lon="11.892056992124063"><ele>389.0</ele><time>2026-05-03T09:56:41.999Z</time></trkpt><trkpt lat="44.0197937547211" lon="11.891916186628357"><ele>390.0</ele><time>2026-05-03T09:56:42.999Z</time></trkpt><trkpt lat="44.01971390865309" lon="11.89175641209481"><ele>390.0</ele><time>2026-05-03T09:56:43.999Z</time></trkpt><trkpt lat="44.01963606284955" lon="11.891593399705084"><ele>390.0</ele><time>2026-05-03T09:56:44.999Z</time></trkpt><trkpt lat="44.01956547514613" lon="11.891421164143086"><ele>390.0</ele><time>2026-05-03T09:56:45.999Z</time></trkpt><trkpt lat="44.019502740817515" lon="11.891244172799707"><ele>390.0</ele><time>2026-05-03T09:56:46.999Z</time></trkpt><trkpt lat="44.01945026435677" lon="11.891060102383136"><ele>382.75</ele><time>2026-05-03T09:56:47.999Z</time></trkpt><trkpt lat="44.01940216438046" lon="11.890873608206459"><ele>375.5</ele><time>2026-05-03T09:56:48.999Z</time></trkpt><trkpt lat="44.01935078524982" lon="11.89070091574625"><ele>368.25</ele><time>2026-05-03T09:56:49.999Z</time></trkpt><trkpt lat="44.01929028156563" lon="11.890537639369148"><ele>361.0</ele><time>2026-05-03T09:56:50.999Z</time></trkpt><trkpt lat="44.019213521306774" lon="11.890396026837188"><ele>362.5</ele><time>2026-05-03T09:56:51.999Z</time></trkpt><trkpt lat="44.019101871369294" lon="11.890292930823819"><ele>364.0</ele><time>2026-05-03T09:56:52.999Z</time></trkpt><trkpt lat="44.01898620201935" lon="11.890213755102348"><ele>365.5</ele><time>2026-05-03T09:56:53.999Z</time></trkpt><trkpt lat="44.01887891645437" lon="11.89011278376828"><ele>367.0</ele><time>2026-05-03T09:56:54.999Z</time></trkpt><trkpt lat="44.018793262544015" lon="11.890027312620633"><ele>367.0</ele><time>2026-05-03T09:56:55.999Z</time></trkpt><trkpt lat="44.018740923511785" lon="11.889936277719896"><ele>367.0</ele><time>2026-05-03T09:56:56.999Z</time></trkpt><trkpt lat="44.018737671849664" lon="11.889822535850708"><ele>367.0</ele><time>2026-05-03T09:56:57.999Z</time></trkpt><trkpt lat="44.018786915598454" lon="11.889717491294224"><ele>367.0</ele><time>2026-05-03T09:56:58.999Z</time></trkpt><trkpt lat="44.01884520691352" lon="11.88958104887687"><ele>367.0</ele><time>2026-05-03T09:56:59.999Z</time></trkpt><trkpt lat="44.01889959215044" lon="11.889424314290276"><ele>367.0</ele><time>2026-05-03T09:57:00.999Z</time></trkpt><trkpt lat="44.01894361868305" lon="11.889276445216604"><ele>367.0</ele><time>2026-05-03T09:57:01.999Z</time></trkpt><trkpt lat="44.018974849742285" lon="11.889111717938638"><ele>367.0</ele><time>2026-05-03T09:57:02.999Z</time></trkpt><trkpt lat="44.0189814124294" lon="11.88892090059341"><ele>367.0</ele><time>2026-05-03T09:57:03.999Z</time></trkpt><trkpt lat="44.018965600021765" lon="11.888736980506145"><ele>367.3333333333333</ele><time>2026-05-03T09:57:04.999Z</time></trkpt><trkpt lat="44.01894120044328" lon="11.888528780449423"><ele>367.6666666666667</ele><time>2026-05-03T09:57:05.999Z</time></trkpt><trkpt lat="44.01891308620931" lon="11.888318632061731"><ele>368.0</ele><time>2026-05-03T09:57:06.999Z</time></trkpt><trkpt lat="44.01888162191975" lon="11.888118507087343"><ele>364.5</ele><time>2026-05-03T09:57:08Z</time></trkpt><trkpt lat="44.018839952368566" lon="11.887931251376415"><ele>361.0</ele><time>2026-05-03T09:57:09Z</time></trkpt><trkpt lat="44.01881621425583" lon="11.887744298752605"><ele>357.5</ele><time>2026-05-03T09:57:10Z</time></trkpt><trkpt lat="44.01878529684232" lon="11.887562117328192"><ele>354.0</ele><time>2026-05-03T09:57:11Z</time></trkpt><trkpt lat="44.01874357182164" lon="11.887397330927646"><ele>348.25</ele><time>2026-05-03T09:57:12Z</time></trkpt><trkpt lat="44.01867412937286" lon="11.887246106429464"><ele>342.5</ele><time>2026-05-03T09:57:13Z</time></trkpt><trkpt lat="44.01857950141163" lon="11.88712844069204"><ele>336.75</ele><time>2026-05-03T09:57:14Z</time></trkpt><trkpt lat="44.01845916266387" lon="11.887066705093721"><ele>331.0</ele><time>2026-05-03T09:57:15Z</time></trkpt><trkpt lat="44.01832960456468" lon="11.887065354595865"><ele>331.4</ele><time>2026-05-03T09:57:16Z</time></trkpt><trkpt lat="44.018203634803925" lon="11.887089772792722"><ele>331.8</ele><time>2026-05-03T09:57:17Z</time></trkpt><trkpt lat="44.01811775091518" lon="11.887022367796328"><ele>332.2</ele><time>2026-05-03T09:57:18Z</time></trkpt><trkpt lat="44.01805859255057" lon="11.886934354219"><ele>332.59999999999997</ele><time>2026-05-03T09:57:19Z</time></trkpt><trkpt lat="44.018009216690004" lon="11.886822352776356"><ele>333.0</ele><time>2026-05-03T09:57:20Z</time></trkpt><trkpt lat="44.01798634100917" lon="11.886720106955954"><ele>333.0</ele><time>2026-05-03T09:57:21Z</time></trkpt><trkpt lat="44.018001500018364" lon="11.886617872531701"><ele>333.0</ele><time>2026-05-03T09:57:22Z</time></trkpt><trkpt lat="44.0180858595102" lon="11.88650328425323"><ele>333.0</ele><time>2026-05-03T09:57:23Z</time></trkpt><trkpt lat="44.01818064747165" lon="11.886417552876425"><ele>333.0</ele><time>2026-05-03T09:57:24Z</time></trkpt><trkpt lat="44.018270983303985" lon="11.886311289463988"><ele>333.0</ele><time>2026-05-03T09:57:25Z</time></trkpt><trkpt lat="44.01837060830509" lon="11.88620891399925"><ele>327.0</ele><time>2026-05-03T09:57:26Z</time></trkpt><trkpt lat="44.01850073979253" lon="11.886095309099524"><ele>321.0</ele><time>2026-05-03T09:57:27Z</time></trkpt><trkpt lat="44.018625974735116" lon="11.885991663224296"><ele>315.0</ele><time>2026-05-03T09:57:28Z</time></trkpt><trkpt lat="44.01875851093287" lon="11.885885469643732"><ele>314.75</ele><time>2026-05-03T09:57:29Z</time></trkpt><trkpt lat="44.0188845477964" lon="11.885782441202894"><ele>314.5</ele><time>2026-05-03T09:57:30Z</time></trkpt><trkpt lat="44.018995235352904" lon="11.885687314534458"><ele>314.25</ele><time>2026-05-03T09:57:31Z</time></trkpt><trkpt lat="44.01910427751085" lon="11.885578888259976"><ele>314.0</ele><time>2026-05-03T09:57:32Z</time></trkpt><trkpt lat="44.01920655562524" lon="11.885460657614095"><ele>313.25</ele><time>2026-05-03T09:57:33Z</time></trkpt><trkpt lat="44.01929410202162" lon="11.885322413613567"><ele>312.5</ele><time>2026-05-03T09:57:34Z</time></trkpt><trkpt lat="44.01936155410123" lon="11.88515334381476"><ele>311.75</ele><time>2026-05-03T09:57:35Z</time></trkpt><trkpt lat="44.01941820374267" lon="11.885015421564193"><ele>311.0</ele><time>2026-05-03T09:57:36Z</time></trkpt><trkpt lat="44.01948364630267" lon="11.884861292443565"><ele>311.0</ele><time>2026-05-03T09:57:37Z</time></trkpt><trkpt lat="44.01954884854327" lon="11.884716063056539"><ele>311.0</ele><time>2026-05-03T09:57:38Z</time></trkpt><trkpt lat="44.019621930335546" lon="11.884558437857267"><ele>311.0</ele><time>2026-05-03T09:57:39Z</time></trkpt><trkpt lat="44.01968465315389" lon="11.88438438346172"><ele>311.0</ele><time>2026-05-03T09:57:40Z</time></trkpt><trkpt lat="44.01976501725622" lon="11.884258601911124"><ele>310.0</ele><time>2026-05-03T09:57:41Z</time></trkpt><trkpt lat="44.01983139889229" lon="11.884121713181944"><ele>309.0</ele><time>2026-05-03T09:57:42Z</time></trkpt><trkpt lat="44.01989646008837" lon="11.883987547504566"><ele>308.0</ele><time>2026-05-03T09:57:43Z</time></trkpt><trkpt lat="44.01995898549849" lon="11.883857044864538"><ele>307.0</ele><time>2026-05-03T09:57:44Z</time></trkpt><trkpt lat="44.020029149649766" lon="11.8837089769016"><ele>305.0</ele><time>2026-05-03T09:57:45Z</time></trkpt><trkpt lat="44.020094122880494" lon="11.883571863436629"><ele>303.0</ele><time>2026-05-03T09:57:46Z</time></trkpt><trkpt lat="44.02015879090467" lon="11.883435394018747"><ele>301.0</ele><time>2026-05-03T09:57:47Z</time></trkpt><trkpt lat="44.02022206127386" lon="11.883301874100798"><ele>299.0</ele><time>2026-05-03T09:57:48Z</time></trkpt><trkpt lat="44.02029317990155" lon="11.883151760249403"><ele>299.0</ele><time>2026-05-03T09:57:49Z</time></trkpt><trkpt lat="44.02036021327448" lon="11.883010238364722"><ele>299.0</ele><time>2026-05-03T09:57:50Z</time></trkpt><trkpt lat="44.02042610159546" lon="11.882865829588773"><ele>299.0</ele><time>2026-05-03T09:57:51Z</time></trkpt><trkpt lat="44.02049208185849" lon="11.88272177972181"><ele>299.0</ele><time>2026-05-03T09:57:52Z</time></trkpt><trkpt lat="44.02055939627542" lon="11.882581685654667"><ele>298.75</ele><time>2026-05-03T09:57:53Z</time></trkpt><trkpt lat="44.02062904484024" lon="11.882436420234097"><ele>298.5</ele><time>2026-05-03T09:57:54Z</time></trkpt><trkpt lat="44.02069743290501" lon="11.882293054334951"><ele>298.25</ele><time>2026-05-03T09:57:55Z</time></trkpt><trkpt lat="44.02076088261113" lon="11.882160041010641"><ele>298.0</ele><time>2026-05-03T09:57:56Z</time></trkpt><trkpt lat="44.02082025315405" lon="11.882027602805694"><ele>296.25</ele><time>2026-05-03T09:57:57Z</time></trkpt><trkpt lat="44.02085997187408" lon="11.881875724981322"><ele>294.5</ele><time>2026-05-03T09:57:58Z</time></trkpt><trkpt lat="44.02087936475826" lon="11.881713518330436"><ele>292.75</ele><time>2026-05-03T09:57:59Z</time></trkpt><trkpt lat="44.02089219460435" lon="11.88155685860814"><ele>291.0</ele><time>2026-05-03T09:58:00Z</time></trkpt><trkpt lat="44.02090444029066" lon="11.881405226076149"><ele>290.6</ele><time>2026-05-03T09:58:01Z</time></trkpt><trkpt lat="44.020916585498505" lon="11.881253391418412"><ele>290.20000000000005</ele><time>2026-05-03T09:58:02Z</time></trkpt><trkpt lat="44.020928232291304" lon="11.881107787546595"><ele>289.79999999999995</ele><time>2026-05-03T09:58:03Z</time></trkpt><trkpt lat="44.020934791726525" lon="11.880974938890528"><ele>289.4</ele><time>2026-05-03T09:58:04Z</time></trkpt><trkpt lat="44.02092155859756" lon="11.880844839926143"><ele>289.0</ele><time>2026-05-03T09:58:05Z</time></trkpt><trkpt lat="44.0208798663296" lon="11.880735431695834"><ele>288.4</ele><time>2026-05-03T09:58:06Z</time></trkpt><trkpt lat="44.02086941426544" lon="11.880618903364638"><ele>287.79999999999995</ele><time>2026-05-03T09:58:07Z</time></trkpt><trkpt lat="44.02084827686053" lon="11.88050803944901"><ele>287.20000000000005</ele><time>2026-05-03T09:58:08Z</time></trkpt><trkpt lat="44.020837238570614" lon="11.880399501654214"><ele>286.6</ele><time>2026-05-03T09:58:09Z</time></trkpt><trkpt lat="44.02071117653869" lon="11.880308471100175"><ele>286.0</ele><time>2026-05-03T09:58:10Z</time></trkpt><trkpt lat="44.02063445045601" lon="11.88022349177781"><ele>287.6</ele><time>2026-05-03T09:58:11Z</time></trkpt><trkpt lat="44.02056159759284" lon="11.880118821413198"><ele>289.20000000000005</ele><time>2026-05-03T09:58:12Z</time></trkpt><trkpt lat="44.020483974773036" lon="11.88002928583256"><ele>290.79999999999995</ele><time>2026-05-03T09:58:13Z</time></trkpt><trkpt lat="44.02041253264936" lon="11.87993320758047"><ele>292.4</ele><time>2026-05-03T09:58:14Z</time></trkpt><trkpt lat="44.02033860321256" lon="11.879833224824722"><ele>294.0</ele><time>2026-05-03T09:58:15Z</time></trkpt><trkpt lat="44.02025191001478" lon="11.879712941167345"><ele>294.0</ele><time>2026-05-03T09:58:16Z</time></trkpt><trkpt lat="44.02015341172093" lon="11.879596387022998"><ele>294.0</ele><time>2026-05-03T09:58:17Z</time></trkpt><trkpt lat="44.020059156586456" lon="11.879459390712436"><ele>294.0</ele><time>2026-05-03T09:58:18Z</time></trkpt><trkpt lat="44.019961352705" lon="11.87932081422885"><ele>294.0</ele><time>2026-05-03T09:58:19Z</time></trkpt><trkpt lat="44.01986372802907" lon="11.879182877511088"><ele>297.5</ele><time>2026-05-03T09:58:20Z</time></trkpt><trkpt lat="44.019770451303074" lon="11.879035522442742"><ele>301.0</ele><time>2026-05-03T09:58:21Z</time></trkpt><trkpt lat="44.01967852379684" lon="11.878884961668863"><ele>304.5</ele><time>2026-05-03T09:58:22Z</time></trkpt><trkpt lat="44.01958421203546" lon="11.87874004286718"><ele>308.0</ele><time>2026-05-03T09:58:23Z</time></trkpt><trkpt lat="44.019494303502036" lon="11.878583590330466"><ele>306.0</ele><time>2026-05-03T09:58:24Z</time></trkpt><trkpt lat="44.01941194942994" lon="11.878428597009423"><ele>304.0</ele><time>2026-05-03T09:58:25Z</time></trkpt><trkpt lat="44.019321100808895" lon="11.878280733743955"><ele>302.0</ele><time>2026-05-03T09:58:26Z</time></trkpt><trkpt lat="44.019233258025636" lon="11.878112795623725"><ele>300.0</ele><time>2026-05-03T09:58:27Z</time></trkpt><trkpt lat="44.019146862616154" lon="11.877944049420575"><ele>303.75</ele><time>2026-05-03T09:58:28Z</time></trkpt><trkpt lat="44.019055727170674" lon="11.877776288389862"><ele>307.5</ele><time>2026-05-03T09:58:29Z</time></trkpt><trkpt lat="44.0189685929059" lon="11.877614572391572"><ele>311.25</ele><time>2026-05-03T09:58:30Z</time></trkpt><trkpt lat="44.01887838398913" lon="11.87744746667014"><ele>315.0</ele><time>2026-05-03T09:58:31Z</time></trkpt><trkpt lat="44.01878905107329" lon="11.877269698338598"><ele>315.0</ele><time>2026-05-03T09:58:32Z</time></trkpt><trkpt lat="44.01872297861716" lon="11.877078075340945"><ele>315.0</ele><time>2026-05-03T09:58:33Z</time></trkpt><trkpt lat="44.01864650801075" lon="11.876896712813865"><ele>315.0</ele><time>2026-05-03T09:58:34Z</time></trkpt><trkpt lat="44.0185741725301" lon="11.87671889604978"><ele>313.0</ele><time>2026-05-03T09:58:35Z</time></trkpt><trkpt lat="44.018511961959504" lon="11.876553816335413"><ele>311.0</ele><time>2026-05-03T09:58:36Z</time></trkpt><trkpt lat="44.01845371992643" lon="11.876374895114012"><ele>309.0</ele><time>2026-05-03T09:58:36.999Z</time></trkpt><trkpt lat="44.018411795136345" lon="11.876196818689321"><ele>307.0</ele><time>2026-05-03T09:58:37.999Z</time></trkpt><trkpt lat="44.01838200938005" lon="11.876016966629185"><ele>303.5</ele><time>2026-05-03T09:58:38.999Z</time></trkpt><trkpt lat="44.01834249987797" lon="11.8758617166618"><ele>300.0</ele><time>2026-05-03T09:58:39.999Z</time></trkpt><trkpt lat="44.01828519659935" lon="11.875718732065637"><ele>296.5</ele><time>2026-05-03T09:58:40.999Z</time></trkpt><trkpt lat="44.0181922717874" lon="11.875602245681087"><ele>293.0</ele><time>2026-05-03T09:58:41.999Z</time></trkpt><trkpt lat="44.01810416133893" lon="11.875528973493084"><ele>296.0</ele><time>2026-05-03T09:58:42.999Z</time></trkpt><trkpt lat="44.01802348364667" lon="11.875464943152375"><ele>299.0</ele><time>2026-05-03T09:58:43.999Z</time></trkpt><trkpt lat="44.01797310234646" lon="11.87530920148761"><ele>302.0</ele><time>2026-05-03T09:58:45.999Z</time></trkpt><trkpt lat="44.01795181012581" lon="11.875169572828124"><ele>305.0</ele><time>2026-05-03T09:58:46.999Z</time></trkpt><trkpt lat="44.01793020650552" lon="11.875019116888408"><ele>308.0</ele><time>2026-05-03T09:58:47.999Z</time></trkpt><trkpt lat="44.01789775877043" lon="11.874850589581849"><ele>308.0</ele><time>2026-05-03T09:58:48.999Z</time></trkpt><trkpt lat="44.0178502484862" lon="11.874666321777587"><ele>308.0</ele><time>2026-05-03T09:58:49.999Z</time></trkpt><trkpt lat="44.01779628729132" lon="11.87447006983313"><ele>308.0</ele><time>2026-05-03T09:58:50.999Z</time></trkpt><trkpt lat="44.017741387436544" lon="11.87426595520696"><ele>308.0</ele><time>2026-05-03T09:58:51.999Z</time></trkpt><trkpt lat="44.01769656763958" lon="11.874054763458046"><ele>308.25</ele><time>2026-05-03T09:58:52.999Z</time></trkpt><trkpt lat="44.01765721548355" lon="11.873846624269198"><ele>308.5</ele><time>2026-05-03T09:58:53.999Z</time></trkpt><trkpt lat="44.01762114068456" lon="11.873644839584387"><ele>308.75</ele><time>2026-05-03T09:58:54.999Z</time></trkpt><trkpt lat="44.01758984302096" lon="11.87346697504856"><ele>309.0</ele><time>2026-05-03T09:58:55.999Z</time></trkpt><trkpt lat="44.01755943447882" lon="11.87329984037808"><ele>307.8</ele><time>2026-05-03T09:58:56.999Z</time></trkpt><trkpt lat="44.0175386577641" lon="11.873159983885667"><ele>306.59999999999997</ele><time>2026-05-03T09:58:57.999Z</time></trkpt><trkpt lat="44.01753799650858" lon="11.873021630053712"><ele>305.4</ele><time>2026-05-03T09:58:58.999Z</time></trkpt><trkpt lat="44.017549678443046" lon="11.872888805245507"><ele>304.2</ele><time>2026-05-03T09:58:59.999Z</time></trkpt><trkpt lat="44.01756000013846" lon="11.8727687799917"><ele>303.0</ele><time>2026-05-03T09:59:00.999Z</time></trkpt><trkpt lat="44.01757137746123" lon="11.87265007660195"><ele>302.1666666666667</ele><time>2026-05-03T09:59:01.999Z</time></trkpt><trkpt lat="44.017582943882374" lon="11.872540764930365"><ele>301.3333333333333</ele><time>2026-05-03T09:59:02.999Z</time></trkpt><trkpt lat="44.01759504609326" lon="11.872437414317098"><ele>300.5</ele><time>2026-05-03T09:59:03.999Z</time></trkpt><trkpt lat="44.01760809341655" lon="11.872334928536382"><ele>299.66666666666663</ele><time>2026-05-03T09:59:04.999Z</time></trkpt><trkpt lat="44.01763205857497" lon="11.87217389075027"><ele>298.8333333333333</ele><time>2026-05-03T09:59:06.999Z</time></trkpt><trkpt lat="44.01765160565352" lon="11.872065369092574"><ele>298.0</ele><time>2026-05-03T09:59:08.999Z</time></trkpt><trkpt lat="44.01751473941166" lon="11.872020048556465"><ele>304.4</ele><time>2026-05-03T09:59:10.999Z</time></trkpt><trkpt lat="44.01739724329767" lon="11.871972668070379"><ele>310.8</ele><time>2026-05-03T09:59:12.999Z</time></trkpt><trkpt lat="44.01728909107811" lon="11.871912222361276"><ele>317.2</ele><time>2026-05-03T09:59:15Z</time></trkpt><trkpt lat="44.017227723035866" lon="11.871874149998552"><ele>323.6</ele><time>2026-05-03T09:59:16Z</time></trkpt><trkpt lat="44.01716100455082" lon="11.871837807700926"><ele>330.0</ele><time>2026-05-03T09:59:17Z</time></trkpt><trkpt lat="44.01704999836159" lon="11.871860174948665"><ele>330.0</ele><time>2026-05-03T09:59:19Z</time></trkpt><trkpt lat="44.01703507168812" lon="11.871972464367854"><ele>330.0</ele><time>2026-05-03T09:59:20Z</time></trkpt><trkpt lat="44.01704127506432" lon="11.872092398438646"><ele>330.0</ele><time>2026-05-03T09:59:21Z</time></trkpt><trkpt lat="44.017052959415416" lon="11.872216150394925"><ele>330.0</ele><time>2026-05-03T09:59:22Z</time></trkpt><trkpt lat="44.01704747452949" lon="11.872321850280901"><ele>330.0</ele><time>2026-05-03T09:59:23Z</time></trkpt><trkpt lat="44.01704114381003" lon="11.872443335877026"><ele>330.0</ele><time>2026-05-03T09:59:24Z</time></trkpt><trkpt lat="44.01703990320804" lon="11.87255845490267"><ele>330.6666666666667</ele><time>2026-05-03T09:59:25Z</time></trkpt><trkpt lat="44.017035017024156" lon="11.872675324165904"><ele>331.3333333333333</ele><time>2026-05-03T09:59:26Z</time></trkpt><trkpt lat="44.017042152337815" lon="11.872784640407806"><ele>332.0</ele><time>2026-05-03T09:59:27Z</time></trkpt><trkpt lat="44.017059380374064" lon="11.872900553756075"><ele>332.66666666666663</ele><time>2026-05-03T09:59:28Z</time></trkpt><trkpt lat="44.01708051588297" lon="11.873003978257794"><ele>333.3333333333333</ele><time>2026-05-03T09:59:29Z</time></trkpt><trkpt lat="44.01709697974996" lon="11.873127619227663"><ele>334.0</ele><time>2026-05-03T09:59:30Z</time></trkpt><trkpt lat="44.017108149411165" lon="11.873252294994366"><ele>334.0</ele><time>2026-05-03T09:59:31Z</time></trkpt><trkpt lat="44.01711437196754" lon="11.873356752928688"><ele>334.0</ele><time>2026-05-03T09:59:32Z</time></trkpt><trkpt lat="44.01711299975993" lon="11.87345823136549"><ele>334.0</ele><time>2026-05-03T09:59:33Z</time></trkpt><trkpt lat="44.01710922871318" lon="11.873561463756925"><ele>334.0</ele><time>2026-05-03T09:59:34Z</time></trkpt><trkpt lat="44.01711018044002" lon="11.8736761326468"><ele>334.0</ele><time>2026-05-03T09:59:35Z</time></trkpt><trkpt lat="44.01711626979383" lon="11.873773921273187"><ele>334.0</ele><time>2026-05-03T09:59:36Z</time></trkpt><trkpt lat="44.0171418466381" lon="11.873916473295829"><ele>333.2</ele><time>2026-05-03T09:59:38Z</time></trkpt><trkpt lat="44.017132712078336" lon="11.87402374145606"><ele>332.4</ele><time>2026-05-03T09:59:40Z</time></trkpt><trkpt lat="44.01706664239792" lon="11.87410648635024"><ele>331.6</ele><time>2026-05-03T09:59:42Z</time></trkpt><trkpt lat="44.016981702284596" lon="11.874019920775337"><ele>330.8</ele><time>2026-05-03T09:59:44Z</time></trkpt><trkpt lat="44.01697423674316" lon="11.873897804351087"><ele>330.0</ele><time>2026-05-03T09:59:46Z</time></trkpt><trkpt lat="44.0169506746228" lon="11.873766837990118"><ele>330.0</ele><time>2026-05-03T09:59:48Z</time></trkpt><trkpt lat="44.01695106893093" lon="11.873672502809399"><ele>330.0</ele><time>2026-05-03T09:59:49Z</time></trkpt><trkpt lat="44.01687843275428" lon="11.873524126802172"><ele>330.0</ele><time>2026-05-03T09:59:51Z</time></trkpt><trkpt lat="44.016819169001856" lon="11.873428878870428"><ele>330.0</ele><time>2026-05-03T09:59:53Z</time></trkpt><trkpt lat="44.016693385063924" lon="11.873406428605618"><ele>330.0</ele><time>2026-05-03T09:59:55Z</time></trkpt><trkpt lat="44.016628894875744" lon="11.873436797469012"><ele>331.0</ele><time>2026-05-03T09:59:56Z</time></trkpt><trkpt lat="44.01653222210894" lon="11.873472413767182"><ele>332.0</ele><time>2026-05-03T09:59:58Z</time></trkpt><trkpt lat="44.01647639256271" lon="11.873431526141179"><ele>333.0</ele><time>2026-05-03T10:00:00Z</time></trkpt><trkpt lat="44.016424125842" lon="11.873359857129886"><ele>334.0</ele><time>2026-05-03T10:00:02Z</time></trkpt><trkpt lat="44.016349687262895" lon="11.873257473645051"><ele>335.0</ele><time>2026-05-03T10:00:04Z</time></trkpt><trkpt lat="44.016302642952986" lon="11.873192044558786"><ele>336.0</ele><time>2026-05-03T10:00:05Z</time></trkpt><trkpt lat="44.016215562919285" lon="11.873068400445982"><ele>337.8</ele><time>2026-05-03T10:00:07Z</time></trkpt><trkpt lat="44.0161299437942" lon="11.872944363647386"><ele>339.6</ele><time>2026-05-03T10:00:09Z</time></trkpt><trkpt lat="44.01608521957409" lon="11.87287957151227"><ele>341.4</ele><time>2026-05-03T10:00:10Z</time></trkpt><trkpt lat="44.01604006727304" lon="11.872816138997308"><ele>343.2</ele><time>2026-05-03T10:00:11Z</time></trkpt><trkpt lat="44.01594805258951" lon="11.872691086532013"><ele>345.0</ele><time>2026-05-03T10:00:13Z</time></trkpt><trkpt lat="44.01586241244867" lon="11.872578368181497"><ele>348.0</ele><time>2026-05-03T10:00:15Z</time></trkpt><trkpt lat="44.01576212929206" lon="11.87247712719343"><ele>351.0</ele><time>2026-05-03T10:00:17Z</time></trkpt><trkpt lat="44.0156747959712" lon="11.872358641767379"><ele>354.0</ele><time>2026-05-03T10:00:19Z</time></trkpt><trkpt lat="44.01564346205297" lon="11.872281973483624"><ele>357.0</ele><time>2026-05-03T10:00:20Z</time></trkpt><trkpt lat="44.01555509851518" lon="11.872151897930127"><ele>360.0</ele><time>2026-05-03T10:00:22Z</time></trkpt><trkpt lat="44.01551133242331" lon="11.8720868848708"><ele>360.0</ele><time>2026-05-03T10:00:23Z</time></trkpt><trkpt lat="44.015424906408946" lon="11.871958652883098"><ele>360.0</ele><time>2026-05-03T10:00:25Z</time></trkpt><trkpt lat="44.01538040075669" lon="11.871895282973142"><ele>360.0</ele><time>2026-05-03T10:00:26Z</time></trkpt><trkpt lat="44.01530109918906" lon="11.871774814186923"><ele>360.0</ele><time>2026-05-03T10:00:28Z</time></trkpt><trkpt lat="44.015284323056136" lon="11.871648247416985"><ele>360.0</ele><time>2026-05-03T10:00:30Z</time></trkpt><trkpt lat="44.01532919903143" lon="11.871514381462383"><ele>363.4</ele><time>2026-05-03T10:00:32Z</time></trkpt><trkpt lat="44.01536951500373" lon="11.871365288794554"><ele>366.8</ele><time>2026-05-03T10:00:34Z</time></trkpt><trkpt lat="44.01539354086155" lon="11.871238886353874"><ele>370.20000000000005</ele><time>2026-05-03T10:00:36Z</time></trkpt><trkpt lat="44.015331690022805" lon="11.87115493026954"><ele>373.6</ele><time>2026-05-03T10:00:37.999Z</time></trkpt><trkpt lat="44.01522576990189" lon="11.871246875569138"><ele>377.0</ele><time>2026-05-03T10:00:39.999Z</time></trkpt><trkpt lat="44.01512249655323" lon="11.871335591451055"><ele>377.0</ele><time>2026-05-03T10:00:41.999Z</time></trkpt><trkpt lat="44.01506194908107" lon="11.871361000809808"><ele>377.0</ele><time>2026-05-03T10:00:42.999Z</time></trkpt><trkpt lat="44.01494779550132" lon="11.871400035471034"><ele>377.0</ele><time>2026-05-03T10:00:44.999Z</time></trkpt><trkpt lat="44.01484565793523" lon="11.871418154062047"><ele>377.0</ele><time>2026-05-03T10:00:46.999Z</time></trkpt><trkpt lat="44.01479819076592" lon="11.871312399101745"><ele>377.0</ele><time>2026-05-03T10:00:48.999Z</time></trkpt><trkpt lat="44.01489173494931" lon="11.871249416510997"><ele>377.0</ele><time>2026-05-03T10:00:50.999Z</time></trkpt><trkpt lat="44.01495482656342" lon="11.87119928753993"><ele>377.0</ele><time>2026-05-03T10:00:51.999Z</time></trkpt><trkpt lat="44.015010493858476" lon="11.871136951178705"><ele>377.0</ele><time>2026-05-03T10:00:52.999Z</time></trkpt><trkpt lat="44.01501798383179" lon="11.871011517989404"><ele>377.0</ele><time>2026-05-03T10:00:53.999Z</time></trkpt><trkpt lat="44.01502536989936" lon="11.870903565923058"><ele>377.0</ele><time>2026-05-03T10:00:54.999Z</time></trkpt><trkpt lat="44.01503183000076" lon="11.870802528212788"><ele>377.0</ele><time>2026-05-03T10:00:55.999Z</time></trkpt><trkpt lat="44.014989138194295" lon="11.87069063591483"><ele>383.1666666666667</ele><time>2026-05-03T10:00:57.999Z</time></trkpt><trkpt lat="44.014861043813845" lon="11.870737291994383"><ele>389.33333333333337</ele><time>2026-05-03T10:00:59.999Z</time></trkpt><trkpt lat="44.01478592097224" lon="11.870777041516972"><ele>395.5</ele><time>2026-05-03T10:01:00.999Z</time></trkpt><trkpt lat="44.014723758739756" lon="11.870799709861867"><ele>401.6666666666667</ele><time>2026-05-03T10:01:01.999Z</time></trkpt><trkpt lat="44.014659392214675" lon="11.870790466986199"><ele>407.8333333333333</ele><time>2026-05-03T10:01:03.999Z</time></trkpt><trkpt lat="44.0145907533048" lon="11.870759555861301"><ele>414.0</ele><time>2026-05-03T10:01:27Z</time></trkpt><trkpt lat="44.01453421743249" lon="11.870714381948687"><ele>414.0</ele><time>2026-05-03T10:01:30Z</time></trkpt><trkpt lat="44.01445471390916" lon="11.870697594845934"><ele>414.0</ele><time>2026-05-03T10:01:59Z</time></trkpt><trkpt lat="44.01436271138331" lon="11.870695580544009"><ele>414.0</ele><time>2026-05-03T10:02:02Z</time></trkpt><trkpt lat="44.014271737683316" lon="11.870698943842234"><ele>414.0</ele><time>2026-05-03T10:02:04Z</time></trkpt><trkpt lat="44.01419077896412" lon="11.870744825524895"><ele>414.0</ele><time>2026-05-03T10:02:06Z</time></trkpt><trkpt lat="44.014115735664745" lon="11.870783844379377"><ele>414.0</ele><time>2026-05-03T10:02:08Z</time></trkpt><trkpt lat="44.01402763790927" lon="11.87080906840411"><ele>416.1666666666667</ele><time>2026-05-03T10:02:10Z</time></trkpt><trkpt lat="44.01392462163508" lon="11.870822708030905"><ele>418.33333333333337</ele><time>2026-05-03T10:02:12Z</time></trkpt><trkpt lat="44.01383889099855" lon="11.870770901761633"><ele>420.5</ele><time>2026-05-03T10:02:14Z</time></trkpt><trkpt lat="44.0137369235998" lon="11.87073144579973"><ele>422.6666666666667</ele><time>2026-05-03T10:02:16Z</time></trkpt><trkpt lat="44.01367357760766" lon="11.870704987990965"><ele>424.83333333333337</ele><time>2026-05-03T10:02:17Z</time></trkpt><trkpt lat="44.013613293008106" lon="11.870679750469597"><ele>427.0</ele><time>2026-05-03T10:02:18Z</time></trkpt><trkpt lat="44.01354957356208" lon="11.870655767413982"><ele>427.0</ele><time>2026-05-03T10:02:19Z</time></trkpt><trkpt lat="44.0134351684655" lon="11.870612389972532"><ele>427.00000000000006</ele><time>2026-05-03T10:02:21Z</time></trkpt><trkpt lat="44.013321396450024" lon="11.87056801681484"><ele>427.00000000000006</ele><time>2026-05-03T10:02:23Z</time></trkpt><trkpt lat="44.01320438860263" lon="11.870523647442539"><ele>427.0</ele><time>2026-05-03T10:02:25Z</time></trkpt><trkpt lat="44.013134318935556" lon="11.870498228686735"><ele>427.0</ele><time>2026-05-03T10:02:26Z</time></trkpt><trkpt lat="44.013064009808794" lon="11.870477934037197"><ele>427.1666666666667</ele><time>2026-05-03T10:02:27Z</time></trkpt><trkpt lat="44.012994865888935" lon="11.870481165870933"><ele>427.33333333333337</ele><time>2026-05-03T10:02:28Z</time></trkpt><trkpt lat="44.012887090161286" lon="11.870444113130723"><ele>427.5</ele><time>2026-05-03T10:02:30Z</time></trkpt><trkpt lat="44.01277775569712" lon="11.87037542064412"><ele>427.66666666666663</ele><time>2026-05-03T10:02:32Z</time></trkpt><trkpt lat="44.012719246575735" lon="11.870342121137515"><ele>427.8333333333333</ele><time>2026-05-03T10:02:33Z</time></trkpt><trkpt lat="44.012665267153736" lon="11.870283599753957"><ele>428.0</ele><time>2026-05-03T10:02:34Z</time></trkpt><trkpt lat="44.0126551655948" lon="11.870187083497738"><ele>428.0</ele><time>2026-05-03T10:02:35Z</time></trkpt><trkpt lat="44.01255533253695" lon="11.870207263632091"><ele>427.99999999999994</ele><time>2026-05-03T10:02:36Z</time></trkpt><trkpt lat="44.01248055926377" lon="11.870251623716564"><ele>427.99999999999994</ele><time>2026-05-03T10:02:37Z</time></trkpt><trkpt lat="44.012401228455545" lon="11.870239609566987"><ele>428.0</ele><time>2026-05-03T10:02:39Z</time></trkpt><trkpt lat="44.01227647196699" lon="11.870204434699977"><ele>428.0</ele><time>2026-05-03T10:02:41Z</time></trkpt><trkpt lat="44.012192912751146" lon="11.870194887725127"><ele>432.4</ele><time>2026-05-03T10:02:42Z</time></trkpt><trkpt lat="44.01209894458463" lon="11.870184463169753"><ele>436.79999999999995</ele><time>2026-05-03T10:02:43Z</time></trkpt><trkpt lat="44.01199995146944" lon="11.870177412113753"><ele>441.2</ele><time>2026-05-03T10:02:44Z</time></trkpt><trkpt lat="44.01190478671898" lon="11.870165799810964"><ele>445.6</ele><time>2026-05-03T10:02:45Z</time></trkpt><trkpt lat="44.01180631652323" lon="11.870153149980139"><ele>450.0</ele><time>2026-05-03T10:02:46Z</time></trkpt><trkpt lat="44.01171833144535" lon="11.870137008943722"><ele>452.4</ele><time>2026-05-03T10:02:46.999Z</time></trkpt><trkpt lat="44.011628349815844" lon="11.870103020677032"><ele>454.8</ele><time>2026-05-03T10:02:47.999Z</time></trkpt><trkpt lat="44.01154451765586" lon="11.87005184387835"><ele>457.20000000000005</ele><time>2026-05-03T10:02:48.999Z</time></trkpt><trkpt lat="44.01147045769496" lon="11.870006672094126"><ele>459.6</ele><time>2026-05-03T10:02:49.999Z</time></trkpt><trkpt lat="44.01139735074534" lon="11.870000473377477"><ele>462.0</ele><time>2026-05-03T10:02:50.999Z</time></trkpt><trkpt lat="44.01130426540629" lon="11.87010827968695"><ele>466.20000000000005</ele><time>2026-05-03T10:02:52.999Z</time></trkpt><trkpt lat="44.01126783001338" lon="11.870218921668878"><ele>470.40000000000003</ele><time>2026-05-03T10:02:53.999Z</time></trkpt><trkpt lat="44.011236899192085" lon="11.870355358131286"><ele>474.59999999999997</ele><time>2026-05-03T10:02:54.999Z</time></trkpt><trkpt lat="44.01122760976879" lon="11.870504680045949"><ele>478.79999999999995</ele><time>2026-05-03T10:02:55.999Z</time></trkpt><trkpt lat="44.01124763672147" lon="11.870672185931454"><ele>483.0</ele><time>2026-05-03T10:02:56.999Z</time></trkpt><trkpt lat="44.01126060652264" lon="11.87084609645498"><ele>485.75</ele><time>2026-05-03T10:02:57.999Z</time></trkpt><trkpt lat="44.01129085869092" lon="11.871015376620154"><ele>488.5</ele><time>2026-05-03T10:02:58.999Z</time></trkpt><trkpt lat="44.011296443424484" lon="11.8711739175852"><ele>491.25</ele><time>2026-05-03T10:02:59.999Z</time></trkpt><trkpt lat="44.011296199032564" lon="11.871337642250348"><ele>494.0</ele><time>2026-05-03T10:03:00.999Z</time></trkpt><trkpt lat="44.011297517112986" lon="11.87149386470556"><ele>494.0</ele><time>2026-05-03T10:03:01.999Z</time></trkpt><trkpt lat="44.01132827808423" lon="11.871655693074063"><ele>494.0</ele><time>2026-05-03T10:03:02.999Z</time></trkpt><trkpt lat="44.01136040540075" lon="11.871813885210942"><ele>494.0</ele><time>2026-05-03T10:03:03.999Z</time></trkpt><trkpt lat="44.01138254917974" lon="11.871955688970742"><ele>494.0</ele><time>2026-05-03T10:03:04.999Z</time></trkpt><trkpt lat="44.0113973426103" lon="11.872063570096872"><ele>494.0</ele><time>2026-05-03T10:03:05.999Z</time></trkpt><trkpt lat="44.011322526577786" lon="11.87218567765928"><ele>493.0</ele><time>2026-05-03T10:03:07.999Z</time></trkpt><trkpt lat="44.011261724223544" lon="11.872285800245459"><ele>492.0</ele><time>2026-05-03T10:03:08.999Z</time></trkpt><trkpt lat="44.011203887509204" lon="11.872410432861399"><ele>491.0</ele><time>2026-05-03T10:03:09.999Z</time></trkpt><trkpt lat="44.01115318055409" lon="11.872544736482727"><ele>490.0</ele><time>2026-05-03T10:03:10.999Z</time></trkpt><trkpt lat="44.011096955344385" lon="11.872667510371718"><ele>489.0</ele><time>2026-05-03T10:03:11.999Z</time></trkpt><trkpt lat="44.01103933544081" lon="11.872783039576206"><ele>491.79999999999995</ele><time>2026-05-03T10:03:12.999Z</time></trkpt><trkpt lat="44.01095593018976" lon="11.872848156171036"><ele>494.59999999999997</ele><time>2026-05-03T10:03:13.999Z</time></trkpt><trkpt lat="44.01085695188782" lon="11.872873972771684"><ele>497.4</ele><time>2026-05-03T10:03:14.999Z</time></trkpt><trkpt lat="44.010766249083275" lon="11.872896412295898"><ele>500.2</ele><time>2026-05-03T10:03:15.999Z</time></trkpt><trkpt lat="44.01068283555492" lon="11.872898705739416"><ele>503.0</ele><time>2026-05-03T10:03:16.999Z</time></trkpt><trkpt lat="44.010583660271976" lon="11.87289651649175"><ele>503.0</ele><time>2026-05-03T10:03:17.999Z</time></trkpt><trkpt lat="44.01048053127574" lon="11.872885925243681"><ele>502.99999999999994</ele><time>2026-05-03T10:03:18.999Z</time></trkpt><trkpt lat="44.01036984153677" lon="11.87289050924709"><ele>502.99999999999994</ele><time>2026-05-03T10:03:19.999Z</time></trkpt><trkpt lat="44.01026371128227" lon="11.872911955975159"><ele>503.0</ele><time>2026-05-03T10:03:20.999Z</time></trkpt><trkpt lat="44.01015523886969" lon="11.872932730916599"><ele>503.0</ele><time>2026-05-03T10:03:21.999Z</time></trkpt><trkpt lat="44.010059251149194" lon="11.872952103286533"><ele>510.16666666666663</ele><time>2026-05-03T10:03:22.999Z</time></trkpt><trkpt lat="44.00997008402202" lon="11.872993660372114"><ele>517.3333333333333</ele><time>2026-05-03T10:03:23.999Z</time></trkpt><trkpt lat="44.00990230896762" lon="11.87307445152758"><ele>524.5</ele><time>2026-05-03T10:03:25Z</time></trkpt><trkpt lat="44.00984394023911" lon="11.873145425124143"><ele>531.6666666666666</ele><time>2026-05-03T10:03:26Z</time></trkpt><trkpt lat="44.00975761503492" lon="11.87318749976746"><ele>538.8333333333334</ele><time>2026-05-03T10:03:27Z</time></trkpt><trkpt lat="44.00967525126226" lon="11.873192500927905"><ele>546.0</ele><time>2026-05-03T10:03:28Z</time></trkpt><trkpt lat="44.00961171164596" lon="11.873251052823457"><ele>546.0</ele><time>2026-05-03T10:03:29Z</time></trkpt><trkpt lat="44.009554174286606" lon="11.873351998810953"><ele>546.0</ele><time>2026-05-03T10:03:30Z</time></trkpt><trkpt lat="44.00949142108324" lon="11.873453811387753"><ele>546.0</ele><time>2026-05-03T10:03:31Z</time></trkpt><trkpt lat="44.00940475683267" lon="11.873555111710838"><ele>546.0</ele><time>2026-05-03T10:03:32Z</time></trkpt><trkpt lat="44.00935731633847" lon="11.873639704239634"><ele>546.0</ele><time>2026-05-03T10:03:33Z</time></trkpt><trkpt lat="44.00933692789559" lon="11.873727785411052"><ele>546.0</ele><time>2026-05-03T10:03:34Z</time></trkpt><trkpt lat="44.00929274703521" lon="11.873847283438666"><ele>546.0</ele><time>2026-05-03T10:03:36Z</time></trkpt><trkpt lat="44.009269477598856" lon="11.8736420578443"><ele>546.0</ele><time>2026-05-03T10:03:42Z</time></trkpt><trkpt lat="44.00922976361445" lon="11.873509159519603"><ele>546.0</ele><time>2026-05-03T10:03:44Z</time></trkpt><trkpt lat="44.009261201915926" lon="11.87342963480089"><ele>546.0</ele><time>2026-05-03T10:03:45Z</time></trkpt><trkpt lat="44.00928516830533" lon="11.87332509130974"><ele>546.0</ele><time>2026-05-03T10:03:46Z</time></trkpt><trkpt lat="44.00932084359825" lon="11.87323193620236"><ele>546.0</ele><time>2026-05-03T10:03:47Z</time></trkpt><trkpt lat="44.00936830081038" lon="11.873095596797727"><ele>546.0</ele><time>2026-05-03T10:03:48Z</time></trkpt><trkpt lat="44.00945323142681" lon="11.872945010993291"><ele>546.0</ele><time>2026-05-03T10:03:49Z</time></trkpt><trkpt lat="44.009525536585414" lon="11.872797285205484"><ele>546.0</ele><time>2026-05-03T10:03:50Z</time></trkpt><trkpt lat="44.009591425305004" lon="11.872659192814794"><ele>547.3333333333334</ele><time>2026-05-03T10:03:51Z</time></trkpt><trkpt lat="44.00963973466785" lon="11.872550240033199"><ele>548.6666666666666</ele><time>2026-05-03T10:03:52Z</time></trkpt><trkpt lat="44.009665877413134" lon="11.87243711045478"><ele>550.0</ele><time>2026-05-03T10:03:53Z</time></trkpt><trkpt lat="44.009664791731566" lon="11.87232005883598"><ele>551.3333333333333</ele><time>2026-05-03T10:03:54Z</time></trkpt><trkpt lat="44.00963723228184" lon="11.87222179780457"><ele>552.6666666666666</ele><time>2026-05-03T10:03:55Z</time></trkpt><trkpt lat="44.009595350831006" lon="11.87214159458355"><ele>554.0</ele><time>2026-05-03T10:03:56Z</time></trkpt><trkpt lat="44.00950208549469" lon="11.872072326328118"><ele>554.0</ele><time>2026-05-03T10:03:58Z</time></trkpt><trkpt lat="44.00943104510686" lon="11.871970225132976"><ele>554.0</ele><time>2026-05-03T10:04:00Z</time></trkpt><trkpt lat="44.00936742517196" lon="11.871883794520574"><ele>554.0</ele><time>2026-05-03T10:04:02Z</time></trkpt><trkpt lat="44.00923774179029" lon="11.871834949443295"><ele>554.0</ele><time>2026-05-03T10:04:04Z</time></trkpt><trkpt lat="44.009154663526296" lon="11.871816557748014"><ele>554.0</ele><time>2026-05-03T10:04:05Z</time></trkpt><trkpt lat="44.00906650091029" lon="11.871817018294413"><ele>555.8333333333333</ele><time>2026-05-03T10:04:06Z</time></trkpt><trkpt lat="44.00898616191052" lon="11.871818190403152"><ele>557.6666666666666</ele><time>2026-05-03T10:04:07Z</time></trkpt><trkpt lat="44.00890181167327" lon="11.871833343449493"><ele>559.5</ele><time>2026-05-03T10:04:08Z</time></trkpt><trkpt lat="44.0088302659301" lon="11.871854156077797"><ele>561.3333333333334</ele><time>2026-05-03T10:04:09Z</time></trkpt><trkpt lat="44.00876329807755" lon="11.871861940566765"><ele>563.1666666666667</ele><time>2026-05-03T10:04:10Z</time></trkpt><trkpt lat="44.00869125875301" lon="11.87189604075762"><ele>565.0</ele><time>2026-05-03T10:04:11Z</time></trkpt><trkpt lat="44.00861115939614" lon="11.871946584433408"><ele>565.0</ele><time>2026-05-03T10:04:12Z</time></trkpt><trkpt lat="44.00856425066353" lon="11.87200992833896"><ele>565.0</ele><time>2026-05-03T10:04:15Z</time></trkpt><trkpt lat="44.00855409494933" lon="11.87209751809977"><ele>565.0</ele><time>2026-05-03T10:05:15.999Z</time></trkpt><trkpt lat="44.00864430952486" lon="11.872104681599707"><ele>565.0</ele><time>2026-05-03T10:05:18.999Z</time></trkpt><trkpt lat="44.00871775471301" lon="11.87215741664634"><ele>565.0</ele><time>2026-05-03T10:05:20.999Z</time></trkpt><trkpt lat="44.00878897336753" lon="11.872250674644421"><ele>565.0</ele><time>2026-05-03T10:05:22.999Z</time></trkpt><trkpt lat="44.0088616433445" lon="11.87239356559135"><ele>565.0</ele><time>2026-05-03T10:05:24.999Z</time></trkpt><trkpt lat="44.00888724962898" lon="11.872482285523688"><ele>565.0</ele><time>2026-05-03T10:05:26.999Z</time></trkpt><trkpt lat="44.008945967607076" lon="11.872515757074465"><ele>565.0</ele><time>2026-05-03T10:05:37Z</time></trkpt><trkpt lat="44.008946163486335" lon="11.87262574533918"><ele>565.0</ele><time>2026-05-03T10:05:42Z</time></trkpt><trkpt lat="44.00889531996926" lon="11.872753362076377"><ele>565.0</ele><time>2026-05-03T10:05:44Z</time></trkpt><trkpt lat="44.00873839296612" lon="11.872877403854147"><ele>566.2</ele><time>2026-05-03T10:05:48Z</time></trkpt><trkpt lat="44.00864108947426" lon="11.872973039590983"><ele>567.4</ele><time>2026-05-03T10:05:50Z</time></trkpt><trkpt lat="44.00853774945657" lon="11.873075059631162"><ele>568.6</ele><time>2026-05-03T10:05:52Z</time></trkpt><trkpt lat="44.00847092002918" lon="11.873107513831453"><ele>569.8</ele><time>2026-05-03T10:05:53Z</time></trkpt><trkpt lat="44.00840705248646" lon="11.87313668008161"><ele>571.0</ele><time>2026-05-03T10:05:54Z</time></trkpt><trkpt lat="44.00830815656481" lon="11.873182810591496"><ele>571.0</ele><time>2026-05-03T10:05:56Z</time></trkpt><trkpt lat="44.00824206765815" lon="11.873237922413079"><ele>571.0</ele><time>2026-05-03T10:05:58Z</time></trkpt><trkpt lat="44.00821005005319" lon="11.873334350974453"><ele>571.0</ele><time>2026-05-03T10:06:00Z</time></trkpt><trkpt lat="44.00816907122676" lon="11.873457252193075"><ele>571.0</ele><time>2026-05-03T10:06:02Z</time></trkpt><trkpt lat="44.00807419898302" lon="11.873583942693793"><ele>571.0</ele><time>2026-05-03T10:06:04Z</time></trkpt><trkpt lat="44.008005852165475" lon="11.873660858943579"><ele>571.8333333333334</ele><time>2026-05-03T10:06:05Z</time></trkpt><trkpt lat="44.0079453220488" lon="11.873724813818132"><ele>572.6666666666667</ele><time>2026-05-03T10:06:06Z</time></trkpt><trkpt lat="44.007904411439405" lon="11.873827539890971"><ele>573.5</ele><time>2026-05-03T10:06:08Z</time></trkpt><trkpt lat="44.0078881881203" lon="11.873934340670363"><ele>574.3333333333334</ele><time>2026-05-03T10:06:11Z</time></trkpt><trkpt lat="44.007893875605056" lon="11.874023028032527"><ele>575.1666666666666</ele><time>2026-05-03T10:06:13Z</time></trkpt><trkpt lat="44.00789681969474" lon="11.87412551396042"><ele>576.0</ele><time>2026-05-03T10:06:15Z</time></trkpt><trkpt lat="44.00789307584692" lon="11.874242253822516"><ele>576.0</ele><time>2026-05-03T10:06:20Z</time></trkpt><trkpt lat="44.00784498769583" lon="11.874335248038008"><ele>576.0</ele><time>2026-05-03T10:06:23Z</time></trkpt><trkpt lat="44.00780307426248" lon="11.87444289020208"><ele>576.0</ele><time>2026-05-03T10:06:29Z</time></trkpt><trkpt lat="44.00777131980125" lon="11.874551170290614"><ele>576.0</ele><time>2026-05-03T10:06:32Z</time></trkpt><trkpt lat="44.00777192672563" lon="11.874661890436881"><ele>576.0</ele><time>2026-05-03T10:06:34Z</time></trkpt><trkpt lat="44.00778047219285" lon="11.874754462412211"><ele>576.0</ele><time>2026-05-03T10:06:36Z</time></trkpt><trkpt lat="44.00778780530347" lon="11.874849098492977"><ele>576.0</ele><time>2026-05-03T10:06:38Z</time></trkpt><trkpt lat="44.007763587103526" lon="11.874932877213377"><ele>576.0</ele><time>2026-05-03T10:06:54.999Z</time></trkpt><trkpt lat="44.0077252136998" lon="11.875073353812613"><ele>576.0</ele><time>2026-05-03T10:07:10.999Z</time></trkpt><trkpt lat="44.00768661169312" lon="11.87516281532433"><ele>576.0</ele><time>2026-05-03T10:07:12.999Z</time></trkpt><trkpt lat="44.00762824343041" lon="11.875256636926185"><ele>576.0</ele><time>2026-05-03T10:07:14.999Z</time></trkpt><trkpt lat="44.00759861208896" lon="11.875358664043496"><ele>576.0</ele><time>2026-05-03T10:07:16.999Z</time></trkpt><trkpt lat="44.00759112199665" lon="11.87546717567559"><ele>577.8571428571429</ele><time>2026-05-03T10:07:20.999Z</time></trkpt><trkpt lat="44.00756156268674" lon="11.875550549092008"><ele>579.7142857142858</ele><time>2026-05-03T10:07:32.999Z</time></trkpt><trkpt lat="44.00756607485006" lon="11.875650114434874"><ele>581.5714285714286</ele><time>2026-05-03T10:07:37Z</time></trkpt><trkpt lat="44.00754239825657" lon="11.87577243780357"><ele>583.4285714285714</ele><time>2026-05-03T10:07:39Z</time></trkpt><trkpt lat="44.007522527863735" lon="11.875867485627033"><ele>585.2857142857142</ele><time>2026-05-03T10:07:41Z</time></trkpt><trkpt lat="44.00752073215758" lon="11.875974357264507"><ele>587.1428571428571</ele><time>2026-05-03T10:08:10Z</time></trkpt><trkpt lat="44.00752371822589" lon="11.876065838258942"><ele>589.0</ele><time>2026-05-03T10:08:12Z</time></trkpt><trkpt lat="44.007498624240164" lon="11.876147306152056"><ele>590.0</ele><time>2026-05-03T10:08:19Z</time></trkpt><trkpt lat="44.007473811744426" lon="11.876244633294055"><ele>591.0</ele><time>2026-05-03T10:08:24Z</time></trkpt><trkpt lat="44.00744575844745" lon="11.87633537846015"><ele>592.0</ele><time>2026-05-03T10:08:52Z</time></trkpt><trkpt lat="44.00744359035947" lon="11.876429869343204"><ele>593.0</ele><time>2026-05-03T10:08:55.999Z</time></trkpt><trkpt lat="44.007373542073815" lon="11.876518161057133"><ele>594.0</ele><time>2026-05-03T10:09:04.999Z</time></trkpt><trkpt lat="44.007331566489185" lon="11.876584886160684"><ele>595.0</ele><time>2026-05-03T10:11:25.999Z</time></trkpt><trkpt lat="44.007256971725006" lon="11.8765519127321"><ele>595.0</ele><time>2026-05-03T10:11:37.999Z</time></trkpt><trkpt lat="44.0071874569751" lon="11.876579208371215"><ele>595.0</ele><time>2026-05-03T10:11:39.999Z</time></trkpt><trkpt lat="44.00708952134158" lon="11.876601048374601"><ele>595.0</ele><time>2026-05-03T10:11:41.999Z</time></trkpt><trkpt lat="44.00701292767557" lon="11.87658503978656"><ele>595.0</ele><time>2026-05-03T10:11:43.999Z</time></trkpt><trkpt lat="44.00694819597172" lon="11.876683803892865"><ele>595.0</ele><time>2026-05-03T10:11:46.999Z</time></trkpt><trkpt lat="44.00694181093334" lon="11.876825196163423"><ele>595.0</ele><time>2026-05-03T10:11:49Z</time></trkpt><trkpt lat="44.00694273040064" lon="11.876934921014705"><ele>592.4</ele><time>2026-05-03T10:11:50Z</time></trkpt><trkpt lat="44.006900715289134" lon="11.877064347446993"><ele>589.8</ele><time>2026-05-03T10:11:52Z</time></trkpt><trkpt lat="44.00685900801072" lon="11.877153992929173"><ele>587.2</ele><time>2026-05-03T10:11:54Z</time></trkpt><trkpt lat="44.00677271349581" lon="11.8772571518101"><ele>584.6</ele><time>2026-05-03T10:11:57Z</time></trkpt><trkpt lat="44.00668313352249" lon="11.877340481707842"><ele>582.0</ele><time>2026-05-03T10:11:59Z</time></trkpt><trkpt lat="44.00655097124759" lon="11.87745591028444"><ele>582.0</ele><time>2026-05-03T10:12:01Z</time></trkpt><trkpt lat="44.006473769181525" lon="11.877522114950663"><ele>582.0</ele><time>2026-05-03T10:12:02Z</time></trkpt><trkpt lat="44.006392773453165" lon="11.877570591115585"><ele>582.0</ele><time>2026-05-03T10:12:03Z</time></trkpt><trkpt lat="44.006332991037965" lon="11.877610501585819"><ele>582.0</ele><time>2026-05-03T10:12:04Z</time></trkpt><trkpt lat="44.00630572456877" lon="11.87773316557202"><ele>582.0</ele><time>2026-05-03T10:12:06Z</time></trkpt><trkpt lat="44.00629897406009" lon="11.877887445904667"><ele>582.0</ele><time>2026-05-03T10:12:08Z</time></trkpt><trkpt lat="44.006209515780796" lon="11.87803228304448"><ele>585.3333333333334</ele><time>2026-05-03T10:12:10Z</time></trkpt><trkpt lat="44.00616926168817" lon="11.878101027671281"><ele>588.6666666666666</ele><time>2026-05-03T10:12:11Z</time></trkpt><trkpt lat="44.006103741766594" lon="11.8782155323781"><ele>592.0</ele><time>2026-05-03T10:12:13Z</time></trkpt><trkpt lat="44.006077842610274" lon="11.8782971006063"><ele>595.3333333333333</ele><time>2026-05-03T10:12:14Z</time></trkpt><trkpt lat="44.006046119967756" lon="11.878384290522742"><ele>598.6666666666666</ele><time>2026-05-03T10:12:15Z</time></trkpt><trkpt lat="44.00600400034957" lon="11.878527035324502"><ele>602.0</ele><time>2026-05-03T10:12:17Z</time></trkpt><trkpt lat="44.00595114720373" lon="11.878620058117042"><ele>601.0</ele><time>2026-05-03T10:12:19Z</time></trkpt><trkpt lat="44.00589281603842" lon="11.878691558807816"><ele>600.0</ele><time>2026-05-03T10:12:21Z</time></trkpt><trkpt lat="44.00576180453851" lon="11.878692750250268"><ele>599.0</ele><time>2026-05-03T10:12:24Z</time></trkpt><trkpt lat="44.00569734274804" lon="11.87868982292625"><ele>598.0</ele><time>2026-05-03T10:12:25Z</time></trkpt><trkpt lat="44.00562677076008" lon="11.878766630516363"><ele>597.0</ele><time>2026-05-03T10:12:28Z</time></trkpt><trkpt lat="44.00555832315145" lon="11.878772425415475"><ele>596.0</ele><time>2026-05-03T10:12:30Z</time></trkpt><trkpt lat="44.005457816744546" lon="11.878706355468392"><ele>596.0</ele><time>2026-05-03T10:12:32Z</time></trkpt><trkpt lat="44.005361743071944" lon="11.878673641411028"><ele>596.0</ele><time>2026-05-03T10:12:34Z</time></trkpt><trkpt lat="44.005288329281754" lon="11.878648076936091"><ele>596.0</ele><time>2026-05-03T10:12:35Z</time></trkpt><trkpt lat="44.00521824004704" lon="11.878621767380904"><ele>596.0</ele><time>2026-05-03T10:12:36Z</time></trkpt><trkpt lat="44.005146495692394" lon="11.878607148131627"><ele>596.0</ele><time>2026-05-03T10:12:37Z</time></trkpt><trkpt lat="44.00507437967628" lon="11.8785789908757"><ele>596.0</ele><time>2026-05-03T10:12:38Z</time></trkpt><trkpt lat="44.004988368154415" lon="11.878532430698005"><ele>594.6</ele><time>2026-05-03T10:12:40Z</time></trkpt><trkpt lat="44.004884573850255" lon="11.87838402577953"><ele>593.2</ele><time>2026-05-03T10:12:42Z</time></trkpt><trkpt lat="44.004819585097884" lon="11.878303484666596"><ele>591.8</ele><time>2026-05-03T10:12:43Z</time></trkpt><trkpt lat="44.00476645192853" lon="11.878241639535643"><ele>590.4</ele><time>2026-05-03T10:12:44Z</time></trkpt><trkpt lat="44.00468494990366" lon="11.878159480395698"><ele>589.0</ele><time>2026-05-03T10:12:45Z</time></trkpt><trkpt lat="44.004613763570994" lon="11.878080443289232"><ele>589.0</ele><time>2026-05-03T10:12:46Z</time></trkpt><trkpt lat="44.00455477687098" lon="11.878009432583763"><ele>589.0</ele><time>2026-05-03T10:12:47Z</time></trkpt><trkpt lat="44.00443189784187" lon="11.87796220534769"><ele>589.0</ele><time>2026-05-03T10:12:49Z</time></trkpt><trkpt lat="44.00435866414654" lon="11.877934107165602"><ele>589.0</ele><time>2026-05-03T10:12:50Z</time></trkpt><trkpt lat="44.00428908050616" lon="11.877910543539508"><ele>589.0</ele><time>2026-05-03T10:12:51Z</time></trkpt><trkpt lat="44.00419821154559" lon="11.877875152630304"><ele>589.0</ele><time>2026-05-03T10:12:52Z</time></trkpt><trkpt lat="44.00411121051768" lon="11.87784213049264"><ele>587.0</ele><time>2026-05-03T10:12:53Z</time></trkpt><trkpt lat="44.004038324671654" lon="11.877819849848624"><ele>585.0</ele><time>2026-05-03T10:12:54Z</time></trkpt><trkpt lat="44.00397621411964" lon="11.877789008997128"><ele>583.0</ele><time>2026-05-03T10:12:55Z</time></trkpt><trkpt lat="44.00386752478201" lon="11.877747071566361"><ele>581.0</ele><time>2026-05-03T10:12:57Z</time></trkpt><trkpt lat="44.003757900781864" lon="11.877651239285374"><ele>579.0</ele><time>2026-05-03T10:12:59Z</time></trkpt><trkpt lat="44.00370300634484" lon="11.877591041652892"><ele>584.3333333333334</ele><time>2026-05-03T10:12:59.999Z</time></trkpt><trkpt lat="44.003649908545164" lon="11.8775381222265"><ele>589.6666666666666</ele><time>2026-05-03T10:13:00.999Z</time></trkpt><trkpt lat="44.003588061805054" lon="11.877498796700472"><ele>595.0</ele><time>2026-05-03T10:13:01.999Z</time></trkpt><trkpt lat="44.00351854952463" lon="11.87747040147021"><ele>600.3333333333333</ele><time>2026-05-03T10:13:02.999Z</time></trkpt><trkpt lat="44.00345401679708" lon="11.877427551395037"><ele>605.6666666666666</ele><time>2026-05-03T10:13:03.999Z</time></trkpt><trkpt lat="44.00338193666469" lon="11.8773662416754"><ele>611.0</ele><time>2026-05-03T10:13:04.999Z</time></trkpt><trkpt lat="44.003269304082174" lon="11.87727992545466"><ele>611.1666666666666</ele><time>2026-05-03T10:13:06.999Z</time></trkpt><trkpt lat="44.003208227776284" lon="11.87721349587276"><ele>611.3333333333333</ele><time>2026-05-03T10:13:07.999Z</time></trkpt><trkpt lat="44.003098692476925" lon="11.877099061848737"><ele>611.5</ele><time>2026-05-03T10:13:09.999Z</time></trkpt><trkpt lat="44.00304318509291" lon="11.877020718920718"><ele>611.6666666666666</ele><time>2026-05-03T10:13:10.999Z</time></trkpt><trkpt lat="44.00299423693023" lon="11.87694088361304"><ele>611.8333333333334</ele><time>2026-05-03T10:13:11.999Z</time></trkpt><trkpt lat="44.002975591087264" lon="11.876835322234815"><ele>612.0</ele><time>2026-05-03T10:13:12.999Z</time></trkpt><trkpt lat="44.00294608097941" lon="11.876713533097815"><ele>614.6</ele><time>2026-05-03T10:13:13.999Z</time></trkpt><trkpt lat="44.00288862105654" lon="11.8766035847407"><ele>617.2</ele><time>2026-05-03T10:13:14.999Z</time></trkpt><trkpt lat="44.00282276063745" lon="11.876498786303813"><ele>619.8</ele><time>2026-05-03T10:13:15.999Z</time></trkpt><trkpt lat="44.00276530786354" lon="11.876428702749974"><ele>622.4</ele><time>2026-05-03T10:13:16.999Z</time></trkpt><trkpt lat="44.00268834407959" lon="11.876408297379358"><ele>625.0</ele><time>2026-05-03T10:13:17.999Z</time></trkpt><trkpt lat="44.00259184732669" lon="11.87643293380848"><ele>625.0</ele><time>2026-05-03T10:13:18.999Z</time></trkpt><trkpt lat="44.002523199236386" lon="11.876442923878844"><ele>625.0</ele><time>2026-05-03T10:13:19.999Z</time></trkpt><trkpt lat="44.00239775276634" lon="11.876378959838451"><ele>625.0</ele><time>2026-05-03T10:13:21.999Z</time></trkpt><trkpt lat="44.00231256197692" lon="11.876343895844025"><ele>625.0</ele><time>2026-05-03T10:13:22.999Z</time></trkpt><trkpt lat="44.00223546755145" lon="11.876312917625485"><ele>625.0</ele><time>2026-05-03T10:13:23.999Z</time></trkpt><trkpt lat="44.00217052928708" lon="11.876250920614526"><ele>626.6</ele><time>2026-05-03T10:13:24.999Z</time></trkpt><trkpt lat="44.002092660896906" lon="11.87615237216532"><ele>628.2</ele><time>2026-05-03T10:13:25.999Z</time></trkpt><trkpt lat="44.002016250973455" lon="11.876044953120376"><ele>629.8</ele><time>2026-05-03T10:13:26.999Z</time></trkpt><trkpt lat="44.00196161818482" lon="11.8759409204105"><ele>631.4</ele><time>2026-05-03T10:13:27.999Z</time></trkpt><trkpt lat="44.00189553821553" lon="11.875820357793252"><ele>633.0</ele><time>2026-05-03T10:13:28.999Z</time></trkpt><trkpt lat="44.00184033196884" lon="11.875722184260178"><ele>633.8</ele><time>2026-05-03T10:13:29.999Z</time></trkpt><trkpt lat="44.001782457256404" lon="11.875636572827894"><ele>634.5999999999999</ele><time>2026-05-03T10:13:30.999Z</time></trkpt><trkpt lat="44.00171016406749" lon="11.875548368003505"><ele>635.4000000000001</ele><time>2026-05-03T10:13:31.999Z</time></trkpt><trkpt lat="44.00163211410655" lon="11.87544253145983"><ele>636.2</ele><time>2026-05-03T10:13:32.999Z</time></trkpt><trkpt lat="44.0015657653968" lon="11.875356263533352"><ele>637.0</ele><time>2026-05-03T10:13:33.999Z</time></trkpt><trkpt lat="44.001493217964274" lon="11.875252364252407"><ele>635.8000000000001</ele><time>2026-05-03T10:13:34.999Z</time></trkpt><trkpt lat="44.001403060100394" lon="11.875186072552346"><ele>634.6</ele><time>2026-05-03T10:13:35.999Z</time></trkpt><trkpt lat="44.001332872953455" lon="11.875097942613518"><ele>633.4000000000001</ele><time>2026-05-03T10:13:36.999Z</time></trkpt><trkpt lat="44.00118783019599" lon="11.874979129347688"><ele>632.2</ele><time>2026-05-03T10:13:38.999Z</time></trkpt><trkpt lat="44.00111525999968" lon="11.874927800858307"><ele>631.0</ele><time>2026-05-03T10:13:39.999Z</time></trkpt><trkpt lat="44.00104120200911" lon="11.874884264265535"><ele>631.0</ele><time>2026-05-03T10:13:40.999Z</time></trkpt><trkpt lat="44.0009172124767" lon="11.874812484487546"><ele>631.0</ele><time>2026-05-03T10:13:42.999Z</time></trkpt><trkpt lat="44.00083124884012" lon="11.874773539855502"><ele>631.0</ele><time>2026-05-03T10:13:43.999Z</time></trkpt><trkpt lat="44.00074326131771" lon="11.874749652212444"><ele>631.0</ele><time>2026-05-03T10:13:44.999Z</time></trkpt><trkpt lat="44.00066537674497" lon="11.874689450155298"><ele>631.0</ele><time>2026-05-03T10:13:45.999Z</time></trkpt><trkpt lat="44.00058839176603" lon="11.874627240743528"><ele>630.5714285714286</ele><time>2026-05-03T10:13:46.999Z</time></trkpt><trkpt lat="44.000526788889495" lon="11.874575161655578"><ele>630.1428571428571</ele><time>2026-05-03T10:13:47.999Z</time></trkpt><trkpt lat="44.00046519809008" lon="11.874519717176659"><ele>629.7142857142857</ele><time>2026-05-03T10:13:48.999Z</time></trkpt><trkpt lat="44.00043548423426" lon="11.87443282554112"><ele>629.2857142857142</ele><time>2026-05-03T10:13:49.999Z</time></trkpt><trkpt lat="44.00038586098657" lon="11.874330388724188"><ele>628.8571428571429</ele><time>2026-05-03T10:13:50.999Z</time></trkpt><trkpt lat="44.000354098422115" lon="11.87423819695573"><ele>628.4285714285713</ele><time>2026-05-03T10:13:51.999Z</time></trkpt><trkpt lat="44.00032957754887" lon="11.874152179138878"><ele>628.0</ele><time>2026-05-03T10:13:52.999Z</time></trkpt><trkpt lat="44.00028650697763" lon="11.873997437988669"><ele>628.0</ele><time>2026-05-03T10:13:55Z</time></trkpt><trkpt lat="44.000264148759726" lon="11.873914649730379"><ele>628.0</ele><time>2026-05-03T10:13:57Z</time></trkpt><trkpt lat="44.00018520184434" lon="11.873913629457727"><ele>628.0</ele><time>2026-05-03T10:13:59Z</time></trkpt><trkpt lat="44.000072754044936" lon="11.873923550561207"><ele>628.0</ele><time>2026-05-03T10:14:01Z</time></trkpt><trkpt lat="43.99999093038833" lon="11.873922508461142"><ele>628.0</ele><time>2026-05-03T10:14:02Z</time></trkpt><trkpt lat="43.99992059443988" lon="11.873935667893143"><ele>628.0</ele><time>2026-05-03T10:14:03Z</time></trkpt><trkpt lat="43.99985340653746" lon="11.873933022887767"><ele>628.0</ele><time>2026-05-03T10:14:04Z</time></trkpt><trkpt lat="43.99978083431237" lon="11.873941093659328"><ele>628.0</ele><time>2026-05-03T10:14:05Z</time></trkpt><trkpt lat="43.99971557459113" lon="11.873941315418616"><ele>628.0</ele><time>2026-05-03T10:14:06Z</time></trkpt><trkpt lat="43.99960348951624" lon="11.873939966953213"><ele>628.0</ele><time>2026-05-03T10:14:08Z</time></trkpt><trkpt lat="43.99952630154042" lon="11.873967743333319"><ele>628.0</ele><time>2026-05-03T10:14:10Z</time></trkpt><trkpt lat="43.99945281492343" lon="11.874021864003899"><ele>628.0</ele><time>2026-05-03T10:14:13Z</time></trkpt><trkpt lat="43.99939756621985" lon="11.874065928564706"><ele>628.0</ele><time>2026-05-03T10:14:15Z</time></trkpt><trkpt lat="43.999330042552266" lon="11.874092543811749"><ele>628.0</ele><time>2026-05-03T10:14:18Z</time></trkpt><trkpt lat="43.999262172239895" lon="11.874125938525085"><ele>628.0</ele><time>2026-05-03T10:14:20Z</time></trkpt><trkpt lat="43.99916701420333" lon="11.874178885444298"><ele>628.0</ele><time>2026-05-03T10:14:22Z</time></trkpt><trkpt lat="43.9991033925123" lon="11.874199642602916"><ele>628.0</ele><time>2026-05-03T10:14:23Z</time></trkpt><trkpt lat="43.99899597640203" lon="11.87423292448835"><ele>628.0</ele><time>2026-05-03T10:14:25Z</time></trkpt><trkpt lat="43.99888640443987" lon="11.874239655591944"><ele>628.1666666666667</ele><time>2026-05-03T10:14:27Z</time></trkpt><trkpt lat="43.998806775982274" lon="11.874242613238577"><ele>628.3333333333334</ele><time>2026-05-03T10:14:28Z</time></trkpt><trkpt lat="43.99871292733475" lon="11.874253151458639"><ele>628.5</ele><time>2026-05-03T10:14:29Z</time></trkpt><trkpt lat="43.9986223082338" lon="11.874261116254168"><ele>628.6666666666666</ele><time>2026-05-03T10:14:30Z</time></trkpt><trkpt lat="43.99854300504041" lon="11.874264650735444"><ele>628.8333333333333</ele><time>2026-05-03T10:14:31Z</time></trkpt><trkpt lat="43.99845759017486" lon="11.874253590671167"><ele>629.0</ele><time>2026-05-03T10:14:33Z</time></trkpt><trkpt lat="43.99840623065869" lon="11.874188401023568"><ele>630.5</ele><time>2026-05-03T10:14:40Z</time></trkpt><trkpt lat="43.99832707392414" lon="11.874141541592847"><ele>632.0</ele><time>2026-05-03T10:14:45Z</time></trkpt><trkpt lat="43.998257998140545" lon="11.874084571539578"><ele>633.5</ele><time>2026-05-03T10:14:47Z</time></trkpt><trkpt lat="43.998205366914505" lon="11.874009862589086"><ele>635.0</ele><time>2026-05-03T10:14:50Z</time></trkpt><trkpt lat="43.99814449725688" lon="11.873933952758042"><ele>636.5</ele><time>2026-05-03T10:14:52Z</time></trkpt><trkpt lat="43.99808110011878" lon="11.873901326887971"><ele>638.0</ele><time>2026-05-03T10:14:54Z</time></trkpt><trkpt lat="43.99800267483597" lon="11.873870444117514"><ele>638.0</ele><time>2026-05-03T10:14:57Z</time></trkpt><trkpt lat="43.9979239096292" lon="11.873762472580566"><ele>638.0</ele><time>2026-05-03T10:14:59Z</time></trkpt><trkpt lat="43.99786055701199" lon="11.873623236536972"><ele>638.0</ele><time>2026-05-03T10:15:00.999Z</time></trkpt><trkpt lat="43.99781262637981" lon="11.873507413657357"><ele>638.0</ele><time>2026-05-03T10:15:02.999Z</time></trkpt><trkpt lat="43.99774074084705" lon="11.873404381348383"><ele>638.0</ele><time>2026-05-03T10:15:04.999Z</time></trkpt><trkpt lat="43.99768984818012" lon="11.873271790080299"><ele>636.1666666666666</ele><time>2026-05-03T10:15:06.999Z</time></trkpt><trkpt lat="43.99763846741118" lon="11.873175083763105"><ele>634.3333333333333</ele><time>2026-05-03T10:15:08.999Z</time></trkpt><trkpt lat="43.997592647771626" lon="11.873079005643612"><ele>632.5</ele><time>2026-05-03T10:15:10.999Z</time></trkpt><trkpt lat="43.99753742752743" lon="11.872991978237257"><ele>630.6666666666666</ele><time>2026-05-03T10:15:12.999Z</time></trkpt><trkpt lat="43.99748923444275" lon="11.872912104689524"><ele>628.8333333333334</ele><time>2026-05-03T10:15:14.999Z</time></trkpt><trkpt lat="43.99739087807626" lon="11.872882539061925"><ele>627.0</ele><time>2026-05-03T10:15:16.999Z</time></trkpt><trkpt lat="43.99730111502532" lon="11.872821036700742"><ele>631.6666666666666</ele><time>2026-05-03T10:15:18.999Z</time></trkpt><trkpt lat="43.99724011884006" lon="11.872768721952605"><ele>636.3333333333334</ele><time>2026-05-03T10:15:19.999Z</time></trkpt><trkpt lat="43.99718080913226" lon="11.872723145289282"><ele>641.0</ele><time>2026-05-03T10:15:20.999Z</time></trkpt><trkpt lat="43.99712113252821" lon="11.872676167462377"><ele>645.6666666666667</ele><time>2026-05-03T10:15:21.999Z</time></trkpt><trkpt lat="43.99706681336854" lon="11.872606671819158"><ele>650.3333333333334</ele><time>2026-05-03T10:15:22.999Z</time></trkpt><trkpt lat="43.99696349633908" lon="11.872570374456542"><ele>655.0</ele><time>2026-05-03T10:15:24.999Z</time></trkpt><trkpt lat="43.996879429898826" lon="11.872474270394596"><ele>655.0</ele><time>2026-05-03T10:15:26.999Z</time></trkpt><trkpt lat="43.99679095252904" lon="11.872414072692733"><ele>655.0</ele><time>2026-05-03T10:15:28.999Z</time></trkpt><trkpt lat="43.99670707245085" lon="11.872313560394"><ele>655.0</ele><time>2026-05-03T10:15:30.999Z</time></trkpt><trkpt lat="43.99660446805655" lon="11.872258313460144"><ele>655.0</ele><time>2026-05-03T10:15:32.999Z</time></trkpt><trkpt lat="43.99652538767397" lon="11.87221361420631"><ele>655.0</ele><time>2026-05-03T10:15:33.999Z</time></trkpt><trkpt lat="43.99645243874655" lon="11.872144638232896"><ele>655.3333333333334</ele><time>2026-05-03T10:15:34.999Z</time></trkpt><trkpt lat="43.996382674047275" lon="11.872078241985506"><ele>655.6666666666667</ele><time>2026-05-03T10:15:35.999Z</time></trkpt><trkpt lat="43.99632330967" lon="11.872020064971641"><ele>656.0</ele><time>2026-05-03T10:15:36.999Z</time></trkpt><trkpt lat="43.9962509651523" lon="11.871957589243864"><ele>656.3333333333334</ele><time>2026-05-03T10:15:37.999Z</time></trkpt><trkpt lat="43.99617656277575" lon="11.87189152944017"><ele>656.6666666666666</ele><time>2026-05-03T10:15:38.999Z</time></trkpt><trkpt lat="43.996081130007155" lon="11.871838867329153"><ele>657.0</ele><time>2026-05-03T10:15:39.999Z</time></trkpt><trkpt lat="43.99599214255376" lon="11.87181053590175"><ele>657.0</ele><time>2026-05-03T10:15:40.999Z</time></trkpt><trkpt lat="43.99592079438428" lon="11.871788807600517"><ele>657.0</ele><time>2026-05-03T10:15:41.999Z</time></trkpt><trkpt lat="43.995848198032434" lon="11.871753996875547"><ele>657.0</ele><time>2026-05-03T10:15:43.999Z</time></trkpt><trkpt lat="43.995754735624146" lon="11.871713913034052"><ele>657.0</ele><time>2026-05-03T10:15:46.999Z</time></trkpt><trkpt lat="43.995643206958825" lon="11.871645885187094"><ele>657.0</ele><time>2026-05-03T10:15:48.999Z</time></trkpt><trkpt lat="43.99553894972607" lon="11.871569608989146"><ele>657.0</ele><time>2026-05-03T10:15:50.999Z</time></trkpt><trkpt lat="43.99539051002843" lon="11.871589388272241"><ele>657.0</ele><time>2026-05-03T10:15:52.999Z</time></trkpt><trkpt lat="43.99533665543442" lon="11.871501428898213"><ele>657.0</ele><time>2026-05-03T10:15:54.999Z</time></trkpt><trkpt lat="43.99525099900089" lon="11.871408903283152"><ele>657.0</ele><time>2026-05-03T10:15:56.999Z</time></trkpt><trkpt lat="43.99517174775548" lon="11.871362415727448"><ele>657.0</ele><time>2026-05-03T10:15:57.999Z</time></trkpt><trkpt lat="43.995102690766025" lon="11.871309302688172"><ele>657.0</ele><time>2026-05-03T10:15:58.999Z</time></trkpt><trkpt lat="43.995050033310235" lon="11.871240555087812"><ele>657.0</ele><time>2026-05-03T10:15:59.999Z</time></trkpt><trkpt lat="43.99497092757294" lon="11.871169876282162"><ele>657.0</ele><time>2026-05-03T10:16:01Z</time></trkpt><trkpt lat="43.99486763060195" lon="11.871115999129893"><ele>657.0</ele><time>2026-05-03T10:16:02Z</time></trkpt><trkpt lat="43.994763789243514" lon="11.871070946971289"><ele>657.0</ele><time>2026-05-03T10:16:03Z</time></trkpt><trkpt lat="43.99469752699443" lon="11.871003491187489"><ele>655.0</ele><time>2026-05-03T10:16:04Z</time></trkpt><trkpt lat="43.99460321267922" lon="11.870928130135603"><ele>653.0</ele><time>2026-05-03T10:16:06Z</time></trkpt><trkpt lat="43.99451980678864" lon="11.870848030885378"><ele>651.0</ele><time>2026-05-03T10:16:08Z</time></trkpt><trkpt lat="43.99444808440039" lon="11.870778421437782"><ele>649.0</ele><time>2026-05-03T10:16:10Z</time></trkpt><trkpt lat="43.9943932977478" lon="11.870717986052135"><ele>647.0</ele><time>2026-05-03T10:16:11Z</time></trkpt><trkpt lat="43.994338689919196" lon="11.870664552394643"><ele>645.0</ele><time>2026-05-03T10:16:12Z</time></trkpt><trkpt lat="43.99428159286879" lon="11.870613474756018"><ele>645.0</ele><time>2026-05-03T10:16:13Z</time></trkpt><trkpt lat="43.994187794177456" lon="11.870537217400098"><ele>645.0</ele><time>2026-05-03T10:16:15Z</time></trkpt><trkpt lat="43.994117480713776" lon="11.87047272199767"><ele>645.0</ele><time>2026-05-03T10:16:17Z</time></trkpt><trkpt lat="43.994040406748695" lon="11.870388042341412"><ele>645.0</ele><time>2026-05-03T10:16:20Z</time></trkpt><trkpt lat="43.99381331340303" lon="11.870712261392873"><ele>648.3333333333334</ele><time>2026-05-03T10:16:21Z</time></trkpt><trkpt lat="43.993721649416216" lon="11.870722651069633"><ele>651.6666666666666</ele><time>2026-05-03T10:16:23Z</time></trkpt><trkpt lat="43.99363213720182" lon="11.870680356459332"><ele>655.0</ele><time>2026-05-03T10:16:26Z</time></trkpt><trkpt lat="43.9935505097254" lon="11.870725006567433"><ele>658.3333333333333</ele><time>2026-05-03T10:16:28Z</time></trkpt><trkpt lat="43.9934821914612" lon="11.8707197704353"><ele>661.6666666666666</ele><time>2026-05-03T10:16:31Z</time></trkpt><trkpt lat="43.99341027572558" lon="11.870672459798193"><ele>665.0</ele><time>2026-05-03T10:16:36Z</time></trkpt><trkpt lat="43.99336013781306" lon="11.870613128215602"><ele>668.8333333333333</ele><time>2026-05-03T10:16:38Z</time></trkpt><trkpt lat="43.993325207217076" lon="11.870499910723407"><ele>672.6666666666666</ele><time>2026-05-03T10:16:42Z</time></trkpt><trkpt lat="43.99327177443622" lon="11.870410190657827"><ele>676.5</ele><time>2026-05-03T10:16:44Z</time></trkpt><trkpt lat="43.99323882424015" lon="11.870318373100016"><ele>680.3333333333334</ele><time>2026-05-03T10:16:46Z</time></trkpt><trkpt lat="43.99316610367923" lon="11.870255467948274"><ele>684.1666666666667</ele><time>2026-05-03T10:16:51Z</time></trkpt><trkpt lat="43.993092626937404" lon="11.870239952098423"><ele>688.0</ele><time>2026-05-03T10:16:59Z</time></trkpt><trkpt lat="43.99300723502483" lon="11.870169699187125"><ele>688.0</ele><time>2026-05-03T10:17:02Z</time></trkpt><trkpt lat="43.9929188037747" lon="11.87012739654639"><ele>688.0</ele><time>2026-05-03T10:17:05Z</time></trkpt><trkpt lat="43.992810266088995" lon="11.87012866303993"><ele>688.0</ele><time>2026-05-03T10:17:07Z</time></trkpt><trkpt lat="43.99272756613994" lon="11.870083262482613"><ele>688.0</ele><time>2026-05-03T10:17:09Z</time></trkpt><trkpt lat="43.992629738393205" lon="11.870053992158374"><ele>688.0</ele><time>2026-05-03T10:17:10.999Z</time></trkpt><trkpt lat="43.99255956823236" lon="11.869998150048723"><ele>692.0</ele><time>2026-05-03T10:17:13.999Z</time></trkpt><trkpt lat="43.99250074343685" lon="11.869947893765794"><ele>696.0</ele><time>2026-05-03T10:17:15.999Z</time></trkpt><trkpt lat="43.992425972870436" lon="11.86990960066879"><ele>700.0</ele><time>2026-05-03T10:17:17.999Z</time></trkpt><trkpt lat="43.99231538436029" lon="11.86984844906807"><ele>704.0</ele><time>2026-05-03T10:17:19.999Z</time></trkpt><trkpt lat="43.99221788145097" lon="11.869813416712363"><ele>708.0</ele><time>2026-05-03T10:17:21.999Z</time></trkpt><trkpt lat="43.992087125012446" lon="11.86977948904671"><ele>708.0</ele><time>2026-05-03T10:17:23.999Z</time></trkpt><trkpt lat="43.99202350327214" lon="11.869740848299765"><ele>708.0</ele><time>2026-05-03T10:17:24.999Z</time></trkpt><trkpt lat="43.99195335137934" lon="11.86968266666939"><ele>708.0</ele><time>2026-05-03T10:17:25.999Z</time></trkpt><trkpt lat="43.99186830435985" lon="11.869634751164092"><ele>708.0</ele><time>2026-05-03T10:17:26.999Z</time></trkpt><trkpt lat="43.99180839518681" lon="11.869594643084808"><ele>708.0</ele><time>2026-05-03T10:17:27.999Z</time></trkpt><trkpt lat="43.991739426140995" lon="11.869512691885468"><ele>708.0</ele><time>2026-05-03T10:17:29.999Z</time></trkpt><trkpt lat="43.991724788013656" lon="11.869419104323956"><ele>705.0</ele><time>2026-05-03T10:17:31.999Z</time></trkpt><trkpt lat="43.99165202308087" lon="11.869399528489625"><ele>702.0</ele><time>2026-05-03T10:17:33.999Z</time></trkpt><trkpt lat="43.99156900129221" lon="11.869412028248348"><ele>699.0</ele><time>2026-05-03T10:17:35.999Z</time></trkpt><trkpt lat="43.991507197295284" lon="11.86938818936975"><ele>696.0</ele><time>2026-05-03T10:17:41.999Z</time></trkpt><trkpt lat="43.991428363357564" lon="11.869385013609907"><ele>693.0</ele><time>2026-05-03T10:18:56Z</time></trkpt><trkpt lat="43.99135416447874" lon="11.86935453779289"><ele>690.0</ele><time>2026-05-03T10:19:02Z</time></trkpt><trkpt lat="43.99126060507277" lon="11.869352943481829"><ele>690.0</ele><time>2026-05-03T10:19:04Z</time></trkpt><trkpt lat="43.99116740569345" lon="11.869347321571489"><ele>690.0</ele><time>2026-05-03T10:19:07Z</time></trkpt><trkpt lat="43.991099338913415" lon="11.8693576123648"><ele>690.0</ele><time>2026-05-03T10:19:08Z</time></trkpt><trkpt lat="43.99104997043748" lon="11.869256628625987"><ele>690.0</ele><time>2026-05-03T10:19:10Z</time></trkpt><trkpt lat="43.990989194992935" lon="11.869204724950414"><ele>690.0</ele><time>2026-05-03T10:19:12Z</time></trkpt><trkpt lat="43.990928710513174" lon="11.869166875976795"><ele>690.0</ele><time>2026-05-03T10:19:13Z</time></trkpt><trkpt lat="43.99084540071941" lon="11.869057298849073"><ele>692.6666666666666</ele><time>2026-05-03T10:19:15Z</time></trkpt><trkpt lat="43.990749032156934" lon="11.86902662445399"><ele>695.3333333333334</ele><time>2026-05-03T10:19:16.999Z</time></trkpt><trkpt lat="43.99069365583346" lon="11.8689721403415"><ele>698.0</ele><time>2026-05-03T10:19:18.999Z</time></trkpt><trkpt lat="43.99064116439926" lon="11.868920184239574"><ele>700.6666666666667</ele><time>2026-05-03T10:19:20.999Z</time></trkpt><trkpt lat="43.990575843325466" lon="11.868903684622914"><ele>703.3333333333334</ele><time>2026-05-03T10:19:22.999Z</time></trkpt><trkpt lat="43.99049225715132" lon="11.868941061671793"><ele>706.0</ele><time>2026-05-03T10:19:26.999Z</time></trkpt><trkpt lat="43.99036724956997" lon="11.868980855489944"><ele>706.0</ele><time>2026-05-03T10:19:28.999Z</time></trkpt><trkpt lat="43.990265952301264" lon="11.869045649733073"><ele>706.0</ele><time>2026-05-03T10:19:30.999Z</time></trkpt><trkpt lat="43.99019020748489" lon="11.8690457405383"><ele>706.0</ele><time>2026-05-03T10:19:33.999Z</time></trkpt><trkpt lat="43.98984180093447" lon="11.869082221167988"><ele>708.0</ele><time>2026-05-03T10:19:37.999Z</time></trkpt><trkpt lat="43.98977793130272" lon="11.8690741232456"><ele>710.0</ele><time>2026-05-03T10:19:38.999Z</time></trkpt><trkpt lat="43.9896957473154" lon="11.869037730073309"><ele>712.0</ele><time>2026-05-03T10:19:40.999Z</time></trkpt><trkpt lat="43.98962095555026" lon="11.86897996454845"><ele>714.0</ele><time>2026-05-03T10:19:42.999Z</time></trkpt><trkpt lat="43.989522909134244" lon="11.868913575773107"><ele>716.0</ele><time>2026-05-03T10:19:44.999Z</time></trkpt><trkpt lat="43.98943890521918" lon="11.86885459659301"><ele>718.0</ele><time>2026-05-03T10:19:46.999Z</time></trkpt><trkpt lat="43.98934495675485" lon="11.868827120917835"><ele>718.0</ele><time>2026-05-03T10:19:48.999Z</time></trkpt><trkpt lat="43.98928808315138" lon="11.86886781127185"><ele>718.0</ele><time>2026-05-03T10:19:51.999Z</time></trkpt><trkpt lat="43.989229027023526" lon="11.868901603674763"><ele>718.0</ele><time>2026-05-03T10:19:54.999Z</time></trkpt><trkpt lat="43.98917157967135" lon="11.86901226956347"><ele>718.0</ele><time>2026-05-03T10:19:57.999Z</time></trkpt><trkpt lat="43.98913771640895" lon="11.869135813194625"><ele>718.0</ele><time>2026-05-03T10:20:00.999Z</time></trkpt><trkpt lat="43.989093293874255" lon="11.869198065238592"><ele>718.0</ele><time>2026-05-03T10:20:04.999Z</time></trkpt><trkpt lat="43.98907203679621" lon="11.86929158818573"><ele>716.8571428571429</ele><time>2026-05-03T10:20:08.999Z</time></trkpt><trkpt lat="43.98902795568448" lon="11.869389428809344"><ele>715.7142857142858</ele><time>2026-05-03T10:20:13Z</time></trkpt><trkpt lat="43.98898548362476" lon="11.869466768280029"><ele>714.5714285714286</ele><time>2026-05-03T10:20:17Z</time></trkpt><trkpt lat="43.98896656138315" lon="11.869562492903192"><ele>713.4285714285714</ele><time>2026-05-03T10:20:20Z</time></trkpt><trkpt lat="43.98890381833247" lon="11.869594809992366"><ele>712.2857142857143</ele><time>2026-05-03T10:20:23Z</time></trkpt><trkpt lat="43.9888266984621" lon="11.869629598011073"><ele>711.1428571428571</ele><time>2026-05-03T10:20:25Z</time></trkpt><trkpt lat="43.98875922141121" lon="11.869608757813428"><ele>710.0</ele><time>2026-05-03T10:20:32Z</time></trkpt><trkpt lat="43.98872210350635" lon="11.869522191533244"><ele>710.0</ele><time>2026-05-03T10:20:37Z</time></trkpt><trkpt lat="43.98864620882371" lon="11.869579778122537"><ele>710.0</ele><time>2026-05-03T10:20:40Z</time></trkpt><trkpt lat="43.988573438233296" lon="11.869588498739732"><ele>710.0</ele><time>2026-05-03T10:20:43Z</time></trkpt><trkpt lat="43.98850952389278" lon="11.869598183285172"><ele>710.0</ele><time>2026-05-03T10:20:45Z</time></trkpt><trkpt lat="43.98844362439666" lon="11.86966035023592"><ele>710.0</ele><time>2026-05-03T10:20:47Z</time></trkpt><trkpt lat="43.98835365091213" lon="11.86968986966425"><ele>710.0</ele><time>2026-05-03T10:20:49Z</time></trkpt><trkpt lat="43.98825788990355" lon="11.869702159088812"><ele>710.1666666666666</ele><time>2026-05-03T10:20:55Z</time></trkpt><trkpt lat="43.988142208355136" lon="11.8697057276054"><ele>710.3333333333333</ele><time>2026-05-03T10:20:57Z</time></trkpt><trkpt lat="43.98807001223694" lon="11.869714302712651"><ele>710.5</ele><time>2026-05-03T10:20:59Z</time></trkpt><trkpt lat="43.98806115757457" lon="11.869802336135242"><ele>710.6666666666666</ele><time>2026-05-03T10:21:02Z</time></trkpt><trkpt lat="43.98798660578124" lon="11.869807125895246"><ele>710.8333333333334</ele><time>2026-05-03T10:21:08Z</time></trkpt><trkpt lat="43.988009849350824" lon="11.869907253552944"><ele>711.0</ele><time>2026-05-03T10:21:17Z</time></trkpt><trkpt lat="43.98803584738758" lon="11.869987059102213"><ele>711.0</ele><time>2026-05-03T10:21:19Z</time></trkpt><trkpt lat="43.98808318245644" lon="11.870085799053452"><ele>711.0</ele><time>2026-05-03T10:21:44.999Z</time></trkpt><trkpt lat="43.988140060587504" lon="11.870172768905723"><ele>711.0</ele><time>2026-05-03T10:21:46.999Z</time></trkpt><trkpt lat="43.98824038986824" lon="11.870261813829961"><ele>711.0</ele><time>2026-05-03T10:21:48.999Z</time></trkpt><trkpt lat="43.98835046057269" lon="11.870337192450018"><ele>711.0</ele><time>2026-05-03T10:21:50.999Z</time></trkpt><trkpt lat="43.98842751746436" lon="11.870362064078215"><ele>708.1666666666666</ele><time>2026-05-03T10:21:51.999Z</time></trkpt><trkpt lat="43.98850577094824" lon="11.870377882591576"><ele>705.3333333333334</ele><time>2026-05-03T10:21:52.999Z</time></trkpt><trkpt lat="43.988589114005364" lon="11.870377090032559"><ele>702.5</ele><time>2026-05-03T10:21:53.999Z</time></trkpt><trkpt lat="43.98867360705388" lon="11.870379768362044"><ele>699.6666666666667</ele><time>2026-05-03T10:21:54.999Z</time></trkpt><trkpt lat="43.988740319648535" lon="11.870382054536394"><ele>696.8333333333334</ele><time>2026-05-03T10:21:55.999Z</time></trkpt><trkpt lat="43.988864225811064" lon="11.870380261091556"><ele>694.0</ele><time>2026-05-03T10:21:57.999Z</time></trkpt><trkpt lat="43.98892922244319" lon="11.870367914596418"><ele>694.0</ele><time>2026-05-03T10:21:58.999Z</time></trkpt><trkpt lat="43.988995628546895" lon="11.870344864169692"><ele>694.0</ele><time>2026-05-03T10:21:59.999Z</time></trkpt><trkpt lat="43.989061345954035" lon="11.870291476960592"><ele>694.0</ele><time>2026-05-03T10:22:00.999Z</time></trkpt><trkpt lat="43.9891368739587" lon="11.870253062469905"><ele>694.0</ele><time>2026-05-03T10:22:01.999Z</time></trkpt><trkpt lat="43.98920384018364" lon="11.870231431225328"><ele>694.0</ele><time>2026-05-03T10:22:02.999Z</time></trkpt><trkpt lat="43.98927008886539" lon="11.87021506239531"><ele>694.0</ele><time>2026-05-03T10:22:03.999Z</time></trkpt><trkpt lat="43.989344267939" lon="11.870174529408594"><ele>694.0</ele><time>2026-05-03T10:22:04.999Z</time></trkpt><trkpt lat="43.98940713139031" lon="11.870121932885002"><ele>694.3333333333334</ele><time>2026-05-03T10:22:05.999Z</time></trkpt><trkpt lat="43.98947304364162" lon="11.870085834568519"><ele>694.6666666666667</ele><time>2026-05-03T10:22:06.999Z</time></trkpt><trkpt lat="43.9895393375173" lon="11.870044131025782"><ele>695.0</ele><time>2026-05-03T10:22:07.999Z</time></trkpt><trkpt lat="43.98962287518565" lon="11.870026438202915"><ele>695.3333333333334</ele><time>2026-05-03T10:22:08.999Z</time></trkpt><trkpt lat="43.989697467708645" lon="11.870013971544674"><ele>695.6666666666666</ele><time>2026-05-03T10:22:09.999Z</time></trkpt><trkpt lat="43.989775303248805" lon="11.870008242423038"><ele>696.0</ele><time>2026-05-03T10:22:11.999Z</time></trkpt><trkpt lat="43.98970508324431" lon="11.870106218214548"><ele>691.5999999999999</ele><time>2026-05-03T10:22:15.999Z</time></trkpt><trkpt lat="43.98962568085913" lon="11.870134105210534"><ele>687.2</ele><time>2026-05-03T10:22:16.999Z</time></trkpt><trkpt lat="43.989547399513924" lon="11.87016026773687"><ele>682.8</ele><time>2026-05-03T10:22:17.999Z</time></trkpt><trkpt lat="43.98948020494959" lon="11.87021406989332"><ele>678.4000000000001</ele><time>2026-05-03T10:22:19Z</time></trkpt><trkpt lat="43.9893824879349" lon="11.870308279650244"><ele>674.0</ele><time>2026-05-03T10:22:21Z</time></trkpt><trkpt lat="43.98931798443081" lon="11.870421351984195"><ele>674.0</ele><time>2026-05-03T10:22:23Z</time></trkpt><trkpt lat="43.989290947275805" lon="11.87053298592809"><ele>674.0</ele><time>2026-05-03T10:22:24Z</time></trkpt><trkpt lat="43.989292218064236" lon="11.870639081883182"><ele>674.0</ele><time>2026-05-03T10:22:25Z</time></trkpt><trkpt lat="43.989287793330995" lon="11.8707373338765"><ele>674.0</ele><time>2026-05-03T10:22:26Z</time></trkpt><trkpt lat="43.989276001162885" lon="11.87082705140329"><ele>674.0</ele><time>2026-05-03T10:22:27Z</time></trkpt><trkpt lat="43.98927961231781" lon="11.870920364091214"><ele>674.0</ele><time>2026-05-03T10:22:28Z</time></trkpt><trkpt lat="43.98927874779676" lon="11.871038445572552"><ele>674.8000000000001</ele><time>2026-05-03T10:22:29Z</time></trkpt><trkpt lat="43.98925583771202" lon="11.871149917536256"><ele>675.6</ele><time>2026-05-03T10:22:30Z</time></trkpt><trkpt lat="43.989224726930914" lon="11.8712937960749"><ele>676.4</ele><time>2026-05-03T10:22:31Z</time></trkpt><trkpt lat="43.989194736854564" lon="11.871429800257284"><ele>677.2</ele><time>2026-05-03T10:22:32Z</time></trkpt><trkpt lat="43.98917565658021" lon="11.871576426610506"><ele>678.0</ele><time>2026-05-03T10:22:33Z</time></trkpt><trkpt lat="43.989153373975405" lon="11.871714020380939"><ele>675.0</ele><time>2026-05-03T10:22:34Z</time></trkpt><trkpt lat="43.9891101747577" lon="11.871831718697573"><ele>672.0</ele><time>2026-05-03T10:22:35Z</time></trkpt><trkpt lat="43.98906243209912" lon="11.871942735142557"><ele>669.0</ele><time>2026-05-03T10:22:36Z</time></trkpt><trkpt lat="43.98900959907923" lon="11.872045299833944"><ele>666.0</ele><time>2026-05-03T10:22:37Z</time></trkpt><trkpt lat="43.988966544799474" lon="11.872148569467209"><ele>663.0</ele><time>2026-05-03T10:22:38Z</time></trkpt><trkpt lat="43.98893268486925" lon="11.872249223845406"><ele>660.0</ele><time>2026-05-03T10:22:39Z</time></trkpt><trkpt lat="43.98888819341406" lon="11.872338907893761"><ele>660.0</ele><time>2026-05-03T10:22:40Z</time></trkpt><trkpt lat="43.988838015882806" lon="11.872408587592757"><ele>660.0</ele><time>2026-05-03T10:22:41Z</time></trkpt><trkpt lat="43.98877648903721" lon="11.87243379606702"><ele>660.0</ele><time>2026-05-03T10:22:42Z</time></trkpt><trkpt lat="43.988679132892344" lon="11.872440692784634"><ele>660.0</ele><time>2026-05-03T10:22:43Z</time></trkpt><trkpt lat="43.98856648910589" lon="11.872446705127661"><ele>660.0</ele><time>2026-05-03T10:22:44Z</time></trkpt><trkpt lat="43.98845666260885" lon="11.872487188414814"><ele>660.0</ele><time>2026-05-03T10:22:45Z</time></trkpt><trkpt lat="43.98835835800585" lon="11.872514783005158"><ele>660.0</ele><time>2026-05-03T10:22:46Z</time></trkpt><trkpt lat="43.98825244669548" lon="11.872530259105158"><ele>660.0</ele><time>2026-05-03T10:22:47Z</time></trkpt><trkpt lat="43.98815691560481" lon="11.87252043566764"><ele>660.0</ele><time>2026-05-03T10:22:48Z</time></trkpt><trkpt lat="43.98806293209116" lon="11.872533409600514"><ele>660.0</ele><time>2026-05-03T10:22:49Z</time></trkpt><trkpt lat="43.987965180960416" lon="11.872562007745467"><ele>661.8</ele><time>2026-05-03T10:22:50Z</time></trkpt><trkpt lat="43.98787280639262" lon="11.872592982675693"><ele>663.6</ele><time>2026-05-03T10:22:51Z</time></trkpt><trkpt lat="43.987785214821585" lon="11.872623957957808"><ele>665.4000000000001</ele><time>2026-05-03T10:22:52Z</time></trkpt><trkpt lat="43.987695411060294" lon="11.872681563466873"><ele>667.2</ele><time>2026-05-03T10:22:53Z</time></trkpt><trkpt lat="43.98761637860927" lon="11.87271381821601"><ele>669.0</ele><time>2026-05-03T10:22:54Z</time></trkpt><trkpt lat="43.987518386622796" lon="11.87277698615892"><ele>665.8333333333334</ele><time>2026-05-03T10:22:56Z</time></trkpt><trkpt lat="43.987483720683336" lon="11.872866270316324"><ele>662.6666666666666</ele><time>2026-05-03T10:22:57Z</time></trkpt><trkpt lat="43.987464668867005" lon="11.872963997328476"><ele>659.5</ele><time>2026-05-03T10:22:58Z</time></trkpt><trkpt lat="43.98744622101107" lon="11.873074635238595"><ele>656.3333333333333</ele><time>2026-05-03T10:22:59Z</time></trkpt><trkpt lat="43.987416358578784" lon="11.873246107384157"><ele>653.1666666666666</ele><time>2026-05-03T10:23:01Z</time></trkpt><trkpt lat="43.98739924679458" lon="11.873332995451369"><ele>650.0</ele><time>2026-05-03T10:23:02Z</time></trkpt><trkpt lat="43.98737343938738" lon="11.873436007200214"><ele>650.0</ele><time>2026-05-03T10:23:03Z</time></trkpt><trkpt lat="43.987332813503535" lon="11.87352823166144"><ele>650.0</ele><time>2026-05-03T10:23:04Z</time></trkpt><trkpt lat="43.987269555700024" lon="11.87355016234265"><ele>650.0</ele><time>2026-05-03T10:23:05Z</time></trkpt><trkpt lat="43.98716533776753" lon="11.873551337531351"><ele>650.0</ele><time>2026-05-03T10:23:07Z</time></trkpt><trkpt lat="43.98709138532678" lon="11.873466323525715"><ele>650.0</ele><time>2026-05-03T10:23:08Z</time></trkpt><trkpt lat="43.986984504351156" lon="11.87340895606347"><ele>650.0</ele><time>2026-05-03T10:23:09Z</time></trkpt><trkpt lat="43.98690106713664" lon="11.873328080589422"><ele>650.0</ele><time>2026-05-03T10:23:10Z</time></trkpt><trkpt lat="43.9868133186279" lon="11.87327574252344"><ele>650.0</ele><time>2026-05-03T10:23:11Z</time></trkpt><trkpt lat="43.986723127185506" lon="11.87325769277618"><ele>650.0</ele><time>2026-05-03T10:23:12Z</time></trkpt><trkpt lat="43.986646021708374" lon="11.8732458377443"><ele>650.0</ele><time>2026-05-03T10:23:13Z</time></trkpt><trkpt lat="43.98657550630951" lon="11.873217590038221"><ele>650.0</ele><time>2026-05-03T10:23:14Z</time></trkpt><trkpt lat="43.986506396367666" lon="11.87322017556991"><ele>648.5</ele><time>2026-05-03T10:23:15Z</time></trkpt><trkpt lat="43.986403982942996" lon="11.873239342606391"><ele>647.0</ele><time>2026-05-03T10:23:17Z</time></trkpt><trkpt lat="43.98635233293431" lon="11.873321322373949"><ele>645.5</ele><time>2026-05-03T10:23:19Z</time></trkpt><trkpt lat="43.98640671790239" lon="11.873515770974269"><ele>644.0</ele><time>2026-05-03T10:23:20Z</time></trkpt><trkpt lat="43.98651062939162" lon="11.873600465250615"><ele>641.6</ele><time>2026-05-03T10:23:21Z</time></trkpt><trkpt lat="43.98659863593215" lon="11.873636314789687"><ele>639.2</ele><time>2026-05-03T10:23:22Z</time></trkpt><trkpt lat="43.98668656349721" lon="11.873675630589176"><ele>636.8000000000001</ele><time>2026-05-03T10:23:23Z</time></trkpt><trkpt lat="43.98677006350548" lon="11.873724209695377"><ele>634.4000000000001</ele><time>2026-05-03T10:23:24Z</time></trkpt><trkpt lat="43.98685649892775" lon="11.873783018352707"><ele>632.0</ele><time>2026-05-03T10:23:25Z</time></trkpt><trkpt lat="43.98694847544037" lon="11.873838184130525"><ele>632.0</ele><time>2026-05-03T10:23:26Z</time></trkpt><trkpt lat="43.98698766208884" lon="11.873963111452573"><ele>632.0</ele><time>2026-05-03T10:23:27Z</time></trkpt><trkpt lat="43.987058308068264" lon="11.87406962934366"><ele>632.0</ele><time>2026-05-03T10:23:28Z</time></trkpt><trkpt lat="43.98711247541163" lon="11.874190902674437"><ele>632.0</ele><time>2026-05-03T10:23:28.999Z</time></trkpt><trkpt lat="43.98715940463674" lon="11.874320484529969"><ele>632.0</ele><time>2026-05-03T10:23:29.999Z</time></trkpt><trkpt lat="43.98722281744854" lon="11.874467959722065"><ele>627.25</ele><time>2026-05-03T10:23:30.999Z</time></trkpt><trkpt lat="43.987279293444494" lon="11.874612315995277"><ele>622.5</ele><time>2026-05-03T10:23:31.999Z</time></trkpt><trkpt lat="43.98733433308339" lon="11.874759458831814"><ele>617.75</ele><time>2026-05-03T10:23:32.999Z</time></trkpt><trkpt lat="43.98738800178827" lon="11.874908556356324"><ele>613.0</ele><time>2026-05-03T10:23:33.999Z</time></trkpt><trkpt lat="43.98744190941253" lon="11.875068687489295"><ele>608.0</ele><time>2026-05-03T10:23:34.999Z</time></trkpt><trkpt lat="43.98748836766617" lon="11.875236392305673"><ele>603.0</ele><time>2026-05-03T10:23:35.999Z</time></trkpt><trkpt lat="43.987534456834226" lon="11.875398924988206"><ele>598.0</ele><time>2026-05-03T10:23:36.999Z</time></trkpt><trkpt lat="43.98757913599311" lon="11.87554556870665"><ele>593.0</ele><time>2026-05-03T10:23:37.999Z</time></trkpt><trkpt lat="43.98762690432589" lon="11.875696133133598"><ele>590.1999999999999</ele><time>2026-05-03T10:23:38.999Z</time></trkpt><trkpt lat="43.98766404652173" lon="11.875812450282705"><ele>587.4</ele><time>2026-05-03T10:23:39.999Z</time></trkpt><trkpt lat="43.98768720802061" lon="11.875919123886497"><ele>584.5999999999999</ele><time>2026-05-03T10:23:40.999Z</time></trkpt><trkpt lat="43.987674363564686" lon="11.87608289504208"><ele>581.8</ele><time>2026-05-03T10:23:42.999Z</time></trkpt><trkpt lat="43.98764326973249" lon="11.876186823911524"><ele>579.0</ele><time>2026-05-03T10:23:43.999Z</time></trkpt><trkpt lat="43.98758194870504" lon="11.876314516064644"><ele>579.3333333333334</ele><time>2026-05-03T10:23:45.999Z</time></trkpt><trkpt lat="43.98755088129489" lon="11.87640113278045"><ele>579.6666666666666</ele><time>2026-05-03T10:23:46.999Z</time></trkpt><trkpt lat="43.98748962592582" lon="11.876480816048298"><ele>580.0</ele><time>2026-05-03T10:23:47.999Z</time></trkpt><trkpt lat="43.98742916956041" lon="11.876546480042492"><ele>580.3333333333333</ele><time>2026-05-03T10:23:48.999Z</time></trkpt><trkpt lat="43.98737558190379" lon="11.876598122807845"><ele>580.6666666666666</ele><time>2026-05-03T10:23:49.999Z</time></trkpt><trkpt lat="43.987282625222385" lon="11.876685649345374"><ele>581.0</ele><time>2026-05-03T10:23:51.999Z</time></trkpt><trkpt lat="43.98723386852091" lon="11.876755658502967"><ele>579.6666666666666</ele><time>2026-05-03T10:23:52.999Z</time></trkpt><trkpt lat="43.9872684516645" lon="11.876861524126861"><ele>578.3333333333333</ele><time>2026-05-03T10:23:55.999Z</time></trkpt><trkpt lat="43.987349811794424" lon="11.876888853128895"><ele>577.0</ele><time>2026-05-03T10:24:11.999Z</time></trkpt><trkpt lat="43.98742843408333" lon="11.876908028620655"><ele>575.6666666666666</ele><time>2026-05-03T10:24:12.999Z</time></trkpt><trkpt lat="43.98751900304372" lon="11.876892022911315"><ele>574.3333333333334</ele><time>2026-05-03T10:24:13.999Z</time></trkpt><trkpt lat="43.98760865382197" lon="11.876894803174434"><ele>573.0</ele><time>2026-05-03T10:24:14.999Z</time></trkpt><trkpt lat="43.98770685032568" lon="11.876891464824004"><ele>571.0</ele><time>2026-05-03T10:24:15.999Z</time></trkpt><trkpt lat="43.987797762421714" lon="11.876865874359464"><ele>569.0</ele><time>2026-05-03T10:24:16.999Z</time></trkpt><trkpt lat="43.98789165271702" lon="11.876821318649075"><ele>567.0</ele><time>2026-05-03T10:24:17.999Z</time></trkpt><trkpt lat="43.98796326723907" lon="11.876746499094592"><ele>565.0</ele><time>2026-05-03T10:24:18.999Z</time></trkpt><trkpt lat="43.98801496711159" lon="11.876650169708693"><ele>563.0</ele><time>2026-05-03T10:24:19.999Z</time></trkpt><trkpt lat="43.98806525999337" lon="11.876525049566082"><ele>563.0</ele><time>2026-05-03T10:24:20.999Z</time></trkpt><trkpt lat="43.98811376571036" lon="11.876410878768747"><ele>563.0</ele><time>2026-05-03T10:24:21.999Z</time></trkpt><trkpt lat="43.98817674306148" lon="11.876316158462126"><ele>563.0</ele><time>2026-05-03T10:24:22.999Z</time></trkpt><trkpt lat="43.98823837612414" lon="11.876210594997142"><ele>563.0</ele><time>2026-05-03T10:24:23.999Z</time></trkpt><trkpt lat="43.98828410112809" lon="11.876101117594198"><ele>563.0</ele><time>2026-05-03T10:24:25Z</time></trkpt><trkpt lat="43.98831788562617" lon="11.875990815002458"><ele>562.0</ele><time>2026-05-03T10:24:26Z</time></trkpt><trkpt lat="43.98834029205791" lon="11.875845193667894"><ele>561.0</ele><time>2026-05-03T10:24:27Z</time></trkpt><trkpt lat="43.9883579240444" lon="11.875701266235783"><ele>560.0</ele><time>2026-05-03T10:24:28Z</time></trkpt><trkpt lat="43.98838706346282" lon="11.875569632415763"><ele>559.0</ele><time>2026-05-03T10:24:29Z</time></trkpt><trkpt lat="43.9884413897013" lon="11.875492592794442"><ele>558.0</ele><time>2026-05-03T10:24:30Z</time></trkpt><trkpt lat="43.988509001158704" lon="11.875504675002693"><ele>558.0</ele><time>2026-05-03T10:24:31Z</time></trkpt><trkpt lat="43.98866168614277" lon="11.87552744763502"><ele>558.0</ele><time>2026-05-03T10:24:33Z</time></trkpt><trkpt lat="43.98878846403621" lon="11.875575414267393"><ele>558.0</ele><time>2026-05-03T10:24:34Z</time></trkpt><trkpt lat="43.98888288410051" lon="11.875631350236404"><ele>558.0</ele><time>2026-05-03T10:24:35Z</time></trkpt><trkpt lat="43.988968176579405" lon="11.875680023380458"><ele>558.0</ele><time>2026-05-03T10:24:36Z</time></trkpt><trkpt lat="43.98906259706102" lon="11.875710791767826"><ele>558.0</ele><time>2026-05-03T10:24:37Z</time></trkpt><trkpt lat="43.98913230196597" lon="11.87571952184713"><ele>558.0</ele><time>2026-05-03T10:24:38Z</time></trkpt><trkpt lat="43.989211663825316" lon="11.87567753607333"><ele>558.0</ele><time>2026-05-03T10:24:39Z</time></trkpt><trkpt lat="43.98925984027833" lon="11.875540560125565"><ele>558.0</ele><time>2026-05-03T10:24:40Z</time></trkpt><trkpt lat="43.98933580402109" lon="11.875460692884378"><ele>556.1999999999999</ele><time>2026-05-03T10:24:41Z</time></trkpt><trkpt lat="43.98940174891776" lon="11.875391358498122"><ele>554.4</ele><time>2026-05-03T10:24:42Z</time></trkpt><trkpt lat="43.98947189343755" lon="11.875317609519099"><ele>552.5999999999999</ele><time>2026-05-03T10:24:43Z</time></trkpt><trkpt lat="43.98953196454142" lon="11.875256072637645"><ele>550.8</ele><time>2026-05-03T10:24:44Z</time></trkpt><trkpt lat="43.98963622821709" lon="11.875165584187787"><ele>549.0</ele><time>2026-05-03T10:24:45Z</time></trkpt><trkpt lat="43.989678496640146" lon="11.875066442437465"><ele>549.0</ele><time>2026-05-03T10:24:46Z</time></trkpt><trkpt lat="43.989752239948736" lon="11.8749768976421"><ele>549.0</ele><time>2026-05-03T10:24:48Z</time></trkpt><trkpt lat="43.98970046098078" lon="11.875072912168202"><ele>549.0</ele><time>2026-05-03T10:24:53Z</time></trkpt><trkpt lat="43.989649929053954" lon="11.875164261051324"><ele>549.0</ele><time>2026-05-03T10:24:54Z</time></trkpt><trkpt lat="43.98958741021821" lon="11.875238323920689"><ele>549.0</ele><time>2026-05-03T10:24:55Z</time></trkpt><trkpt lat="43.98953464081096" lon="11.875292167866702"><ele>549.0</ele><time>2026-05-03T10:24:56Z</time></trkpt><trkpt lat="43.98947688398928" lon="11.875369397433746"><ele>549.0</ele><time>2026-05-03T10:24:57Z</time></trkpt><trkpt lat="43.98942338921049" lon="11.875434006106266"><ele>549.0</ele><time>2026-05-03T10:24:58Z</time></trkpt><trkpt lat="43.989370236306165" lon="11.87548822148938"><ele>549.0</ele><time>2026-05-03T10:24:59Z</time></trkpt><trkpt lat="43.989322877789895" lon="11.875599797162751"><ele>549.0</ele><time>2026-05-03T10:25:01Z</time></trkpt><trkpt lat="43.98936543505427" lon="11.875768167567937"><ele>549.0</ele><time>2026-05-03T10:25:03Z</time></trkpt><trkpt lat="43.98950455609562" lon="11.875833069700162"><ele>549.0</ele><time>2026-05-03T10:25:04Z</time></trkpt><trkpt lat="43.989605475726165" lon="11.875858283822446"><ele>549.0</ele><time>2026-05-03T10:25:05Z</time></trkpt><trkpt lat="43.98970450427503" lon="11.875879706028677"><ele>549.0</ele><time>2026-05-03T10:25:06Z</time></trkpt><trkpt lat="43.98978972906457" lon="11.875879045386522"><ele>549.0</ele><time>2026-05-03T10:25:07Z</time></trkpt><trkpt lat="43.989868160145285" lon="11.875916118693745"><ele>549.0</ele><time>2026-05-03T10:25:08Z</time></trkpt><trkpt lat="43.98993707448882" lon="11.87592912827751"><ele>549.0</ele><time>2026-05-03T10:25:09Z</time></trkpt><trkpt lat="43.990005649900944" lon="11.875948755828777"><ele>544.0</ele><time>2026-05-03T10:25:10Z</time></trkpt><trkpt lat="43.990077158193884" lon="11.87602298790733"><ele>539.0</ele><time>2026-05-03T10:25:12Z</time></trkpt><trkpt lat="43.98999040031586" lon="11.876148645487735"><ele>534.0</ele><time>2026-05-03T10:25:14Z</time></trkpt><trkpt lat="43.98992289645543" lon="11.876261538648043"><ele>529.0</ele><time>2026-05-03T10:25:16Z</time></trkpt><trkpt lat="43.98988895019052" lon="11.876400800538537"><ele>524.0</ele><time>2026-05-03T10:25:18Z</time></trkpt><trkpt lat="43.98994774064928" lon="11.876537946637663"><ele>521.5</ele><time>2026-05-03T10:25:20Z</time></trkpt><trkpt lat="43.99003355596762" lon="11.876539278386637"><ele>519.0</ele><time>2026-05-03T10:25:21Z</time></trkpt><trkpt lat="43.990118923069964" lon="11.876540210263581"><ele>516.5</ele><time>2026-05-03T10:25:22Z</time></trkpt><trkpt lat="43.99019590011611" lon="11.876540509118495"><ele>514.0</ele><time>2026-05-03T10:25:23Z</time></trkpt><trkpt lat="43.990279011426175" lon="11.87653661761363"><ele>511.49999999999994</ele><time>2026-05-03T10:25:24Z</time></trkpt><trkpt lat="43.9903631874811" lon="11.876541696768582"><ele>509.0</ele><time>2026-05-03T10:25:25Z</time></trkpt><trkpt lat="43.990453340997306" lon="11.876558745997556"><ele>508.99999999999994</ele><time>2026-05-03T10:25:26Z</time></trkpt><trkpt lat="43.99053194973384" lon="11.876554078016394"><ele>509.0</ele><time>2026-05-03T10:25:27Z</time></trkpt><trkpt lat="43.990609353828575" lon="11.876540757052128"><ele>509.0</ele><time>2026-05-03T10:25:28Z</time></trkpt><trkpt lat="43.9906831374141" lon="11.876502813832978"><ele>509.0</ele><time>2026-05-03T10:25:29Z</time></trkpt><trkpt lat="43.99076813363991" lon="11.876509735941278"><ele>508.99999999999994</ele><time>2026-05-03T10:25:30Z</time></trkpt><trkpt lat="43.99085983575846" lon="11.876501193210942"><ele>509.0</ele><time>2026-05-03T10:25:31Z</time></trkpt><trkpt lat="43.99093913957827" lon="11.87649511188134"><ele>512.2</ele><time>2026-05-03T10:25:32Z</time></trkpt><trkpt lat="43.99101285586174" lon="11.876486764963495"><ele>515.4</ele><time>2026-05-03T10:25:33Z</time></trkpt><trkpt lat="43.99108451749774" lon="11.876474899214829"><ele>518.6</ele><time>2026-05-03T10:25:33.999Z</time></trkpt><trkpt lat="43.99118290758794" lon="11.876458608231243"><ele>521.8</ele><time>2026-05-03T10:25:35.999Z</time></trkpt><trkpt lat="43.991242941695205" lon="11.876506415507272"><ele>525.0</ele><time>2026-05-03T10:25:38.999Z</time></trkpt><trkpt lat="43.99117493046533" lon="11.876760894940242"><ele>522.5</ele><time>2026-05-03T10:25:42.999Z</time></trkpt><trkpt lat="43.9911759124041" lon="11.876885171399035"><ele>520.0</ele><time>2026-05-03T10:25:43.999Z</time></trkpt><trkpt lat="43.99120151665737" lon="11.877004410411418"><ele>517.5</ele><time>2026-05-03T10:25:44.999Z</time></trkpt><trkpt lat="43.99121422694745" lon="11.877119020721612"><ele>515.0</ele><time>2026-05-03T10:25:45.999Z</time></trkpt><trkpt lat="43.99122627742221" lon="11.877225793914807"><ele>512.5</ele><time>2026-05-03T10:25:46.999Z</time></trkpt><trkpt lat="43.99123637944641" lon="11.87731301169128"><ele>510.0</ele><time>2026-05-03T10:25:47.999Z</time></trkpt><trkpt lat="43.9912612444248" lon="11.877490659333306"><ele>507.75</ele><time>2026-05-03T10:25:49.999Z</time></trkpt><trkpt lat="43.991279611732864" lon="11.8776215135253"><ele>505.5</ele><time>2026-05-03T10:25:51.999Z</time></trkpt><trkpt lat="43.99127491482509" lon="11.877751323992102"><ele>503.25</ele><time>2026-05-03T10:25:54.999Z</time></trkpt><trkpt lat="43.991242429857905" lon="11.877884356407916"><ele>501.0</ele><time>2026-05-03T10:25:56.999Z</time></trkpt><trkpt lat="43.99119768213745" lon="11.878159848560374"><ele>501.0</ele><time>2026-05-03T10:25:59.999Z</time></trkpt><trkpt lat="43.99104126842336" lon="11.878199097852349"><ele>501.0</ele><time>2026-05-03T10:26:00.999Z</time></trkpt><trkpt lat="43.99109950338587" lon="11.877888222925229"><ele>501.0</ele><time>2026-05-03T10:26:01.999Z</time></trkpt><trkpt lat="43.99111771537625" lon="11.87776925665419"><ele>501.0</ele><time>2026-05-03T10:26:04.999Z</time></trkpt><trkpt lat="43.9910971888432" lon="11.877647296017383"><ele>501.0</ele><time>2026-05-03T10:26:06.999Z</time></trkpt><trkpt lat="43.99104996113392" lon="11.877552351635432"><ele>501.0</ele><time>2026-05-03T10:26:08.999Z</time></trkpt><trkpt lat="43.990931856789025" lon="11.877574226440185"><ele>501.0</ele><time>2026-05-03T10:26:09.999Z</time></trkpt><trkpt lat="43.99085784421757" lon="11.87761611941061"><ele>501.0</ele><time>2026-05-03T10:26:10.999Z</time></trkpt><trkpt lat="43.99080519045057" lon="11.87768336939935"><ele>501.0</ele><time>2026-05-03T10:26:11.999Z</time></trkpt><trkpt lat="43.99069992664506" lon="11.877753806982158"><ele>495.6</ele><time>2026-05-03T10:26:13.999Z</time></trkpt><trkpt lat="43.99063005468864" lon="11.877880955550458"><ele>490.20000000000005</ele><time>2026-05-03T10:26:15.999Z</time></trkpt><trkpt lat="43.9905398337329" lon="11.878007865476318"><ele>484.79999999999995</ele><time>2026-05-03T10:26:17.999Z</time></trkpt><trkpt lat="43.99046938097706" lon="11.878073852961403"><ele>479.4</ele><time>2026-05-03T10:26:18.999Z</time></trkpt><trkpt lat="43.990385460542136" lon="11.878133831971752"><ele>474.0</ele><time>2026-05-03T10:26:19.999Z</time></trkpt><trkpt lat="43.990313661343116" lon="11.878183943665903"><ele>474.0</ele><time>2026-05-03T10:26:20.999Z</time></trkpt><trkpt lat="43.99023338320324" lon="11.878237875456435"><ele>474.0</ele><time>2026-05-03T10:26:21.999Z</time></trkpt><trkpt lat="43.990164758990254" lon="11.878258869990754"><ele>474.0</ele><time>2026-05-03T10:26:22.999Z</time></trkpt><trkpt lat="43.99010275865604" lon="11.878349769087405"><ele>474.0</ele><time>2026-05-03T10:26:24.999Z</time></trkpt><trkpt lat="43.99016380190726" lon="11.878543330519125"><ele>474.0</ele><time>2026-05-03T10:26:26.999Z</time></trkpt><trkpt lat="43.99028560838737" lon="11.878531335901407"><ele>472.5</ele><time>2026-05-03T10:26:27.999Z</time></trkpt><trkpt lat="43.99037002398291" lon="11.878544398980871"><ele>471.0</ele><time>2026-05-03T10:26:28.999Z</time></trkpt><trkpt lat="43.99044752936976" lon="11.878567213145642"><ele>469.5</ele><time>2026-05-03T10:26:29.999Z</time></trkpt><trkpt lat="43.990517767144226" lon="11.878591843949362"><ele>468.0</ele><time>2026-05-03T10:26:31Z</time></trkpt><trkpt lat="43.99058045690128" lon="11.878646349959206"><ele>466.5</ele><time>2026-05-03T10:26:35Z</time></trkpt><trkpt lat="43.99052200676215" lon="11.87880670944953"><ele>465.0</ele><time>2026-05-03T10:26:40Z</time></trkpt><trkpt lat="43.990499950677915" lon="11.878919121717242"><ele>465.0</ele><time>2026-05-03T10:26:41Z</time></trkpt><trkpt lat="43.990383673827395" lon="11.87897216858536"><ele>465.0</ele><time>2026-05-03T10:26:42Z</time></trkpt><trkpt lat="43.990379440238826" lon="11.879155116663298"><ele>465.0</ele><time>2026-05-03T10:26:43Z</time></trkpt><trkpt lat="43.99040178429558" lon="11.879307412959177"><ele>465.0</ele><time>2026-05-03T10:26:44Z</time></trkpt><trkpt lat="43.990410964630065" lon="11.879466130602415"><ele>462.2</ele><time>2026-05-03T10:26:45Z</time></trkpt><trkpt lat="43.990425036482" lon="11.879608928641286"><ele>459.4</ele><time>2026-05-03T10:26:46Z</time></trkpt><trkpt lat="43.990463496283034" lon="11.879760632005866"><ele>456.6</ele><time>2026-05-03T10:26:47Z</time></trkpt><trkpt lat="43.99048907114841" lon="11.87985839996004"><ele>453.8</ele><time>2026-05-03T10:26:48Z</time></trkpt><trkpt lat="43.990496755798716" lon="11.879965100863224"><ele>451.0</ele><time>2026-05-03T10:26:49Z</time></trkpt><trkpt lat="43.99049331509851" lon="11.880094524660302"><ele>450.1666666666667</ele><time>2026-05-03T10:26:50Z</time></trkpt><trkpt lat="43.990485141526" lon="11.880208704034606"><ele>449.33333333333337</ele><time>2026-05-03T10:26:51Z</time></trkpt><trkpt lat="43.99046005920653" lon="11.880307900059716"><ele>448.5</ele><time>2026-05-03T10:26:52Z</time></trkpt><trkpt lat="43.990446639618064" lon="11.880400717871774"><ele>447.66666666666663</ele><time>2026-05-03T10:26:53Z</time></trkpt><trkpt lat="43.99043856882811" lon="11.880518626906357"><ele>446.8333333333333</ele><time>2026-05-03T10:26:54Z</time></trkpt><trkpt lat="43.99041285281019" lon="11.880626796943654"><ele>446.0</ele><time>2026-05-03T10:26:55Z</time></trkpt><trkpt lat="43.9904113518781" lon="11.880745256437306"><ele>446.0</ele><time>2026-05-03T10:26:56Z</time></trkpt><trkpt lat="43.99041323697153" lon="11.880868564618732"><ele>446.0</ele><time>2026-05-03T10:26:57Z</time></trkpt><trkpt lat="43.990410060384555" lon="11.881017199001255"><ele>446.0</ele><time>2026-05-03T10:26:58Z</time></trkpt><trkpt lat="43.990393988198456" lon="11.881132143251804"><ele>446.0</ele><time>2026-05-03T10:26:59Z</time></trkpt><trkpt lat="43.990386640651025" lon="11.881255929165256"><ele>446.0</ele><time>2026-05-03T10:27:00Z</time></trkpt><trkpt lat="43.990404345275046" lon="11.88136502659459"><ele>442.8</ele><time>2026-05-03T10:27:01Z</time></trkpt><trkpt lat="43.99041797381898" lon="11.881520337669786"><ele>439.6</ele><time>2026-05-03T10:27:02Z</time></trkpt><trkpt lat="43.99044575519769" lon="11.881638966235734"><ele>436.4</ele><time>2026-05-03T10:27:03Z</time></trkpt><trkpt lat="43.99048850470524" lon="11.881792494671652"><ele>433.2</ele><time>2026-05-03T10:27:04Z</time></trkpt><trkpt lat="43.99052291704804" lon="11.88191696191986"><ele>430.0</ele><time>2026-05-03T10:27:05Z</time></trkpt><trkpt lat="43.99054583320395" lon="11.882011171245066"><ele>424.6</ele><time>2026-05-03T10:27:06Z</time></trkpt><trkpt lat="43.990575692083276" lon="11.882162847949795"><ele>419.2</ele><time>2026-05-03T10:27:08Z</time></trkpt><trkpt lat="43.99060209629681" lon="11.882286480307371"><ele>413.79999999999995</ele><time>2026-05-03T10:27:10Z</time></trkpt><trkpt lat="43.99062546387872" lon="11.882389179710353"><ele>408.4</ele><time>2026-05-03T10:27:11Z</time></trkpt><trkpt lat="43.990644044385895" lon="11.882495590879657"><ele>403.0</ele><time>2026-05-03T10:27:12Z</time></trkpt><trkpt lat="43.99064779417267" lon="11.882673552355957"><ele>399.50000000000006</ele><time>2026-05-03T10:27:14Z</time></trkpt><trkpt lat="43.990639942205625" lon="11.882765343079642"><ele>396.0</ele><time>2026-05-03T10:27:15Z</time></trkpt><trkpt lat="43.990653598115735" lon="11.882981064844683"><ele>392.5</ele><time>2026-05-03T10:27:17Z</time></trkpt><trkpt lat="43.99067061488548" lon="11.883078721877803"><ele>389.0</ele><time>2026-05-03T10:27:18Z</time></trkpt><trkpt lat="43.99069384732422" lon="11.883182676874497"><ele>385.5</ele><time>2026-05-03T10:27:19Z</time></trkpt><trkpt lat="43.99072088251861" lon="11.883278559816382"><ele>382.0</ele><time>2026-05-03T10:27:20Z</time></trkpt><trkpt lat="43.990747216515004" lon="11.883358625830391"><ele>381.16666666666663</ele><time>2026-05-03T10:27:21Z</time></trkpt><trkpt lat="43.99078410441374" lon="11.883447881744905"><ele>380.3333333333333</ele><time>2026-05-03T10:27:22Z</time></trkpt><trkpt lat="43.99085842057656" lon="11.883505072532271"><ele>379.5</ele><time>2026-05-03T10:27:23Z</time></trkpt><trkpt lat="43.990964231144936" lon="11.88346477612085"><ele>378.6666666666667</ele><time>2026-05-03T10:27:24Z</time></trkpt><trkpt lat="43.99102471270445" lon="11.883439551349397"><ele>377.83333333333337</ele><time>2026-05-03T10:27:25Z</time></trkpt><trkpt lat="43.99110363662471" lon="11.883410711764201"><ele>377.0</ele><time>2026-05-03T10:27:27Z</time></trkpt><trkpt lat="43.99107811425225" lon="11.883512724996937"><ele>382.0</ele><time>2026-05-03T10:27:32Z</time></trkpt><trkpt lat="43.991023927723894" lon="11.883599136944099"><ele>387.0</ele><time>2026-05-03T10:27:35Z</time></trkpt><trkpt lat="43.990996436835296" lon="11.883704418685545"><ele>392.0</ele><time>2026-05-03T10:27:38Z</time></trkpt><trkpt lat="43.990970582917186" lon="11.88382068547206"><ele>397.0</ele><time>2026-05-03T10:28:29.999Z</time></trkpt><trkpt lat="43.99095329656456" lon="11.883921573481448"><ele>401.99999999999994</ele><time>2026-05-03T10:28:31.999Z</time></trkpt><trkpt lat="43.99093217042489" lon="11.884008486216095"><ele>407.0</ele><time>2026-05-03T10:28:32.999Z</time></trkpt><trkpt lat="43.99091634616079" lon="11.884167992112362"><ele>405.3333333333333</ele><time>2026-05-03T10:28:34.999Z</time></trkpt><trkpt lat="43.99090175111374" lon="11.884264350591973"><ele>403.66666666666663</ele><time>2026-05-03T10:28:36Z</time></trkpt><trkpt lat="43.990925880536956" lon="11.884371487221161"><ele>402.0</ele><time>2026-05-03T10:28:37Z</time></trkpt><trkpt lat="43.99099742705302" lon="11.8844501725499"><ele>400.33333333333337</ele><time>2026-05-03T10:28:38Z</time></trkpt><trkpt lat="43.99102520464469" lon="11.884543103459777"><ele>398.6666666666667</ele><time>2026-05-03T10:28:39Z</time></trkpt><trkpt lat="43.991077847688665" lon="11.884651410011989"><ele>397.0</ele><time>2026-05-03T10:28:40Z</time></trkpt><trkpt lat="43.991120923311215" lon="11.884751175878066"><ele>397.0</ele><time>2026-05-03T10:28:41Z</time></trkpt><trkpt lat="43.99116067485074" lon="11.884863984715729"><ele>397.0</ele><time>2026-05-03T10:28:42Z</time></trkpt><trkpt lat="43.99119991841315" lon="11.884979995675318"><ele>397.0</ele><time>2026-05-03T10:28:43Z</time></trkpt><trkpt lat="43.99123946390151" lon="11.885096894999979"><ele>397.0</ele><time>2026-05-03T10:28:44Z</time></trkpt><trkpt lat="43.991278754614356" lon="11.885211733181215"><ele>397.0</ele><time>2026-05-03T10:28:45Z</time></trkpt><trkpt lat="43.99132370770306" lon="11.885323712734417"><ele>392.6</ele><time>2026-05-03T10:28:46Z</time></trkpt><trkpt lat="43.991389776929225" lon="11.885428944228805"><ele>388.20000000000005</ele><time>2026-05-03T10:28:47Z</time></trkpt><trkpt lat="43.99144869892523" lon="11.885543430959169"><ele>383.8</ele><time>2026-05-03T10:28:48Z</time></trkpt><trkpt lat="43.99149310449177" lon="11.885657402992932"><ele>379.4</ele><time>2026-05-03T10:28:49Z</time></trkpt><trkpt lat="43.99154760309868" lon="11.885772043367698"><ele>375.0</ele><time>2026-05-03T10:28:50Z</time></trkpt><trkpt lat="43.9915979681678" lon="11.885884627150716"><ele>376.8</ele><time>2026-05-03T10:28:51Z</time></trkpt><trkpt lat="43.99164902560055" lon="11.886005701751387"><ele>378.6</ele><time>2026-05-03T10:28:52Z</time></trkpt><trkpt lat="43.99170003546039" lon="11.886139944487002"><ele>380.4</ele><time>2026-05-03T10:28:53Z</time></trkpt><trkpt lat="43.991749093992354" lon="11.886271340080883"><ele>382.2</ele><time>2026-05-03T10:28:54Z</time></trkpt><trkpt lat="43.991807532988545" lon="11.88639252172364"><ele>384.0</ele><time>2026-05-03T10:28:55Z</time></trkpt><trkpt lat="43.99187216527685" lon="11.886519689336373"><ele>384.0</ele><time>2026-05-03T10:28:56Z</time></trkpt><trkpt lat="43.991932314587814" lon="11.886654159321772"><ele>384.0</ele><time>2026-05-03T10:28:57Z</time></trkpt><trkpt lat="43.99198758926849" lon="11.886789543754029"><ele>384.0</ele><time>2026-05-03T10:28:58Z</time></trkpt><trkpt lat="43.99202445769639" lon="11.886922922435016"><ele>384.0</ele><time>2026-05-03T10:28:59Z</time></trkpt><trkpt lat="43.99204548281504" lon="11.887058195324828"><ele>384.0</ele><time>2026-05-03T10:29:00Z</time></trkpt><trkpt lat="43.99203452800896" lon="11.88717396159171"><ele>385.4</ele><time>2026-05-03T10:29:01Z</time></trkpt><trkpt lat="43.992007134028306" lon="11.887277374914698"><ele>386.79999999999995</ele><time>2026-05-03T10:29:02Z</time></trkpt><trkpt lat="43.9919776703157" lon="11.887398590112834"><ele>388.20000000000005</ele><time>2026-05-03T10:29:03Z</time></trkpt><trkpt lat="43.991943642943305" lon="11.887505164195732"><ele>389.6</ele><time>2026-05-03T10:29:04Z</time></trkpt><trkpt lat="43.99191764841759" lon="11.887633336338519"><ele>391.0</ele><time>2026-05-03T10:29:05Z</time></trkpt><trkpt lat="43.9917959593269" lon="11.887728822277804"><ele>392.0</ele><time>2026-05-03T10:29:06Z</time></trkpt><trkpt lat="43.991730882411545" lon="11.887852072877498"><ele>393.0</ele><time>2026-05-03T10:29:07Z</time></trkpt><trkpt lat="43.99166572355167" lon="11.887973938397375"><ele>394.0</ele><time>2026-05-03T10:29:08Z</time></trkpt><trkpt lat="43.99159940243756" lon="11.888102638552995"><ele>395.0</ele><time>2026-05-03T10:29:09Z</time></trkpt><trkpt lat="43.99154488036053" lon="11.888225089714252"><ele>396.0</ele><time>2026-05-03T10:29:10Z</time></trkpt><trkpt lat="43.9914864013433" lon="11.888355510747338"><ele>391.20000000000005</ele><time>2026-05-03T10:29:11Z</time></trkpt><trkpt lat="43.991432648057554" lon="11.888480314571817"><ele>386.40000000000003</ele><time>2026-05-03T10:29:12Z</time></trkpt><trkpt lat="43.991379080918996" lon="11.888609876097618"><ele>381.6</ele><time>2026-05-03T10:29:13Z</time></trkpt><trkpt lat="43.99132770502859" lon="11.888729188545938"><ele>376.8</ele><time>2026-05-03T10:29:14Z</time></trkpt><trkpt lat="43.991274981331784" lon="11.888854258330214"><ele>372.0</ele><time>2026-05-03T10:29:15Z</time></trkpt><trkpt lat="43.99122273813033" lon="11.888966783214645"><ele>372.0</ele><time>2026-05-03T10:29:16Z</time></trkpt><trkpt lat="43.9911697335638" lon="11.88907312196253"><ele>372.0</ele><time>2026-05-03T10:29:17Z</time></trkpt><trkpt lat="43.99113721296648" lon="11.889198889152889"><ele>372.0</ele><time>2026-05-03T10:29:18Z</time></trkpt><trkpt lat="43.9911096709876" lon="11.889321278794444"><ele>372.0</ele><time>2026-05-03T10:29:19Z</time></trkpt><trkpt lat="43.99108797010749" lon="11.889443692651017"><ele>372.0</ele><time>2026-05-03T10:29:20Z</time></trkpt><trkpt lat="43.991068252193415" lon="11.889584614836977"><ele>369.6</ele><time>2026-05-03T10:29:21Z</time></trkpt><trkpt lat="43.991061972257015" lon="11.889715544524478"><ele>367.20000000000005</ele><time>2026-05-03T10:29:22Z</time></trkpt><trkpt lat="43.991071849391425" lon="11.889846511530521"><ele>364.8</ele><time>2026-05-03T10:29:23Z</time></trkpt><trkpt lat="43.991080871299275" lon="11.889982932586387"><ele>362.4</ele><time>2026-05-03T10:29:24Z</time></trkpt><trkpt lat="43.991096853529505" lon="11.890108220872515"><ele>360.0</ele><time>2026-05-03T10:29:25Z</time></trkpt><trkpt lat="43.99112902818846" lon="11.89022432607282"><ele>356.1666666666667</ele><time>2026-05-03T10:29:26Z</time></trkpt><trkpt lat="43.99117616825404" lon="11.890328157441344"><ele>352.3333333333333</ele><time>2026-05-03T10:29:27Z</time></trkpt><trkpt lat="43.9912394689073" lon="11.890421839246672"><ele>348.5</ele><time>2026-05-03T10:29:28Z</time></trkpt><trkpt lat="43.99130099592183" lon="11.890497985575337"><ele>344.66666666666663</ele><time>2026-05-03T10:29:29Z</time></trkpt><trkpt lat="43.991354886606295" lon="11.890563671864685"><ele>340.8333333333333</ele><time>2026-05-03T10:29:30Z</time></trkpt><trkpt lat="43.99140217480299" lon="11.89062555598983"><ele>337.0</ele><time>2026-05-03T10:29:31Z</time></trkpt><trkpt lat="43.99145384092198" lon="11.890680227057778"><ele>337.0</ele><time>2026-05-03T10:29:32Z</time></trkpt><trkpt lat="43.99153947173566" lon="11.890762076282947"><ele>337.0</ele><time>2026-05-03T10:29:34Z</time></trkpt><trkpt lat="43.991624642423304" lon="11.890861191547438"><ele>337.0</ele><time>2026-05-03T10:29:36Z</time></trkpt><trkpt lat="43.991715718754335" lon="11.890959575893188"><ele>337.0</ele><time>2026-05-03T10:29:38Z</time></trkpt><trkpt lat="43.991811878280664" lon="11.891041762520867"><ele>337.0</ele><time>2026-05-03T10:29:40Z</time></trkpt><trkpt lat="43.991886967597004" lon="11.89113714631147"><ele>335.6</ele><time>2026-05-03T10:29:42Z</time></trkpt><trkpt lat="43.99197043154714" lon="11.891233825223077"><ele>334.20000000000005</ele><time>2026-05-03T10:29:43.999Z</time></trkpt><trkpt lat="43.992023280716964" lon="11.891290677716372"><ele>332.8</ele><time>2026-05-03T10:29:44.999Z</time></trkpt><trkpt lat="43.99211802847242" lon="11.891388767196212"><ele>331.4</ele><time>2026-05-03T10:29:46.999Z</time></trkpt><trkpt lat="43.99218970030218" lon="11.891506861758034"><ele>330.0</ele><time>2026-05-03T10:29:48.999Z</time></trkpt><trkpt lat="43.99221613755167" lon="11.891651238125743"><ele>330.0</ele><time>2026-05-03T10:29:50.999Z</time></trkpt><trkpt lat="43.992231831243075" lon="11.891756119414707"><ele>330.0</ele><time>2026-05-03T10:29:52.999Z</time></trkpt><trkpt lat="43.99223923932572" lon="11.891879913237558"><ele>330.0</ele><time>2026-05-03T10:29:54.999Z</time></trkpt><trkpt lat="43.99223280179516" lon="11.892033766745799"><ele>330.0</ele><time>2026-05-03T10:29:56.999Z</time></trkpt><trkpt lat="43.99218068118736" lon="11.89218894594171"><ele>330.0</ele><time>2026-05-03T10:29:58.999Z</time></trkpt><trkpt lat="43.99216592160151" lon="11.892280303778222"><ele>331.4</ele><time>2026-05-03T10:29:59.999Z</time></trkpt><trkpt lat="43.99215608885532" lon="11.892397747240139"><ele>332.8</ele><time>2026-05-03T10:30:00.999Z</time></trkpt><trkpt lat="43.992146279757236" lon="11.892546032388916"><ele>334.20000000000005</ele><time>2026-05-03T10:30:01.999Z</time></trkpt><trkpt lat="43.99213996518657" lon="11.892714603636337"><ele>335.6</ele><time>2026-05-03T10:30:02.999Z</time></trkpt><trkpt lat="43.992137328825955" lon="11.892887895520115"><ele>337.0</ele><time>2026-05-03T10:30:03.999Z</time></trkpt><trkpt lat="43.99213222269502" lon="11.89306553412786"><ele>337.20000000000005</ele><time>2026-05-03T10:30:04.999Z</time></trkpt><trkpt lat="43.99212137665318" lon="11.893229788622238"><ele>337.4</ele><time>2026-05-03T10:30:05.999Z</time></trkpt><trkpt lat="43.99209756391271" lon="11.893372896072108"><ele>337.6</ele><time>2026-05-03T10:30:06.999Z</time></trkpt><trkpt lat="43.99205976532728" lon="11.893506771674659"><ele>337.79999999999995</ele><time>2026-05-03T10:30:07.999Z</time></trkpt><trkpt lat="43.99199584761226" lon="11.893619084137503"><ele>338.0</ele><time>2026-05-03T10:30:08.999Z</time></trkpt><trkpt lat="43.9919151199569" lon="11.893721855759896"><ele>336.59999999999997</ele><time>2026-05-03T10:30:09.999Z</time></trkpt><trkpt lat="43.99183701794132" lon="11.893824047009574"><ele>335.2</ele><time>2026-05-03T10:30:10.999Z</time></trkpt><trkpt lat="43.99174948858055" lon="11.893923906541264"><ele>333.8</ele><time>2026-05-03T10:30:11.999Z</time></trkpt><trkpt lat="43.991678916811935" lon="11.89402997939016"><ele>332.4</ele><time>2026-05-03T10:30:12.999Z</time></trkpt><trkpt lat="43.99162090647216" lon="11.894145652941106"><ele>331.0</ele><time>2026-05-03T10:30:13.999Z</time></trkpt><trkpt lat="43.99156108585021" lon="11.894271159776217"><ele>331.0</ele><time>2026-05-03T10:30:14.999Z</time></trkpt><trkpt lat="43.99150016676408" lon="11.89439441782204"><ele>331.0</ele><time>2026-05-03T10:30:15.999Z</time></trkpt><trkpt lat="43.99144302768917" lon="11.894527002315554"><ele>331.0</ele><time>2026-05-03T10:30:16.999Z</time></trkpt><trkpt lat="43.99139508204495" lon="11.894677910072184"><ele>331.0</ele><time>2026-05-03T10:30:17.999Z</time></trkpt><trkpt lat="43.9913642020026" lon="11.894847794009912"><ele>331.0</ele><time>2026-05-03T10:30:18.999Z</time></trkpt><trkpt lat="43.99133477316831" lon="11.895025352663497"><ele>331.0</ele><time>2026-05-03T10:30:19.999Z</time></trkpt><trkpt lat="43.991301409783155" lon="11.895192079406316"><ele>331.0</ele><time>2026-05-03T10:30:20.999Z</time></trkpt><trkpt lat="43.99125465269917" lon="11.895340902139006"><ele>331.0</ele><time>2026-05-03T10:30:21.999Z</time></trkpt><trkpt lat="43.991200021150654" lon="11.895477203799922"><ele>334.4</ele><time>2026-05-03T10:30:22.999Z</time></trkpt><trkpt lat="43.991138755494035" lon="11.895596049118579"><ele>337.8</ele><time>2026-05-03T10:30:23.999Z</time></trkpt><trkpt lat="43.99107158296789" lon="11.895723397910855"><ele>341.2</ele><time>2026-05-03T10:30:24.999Z</time></trkpt><trkpt lat="43.990992202109275" lon="11.895828443805717"><ele>344.59999999999997</ele><time>2026-05-03T10:30:25.999Z</time></trkpt><trkpt lat="43.990905898127934" lon="11.895894041156588"><ele>348.0</ele><time>2026-05-03T10:30:26.999Z</time></trkpt><trkpt lat="43.99081131918068" lon="11.895924296129287"><ele>339.79999999999995</ele><time>2026-05-03T10:30:27.999Z</time></trkpt><trkpt lat="43.990717822061654" lon="11.895933619422376"><ele>331.59999999999997</ele><time>2026-05-03T10:30:28.999Z</time></trkpt><trkpt lat="43.990648577002155" lon="11.89597833470775"><ele>323.4</ele><time>2026-05-03T10:30:29.999Z</time></trkpt><trkpt lat="43.990610408873955" lon="11.89608587408694"><ele>315.2</ele><time>2026-05-03T10:30:30.999Z</time></trkpt><trkpt lat="43.990614757977355" lon="11.896214716419507"><ele>307.0</ele><time>2026-05-03T10:30:31.999Z</time></trkpt><trkpt lat="43.99066571329237" lon="11.89638522876892"><ele>307.0</ele><time>2026-05-03T10:30:32.999Z</time></trkpt><trkpt lat="43.990736532228574" lon="11.896577197205554"><ele>307.0</ele><time>2026-05-03T10:30:33.999Z</time></trkpt><trkpt lat="43.99081327502669" lon="11.896785311323718"><ele>307.0</ele><time>2026-05-03T10:30:34.999Z</time></trkpt><trkpt lat="43.990874249578226" lon="11.89696701992399"><ele>311.0</ele><time>2026-05-03T10:30:35.999Z</time></trkpt><trkpt lat="43.990931525893686" lon="11.897128079930996"><ele>315.0</ele><time>2026-05-03T10:30:36.999Z</time></trkpt><trkpt lat="43.9910053767018" lon="11.897275211307152"><ele>319.0</ele><time>2026-05-03T10:30:37.999Z</time></trkpt><trkpt lat="43.99111003142633" lon="11.897401337863297"><ele>323.0</ele><time>2026-05-03T10:30:38.999Z</time></trkpt><trkpt lat="43.99121212415283" lon="11.897516351201935"><ele>318.0</ele><time>2026-05-03T10:30:39.999Z</time></trkpt><trkpt lat="43.99130006060256" lon="11.897648096689968"><ele>313.0</ele><time>2026-05-03T10:30:40.999Z</time></trkpt><trkpt lat="43.991383780787366" lon="11.897816087596684"><ele>308.0</ele><time>2026-05-03T10:30:42Z</time></trkpt><trkpt lat="43.99146698722627" lon="11.897996530316767"><ele>303.0</ele><time>2026-05-03T10:30:43Z</time></trkpt><trkpt lat="43.991559971509034" lon="11.89817877415813"><ele>303.0</ele><time>2026-05-03T10:30:44Z</time></trkpt><trkpt lat="43.991650540573744" lon="11.89836103513497"><ele>303.0</ele><time>2026-05-03T10:30:45Z</time></trkpt><trkpt lat="43.991720254646545" lon="11.898544682751853"><ele>303.0</ele><time>2026-05-03T10:30:46Z</time></trkpt><trkpt lat="43.991800419032295" lon="11.898709549123108"><ele>305.0</ele><time>2026-05-03T10:30:47Z</time></trkpt><trkpt lat="43.99187779612298" lon="11.89886920155149"><ele>307.0</ele><time>2026-05-03T10:30:48Z</time></trkpt><trkpt lat="43.991939573242426" lon="11.899036225915951"><ele>309.0</ele><time>2026-05-03T10:30:49Z</time></trkpt><trkpt lat="43.991981649811216" lon="11.899234363916314"><ele>311.0</ele><time>2026-05-03T10:30:50Z</time></trkpt><trkpt lat="43.99201747951157" lon="11.899437550067757"><ele>311.0</ele><time>2026-05-03T10:30:51Z</time></trkpt><trkpt lat="43.9920434373234" lon="11.899634368534631"><ele>311.0</ele><time>2026-05-03T10:30:52Z</time></trkpt><trkpt lat="43.99207278153409" lon="11.899831182350507"><ele>311.0</ele><time>2026-05-03T10:30:53Z</time></trkpt><trkpt lat="43.992061343427565" lon="11.900022995156869"><ele>311.0</ele><time>2026-05-03T10:30:54Z</time></trkpt><trkpt lat="43.99205458081258" lon="11.900210365745497"><ele>307.0</ele><time>2026-05-03T10:30:55Z</time></trkpt><trkpt lat="43.992031189212355" lon="11.90039334483285"><ele>303.0</ele><time>2026-05-03T10:30:56Z</time></trkpt><trkpt lat="43.99198370323409" lon="11.900578231481798"><ele>299.0</ele><time>2026-05-03T10:30:57Z</time></trkpt><trkpt lat="43.99194046349195" lon="11.900781846047323"><ele>295.0</ele><time>2026-05-03T10:30:58Z</time></trkpt><trkpt lat="43.99188621662344" lon="11.900973217993934"><ele>291.0</ele><time>2026-05-03T10:30:59Z</time></trkpt><trkpt lat="43.991838053294074" lon="11.901164038333011"><ele>287.0</ele><time>2026-05-03T10:31:00Z</time></trkpt><trkpt lat="43.99179113489112" lon="11.9013527057828"><ele>283.0</ele><time>2026-05-03T10:31:01Z</time></trkpt><trkpt lat="43.99173338139513" lon="11.901547394617324"><ele>279.0</ele><time>2026-05-03T10:31:02Z</time></trkpt><trkpt lat="43.99167494130277" lon="11.901745002373145"><ele>276.5</ele><time>2026-05-03T10:31:03Z</time></trkpt><trkpt lat="43.991616503907494" lon="11.901939066100752"><ele>274.0</ele><time>2026-05-03T10:31:04Z</time></trkpt><trkpt lat="43.99156562591721" lon="11.9021155698542"><ele>271.5</ele><time>2026-05-03T10:31:05Z</time></trkpt><trkpt lat="43.99151696066483" lon="11.902290517015125"><ele>269.0</ele><time>2026-05-03T10:31:06Z</time></trkpt><trkpt lat="43.991493519874844" lon="11.902461835516403"><ele>266.75</ele><time>2026-05-03T10:31:07Z</time></trkpt><trkpt lat="43.99150442949159" lon="11.902655130911194"><ele>264.5</ele><time>2026-05-03T10:31:08Z</time></trkpt><trkpt lat="43.991525018868295" lon="11.90286384913998"><ele>262.25</ele><time>2026-05-03T10:31:09Z</time></trkpt><trkpt lat="43.99155216882488" lon="11.903043428117094"><ele>260.0</ele><time>2026-05-03T10:31:10Z</time></trkpt><trkpt lat="43.991590125841775" lon="11.903189175677623"><ele>260.0</ele><time>2026-05-03T10:31:11Z</time></trkpt><trkpt lat="43.991636836798314" lon="11.903320770277334"><ele>260.0</ele><time>2026-05-03T10:31:12Z</time></trkpt><trkpt lat="43.991723067684035" lon="11.903446308856179"><ele>260.0</ele><time>2026-05-03T10:31:13Z</time></trkpt><trkpt lat="43.991832270747295" lon="11.903530098961571"><ele>260.0</ele><time>2026-05-03T10:31:14Z</time></trkpt><trkpt lat="43.991949826870865" lon="11.903594796775435"><ele>261.4</ele><time>2026-05-03T10:31:15Z</time></trkpt><trkpt lat="43.992081756609004" lon="11.903623866306127"><ele>262.8</ele><time>2026-05-03T10:31:16Z</time></trkpt><trkpt lat="43.992182944165314" lon="11.903673618473627"><ele>264.2</ele><time>2026-05-03T10:31:17Z</time></trkpt><trkpt lat="43.99224160331436" lon="11.903741590334462"><ele>265.6</ele><time>2026-05-03T10:31:18Z</time></trkpt><trkpt lat="43.99227295256806" lon="11.903845648681719"><ele>267.0</ele><time>2026-05-03T10:31:19Z</time></trkpt><trkpt lat="43.99228506662932" lon="11.903952217034568"><ele>267.0</ele><time>2026-05-03T10:31:20Z</time></trkpt><trkpt lat="43.99224533836115" lon="11.904053638164958"><ele>267.0</ele><time>2026-05-03T10:31:21Z</time></trkpt><trkpt lat="43.99219224582321" lon="11.904177779503193"><ele>267.0</ele><time>2026-05-03T10:31:22Z</time></trkpt><trkpt lat="43.99214035957398" lon="11.904314009183558"><ele>267.0</ele><time>2026-05-03T10:31:23Z</time></trkpt><trkpt lat="43.99209657834594" lon="11.904439374833787"><ele>267.0</ele><time>2026-05-03T10:31:24Z</time></trkpt><trkpt lat="43.992075853263124" lon="11.904552777016635"><ele>266.5</ele><time>2026-05-03T10:31:25Z</time></trkpt><trkpt lat="43.99206599243244" lon="11.904716069194203"><ele>266.0</ele><time>2026-05-03T10:31:27Z</time></trkpt><trkpt lat="43.992086716092984" lon="11.904816077490876"><ele>265.5</ele><time>2026-05-03T10:31:28Z</time></trkpt><trkpt lat="43.99210617985174" lon="11.90491785219893"><ele>265.0</ele><time>2026-05-03T10:31:29Z</time></trkpt><trkpt lat="43.9921226929149" lon="11.905023289119645"><ele>264.5</ele><time>2026-05-03T10:31:30Z</time></trkpt><trkpt lat="43.99212228922938" lon="11.905133685140465"><ele>264.0</ele><time>2026-05-03T10:31:31Z</time></trkpt><trkpt lat="43.992070066679" lon="11.90524846803681"><ele>263.8</ele><time>2026-05-03T10:31:32Z</time></trkpt><trkpt lat="43.99203853021003" lon="11.905387924570103"><ele>263.59999999999997</ele><time>2026-05-03T10:31:33Z</time></trkpt><trkpt lat="43.99202310779662" lon="11.905508118389823"><ele>263.4</ele><time>2026-05-03T10:31:34Z</time></trkpt><trkpt lat="43.99199685036024" lon="11.905627403657602"><ele>263.2</ele><time>2026-05-03T10:31:35Z</time></trkpt><trkpt lat="43.99198144551943" lon="11.90575304946127"><ele>263.0</ele><time>2026-05-03T10:31:36Z</time></trkpt><trkpt lat="43.99196866245383" lon="11.905889205965597"><ele>262.2</ele><time>2026-05-03T10:31:37Z</time></trkpt><trkpt lat="43.99197132963358" lon="11.906024726899672"><ele>261.4</ele><time>2026-05-03T10:31:38Z</time></trkpt><trkpt lat="43.99199339830409" lon="11.906180557961413"><ele>260.59999999999997</ele><time>2026-05-03T10:31:39Z</time></trkpt><trkpt lat="43.991994409175234" lon="11.906330972189467"><ele>259.8</ele><time>2026-05-03T10:31:40Z</time></trkpt><trkpt lat="43.99201169651348" lon="11.906472329313948"><ele>259.0</ele><time>2026-05-03T10:31:41Z</time></trkpt><trkpt lat="43.99202873056001" lon="11.906604881436488"><ele>259.0</ele><time>2026-05-03T10:31:42Z</time></trkpt><trkpt lat="43.9920452713148" lon="11.906735650023037"><ele>259.0</ele><time>2026-05-03T10:31:43Z</time></trkpt><trkpt lat="43.992059268963196" lon="11.906851731633152"><ele>259.0</ele><time>2026-05-03T10:31:44Z</time></trkpt><trkpt lat="43.99207860358853" lon="11.906952459358997"><ele>259.0</ele><time>2026-05-03T10:31:45Z</time></trkpt><trkpt lat="43.992056422507844" lon="11.907064926776863"><ele>259.0</ele><time>2026-05-03T10:31:46.999Z</time></trkpt><trkpt lat="43.992119578044445" lon="11.907211944909914"><ele>256.75</ele><time>2026-05-03T10:31:59.999Z</time></trkpt><trkpt lat="43.99221470506398" lon="11.907256957247066"><ele>254.5</ele><time>2026-05-03T10:32:00.999Z</time></trkpt><trkpt lat="43.99232241338566" lon="11.90730927409805"><ele>252.25</ele><time>2026-05-03T10:32:01.999Z</time></trkpt><trkpt lat="43.99243799354274" lon="11.907366789094267"><ele>250.0</ele><time>2026-05-03T10:32:02.999Z</time></trkpt><trkpt lat="43.992555477490185" lon="11.907403940696538"><ele>250.0</ele><time>2026-05-03T10:32:03.999Z</time></trkpt><trkpt lat="43.99266954285254" lon="11.90747247787644"><ele>250.0</ele><time>2026-05-03T10:32:04.999Z</time></trkpt><trkpt lat="43.99278589307936" lon="11.907531363116107"><ele>250.0</ele><time>2026-05-03T10:32:05.999Z</time></trkpt><trkpt lat="43.99289800347679" lon="11.907589788205977"><ele>250.0</ele><time>2026-05-03T10:32:06.999Z</time></trkpt><trkpt lat="43.993011122532714" lon="11.907673593611237"><ele>248.0</ele><time>2026-05-03T10:32:07.999Z</time></trkpt><trkpt lat="43.99313606082395" lon="11.90773970794125"><ele>246.0</ele><time>2026-05-03T10:32:08.999Z</time></trkpt><trkpt lat="43.99325696477998" lon="11.907803649402664"><ele>244.0</ele><time>2026-05-03T10:32:09.999Z</time></trkpt><trkpt lat="43.993380770957124" lon="11.9078704994324"><ele>242.0</ele><time>2026-05-03T10:32:10.999Z</time></trkpt><trkpt lat="43.99350419717375" lon="11.907937202395136"><ele>242.0</ele><time>2026-05-03T10:32:11.999Z</time></trkpt><trkpt lat="43.993624490829575" lon="11.90800217097939"><ele>242.0</ele><time>2026-05-03T10:32:12.999Z</time></trkpt><trkpt lat="43.993735259249014" lon="11.908060242234818"><ele>242.0</ele><time>2026-05-03T10:32:13.999Z</time></trkpt><trkpt lat="43.993847510885985" lon="11.908119269771056"><ele>242.0</ele><time>2026-05-03T10:32:14.999Z</time></trkpt><trkpt lat="43.993964582280896" lon="11.908182221964895"><ele>242.0</ele><time>2026-05-03T10:32:15.999Z</time></trkpt><trkpt lat="43.994079877286204" lon="11.908247261782662"><ele>242.0</ele><time>2026-05-03T10:32:16.999Z</time></trkpt><trkpt lat="43.99418930659552" lon="11.908311488635812"><ele>242.0</ele><time>2026-05-03T10:32:17.999Z</time></trkpt><trkpt lat="43.99428597765463" lon="11.908376132851346"><ele>242.0</ele><time>2026-05-03T10:32:18.999Z</time></trkpt><trkpt lat="43.994378138343635" lon="11.908442404363491"><ele>241.50000000000003</ele><time>2026-05-03T10:32:19.999Z</time></trkpt><trkpt lat="43.99445759213753" lon="11.908501661187447"><ele>241.0</ele><time>2026-05-03T10:32:20.999Z</time></trkpt><trkpt lat="43.994529069429156" lon="11.90855496919927"><ele>240.5</ele><time>2026-05-03T10:32:21.999Z</time></trkpt><trkpt lat="43.99460730106489" lon="11.9085814403302"><ele>240.0</ele><time>2026-05-03T10:32:22.999Z</time></trkpt><trkpt lat="43.99467299536683" lon="11.908631221150538"><ele>239.50000000000003</ele><time>2026-05-03T10:32:23.999Z</time></trkpt><trkpt lat="43.99473645493773" lon="11.908669358446655"><ele>239.0</ele><time>2026-05-03T10:32:24.999Z</time></trkpt><trkpt lat="43.99481828272121" lon="11.908680418658232"><ele>239.00000000000003</ele><time>2026-05-03T10:32:26.999Z</time></trkpt><trkpt lat="43.99488262169759" lon="11.9086748019705"><ele>239.0</ele><time>2026-05-03T10:32:33.999Z</time></trkpt><trkpt lat="43.99491904721812" lon="11.908752174504693"><ele>239.00000000000003</ele><time>2026-05-03T10:34:13.999Z</time></trkpt><trkpt lat="43.99498337133498" lon="11.908759455579695"><ele>239.00000000000003</ele><time>2026-05-03T10:35:06Z</time></trkpt><trkpt lat="43.9949859851073" lon="11.908852376664651"><ele>239.0</ele><time>2026-05-03T10:37:00Z</time></trkpt><trkpt lat="43.99502325148779" lon="11.908758694776724"><ele>239.00000000000003</ele><time>2026-05-03T10:38:46.999Z</time></trkpt><trkpt lat="43.99506214396667" lon="11.908829693742595"><ele>239.00000000000003</ele><time>2026-05-03T10:38:55.999Z</time></trkpt><trkpt lat="43.995113783251405" lon="11.908881995872107"><ele>240.0</ele><time>2026-05-03T10:39:05.999Z</time></trkpt></trkseg></trk></gpx>